<?xml version="1.0" encoding="utf-8"?>
<gpx xmlns:xsi="http://www.w3.org/2001/XMLSchema-instance" xmlns:xsd="http://www.w3.org/2001/XMLSchema" version="1.1" creator="Shapelink.com" xmlns="http://www.topografix.com/GPX/1/1" xmlns:gpxtpx="http://www.garmin.com/xmlschemas/TrackPointExtension/v1">
  <metadata>
    <name>Alpine skiing 27.67 km, 2019-01-08</name>
    <desc></desc>
    <author><name>Stefan Östlund</name></author> 
    <time>2019-01-08T10:43:21Z</time>
  </metadata>
  <trk>
    <name>Alpine skiing 27.67 km, 2019-01-08</name>
    <trkseg>
      <trkpt lat="37.062969163047" lon="-3.373810387479">
        <ele>3025.8</ele>
        <time>2019-01-08T10:43:21Z</time>
      </trkpt>
      <trkpt lat="37.062962708984" lon="-3.373956064901">
        <ele>3023.8</ele>
        <time>2019-01-08T10:43:23Z</time>
      </trkpt>
      <trkpt lat="37.062986597399" lon="-3.374015827848">
        <ele>3022.4</ele>
        <time>2019-01-08T10:43:24Z</time>
      </trkpt>
      <trkpt lat="37.063009731443" lon="-3.37407433351">
        <ele>3020.8</ele>
        <time>2019-01-08T10:43:25Z</time>
      </trkpt>
      <trkpt lat="37.06304770145" lon="-3.374123702901">
        <ele>3019</ele>
        <time>2019-01-08T10:43:26Z</time>
      </trkpt>
      <trkpt lat="37.063087431656" lon="-3.374168378428">
        <ele>3017.2</ele>
        <time>2019-01-08T10:43:27Z</time>
      </trkpt>
      <trkpt lat="37.063113834641" lon="-3.374224537158">
        <ele>3015.2</ele>
        <time>2019-01-08T10:43:28Z</time>
      </trkpt>
      <trkpt lat="37.063142919834" lon="-3.374266027563">
        <ele>3013</ele>
        <time>2019-01-08T10:43:29Z</time>
      </trkpt>
      <trkpt lat="37.063179045823" lon="-3.374291759996">
        <ele>3010.8</ele>
        <time>2019-01-08T10:43:30Z</time>
      </trkpt>
      <trkpt lat="37.063199162383" lon="-3.374334759143">
        <ele>3009.2</ele>
        <time>2019-01-08T10:43:31Z</time>
      </trkpt>
      <trkpt lat="37.063214165984" lon="-3.374387648932">
        <ele>3007.4</ele>
        <time>2019-01-08T10:43:32Z</time>
      </trkpt>
      <trkpt lat="37.063247358308" lon="-3.374436347771">
        <ele>3005.8</ele>
        <time>2019-01-08T10:43:33Z</time>
      </trkpt>
      <trkpt lat="37.063268396877" lon="-3.374503654428">
        <ele>3004.2</ele>
        <time>2019-01-08T10:43:34Z</time>
      </trkpt>
      <trkpt lat="37.063283484297" lon="-3.374579594442">
        <ele>3002.8</ele>
        <time>2019-01-08T10:43:35Z</time>
      </trkpt>
      <trkpt lat="37.06330754035" lon="-3.374654025714">
        <ele>3001.2</ele>
        <time>2019-01-08T10:43:36Z</time>
      </trkpt>
      <trkpt lat="37.063322795408" lon="-3.374730887737">
        <ele>2999</ele>
        <time>2019-01-08T10:43:37Z</time>
      </trkpt>
      <trkpt lat="37.063336960819" lon="-3.37480691157">
        <ele>2997</ele>
        <time>2019-01-08T10:43:38Z</time>
      </trkpt>
      <trkpt lat="37.063361352148" lon="-3.374882600127">
        <ele>2994.6</ele>
        <time>2019-01-08T10:43:39Z</time>
      </trkpt>
      <trkpt lat="37.063379540871" lon="-3.374965413299">
        <ele>2992.2</ele>
        <time>2019-01-08T10:43:40Z</time>
      </trkpt>
      <trkpt lat="37.063401501449" lon="-3.375056356914">
        <ele>2989.8</ele>
        <time>2019-01-08T10:43:41Z</time>
      </trkpt>
      <trkpt lat="37.063437543619" lon="-3.375146629977">
        <ele>2987.6</ele>
        <time>2019-01-08T10:43:42Z</time>
      </trkpt>
      <trkpt lat="37.063466125898" lon="-3.37525282865">
        <ele>2985</ele>
        <time>2019-01-08T10:43:43Z</time>
      </trkpt>
      <trkpt lat="37.063452966315" lon="-3.375389872715">
        <ele>2982.2</ele>
        <time>2019-01-08T10:43:44Z</time>
      </trkpt>
      <trkpt lat="37.063444584415" lon="-3.375508644238">
        <ele>2979.8</ele>
        <time>2019-01-08T10:43:45Z</time>
      </trkpt>
      <trkpt lat="37.063451038478" lon="-3.375617106024">
        <ele>2977.6</ele>
        <time>2019-01-08T10:43:46Z</time>
      </trkpt>
      <trkpt lat="37.063439890551" lon="-3.375717437367">
        <ele>2975</ele>
        <time>2019-01-08T10:43:47Z</time>
      </trkpt>
      <trkpt lat="37.063403764562" lon="-3.37579429939">
        <ele>2972.4</ele>
        <time>2019-01-08T10:43:48Z</time>
      </trkpt>
      <trkpt lat="37.063362441795" lon="-3.375868311567">
        <ele>2970.4</ele>
        <time>2019-01-08T10:43:49Z</time>
      </trkpt>
      <trkpt lat="37.063334613887" lon="-3.375943664848">
        <ele>2969</ele>
        <time>2019-01-08T10:43:50Z</time>
      </trkpt>
      <trkpt lat="37.063315838431" lon="-3.376015916826">
        <ele>2968</ele>
        <time>2019-01-08T10:43:51Z</time>
      </trkpt>
      <trkpt lat="37.063286669419" lon="-3.376074087212">
        <ele>2967</ele>
        <time>2019-01-08T10:43:52Z</time>
      </trkpt>
      <trkpt lat="37.06323964696" lon="-3.376102585672">
        <ele>2965.8</ele>
        <time>2019-01-08T10:43:53Z</time>
      </trkpt>
      <trkpt lat="37.063184661696" lon="-3.376119181834">
        <ele>2964.6</ele>
        <time>2019-01-08T10:43:54Z</time>
      </trkpt>
      <trkpt lat="37.063133364468" lon="-3.376149775769">
        <ele>2963.8</ele>
        <time>2019-01-08T10:43:55Z</time>
      </trkpt>
      <trkpt lat="37.063081899602" lon="-3.376170311424">
        <ele>2963</ele>
        <time>2019-01-08T10:43:56Z</time>
      </trkpt>
      <trkpt lat="37.063021885198" lon="-3.376177436039">
        <ele>2961.8</ele>
        <time>2019-01-08T10:43:57Z</time>
      </trkpt>
      <trkpt lat="37.062965307373" lon="-3.376207275603">
        <ele>2960.8</ele>
        <time>2019-01-08T10:43:58Z</time>
      </trkpt>
      <trkpt lat="37.0629094001" lon="-3.376238707728">
        <ele>2959.6</ele>
        <time>2019-01-08T10:43:59Z</time>
      </trkpt>
      <trkpt lat="37.062844188918" lon="-3.376251280578">
        <ele>2958.2</ele>
        <time>2019-01-08T10:44:00Z</time>
      </trkpt>
      <trkpt lat="37.062768500361" lon="-3.376259997754">
        <ele>2957</ele>
        <time>2019-01-08T10:44:01Z</time>
      </trkpt>
      <trkpt lat="37.062692895623" lon="-3.376295453191">
        <ele>2955.8</ele>
        <time>2019-01-08T10:44:02Z</time>
      </trkpt>
      <trkpt lat="37.062616704152" lon="-3.376348510618">
        <ele>2954.6</ele>
        <time>2019-01-08T10:44:03Z</time>
      </trkpt>
      <trkpt lat="37.06253137641" lon="-3.376391174489">
        <ele>2953.4</ele>
        <time>2019-01-08T10:44:04Z</time>
      </trkpt>
      <trkpt lat="37.062446886858" lon="-3.376427384297">
        <ele>2952.2</ele>
        <time>2019-01-08T10:44:05Z</time>
      </trkpt>
      <trkpt lat="37.06239642782" lon="-3.376493098393">
        <ele>2951.2</ele>
        <time>2019-01-08T10:44:06Z</time>
      </trkpt>
      <trkpt lat="37.06235284194" lon="-3.376559147765">
        <ele>2950.2</ele>
        <time>2019-01-08T10:44:07Z</time>
      </trkpt>
      <trkpt lat="37.062313782286" lon="-3.376626202965">
        <ele>2949</ele>
        <time>2019-01-08T10:44:08Z</time>
      </trkpt>
      <trkpt lat="37.062248403466" lon="-3.376779927011">
        <ele>2947.2</ele>
        <time>2019-01-08T10:44:10Z</time>
      </trkpt>
      <trkpt lat="37.062264580533" lon="-3.376928202822">
        <ele>2945.2</ele>
        <time>2019-01-08T10:44:12Z</time>
      </trkpt>
      <trkpt lat="37.062310513345" lon="-3.376966759562">
        <ele>2944.2</ele>
        <time>2019-01-08T10:44:13Z</time>
      </trkpt>
      <trkpt lat="37.062361559116" lon="-3.376982768991">
        <ele>2942.6</ele>
        <time>2019-01-08T10:44:14Z</time>
      </trkpt>
      <trkpt lat="37.062409252127" lon="-3.377011518908">
        <ele>2941</ele>
        <time>2019-01-08T10:44:15Z</time>
      </trkpt>
      <trkpt lat="37.062474295671" lon="-3.377063654326">
        <ele>2939.4</ele>
        <time>2019-01-08T10:44:16Z</time>
      </trkpt>
      <trkpt lat="37.06256658039" lon="-3.377122495264">
        <ele>2938.2</ele>
        <time>2019-01-08T10:44:17Z</time>
      </trkpt>
      <trkpt lat="37.062671186502" lon="-3.377193406138">
        <ele>2937</ele>
        <time>2019-01-08T10:44:18Z</time>
      </trkpt>
      <trkpt lat="37.062762046298" lon="-3.377294575671">
        <ele>2934.8</ele>
        <time>2019-01-08T10:44:19Z</time>
      </trkpt>
      <trkpt lat="37.062845865298" lon="-3.377419885076">
        <ele>2932.2</ele>
        <time>2019-01-08T10:44:20Z</time>
      </trkpt>
      <trkpt lat="37.062919709837" lon="-3.377537986047">
        <ele>2929.2</ele>
        <time>2019-01-08T10:44:21Z</time>
      </trkpt>
      <trkpt lat="37.062970755608" lon="-3.377665307108">
        <ele>2926</ele>
        <time>2019-01-08T10:44:22Z</time>
      </trkpt>
      <trkpt lat="37.062995146937" lon="-3.377794723644">
        <ele>2922.4</ele>
        <time>2019-01-08T10:44:23Z</time>
      </trkpt>
      <trkpt lat="37.063005289036" lon="-3.377916428832">
        <ele>2919</ele>
        <time>2019-01-08T10:44:24Z</time>
      </trkpt>
      <trkpt lat="37.063010988728" lon="-3.378016257261">
        <ele>2917</ele>
        <time>2019-01-08T10:44:25Z</time>
      </trkpt>
      <trkpt lat="37.063002606828" lon="-3.378101249727">
        <ele>2915.8</ele>
        <time>2019-01-08T10:44:26Z</time>
      </trkpt>
      <trkpt lat="37.062945274632" lon="-3.378285735346">
        <ele>2914.8</ele>
        <time>2019-01-08T10:44:29Z</time>
      </trkpt>
      <trkpt lat="37.062937563284" lon="-3.378445913455">
        <ele>2914.6</ele>
        <time>2019-01-08T10:44:32Z</time>
      </trkpt>
      <trkpt lat="37.06287000517" lon="-3.378613635274">
        <ele>2914.4</ele>
        <time>2019-01-08T10:44:36Z</time>
      </trkpt>
      <trkpt lat="37.062816528648" lon="-3.378663591398">
        <ele>2913.8</ele>
        <time>2019-01-08T10:44:38Z</time>
      </trkpt>
      <trkpt lat="37.062768081266" lon="-3.378677086257">
        <ele>2913.4</ele>
        <time>2019-01-08T10:44:40Z</time>
      </trkpt>
      <trkpt lat="37.062697673306" lon="-3.378618580595">
        <ele>2913.4</ele>
        <time>2019-01-08T10:44:46Z</time>
      </trkpt>
      <trkpt lat="37.057041734824" lon="-3.369945661027">
        <ele>3259.8</ele>
        <time>2019-01-08T10:54:27Z</time>
      </trkpt>
      <trkpt lat="37.057019019875" lon="-3.370004753422">
        <ele>3258.6</ele>
        <time>2019-01-08T10:54:29Z</time>
      </trkpt>
      <trkpt lat="37.056973589977" lon="-3.370086057852">
        <ele>3257.6</ele>
        <time>2019-01-08T10:54:31Z</time>
      </trkpt>
      <trkpt lat="37.056916928333" lon="-3.370182198245">
        <ele>3255.8</ele>
        <time>2019-01-08T10:54:33Z</time>
      </trkpt>
      <trkpt lat="37.056919610541" lon="-3.370246068323">
        <ele>3254.6</ele>
        <time>2019-01-08T10:54:34Z</time>
      </trkpt>
      <trkpt lat="37.056942493128" lon="-3.370305998908">
        <ele>3253.4</ele>
        <time>2019-01-08T10:54:35Z</time>
      </trkpt>
      <trkpt lat="37.05694735463" lon="-3.370371629185">
        <ele>3251.8</ele>
        <time>2019-01-08T10:54:36Z</time>
      </trkpt>
      <trkpt lat="37.056960262756" lon="-3.370432062684">
        <ele>3250.2</ele>
        <time>2019-01-08T10:54:37Z</time>
      </trkpt>
      <trkpt lat="37.056983480619" lon="-3.370489311061">
        <ele>3248.4</ele>
        <time>2019-01-08T10:54:38Z</time>
      </trkpt>
      <trkpt lat="37.057010302699" lon="-3.370560389573">
        <ele>3246.6</ele>
        <time>2019-01-08T10:54:39Z</time>
      </trkpt>
      <trkpt lat="37.057052715113" lon="-3.370630126981">
        <ele>3244.4</ele>
        <time>2019-01-08T10:54:40Z</time>
      </trkpt>
      <trkpt lat="37.057076938804" lon="-3.370711263773">
        <ele>3242.4</ele>
        <time>2019-01-08T10:54:41Z</time>
      </trkpt>
      <trkpt lat="37.057096971545" lon="-3.370795920963">
        <ele>3240</ele>
        <time>2019-01-08T10:54:42Z</time>
      </trkpt>
      <trkpt lat="37.057149442239" lon="-3.370856103005">
        <ele>3237.8</ele>
        <time>2019-01-08T10:54:43Z</time>
      </trkpt>
      <trkpt lat="37.057178527432" lon="-3.370920140721">
        <ele>3235.4</ele>
        <time>2019-01-08T10:54:44Z</time>
      </trkpt>
      <trkpt lat="37.057198057259" lon="-3.371007899214">
        <ele>3233</ele>
        <time>2019-01-08T10:54:45Z</time>
      </trkpt>
      <trkpt lat="37.057238625655" lon="-3.371078390993">
        <ele>3230.6</ele>
        <time>2019-01-08T10:54:46Z</time>
      </trkpt>
      <trkpt lat="37.057269638685" lon="-3.37116497602">
        <ele>3227.8</ele>
        <time>2019-01-08T10:54:47Z</time>
      </trkpt>
      <trkpt lat="37.057303920656" lon="-3.371251980142">
        <ele>3225.4</ele>
        <time>2019-01-08T10:54:48Z</time>
      </trkpt>
      <trkpt lat="37.057326803243" lon="-3.371328255432">
        <ele>3223</ele>
        <time>2019-01-08T10:54:49Z</time>
      </trkpt>
      <trkpt lat="37.057348177088" lon="-3.371409559862">
        <ele>3220.4</ele>
        <time>2019-01-08T10:54:50Z</time>
      </trkpt>
      <trkpt lat="37.057395283366" lon="-3.371478123804">
        <ele>3217.6</ele>
        <time>2019-01-08T10:54:51Z</time>
      </trkpt>
      <trkpt lat="37.057444485119" lon="-3.371538473484">
        <ele>3214.6</ele>
        <time>2019-01-08T10:54:52Z</time>
      </trkpt>
      <trkpt lat="37.057483963868" lon="-3.371618939724">
        <ele>3211.8</ele>
        <time>2019-01-08T10:54:53Z</time>
      </trkpt>
      <trkpt lat="37.057530399594" lon="-3.371695298833">
        <ele>3209.2</ele>
        <time>2019-01-08T10:54:54Z</time>
      </trkpt>
      <trkpt lat="37.057572392913" lon="-3.371763778956">
        <ele>3206.4</ele>
        <time>2019-01-08T10:54:55Z</time>
      </trkpt>
      <trkpt lat="37.057609357092" lon="-3.371843826101">
        <ele>3203.6</ele>
        <time>2019-01-08T10:54:56Z</time>
      </trkpt>
      <trkpt lat="37.057645818357" lon="-3.371933763888">
        <ele>3200.6</ele>
        <time>2019-01-08T10:54:57Z</time>
      </trkpt>
      <trkpt lat="37.057679765052" lon="-3.372032921765">
        <ele>3197.8</ele>
        <time>2019-01-08T10:54:58Z</time>
      </trkpt>
      <trkpt lat="37.057728044796" lon="-3.37211715986">
        <ele>3195.4</ele>
        <time>2019-01-08T10:54:59Z</time>
      </trkpt>
      <trkpt lat="37.057776240721" lon="-3.372182371042">
        <ele>3192.4</ele>
        <time>2019-01-08T10:55:00Z</time>
      </trkpt>
      <trkpt lat="37.057812869624" lon="-3.372251773174">
        <ele>3189.2</ele>
        <time>2019-01-08T10:55:01Z</time>
      </trkpt>
      <trkpt lat="37.05785930535" lon="-3.372328886654">
        <ele>3186</ele>
        <time>2019-01-08T10:55:02Z</time>
      </trkpt>
      <trkpt lat="37.057897359176" lon="-3.372411532188">
        <ele>3183.6</ele>
        <time>2019-01-08T10:55:03Z</time>
      </trkpt>
      <trkpt lat="37.05793977159" lon="-3.372489986772">
        <ele>3181</ele>
        <time>2019-01-08T10:55:04Z</time>
      </trkpt>
      <trkpt lat="37.05798251928" lon="-3.372569279546">
        <ele>3178.4</ele>
        <time>2019-01-08T10:55:05Z</time>
      </trkpt>
      <trkpt lat="37.058008922265" lon="-3.372662486274">
        <ele>3175</ele>
        <time>2019-01-08T10:55:06Z</time>
      </trkpt>
      <trkpt lat="37.058042701322" lon="-3.372751502052">
        <ele>3172.2</ele>
        <time>2019-01-08T10:55:07Z</time>
      </trkpt>
      <trkpt lat="37.058077150931" lon="-3.372834901957">
        <ele>3169.6</ele>
        <time>2019-01-08T10:55:08Z</time>
      </trkpt>
      <trkpt lat="37.058109337427" lon="-3.372923079545">
        <ele>3166.8</ele>
        <time>2019-01-08T10:55:09Z</time>
      </trkpt>
      <trkpt lat="37.058147558891" lon="-3.373005808898">
        <ele>3163.8</ele>
        <time>2019-01-08T10:55:10Z</time>
      </trkpt>
      <trkpt lat="37.058183265785" lon="-3.373099183264">
        <ele>3160.6</ele>
        <time>2019-01-08T10:55:11Z</time>
      </trkpt>
      <trkpt lat="37.058215787557" lon="-3.373188785775">
        <ele>3158.4</ele>
        <time>2019-01-08T10:55:12Z</time>
      </trkpt>
      <trkpt lat="37.058264486396" lon="-3.373246704704">
        <ele>3156.2</ele>
        <time>2019-01-08T10:55:13Z</time>
      </trkpt>
      <trkpt lat="37.058306144439" lon="-3.373298001932">
        <ele>3153.6</ele>
        <time>2019-01-08T10:55:14Z</time>
      </trkpt>
      <trkpt lat="37.05832114804" lon="-3.373373522851">
        <ele>3150.6</ele>
        <time>2019-01-08T10:55:15Z</time>
      </trkpt>
      <trkpt lat="37.058357022572" lon="-3.373437812024">
        <ele>3147.8</ele>
        <time>2019-01-08T10:55:16Z</time>
      </trkpt>
      <trkpt lat="37.058404799402" lon="-3.373487013777">
        <ele>3145.4</ele>
        <time>2019-01-08T10:55:17Z</time>
      </trkpt>
      <trkpt lat="37.058447463273" lon="-3.373530432019">
        <ele>3143.2</ele>
        <time>2019-01-08T10:55:18Z</time>
      </trkpt>
      <trkpt lat="37.0584502293" lon="-3.373581226333">
        <ele>3140.8</ele>
        <time>2019-01-08T10:55:19Z</time>
      </trkpt>
      <trkpt lat="37.058425251238" lon="-3.37362674005">
        <ele>3138.8</ele>
        <time>2019-01-08T10:55:20Z</time>
      </trkpt>
      <trkpt lat="37.058410499094" lon="-3.373663285134">
        <ele>3137</ele>
        <time>2019-01-08T10:55:21Z</time>
      </trkpt>
      <trkpt lat="37.058417036976" lon="-3.373686335359">
        <ele>3135.8</ele>
        <time>2019-01-08T10:55:22Z</time>
      </trkpt>
      <trkpt lat="37.058431705301" lon="-3.373684910436">
        <ele>3134.6</ele>
        <time>2019-01-08T10:55:23Z</time>
      </trkpt>
      <trkpt lat="37.058444278151" lon="-3.373684239884">
        <ele>3133.2</ele>
        <time>2019-01-08T10:55:24Z</time>
      </trkpt>
      <trkpt lat="37.058457940648" lon="-3.373688263196">
        <ele>3132</ele>
        <time>2019-01-08T10:55:25Z</time>
      </trkpt>
      <trkpt lat="37.058474452991" lon="-3.373691113042">
        <ele>3131</ele>
        <time>2019-01-08T10:55:26Z</time>
      </trkpt>
      <trkpt lat="37.058531282273" lon="-3.373724473004">
        <ele>3129.6</ele>
        <time>2019-01-08T10:55:28Z</time>
      </trkpt>
      <trkpt lat="37.058554081041" lon="-3.373765795771">
        <ele>3128.8</ele>
        <time>2019-01-08T10:55:29Z</time>
      </trkpt>
      <trkpt lat="37.058572102126" lon="-3.373827235098">
        <ele>3128</ele>
        <time>2019-01-08T10:55:30Z</time>
      </trkpt>
      <trkpt lat="37.05860194169" lon="-3.373879202878">
        <ele>3127</ele>
        <time>2019-01-08T10:55:31Z</time>
      </trkpt>
      <trkpt lat="37.05863546929" lon="-3.373922537301">
        <ele>3125.6</ele>
        <time>2019-01-08T10:55:32Z</time>
      </trkpt>
      <trkpt lat="37.05864385119" lon="-3.373977019651">
        <ele>3123.6</ele>
        <time>2019-01-08T10:55:33Z</time>
      </trkpt>
      <trkpt lat="37.058638486774" lon="-3.374036195865">
        <ele>3121.4</ele>
        <time>2019-01-08T10:55:34Z</time>
      </trkpt>
      <trkpt lat="37.058662123732" lon="-3.374078775917">
        <ele>3119.2</ele>
        <time>2019-01-08T10:55:35Z</time>
      </trkpt>
      <trkpt lat="37.058704368508" lon="-3.374102412875">
        <ele>3117</ele>
        <time>2019-01-08T10:55:36Z</time>
      </trkpt>
      <trkpt lat="37.058732447873" lon="-3.374156979044">
        <ele>3114.6</ele>
        <time>2019-01-08T10:55:37Z</time>
      </trkpt>
      <trkpt lat="37.058751307148" lon="-3.374232080868">
        <ele>3112.4</ele>
        <time>2019-01-08T10:55:38Z</time>
      </trkpt>
      <trkpt lat="37.058797826693" lon="-3.374267703943">
        <ele>3110.2</ele>
        <time>2019-01-08T10:55:39Z</time>
      </trkpt>
      <trkpt lat="37.058851470853" lon="-3.374281450259">
        <ele>3107.6</ele>
        <time>2019-01-08T10:55:40Z</time>
      </trkpt>
      <trkpt lat="37.058896649294" lon="-3.374313133841">
        <ele>3104.6</ele>
        <time>2019-01-08T10:55:41Z</time>
      </trkpt>
      <trkpt lat="37.058930176894" lon="-3.37436267087">
        <ele>3101.6</ele>
        <time>2019-01-08T10:55:42Z</time>
      </trkpt>
      <trkpt lat="37.058970410014" lon="-3.37441715322">
        <ele>3099.2</ele>
        <time>2019-01-08T10:55:43Z</time>
      </trkpt>
      <trkpt lat="37.059022545432" lon="-3.374446154594">
        <ele>3096.8</ele>
        <time>2019-01-08T10:55:44Z</time>
      </trkpt>
      <trkpt lat="37.059048613141" lon="-3.374502480962">
        <ele>3094</ele>
        <time>2019-01-08T10:55:45Z</time>
      </trkpt>
      <trkpt lat="37.059058252326" lon="-3.374589401265">
        <ele>3091</ele>
        <time>2019-01-08T10:55:46Z</time>
      </trkpt>
      <trkpt lat="37.059083984759" lon="-3.374663748718">
        <ele>3088.2</ele>
        <time>2019-01-08T10:55:47Z</time>
      </trkpt>
      <trkpt lat="37.059117177083" lon="-3.374726864425">
        <ele>3085.4</ele>
        <time>2019-01-08T10:55:48Z</time>
      </trkpt>
      <trkpt lat="37.059142406602" lon="-3.374804313181">
        <ele>3082.6</ele>
        <time>2019-01-08T10:55:49Z</time>
      </trkpt>
      <trkpt lat="37.059190770165" lon="-3.374867009793">
        <ele>3079.8</ele>
        <time>2019-01-08T10:55:50Z</time>
      </trkpt>
      <trkpt lat="37.059257741546" lon="-3.374912104415">
        <ele>3077.2</ele>
        <time>2019-01-08T10:55:51Z</time>
      </trkpt>
      <trkpt lat="37.059320019063" lon="-3.374946973119">
        <ele>3074.4</ele>
        <time>2019-01-08T10:55:52Z</time>
      </trkpt>
      <trkpt lat="37.059359497812" lon="-3.37500807717">
        <ele>3070.8</ele>
        <time>2019-01-08T10:55:53Z</time>
      </trkpt>
      <trkpt lat="37.059395875258" lon="-3.375086783211">
        <ele>3067.2</ele>
        <time>2019-01-08T10:55:54Z</time>
      </trkpt>
      <trkpt lat="37.05945773368" lon="-3.375153670773">
        <ele>3064</ele>
        <time>2019-01-08T10:55:55Z</time>
      </trkpt>
      <trkpt lat="37.059500732827" lon="-3.375228018226">
        <ele>3061.2</ele>
        <time>2019-01-08T10:55:56Z</time>
      </trkpt>
      <trkpt lat="37.059522525767" lon="-3.375327343741">
        <ele>3058.2</ele>
        <time>2019-01-08T10:55:57Z</time>
      </trkpt>
      <trkpt lat="37.059561417783" lon="-3.375412168569">
        <ele>3054.8</ele>
        <time>2019-01-08T10:55:58Z</time>
      </trkpt>
      <trkpt lat="37.059617492694" lon="-3.375465645091">
        <ele>3051.6</ele>
        <time>2019-01-08T10:55:59Z</time>
      </trkpt>
      <trkpt lat="37.059678680564" lon="-3.375508644238">
        <ele>3048.2</ele>
        <time>2019-01-08T10:56:00Z</time>
      </trkpt>
      <trkpt lat="37.059719081322" lon="-3.375581566768">
        <ele>3044.4</ele>
        <time>2019-01-08T10:56:01Z</time>
      </trkpt>
      <trkpt lat="37.059766103781" lon="-3.375653399651">
        <ele>3041</ele>
        <time>2019-01-08T10:56:02Z</time>
      </trkpt>
      <trkpt lat="37.059824609443" lon="-3.37570712763">
        <ele>3038.4</ele>
        <time>2019-01-08T10:56:03Z</time>
      </trkpt>
      <trkpt lat="37.059865680753" lon="-3.375776865038">
        <ele>3036</ele>
        <time>2019-01-08T10:56:04Z</time>
      </trkpt>
      <trkpt lat="37.059902644932" lon="-3.375861103133">
        <ele>3033.4</ele>
        <time>2019-01-08T10:56:05Z</time>
      </trkpt>
      <trkpt lat="37.059964670992" lon="-3.375923799745">
        <ele>3030.4</ele>
        <time>2019-01-08T10:56:06Z</time>
      </trkpt>
      <trkpt lat="37.060014710935" lon="-3.375988005099">
        <ele>3027.2</ele>
        <time>2019-01-08T10:56:07Z</time>
      </trkpt>
      <trkpt lat="37.060045221051" lon="-3.376071237366">
        <ele>3024</ele>
        <time>2019-01-08T10:56:08Z</time>
      </trkpt>
      <trkpt lat="37.060083191058" lon="-3.376134269254">
        <ele>3020.8</ele>
        <time>2019-01-08T10:56:09Z</time>
      </trkpt>
      <trkpt lat="37.060129459146" lon="-3.376180202066">
        <ele>3018</ele>
        <time>2019-01-08T10:56:10Z</time>
      </trkpt>
      <trkpt lat="37.060156867959" lon="-3.376236696072">
        <ele>3015.6</ele>
        <time>2019-01-08T10:56:11Z</time>
      </trkpt>
      <trkpt lat="37.060158879615" lon="-3.376310121516">
        <ele>3013.2</ele>
        <time>2019-01-08T10:56:12Z</time>
      </trkpt>
      <trkpt lat="37.060184192953" lon="-3.376375332698">
        <ele>3011</ele>
        <time>2019-01-08T10:56:13Z</time>
      </trkpt>
      <trkpt lat="37.060233813801" lon="-3.376406848642">
        <ele>3009.2</ele>
        <time>2019-01-08T10:56:14Z</time>
      </trkpt>
      <trkpt lat="37.060281087717" lon="-3.376433167808">
        <ele>3007</ele>
        <time>2019-01-08T10:56:15Z</time>
      </trkpt>
      <trkpt lat="37.060305730503" lon="-3.37650173175">
        <ele>3004.4</ele>
        <time>2019-01-08T10:56:16Z</time>
      </trkpt>
      <trkpt lat="37.060335989162" lon="-3.376579012868">
        <ele>3001.8</ele>
        <time>2019-01-08T10:56:17Z</time>
      </trkpt>
      <trkpt lat="37.060390555331" lon="-3.376625532413">
        <ele>2999.2</ele>
        <time>2019-01-08T10:56:18Z</time>
      </trkpt>
      <trkpt lat="37.060448893355" lon="-3.376671381406">
        <ele>2996.8</ele>
        <time>2019-01-08T10:56:19Z</time>
      </trkpt>
      <trkpt lat="37.060507063741" lon="-3.376741621728">
        <ele>2994</ele>
        <time>2019-01-08T10:56:20Z</time>
      </trkpt>
      <trkpt lat="37.060569676534" lon="-3.37681353843">
        <ele>2991</ele>
        <time>2019-01-08T10:56:21Z</time>
      </trkpt>
      <trkpt lat="37.060638072838" lon="-3.376854525921">
        <ele>2988</ele>
        <time>2019-01-08T10:56:22Z</time>
      </trkpt>
      <trkpt lat="37.06070244583" lon="-3.376898698534">
        <ele>2984.6</ele>
        <time>2019-01-08T10:56:23Z</time>
      </trkpt>
      <trkpt lat="37.060765980632" lon="-3.376955779273">
        <ele>2981</ele>
        <time>2019-01-08T10:56:24Z</time>
      </trkpt>
      <trkpt lat="37.060835969497" lon="-3.377008920519">
        <ele>2978</ele>
        <time>2019-01-08T10:56:25Z</time>
      </trkpt>
      <trkpt lat="37.060906545095" lon="-3.377053679865">
        <ele>2975.6</ele>
        <time>2019-01-08T10:56:26Z</time>
      </trkpt>
      <trkpt lat="37.060970415173" lon="-3.37711947778">
        <ele>2973</ele>
        <time>2019-01-08T10:56:27Z</time>
      </trkpt>
      <trkpt lat="37.061045516997" lon="-3.377170523551">
        <ele>2970.2</ele>
        <time>2019-01-08T10:56:28Z</time>
      </trkpt>
      <trkpt lat="37.061130425644" lon="-3.377199189649">
        <ele>2967.2</ele>
        <time>2019-01-08T10:56:29Z</time>
      </trkpt>
      <trkpt lat="37.061212735902" lon="-3.37724436809">
        <ele>2964.2</ele>
        <time>2019-01-08T10:56:30Z</time>
      </trkpt>
      <trkpt lat="37.061287753907" lon="-3.377313015851">
        <ele>2961.6</ele>
        <time>2019-01-08T10:56:31Z</time>
      </trkpt>
      <trkpt lat="37.06135539584" lon="-3.377381412155">
        <ele>2959.4</ele>
        <time>2019-01-08T10:56:32Z</time>
      </trkpt>
      <trkpt lat="37.061428234551" lon="-3.377435894505">
        <ele>2957.2</ele>
        <time>2019-01-08T10:56:33Z</time>
      </trkpt>
      <trkpt lat="37.061489925335" lon="-3.377517534211">
        <ele>2954.2</ele>
        <time>2019-01-08T10:56:34Z</time>
      </trkpt>
      <trkpt lat="37.061501995271" lon="-3.377630354585">
        <ele>2951.4</ele>
        <time>2019-01-08T10:56:35Z</time>
      </trkpt>
      <trkpt lat="37.061498977787" lon="-3.377744851339">
        <ele>2948.8</ele>
        <time>2019-01-08T10:56:36Z</time>
      </trkpt>
      <trkpt lat="37.061501743814" lon="-3.377845517958">
        <ele>2946.6</ele>
        <time>2019-01-08T10:56:37Z</time>
      </trkpt>
      <trkpt lat="37.061534852319" lon="-3.377908382208">
        <ele>2944.8</ele>
        <time>2019-01-08T10:56:38Z</time>
      </trkpt>
      <trkpt lat="37.061567709367" lon="-3.377965882042">
        <ele>2943.4</ele>
        <time>2019-01-08T10:56:39Z</time>
      </trkpt>
      <trkpt lat="37.061616492025" lon="-3.378122455934">
        <ele>2942</ele>
        <time>2019-01-08T10:56:41Z</time>
      </trkpt>
      <trkpt lat="37.061715230807" lon="-3.378258661809">
        <ele>2940.6</ele>
        <time>2019-01-08T10:56:43Z</time>
      </trkpt>
      <trkpt lat="37.061778095057" lon="-3.378332506348">
        <ele>2939.6</ele>
        <time>2019-01-08T10:56:44Z</time>
      </trkpt>
      <trkpt lat="37.061846407542" lon="-3.378397633711">
        <ele>2938.4</ele>
        <time>2019-01-08T10:56:45Z</time>
      </trkpt>
      <trkpt lat="37.061906170489" lon="-3.378488158231">
        <ele>2936.4</ele>
        <time>2019-01-08T10:56:46Z</time>
      </trkpt>
      <trkpt lat="37.061976578449" lon="-3.378590249773">
        <ele>2934.2</ele>
        <time>2019-01-08T10:56:47Z</time>
      </trkpt>
      <trkpt lat="37.062073473213" lon="-3.378673984954">
        <ele>2932.2</ele>
        <time>2019-01-08T10:56:48Z</time>
      </trkpt>
      <trkpt lat="37.062178666058" lon="-3.378745314923">
        <ele>2929.8</ele>
        <time>2019-01-08T10:56:49Z</time>
      </trkpt>
      <trkpt lat="37.062259383755" lon="-3.378839862755">
        <ele>2926.8</ele>
        <time>2019-01-08T10:56:50Z</time>
      </trkpt>
      <trkpt lat="37.062304310739" lon="-3.378962154676">
        <ele>2924</ele>
        <time>2019-01-08T10:56:51Z</time>
      </trkpt>
      <trkpt lat="37.062351668474" lon="-3.379065000589">
        <ele>2921.2</ele>
        <time>2019-01-08T10:56:52Z</time>
      </trkpt>
      <trkpt lat="37.062411263783" lon="-3.379139012766">
        <ele>2919</ele>
        <time>2019-01-08T10:56:53Z</time>
      </trkpt>
      <trkpt lat="37.06246180664" lon="-3.379209420726">
        <ele>2916.4</ele>
        <time>2019-01-08T10:56:54Z</time>
      </trkpt>
      <trkpt lat="37.06248024682" lon="-3.379287959129">
        <ele>2914.4</ele>
        <time>2019-01-08T10:56:55Z</time>
      </trkpt>
      <trkpt lat="37.062480414458" lon="-3.379358534727">
        <ele>2912.6</ele>
        <time>2019-01-08T10:56:56Z</time>
      </trkpt>
      <trkpt lat="37.062470439997" lon="-3.379416705113">
        <ele>2911.2</ele>
        <time>2019-01-08T10:56:57Z</time>
      </trkpt>
      <trkpt lat="37.06245929207" lon="-3.379461799735">
        <ele>2910</ele>
        <time>2019-01-08T10:56:58Z</time>
      </trkpt>
      <trkpt lat="37.062450407256" lon="-3.379502787226">
        <ele>2908.8</ele>
        <time>2019-01-08T10:56:59Z</time>
      </trkpt>
      <trkpt lat="37.062461974278" lon="-3.37954603783">
        <ele>2908</ele>
        <time>2019-01-08T10:57:00Z</time>
      </trkpt>
      <trkpt lat="37.062492484394" lon="-3.379576128851">
        <ele>2907.2</ele>
        <time>2019-01-08T10:57:01Z</time>
      </trkpt>
      <trkpt lat="37.062523497424" lon="-3.379609991727">
        <ele>2906.8</ele>
        <time>2019-01-08T10:57:02Z</time>
      </trkpt>
      <trkpt lat="37.062543530165" lon="-3.379665899">
        <ele>2906.2</ele>
        <time>2019-01-08T10:57:03Z</time>
      </trkpt>
      <trkpt lat="37.062552163522" lon="-3.379733457114">
        <ele>2905.4</ele>
        <time>2019-01-08T10:57:04Z</time>
      </trkpt>
      <trkpt lat="37.062546547649" lon="-3.379800260857">
        <ele>2904.4</ele>
        <time>2019-01-08T10:57:05Z</time>
      </trkpt>
      <trkpt lat="37.062542189061" lon="-3.379871171731">
        <ele>2903.4</ele>
        <time>2019-01-08T10:57:06Z</time>
      </trkpt>
      <trkpt lat="37.062551157694" lon="-3.379937388741">
        <ele>2902.4</ele>
        <time>2019-01-08T10:57:07Z</time>
      </trkpt>
      <trkpt lat="37.062568843503" lon="-3.379995559127">
        <ele>2901.2</ele>
        <time>2019-01-08T10:57:08Z</time>
      </trkpt>
      <trkpt lat="37.062575129928" lon="-3.380053729513">
        <ele>2900.2</ele>
        <time>2019-01-08T10:57:09Z</time>
      </trkpt>
      <trkpt lat="37.062558869042" lon="-3.380141404187">
        <ele>2898.4</ele>
        <time>2019-01-08T10:57:11Z</time>
      </trkpt>
      <trkpt lat="37.062534477713" lon="-3.380199742211">
        <ele>2897.2</ele>
        <time>2019-01-08T10:57:13Z</time>
      </trkpt>
      <trkpt lat="37.062518384465" lon="-3.380226480472">
        <ele>2896.6</ele>
        <time>2019-01-08T10:57:16Z</time>
      </trkpt>
      <trkpt lat="37.062513606782" lon="-3.380229749413">
        <ele>2896.6</ele>
        <time>2019-01-08T10:57:21Z</time>
      </trkpt>
      <trkpt lat="37.062671186502" lon="-3.380226145196">
        <ele>2895.6</ele>
        <time>2019-01-08T10:57:58Z</time>
      </trkpt>
      <trkpt lat="37.062673533434" lon="-3.380275430768">
        <ele>2895</ele>
        <time>2019-01-08T10:58:02Z</time>
      </trkpt>
      <trkpt lat="37.062930103393" lon="-3.380043000681">
        <ele>2893.6</ele>
        <time>2019-01-08T10:58:16Z</time>
      </trkpt>
      <trkpt lat="37.063091622606" lon="-3.380119862704">
        <ele>2892.2</ele>
        <time>2019-01-08T10:58:18Z</time>
      </trkpt>
      <trkpt lat="37.063170580104" lon="-3.380170070285">
        <ele>2890.6</ele>
        <time>2019-01-08T10:58:19Z</time>
      </trkpt>
      <trkpt lat="37.06323545601" lon="-3.380251374715">
        <ele>2888.8</ele>
        <time>2019-01-08T10:58:20Z</time>
      </trkpt>
      <trkpt lat="37.063260685529" lon="-3.380382467631">
        <ele>2886.6</ele>
        <time>2019-01-08T10:58:21Z</time>
      </trkpt>
      <trkpt lat="37.063291782378" lon="-3.380508866683">
        <ele>2884.2</ele>
        <time>2019-01-08T10:58:22Z</time>
      </trkpt>
      <trkpt lat="37.063321621942" lon="-3.380634176088">
        <ele>2881.6</ele>
        <time>2019-01-08T10:58:23Z</time>
      </trkpt>
      <trkpt lat="37.063376020473" lon="-3.380743895159">
        <ele>2878.4</ele>
        <time>2019-01-08T10:58:24Z</time>
      </trkpt>
      <trkpt lat="37.063441064017" lon="-3.38085109966">
        <ele>2875.6</ele>
        <time>2019-01-08T10:58:25Z</time>
      </trkpt>
      <trkpt lat="37.063505269371" lon="-3.380962159835">
        <ele>2873</ele>
        <time>2019-01-08T10:58:26Z</time>
      </trkpt>
      <trkpt lat="37.063575342055" lon="-3.381089061801">
        <ele>2870</ele>
        <time>2019-01-08T10:58:27Z</time>
      </trkpt>
      <trkpt lat="37.063660502159" lon="-3.381192829723">
        <ele>2867</ele>
        <time>2019-01-08T10:58:28Z</time>
      </trkpt>
      <trkpt lat="37.063756726371" lon="-3.381288383383">
        <ele>2863.8</ele>
        <time>2019-01-08T10:58:29Z</time>
      </trkpt>
      <trkpt lat="37.063860913388" lon="-3.381388295631">
        <ele>2860.8</ele>
        <time>2019-01-08T10:58:30Z</time>
      </trkpt>
      <trkpt lat="37.063968704622" lon="-3.381487788784">
        <ele>2857.4</ele>
        <time>2019-01-08T10:58:31Z</time>
      </trkpt>
      <trkpt lat="37.064075406209" lon="-3.3815769722">
        <ele>2854.6</ele>
        <time>2019-01-08T10:58:32Z</time>
      </trkpt>
      <trkpt lat="37.064164086711" lon="-3.38169012785">
        <ele>2851.4</ele>
        <time>2019-01-08T10:58:33Z</time>
      </trkpt>
      <trkpt lat="37.064257125801" lon="-3.381794398686">
        <ele>2848.2</ele>
        <time>2019-01-08T10:58:34Z</time>
      </trkpt>
      <trkpt lat="37.064351757452" lon="-3.381881067532">
        <ele>2845</ele>
        <time>2019-01-08T10:58:35Z</time>
      </trkpt>
      <trkpt lat="37.06445250789" lon="-3.381977710839">
        <ele>2842</ele>
        <time>2019-01-08T10:58:36Z</time>
      </trkpt>
      <trkpt lat="37.064553677423" lon="-3.382080221476">
        <ele>2839</ele>
        <time>2019-01-08T10:58:37Z</time>
      </trkpt>
      <trkpt lat="37.064657696802" lon="-3.382188180348">
        <ele>2836</ele>
        <time>2019-01-08T10:58:38Z</time>
      </trkpt>
      <trkpt lat="37.064745706752" lon="-3.38232715225">
        <ele>2832.6</ele>
        <time>2019-01-08T10:58:39Z</time>
      </trkpt>
      <trkpt lat="37.064838159109" lon="-3.3824738355">
        <ele>2829.4</ele>
        <time>2019-01-08T10:58:40Z</time>
      </trkpt>
      <trkpt lat="37.064948800189" lon="-3.382593026118">
        <ele>2825.8</ele>
        <time>2019-01-08T10:58:41Z</time>
      </trkpt>
      <trkpt lat="37.065057848708" lon="-3.382700482076">
        <ele>2822.4</ele>
        <time>2019-01-08T10:58:42Z</time>
      </trkpt>
      <trkpt lat="37.065144433735" lon="-3.382826881128">
        <ele>2819</ele>
        <time>2019-01-08T10:58:43Z</time>
      </trkpt>
      <trkpt lat="37.065202939397" lon="-3.3829683676">
        <ele>2816.2</ele>
        <time>2019-01-08T10:58:44Z</time>
      </trkpt>
      <trkpt lat="37.06524878839" lon="-3.383100298706">
        <ele>2814</ele>
        <time>2019-01-08T10:58:45Z</time>
      </trkpt>
      <trkpt lat="37.065314837762" lon="-3.3831946789">
        <ele>2812.6</ele>
        <time>2019-01-08T10:58:46Z</time>
      </trkpt>
      <trkpt lat="37.065379797487" lon="-3.383289981103">
        <ele>2810.8</ele>
        <time>2019-01-08T10:58:47Z</time>
      </trkpt>
      <trkpt lat="37.065439979529" lon="-3.383398191432">
        <ele>2809</ele>
        <time>2019-01-08T10:58:48Z</time>
      </trkpt>
      <trkpt lat="37.065521283959" lon="-3.383476059283">
        <ele>2807.4</ele>
        <time>2019-01-08T10:58:49Z</time>
      </trkpt>
      <trkpt lat="37.065612143755" lon="-3.383556944618">
        <ele>2806.2</ele>
        <time>2019-01-08T10:58:50Z</time>
      </trkpt>
      <trkpt lat="37.065706775406" lon="-3.383644619292">
        <ele>2804.8</ele>
        <time>2019-01-08T10:58:51Z</time>
      </trkpt>
      <trkpt lat="37.065799227763" lon="-3.383746375558">
        <ele>2803.4</ele>
        <time>2019-01-08T10:58:52Z</time>
      </trkpt>
      <trkpt lat="37.065886399523" lon="-3.38386355452">
        <ele>2801.6</ele>
        <time>2019-01-08T10:58:53Z</time>
      </trkpt>
      <trkpt lat="37.065971224351" lon="-3.383995820902">
        <ele>2799.6</ele>
        <time>2019-01-08T10:58:54Z</time>
      </trkpt>
      <trkpt lat="37.066066526554" lon="-3.384118699556">
        <ele>2797</ele>
        <time>2019-01-08T10:58:55Z</time>
      </trkpt>
      <trkpt lat="37.066157637807" lon="-3.384237973993">
        <ele>2794.6</ele>
        <time>2019-01-08T10:58:56Z</time>
      </trkpt>
      <trkpt lat="37.066230727975" lon="-3.384369318366">
        <ele>2791.8</ele>
        <time>2019-01-08T10:58:57Z</time>
      </trkpt>
      <trkpt lat="37.066305326885" lon="-3.384483144568">
        <ele>2789</ele>
        <time>2019-01-08T10:58:58Z</time>
      </trkpt>
      <trkpt lat="37.066379925795" lon="-3.384574507278">
        <ele>2786.4</ele>
        <time>2019-01-08T10:58:59Z</time>
      </trkpt>
      <trkpt lat="37.066447735366" lon="-3.38466905511">
        <ele>2784.8</ele>
        <time>2019-01-08T10:59:00Z</time>
      </trkpt>
      <trkpt lat="37.066485705373" lon="-3.384778438905">
        <ele>2783.4</ele>
        <time>2019-01-08T10:59:01Z</time>
      </trkpt>
      <trkpt lat="37.066528536882" lon="-3.384874160203">
        <ele>2782.2</ele>
        <time>2019-01-08T10:59:02Z</time>
      </trkpt>
      <trkpt lat="37.066577906273" lon="-3.384959823221">
        <ele>2781</ele>
        <time>2019-01-08T10:59:03Z</time>
      </trkpt>
      <trkpt lat="37.066620318687" lon="-3.385041882022">
        <ele>2780</ele>
        <time>2019-01-08T10:59:04Z</time>
      </trkpt>
      <trkpt lat="37.066650828803" lon="-3.385138190053">
        <ele>2778.6</ele>
        <time>2019-01-08T10:59:05Z</time>
      </trkpt>
      <trkpt lat="37.066690894285" lon="-3.385225445632">
        <ele>2777.4</ele>
        <time>2019-01-08T10:59:06Z</time>
      </trkpt>
      <trkpt lat="37.06675166306" lon="-3.385309935184">
        <ele>2776.2</ele>
        <time>2019-01-08T10:59:07Z</time>
      </trkpt>
      <trkpt lat="37.066824417952" lon="-3.385391155795">
        <ele>2775</ele>
        <time>2019-01-08T10:59:08Z</time>
      </trkpt>
      <trkpt lat="37.066902453441" lon="-3.385476483537">
        <ele>2773.6</ele>
        <time>2019-01-08T10:59:09Z</time>
      </trkpt>
      <trkpt lat="37.066967748442" lon="-3.385578826536">
        <ele>2772</ele>
        <time>2019-01-08T10:59:10Z</time>
      </trkpt>
      <trkpt lat="37.067008233019" lon="-3.385693574747">
        <ele>2770.4</ele>
        <time>2019-01-08T10:59:11Z</time>
      </trkpt>
      <trkpt lat="37.067034384547" lon="-3.385808909691">
        <ele>2768.8</ele>
        <time>2019-01-08T10:59:12Z</time>
      </trkpt>
      <trkpt lat="37.067067325414" lon="-3.385910665957">
        <ele>2767.4</ele>
        <time>2019-01-08T10:59:13Z</time>
      </trkpt>
      <trkpt lat="37.067119293194" lon="-3.385986019238">
        <ele>2766.2</ele>
        <time>2019-01-08T10:59:14Z</time>
      </trkpt>
      <trkpt lat="37.067181235435" lon="-3.386040501588">
        <ele>2764.8</ele>
        <time>2019-01-08T10:59:15Z</time>
      </trkpt>
      <trkpt lat="37.067284165167" lon="-3.386167235916">
        <ele>2763.2</ele>
        <time>2019-01-08T10:59:17Z</time>
      </trkpt>
      <trkpt lat="37.067398578102" lon="-3.386253653305">
        <ele>2762.2</ele>
        <time>2019-01-08T10:59:19Z</time>
      </trkpt>
      <trkpt lat="37.067448282769" lon="-3.386322384885">
        <ele>2761.4</ele>
        <time>2019-01-08T10:59:20Z</time>
      </trkpt>
      <trkpt lat="37.067498238893" lon="-3.386414501966">
        <ele>2760.2</ele>
        <time>2019-01-08T10:59:21Z</time>
      </trkpt>
      <trkpt lat="37.067571831975" lon="-3.386491531627">
        <ele>2759</ele>
        <time>2019-01-08T10:59:22Z</time>
      </trkpt>
      <trkpt lat="37.06766026102" lon="-3.386556910447">
        <ele>2757.4</ele>
        <time>2019-01-08T10:59:23Z</time>
      </trkpt>
      <trkpt lat="37.067747516599" lon="-3.386635029755">
        <ele>2755</ele>
        <time>2019-01-08T10:59:24Z</time>
      </trkpt>
      <trkpt lat="37.067782720579" lon="-3.386764278653">
        <ele>2752.8</ele>
        <time>2019-01-08T10:59:25Z</time>
      </trkpt>
      <trkpt lat="37.067823288975" lon="-3.386889588058">
        <ele>2750.6</ele>
        <time>2019-01-08T10:59:26Z</time>
      </trkpt>
      <trkpt lat="37.067870227615" lon="-3.387017412033">
        <ele>2748.6</ele>
        <time>2019-01-08T10:59:27Z</time>
      </trkpt>
      <trkpt lat="37.067882465189" lon="-3.387142721438">
        <ele>2745.8</ele>
        <time>2019-01-08T10:59:28Z</time>
      </trkpt>
      <trkpt lat="37.0679050125" lon="-3.387259481305">
        <ele>2743.2</ele>
        <time>2019-01-08T10:59:29Z</time>
      </trkpt>
      <trkpt lat="37.067955555357" lon="-3.3873521013">
        <ele>2740.6</ele>
        <time>2019-01-08T10:59:30Z</time>
      </trkpt>
      <trkpt lat="37.068033507027" lon="-3.387394178438">
        <ele>2739</ele>
        <time>2019-01-08T10:59:31Z</time>
      </trkpt>
      <trkpt lat="37.068113051258" lon="-3.387441368535">
        <ele>2737.8</ele>
        <time>2019-01-08T10:59:32Z</time>
      </trkpt>
      <trkpt lat="37.068187314892" lon="-3.38751387197">
        <ele>2736.6</ele>
        <time>2019-01-08T10:59:33Z</time>
      </trkpt>
      <trkpt lat="37.068269122236" lon="-3.387560894429">
        <ele>2735.6</ele>
        <time>2019-01-08T10:59:34Z</time>
      </trkpt>
      <trkpt lat="37.068365933181" lon="-3.387573215822">
        <ele>2734.2</ele>
        <time>2019-01-08T10:59:35Z</time>
      </trkpt>
      <trkpt lat="37.068474059691" lon="-3.387585872491">
        <ele>2732.8</ele>
        <time>2019-01-08T10:59:36Z</time>
      </trkpt>
      <trkpt lat="37.068587550617" lon="-3.387620070643">
        <ele>2731</ele>
        <time>2019-01-08T10:59:37Z</time>
      </trkpt>
      <trkpt lat="37.068699029887" lon="-3.387680336504">
        <ele>2729.2</ele>
        <time>2019-01-08T10:59:38Z</time>
      </trkpt>
      <trkpt lat="37.068794080633" lon="-3.387768933187">
        <ele>2726.8</ele>
        <time>2019-01-08T10:59:39Z</time>
      </trkpt>
      <trkpt lat="37.06888820937" lon="-3.387846381943">
        <ele>2724.2</ele>
        <time>2019-01-08T10:59:40Z</time>
      </trkpt>
      <trkpt lat="37.068983008659" lon="-3.387897930628">
        <ele>2721.6</ele>
        <time>2019-01-08T10:59:41Z</time>
      </trkpt>
      <trkpt lat="37.069081328346" lon="-3.387933050789">
        <ele>2719.2</ele>
        <time>2019-01-08T10:59:42Z</time>
      </trkpt>
      <trkpt lat="37.069185096268" lon="-3.387974205918">
        <ele>2716.8</ele>
        <time>2019-01-08T10:59:43Z</time>
      </trkpt>
      <trkpt lat="37.069292468407" lon="-3.387999351618">
        <ele>2714.6</ele>
        <time>2019-01-08T10:59:44Z</time>
      </trkpt>
      <trkpt lat="37.069399002356" lon="-3.388017205065">
        <ele>2712.8</ele>
        <time>2019-01-08T10:59:45Z</time>
      </trkpt>
      <trkpt lat="37.069505620124" lon="-3.388050900303">
        <ele>2711</ele>
        <time>2019-01-08T10:59:46Z</time>
      </trkpt>
      <trkpt lat="37.069614836281" lon="-3.388073615252">
        <ele>2709.4</ele>
        <time>2019-01-08T10:59:47Z</time>
      </trkpt>
      <trkpt lat="37.069717849832" lon="-3.388101778436">
        <ele>2707.6</ele>
        <time>2019-01-08T10:59:48Z</time>
      </trkpt>
      <trkpt lat="37.069817845899" lon="-3.388138826434">
        <ele>2706.2</ele>
        <time>2019-01-08T10:59:49Z</time>
      </trkpt>
      <trkpt lat="37.069918177242" lon="-3.388157685709">
        <ele>2705.2</ele>
        <time>2019-01-08T10:59:50Z</time>
      </trkpt>
      <trkpt lat="37.070013311807" lon="-3.388160870831">
        <ele>2704</ele>
        <time>2019-01-08T10:59:51Z</time>
      </trkpt>
      <trkpt lat="37.070104506879" lon="-3.388180149201">
        <ele>2702.4</ele>
        <time>2019-01-08T10:59:52Z</time>
      </trkpt>
      <trkpt lat="37.070192935924" lon="-3.388215520819">
        <ele>2700.4</ele>
        <time>2019-01-08T10:59:53Z</time>
      </trkpt>
      <trkpt lat="37.070275497639" lon="-3.388228093669">
        <ele>2698.8</ele>
        <time>2019-01-08T10:59:54Z</time>
      </trkpt>
      <trkpt lat="37.070348587807" lon="-3.388211497507">
        <ele>2697.2</ele>
        <time>2019-01-08T10:59:55Z</time>
      </trkpt>
      <trkpt lat="37.070416900292" lon="-3.388195907173">
        <ele>2695.6</ele>
        <time>2019-01-08T10:59:56Z</time>
      </trkpt>
      <trkpt lat="37.070487392071" lon="-3.388201942141">
        <ele>2694</ele>
        <time>2019-01-08T10:59:57Z</time>
      </trkpt>
      <trkpt lat="37.070556710384" lon="-3.388228680402">
        <ele>2693.2</ele>
        <time>2019-01-08T10:59:58Z</time>
      </trkpt>
      <trkpt lat="37.070616389512" lon="-3.388268159151">
        <ele>2692.6</ele>
        <time>2019-01-08T10:59:59Z</time>
      </trkpt>
      <trkpt lat="37.070666261817" lon="-3.388322473863">
        <ele>2692</ele>
        <time>2019-01-08T11:00:00Z</time>
      </trkpt>
      <trkpt lat="37.070775729431" lon="-3.388364970096">
        <ele>2691.2</ele>
        <time>2019-01-08T11:00:02Z</time>
      </trkpt>
      <trkpt lat="37.070890812918" lon="-3.388410399994">
        <ele>2690</ele>
        <time>2019-01-08T11:00:04Z</time>
      </trkpt>
      <trkpt lat="37.070979828696" lon="-3.388464127973">
        <ele>2688.8</ele>
        <time>2019-01-08T11:00:06Z</time>
      </trkpt>
      <trkpt lat="37.071102372074" lon="-3.388497320297">
        <ele>2687.8</ele>
        <time>2019-01-08T11:00:11Z</time>
      </trkpt>
      <trkpt lat="37.071297670344" lon="-3.388550210086">
        <ele>2687.2</ele>
        <time>2019-01-08T11:00:17Z</time>
      </trkpt>
      <trkpt lat="37.07131896037" lon="-3.388548449887">
        <ele>2687</ele>
        <time>2019-01-08T11:00:18Z</time>
      </trkpt>
      <trkpt lat="37.071332119953" lon="-3.388540906177">
        <ele>2686.6</ele>
        <time>2019-01-08T11:00:19Z</time>
      </trkpt>
      <trkpt lat="37.071365396096" lon="-3.388510647518">
        <ele>2686.2</ele>
        <time>2019-01-08T11:00:23Z</time>
      </trkpt>
      <trkpt lat="37.071315188515" lon="-3.388364048087">
        <ele>2686.2</ele>
        <time>2019-01-08T11:03:22Z</time>
      </trkpt>
      <trkpt lat="37.07122927404" lon="-3.388226165832">
        <ele>2685.4</ele>
        <time>2019-01-08T11:03:26Z</time>
      </trkpt>
      <trkpt lat="37.071169678731" lon="-3.388112423449">
        <ele>2684.4</ele>
        <time>2019-01-08T11:03:29Z</time>
      </trkpt>
      <trkpt lat="37.071158111709" lon="-3.388026257517">
        <ele>2683.4</ele>
        <time>2019-01-08T11:03:31Z</time>
      </trkpt>
      <trkpt lat="37.071155178044" lon="-3.387976049936">
        <ele>2683</ele>
        <time>2019-01-08T11:03:32Z</time>
      </trkpt>
      <trkpt lat="37.071160374822" lon="-3.38787680824">
        <ele>2682.2</ele>
        <time>2019-01-08T11:03:34Z</time>
      </trkpt>
      <trkpt lat="37.071168169989" lon="-3.387827606487">
        <ele>2681.8</ele>
        <time>2019-01-08T11:03:35Z</time>
      </trkpt>
      <trkpt lat="37.071232291524" lon="-3.387615795874">
        <ele>2680.8</ele>
        <time>2019-01-08T11:03:40Z</time>
      </trkpt>
      <trkpt lat="37.071306974253" lon="-3.387489396822">
        <ele>2680.8</ele>
        <time>2019-01-08T11:03:46Z</time>
      </trkpt>
      <trkpt lat="37.071307812443" lon="-3.387490151193">
        <ele>2680.8</ele>
        <time>2019-01-08T11:03:47Z</time>
      </trkpt>
      <trkpt lat="37.070981253619" lon="-3.387075330962">
        <ele>2679.8</ele>
        <time>2019-01-08T11:04:44Z</time>
      </trkpt>
      <trkpt lat="37.070962226706" lon="-3.387043479742">
        <ele>2679.6</ele>
        <time>2019-01-08T11:04:45Z</time>
      </trkpt>
      <trkpt lat="37.070821578424" lon="-3.386812809854">
        <ele>2679.8</ele>
        <time>2019-01-08T11:04:51Z</time>
      </trkpt>
      <trkpt lat="37.07077748963" lon="-3.386742653351">
        <ele>2681.2</ele>
        <time>2019-01-08T11:04:53Z</time>
      </trkpt>
      <trkpt lat="37.070755612871" lon="-3.386708706656">
        <ele>2682.4</ele>
        <time>2019-01-08T11:04:54Z</time>
      </trkpt>
      <trkpt lat="37.062959272405" lon="-3.373784068313">
        <ele>3025.8</ele>
        <time>2019-01-08T11:11:49Z</time>
      </trkpt>
      <trkpt lat="37.063037391713" lon="-3.37388322619">
        <ele>3024.2</ele>
        <time>2019-01-08T11:11:51Z</time>
      </trkpt>
      <trkpt lat="37.063065051983" lon="-3.373963943887">
        <ele>3023</ele>
        <time>2019-01-08T11:11:52Z</time>
      </trkpt>
      <trkpt lat="37.06309966923" lon="-3.374041308824">
        <ele>3021.2</ele>
        <time>2019-01-08T11:11:53Z</time>
      </trkpt>
      <trkpt lat="37.063131436631" lon="-3.374108783119">
        <ele>3019.4</ele>
        <time>2019-01-08T11:11:54Z</time>
      </trkpt>
      <trkpt lat="37.063158761625" lon="-3.374191596291">
        <ele>3017.2</ele>
        <time>2019-01-08T11:11:55Z</time>
      </trkpt>
      <trkpt lat="37.063201341677" lon="-3.374275247653">
        <ele>3015</ele>
        <time>2019-01-08T11:11:56Z</time>
      </trkpt>
      <trkpt lat="37.063255153475" lon="-3.374353366961">
        <ele>3012.6</ele>
        <time>2019-01-08T11:11:57Z</time>
      </trkpt>
      <trkpt lat="37.063281472641" lon="-3.374454704132">
        <ele>3010.2</ele>
        <time>2019-01-08T11:11:58Z</time>
      </trkpt>
      <trkpt lat="37.063303265581" lon="-3.374551095982">
        <ele>3007.8</ele>
        <time>2019-01-08T11:11:59Z</time>
      </trkpt>
      <trkpt lat="37.063353389343" lon="-3.374622677408">
        <ele>3005.4</ele>
        <time>2019-01-08T11:12:00Z</time>
      </trkpt>
      <trkpt lat="37.06340477039" lon="-3.374694175015">
        <ele>3002.4</ele>
        <time>2019-01-08T11:12:01Z</time>
      </trkpt>
      <trkpt lat="37.063442321302" lon="-3.374779502757">
        <ele>2998.8</ele>
        <time>2019-01-08T11:12:02Z</time>
      </trkpt>
      <trkpt lat="37.063475345988" lon="-3.374872038933">
        <ele>2995.2</ele>
        <time>2019-01-08T11:12:03Z</time>
      </trkpt>
      <trkpt lat="37.063509963235" lon="-3.374962647272">
        <ele>2992.6</ele>
        <time>2019-01-08T11:12:04Z</time>
      </trkpt>
      <trkpt lat="37.063528319596" lon="-3.375066499013">
        <ele>2989.6</ele>
        <time>2019-01-08T11:12:05Z</time>
      </trkpt>
      <trkpt lat="37.063529493062" lon="-3.375180325215">
        <ele>2986.4</ele>
        <time>2019-01-08T11:12:06Z</time>
      </trkpt>
      <trkpt lat="37.063524128646" lon="-3.375295492521">
        <ele>2983.4</ele>
        <time>2019-01-08T11:12:07Z</time>
      </trkpt>
      <trkpt lat="37.063492277426" lon="-3.375405798325">
        <ele>2980.6</ele>
        <time>2019-01-08T11:12:08Z</time>
      </trkpt>
      <trkpt lat="37.063471490314" lon="-3.375515265939">
        <ele>2978</ele>
        <time>2019-01-08T11:12:09Z</time>
      </trkpt>
      <trkpt lat="37.063456235256" lon="-3.375620207327">
        <ele>2975.2</ele>
        <time>2019-01-08T11:12:10Z</time>
      </trkpt>
      <trkpt lat="37.063423629665" lon="-3.375719365204">
        <ele>2972.8</ele>
        <time>2019-01-08T11:12:11Z</time>
      </trkpt>
      <trkpt lat="37.063371997161" lon="-3.375803938575">
        <ele>2970.8</ele>
        <time>2019-01-08T11:12:12Z</time>
      </trkpt>
      <trkpt lat="37.063314078232" lon="-3.375880130046">
        <ele>2969.4</ele>
        <time>2019-01-08T11:12:13Z</time>
      </trkpt>
      <trkpt lat="37.063214752717" lon="-3.376033434997">
        <ele>2967.6</ele>
        <time>2019-01-08T11:12:15Z</time>
      </trkpt>
      <trkpt lat="37.063145937318" lon="-3.376077775248">
        <ele>2966.4</ele>
        <time>2019-01-08T11:12:16Z</time>
      </trkpt>
      <trkpt lat="37.063077205738" lon="-3.376125216802">
        <ele>2965.2</ele>
        <time>2019-01-08T11:12:17Z</time>
      </trkpt>
      <trkpt lat="37.063005875769" lon="-3.37616394118">
        <ele>2963.4</ele>
        <time>2019-01-08T11:12:18Z</time>
      </trkpt>
      <trkpt lat="37.062927253547" lon="-3.376194199839">
        <ele>2961.8</ele>
        <time>2019-01-08T11:12:19Z</time>
      </trkpt>
      <trkpt lat="37.062850978257" lon="-3.376235774063">
        <ele>2960</ele>
        <time>2019-01-08T11:12:20Z</time>
      </trkpt>
      <trkpt lat="37.062768081266" lon="-3.376265445989">
        <ele>2958.4</ele>
        <time>2019-01-08T11:12:21Z</time>
      </trkpt>
      <trkpt lat="37.062679652221" lon="-3.376287406567">
        <ele>2957</ele>
        <time>2019-01-08T11:12:22Z</time>
      </trkpt>
      <trkpt lat="37.062603796026" lon="-3.376331746818">
        <ele>2955.8</ele>
        <time>2019-01-08T11:12:23Z</time>
      </trkpt>
      <trkpt lat="37.062529616211" lon="-3.376376589983">
        <ele>2954.6</ele>
        <time>2019-01-08T11:12:24Z</time>
      </trkpt>
      <trkpt lat="37.062458621518" lon="-3.376414643809">
        <ele>2953.4</ele>
        <time>2019-01-08T11:12:25Z</time>
      </trkpt>
      <trkpt lat="37.062389889938" lon="-3.376460828078">
        <ele>2952</ele>
        <time>2019-01-08T11:12:26Z</time>
      </trkpt>
      <trkpt lat="37.062331803371" lon="-3.376517154446">
        <ele>2951</ele>
        <time>2019-01-08T11:12:27Z</time>
      </trkpt>
      <trkpt lat="37.062295342106" lon="-3.376593178279">
        <ele>2950</ele>
        <time>2019-01-08T11:12:28Z</time>
      </trkpt>
      <trkpt lat="37.062289810052" lon="-3.376686301188">
        <ele>2949.2</ele>
        <time>2019-01-08T11:12:29Z</time>
      </trkpt>
      <trkpt lat="37.062286122016" lon="-3.37678587816">
        <ele>2948</ele>
        <time>2019-01-08T11:12:30Z</time>
      </trkpt>
      <trkpt lat="37.06228243398" lon="-3.37688227001">
        <ele>2946.8</ele>
        <time>2019-01-08T11:12:31Z</time>
      </trkpt>
      <trkpt lat="37.062301293255" lon="-3.376977572213">
        <ele>2945.8</ele>
        <time>2019-01-08T11:12:32Z</time>
      </trkpt>
      <trkpt lat="37.062315039571" lon="-3.377081256316">
        <ele>2944.4</ele>
        <time>2019-01-08T11:12:33Z</time>
      </trkpt>
      <trkpt lat="37.062330294629" lon="-3.377180078917">
        <ele>2942.8</ele>
        <time>2019-01-08T11:12:34Z</time>
      </trkpt>
      <trkpt lat="37.062380837486" lon="-3.3772686756">
        <ele>2941</ele>
        <time>2019-01-08T11:12:35Z</time>
      </trkpt>
      <trkpt lat="37.062437582949" lon="-3.377372443522">
        <ele>2938.8</ele>
        <time>2019-01-08T11:12:36Z</time>
      </trkpt>
      <trkpt lat="37.062491059471" lon="-3.377472523408">
        <ele>2936.4</ele>
        <time>2019-01-08T11:12:37Z</time>
      </trkpt>
      <trkpt lat="37.062554342816" lon="-3.377562796471">
        <ele>2933.6</ele>
        <time>2019-01-08T11:12:38Z</time>
      </trkpt>
      <trkpt lat="37.062609076623" lon="-3.377654997371">
        <ele>2930.4</ele>
        <time>2019-01-08T11:12:39Z</time>
      </trkpt>
      <trkpt lat="37.062667330828" lon="-3.377745689529">
        <ele>2927.2</ele>
        <time>2019-01-08T11:12:40Z</time>
      </trkpt>
      <trkpt lat="37.062741594462" lon="-3.377793298721">
        <ele>2924.6</ele>
        <time>2019-01-08T11:12:41Z</time>
      </trkpt>
      <trkpt lat="37.062819127037" lon="-3.377818695878">
        <ele>2922.4</ele>
        <time>2019-01-08T11:12:42Z</time>
      </trkpt>
      <trkpt lat="37.062906634073" lon="-3.377832023099">
        <ele>2920.6</ele>
        <time>2019-01-08T11:12:43Z</time>
      </trkpt>
      <trkpt lat="37.06298399901" lon="-3.377836046411">
        <ele>2918.6</ele>
        <time>2019-01-08T11:12:44Z</time>
      </trkpt>
      <trkpt lat="37.063055161341" lon="-3.377819869344">
        <ele>2916.6</ele>
        <time>2019-01-08T11:12:45Z</time>
      </trkpt>
      <trkpt lat="37.063123725283" lon="-3.377806039209">
        <ele>2915.2</ele>
        <time>2019-01-08T11:12:46Z</time>
      </trkpt>
      <trkpt lat="37.063190696664" lon="-3.3778051172">
        <ele>2914</ele>
        <time>2019-01-08T11:12:47Z</time>
      </trkpt>
      <trkpt lat="37.063260853167" lon="-3.377816348946">
        <ele>2913</ele>
        <time>2019-01-08T11:12:48Z</time>
      </trkpt>
      <trkpt lat="37.06332933329" lon="-3.377835627316">
        <ele>2912.4</ele>
        <time>2019-01-08T11:12:49Z</time>
      </trkpt>
      <trkpt lat="37.063399405974" lon="-3.377849373632">
        <ele>2911.8</ele>
        <time>2019-01-08T11:12:50Z</time>
      </trkpt>
      <trkpt lat="37.063537707324" lon="-3.377850798555">
        <ele>2911.2</ele>
        <time>2019-01-08T11:12:52Z</time>
      </trkpt>
      <trkpt lat="37.063683803841" lon="-3.377866891803">
        <ele>2910.2</ele>
        <time>2019-01-08T11:12:54Z</time>
      </trkpt>
      <trkpt lat="37.063770472687" lon="-3.37787971611">
        <ele>2909.6</ele>
        <time>2019-01-08T11:12:55Z</time>
      </trkpt>
      <trkpt lat="37.063947749872" lon="-3.37790150905">
        <ele>2907.8</ele>
        <time>2019-01-08T11:12:57Z</time>
      </trkpt>
      <trkpt lat="37.064047243025" lon="-3.377934533736">
        <ele>2906.6</ele>
        <time>2019-01-08T11:12:58Z</time>
      </trkpt>
      <trkpt lat="37.064148580196" lon="-3.377946436034">
        <ele>2905.2</ele>
        <time>2019-01-08T11:12:59Z</time>
      </trkpt>
      <trkpt lat="37.064240194363" lon="-3.377971833191">
        <ele>2903.2</ele>
        <time>2019-01-08T11:13:00Z</time>
      </trkpt>
      <trkpt lat="37.064333904005" lon="-3.378024220066">
        <ele>2901</ele>
        <time>2019-01-08T11:13:01Z</time>
      </trkpt>
      <trkpt lat="37.064441024687" lon="-3.378065375195">
        <ele>2898.6</ele>
        <time>2019-01-08T11:13:02Z</time>
      </trkpt>
      <trkpt lat="37.064535572519" lon="-3.378104434849">
        <ele>2896.8</ele>
        <time>2019-01-08T11:13:03Z</time>
      </trkpt>
      <trkpt lat="37.064618385691" lon="-3.378177776474">
        <ele>2895</ele>
        <time>2019-01-08T11:13:04Z</time>
      </trkpt>
      <trkpt lat="37.06469558299" lon="-3.378268887727">
        <ele>2893.4</ele>
        <time>2019-01-08T11:13:05Z</time>
      </trkpt>
      <trkpt lat="37.064761213267" lon="-3.378383049205">
        <ele>2891.6</ele>
        <time>2019-01-08T11:13:06Z</time>
      </trkpt>
      <trkpt lat="37.064820305662" lon="-3.378511376094">
        <ele>2889.8</ele>
        <time>2019-01-08T11:13:07Z</time>
      </trkpt>
      <trkpt lat="37.064872524899" lon="-3.378638110422">
        <ele>2887.8</ele>
        <time>2019-01-08T11:13:08Z</time>
      </trkpt>
      <trkpt lat="37.064902280644" lon="-3.378766437311">
        <ele>2885.6</ele>
        <time>2019-01-08T11:13:09Z</time>
      </trkpt>
      <trkpt lat="37.064907058327" lon="-3.378896692037">
        <ele>2883.2</ele>
        <time>2019-01-08T11:13:10Z</time>
      </trkpt>
      <trkpt lat="37.064894485477" lon="-3.379020827976">
        <ele>2881</ele>
        <time>2019-01-08T11:13:11Z</time>
      </trkpt>
      <trkpt lat="37.064888953423" lon="-3.379121410776">
        <ele>2879.4</ele>
        <time>2019-01-08T11:13:12Z</time>
      </trkpt>
      <trkpt lat="37.064861125515" lon="-3.379202799025">
        <ele>2878</ele>
        <time>2019-01-08T11:13:13Z</time>
      </trkpt>
      <trkpt lat="37.064825921535" lon="-3.379272452614">
        <ele>2877</ele>
        <time>2019-01-08T11:13:14Z</time>
      </trkpt>
      <trkpt lat="37.064805637337" lon="-3.379346800067">
        <ele>2876.2</ele>
        <time>2019-01-08T11:13:15Z</time>
      </trkpt>
      <trkpt lat="37.064799099455" lon="-3.379430702886">
        <ele>2875.2</ele>
        <time>2019-01-08T11:13:16Z</time>
      </trkpt>
      <trkpt lat="37.064778396162" lon="-3.379522065596">
        <ele>2874.2</ele>
        <time>2019-01-08T11:13:17Z</time>
      </trkpt>
      <trkpt lat="37.064726428382" lon="-3.379729936716">
        <ele>2872</ele>
        <time>2019-01-08T11:13:19Z</time>
      </trkpt>
      <trkpt lat="37.064736486662" lon="-3.37984108071">
        <ele>2870.8</ele>
        <time>2019-01-08T11:13:20Z</time>
      </trkpt>
      <trkpt lat="37.064743527458" lon="-3.379965049011">
        <ele>2869</ele>
        <time>2019-01-08T11:13:21Z</time>
      </trkpt>
      <trkpt lat="37.064753669557" lon="-3.380105362017">
        <ele>2867</ele>
        <time>2019-01-08T11:13:22Z</time>
      </trkpt>
      <trkpt lat="37.064774540488" lon="-3.380251877629">
        <ele>2864.6</ele>
        <time>2019-01-08T11:13:23Z</time>
      </trkpt>
      <trkpt lat="37.064781665103" lon="-3.38040853534">
        <ele>2862.2</ele>
        <time>2019-01-08T11:13:24Z</time>
      </trkpt>
      <trkpt lat="37.064788873537" lon="-3.380575754245">
        <ele>2859.4</ele>
        <time>2019-01-08T11:13:25Z</time>
      </trkpt>
      <trkpt lat="37.064808654821" lon="-3.380740290942">
        <ele>2856.6</ele>
        <time>2019-01-08T11:13:26Z</time>
      </trkpt>
      <trkpt lat="37.064815695617" lon="-3.380913377177">
        <ele>2853.4</ele>
        <time>2019-01-08T11:13:27Z</time>
      </trkpt>
      <trkpt lat="37.064833549064" lon="-3.381080093168">
        <ele>2850</ele>
        <time>2019-01-08T11:13:28Z</time>
      </trkpt>
      <trkpt lat="37.064872608718" lon="-3.381246557702">
        <ele>2846.8</ele>
        <time>2019-01-08T11:13:29Z</time>
      </trkpt>
      <trkpt lat="37.06491351239" lon="-3.381412100227">
        <ele>2843.6</ele>
        <time>2019-01-08T11:13:30Z</time>
      </trkpt>
      <trkpt lat="37.0649629656" lon="-3.381571356327">
        <ele>2840.6</ele>
        <time>2019-01-08T11:13:31Z</time>
      </trkpt>
      <trkpt lat="37.065018537597" lon="-3.381726337658">
        <ele>2837.8</ele>
        <time>2019-01-08T11:13:32Z</time>
      </trkpt>
      <trkpt lat="37.065063045486" lon="-3.381887856871">
        <ele>2835.6</ele>
        <time>2019-01-08T11:13:33Z</time>
      </trkpt>
      <trkpt lat="37.065121802605" lon="-3.382034037207">
        <ele>2833.2</ele>
        <time>2019-01-08T11:13:34Z</time>
      </trkpt>
      <trkpt lat="37.06520436432" lon="-3.3821553233">
        <ele>2830.8</ele>
        <time>2019-01-08T11:13:35Z</time>
      </trkpt>
      <trkpt lat="37.06529991798" lon="-3.382274011004">
        <ele>2828.2</ele>
        <time>2019-01-08T11:13:36Z</time>
      </trkpt>
      <trkpt lat="37.065386586826" lon="-3.382405606834">
        <ele>2826</ele>
        <time>2019-01-08T11:13:37Z</time>
      </trkpt>
      <trkpt lat="37.065477027527" lon="-3.382517086104">
        <ele>2823.8</ele>
        <time>2019-01-08T11:13:38Z</time>
      </trkpt>
      <trkpt lat="37.065564115468" lon="-3.382625715528">
        <ele>2822</ele>
        <time>2019-01-08T11:13:39Z</time>
      </trkpt>
      <trkpt lat="37.065647850649" lon="-3.382753371865">
        <ele>2819.6</ele>
        <time>2019-01-08T11:13:40Z</time>
      </trkpt>
      <trkpt lat="37.065737369341" lon="-3.38286610842">
        <ele>2817.4</ele>
        <time>2019-01-08T11:13:41Z</time>
      </trkpt>
      <trkpt lat="37.065833425915" lon="-3.382970295437">
        <ele>2815</ele>
        <time>2019-01-08T11:13:42Z</time>
      </trkpt>
      <trkpt lat="37.065916239087" lon="-3.383095940118">
        <ele>2813</ele>
        <time>2019-01-08T11:13:43Z</time>
      </trkpt>
      <trkpt lat="37.06599813025" lon="-3.383211610338">
        <ele>2810.8</ele>
        <time>2019-01-08T11:13:44Z</time>
      </trkpt>
      <trkpt lat="37.066083793268" lon="-3.383311941681">
        <ele>2808.8</ele>
        <time>2019-01-08T11:13:45Z</time>
      </trkpt>
      <trkpt lat="37.066162583128" lon="-3.383423840046">
        <ele>2806.6</ele>
        <time>2019-01-08T11:13:46Z</time>
      </trkpt>
      <trkpt lat="37.06624036716" lon="-3.383550490555">
        <ele>2804.4</ele>
        <time>2019-01-08T11:13:47Z</time>
      </trkpt>
      <trkpt lat="37.06633172987" lon="-3.383634058098">
        <ele>2802</ele>
        <time>2019-01-08T11:13:48Z</time>
      </trkpt>
      <trkpt lat="37.066421583838" lon="-3.38369507833">
        <ele>2800.2</ele>
        <time>2019-01-08T11:13:49Z</time>
      </trkpt>
      <trkpt lat="37.066499703146" lon="-3.383759283684">
        <ele>2798.6</ele>
        <time>2019-01-08T11:13:50Z</time>
      </trkpt>
      <trkpt lat="37.066540103904" lon="-3.383855591715">
        <ele>2797</ele>
        <time>2019-01-08T11:13:51Z</time>
      </trkpt>
      <trkpt lat="37.066573380047" lon="-3.383958940542">
        <ele>2795.2</ele>
        <time>2019-01-08T11:13:52Z</time>
      </trkpt>
      <trkpt lat="37.066621995067" lon="-3.384057092591">
        <ele>2793.4</ele>
        <time>2019-01-08T11:13:53Z</time>
      </trkpt>
      <trkpt lat="37.066654600658" lon="-3.384166392567">
        <ele>2791.6</ele>
        <time>2019-01-08T11:13:54Z</time>
      </trkpt>
      <trkpt lat="37.066694414683" lon="-3.384282146606">
        <ele>2790.2</ele>
        <time>2019-01-08T11:13:55Z</time>
      </trkpt>
      <trkpt lat="37.066740096038" lon="-3.384400582853">
        <ele>2788.8</ele>
        <time>2019-01-08T11:13:56Z</time>
      </trkpt>
      <trkpt lat="37.066791644723" lon="-3.384521617489">
        <ele>2787</ele>
        <time>2019-01-08T11:13:57Z</time>
      </trkpt>
      <trkpt lat="37.066842019942" lon="-3.38465061493">
        <ele>2785.2</ele>
        <time>2019-01-08T11:13:58Z</time>
      </trkpt>
      <trkpt lat="37.066890718781" lon="-3.384788413366">
        <ele>2783.2</ele>
        <time>2019-01-08T11:13:59Z</time>
      </trkpt>
      <trkpt lat="37.06692852115" lon="-3.384936856815">
        <ele>2781.4</ele>
        <time>2019-01-08T11:14:00Z</time>
      </trkpt>
      <trkpt lat="37.066954253583" lon="-3.385101644969">
        <ele>2779.4</ele>
        <time>2019-01-08T11:14:01Z</time>
      </trkpt>
      <trkpt lat="37.066981746215" lon="-3.385276156127">
        <ele>2777.2</ele>
        <time>2019-01-08T11:14:02Z</time>
      </trkpt>
      <trkpt lat="37.067042431171" lon="-3.385426275956">
        <ele>2774.6</ele>
        <time>2019-01-08T11:14:03Z</time>
      </trkpt>
      <trkpt lat="37.067110743656" lon="-3.385570025541">
        <ele>2771.6</ele>
        <time>2019-01-08T11:14:04Z</time>
      </trkpt>
      <trkpt lat="37.067172350621" lon="-3.385719223361">
        <ele>2768.6</ele>
        <time>2019-01-08T11:14:05Z</time>
      </trkpt>
      <trkpt lat="37.067215014492" lon="-3.385872444493">
        <ele>2766.2</ele>
        <time>2019-01-08T11:14:06Z</time>
      </trkpt>
      <trkpt lat="37.067257426906" lon="-3.386026252358">
        <ele>2764.8</ele>
        <time>2019-01-08T11:14:07Z</time>
      </trkpt>
      <trkpt lat="37.067336635861" lon="-3.386292042407">
        <ele>2763</ele>
        <time>2019-01-08T11:14:09Z</time>
      </trkpt>
      <trkpt lat="37.067480804541" lon="-3.386515922956">
        <ele>2761.4</ele>
        <time>2019-01-08T11:14:11Z</time>
      </trkpt>
      <trkpt lat="37.06755884003" lon="-3.386647686424">
        <ele>2760.2</ele>
        <time>2019-01-08T11:14:12Z</time>
      </trkpt>
      <trkpt lat="37.067646766161" lon="-3.386768888698">
        <ele>2758.8</ele>
        <time>2019-01-08T11:14:13Z</time>
      </trkpt>
      <trkpt lat="37.06771725794" lon="-3.386914147025">
        <ele>2756.4</ele>
        <time>2019-01-08T11:14:14Z</time>
      </trkpt>
      <trkpt lat="37.067762017286" lon="-3.387088993459">
        <ele>2753.6</ele>
        <time>2019-01-08T11:14:15Z</time>
      </trkpt>
      <trkpt lat="37.067819600939" lon="-3.387243639514">
        <ele>2749.8</ele>
        <time>2019-01-08T11:14:16Z</time>
      </trkpt>
      <trkpt lat="37.067891266184" lon="-3.387382359959">
        <ele>2746.6</ele>
        <time>2019-01-08T11:14:17Z</time>
      </trkpt>
      <trkpt lat="37.067968631121" lon="-3.38751890111">
        <ele>2743.8</ele>
        <time>2019-01-08T11:14:18Z</time>
      </trkpt>
      <trkpt lat="37.068074243061" lon="-3.387594757305">
        <ele>2741.2</ele>
        <time>2019-01-08T11:14:19Z</time>
      </trkpt>
      <trkpt lat="37.068195780611" lon="-3.387630296561">
        <ele>2739</ele>
        <time>2019-01-08T11:14:20Z</time>
      </trkpt>
      <trkpt lat="37.068322514939" lon="-3.38767312807">
        <ele>2737.2</ele>
        <time>2019-01-08T11:14:21Z</time>
      </trkpt>
      <trkpt lat="37.068440029177" lon="-3.387739009804">
        <ele>2735.6</ele>
        <time>2019-01-08T11:14:22Z</time>
      </trkpt>
      <trkpt lat="37.068569613351" lon="-3.387759880735">
        <ele>2734</ele>
        <time>2019-01-08T11:14:23Z</time>
      </trkpt>
      <trkpt lat="37.068710177814" lon="-3.387755354509">
        <ele>2732.2</ele>
        <time>2019-01-08T11:14:24Z</time>
      </trkpt>
      <trkpt lat="37.068862393118" lon="-3.387770274291">
        <ele>2729.6</ele>
        <time>2019-01-08T11:14:25Z</time>
      </trkpt>
      <trkpt lat="37.069013602594" lon="-3.387762646762">
        <ele>2726.4</ele>
        <time>2019-01-08T11:14:26Z</time>
      </trkpt>
      <trkpt lat="37.069142013302" lon="-3.387699531055">
        <ele>2722.6</ele>
        <time>2019-01-08T11:14:27Z</time>
      </trkpt>
      <trkpt lat="37.069260114273" lon="-3.387645886895">
        <ele>2719</ele>
        <time>2019-01-08T11:14:28Z</time>
      </trkpt>
      <trkpt lat="37.069379137253" lon="-3.387608838897">
        <ele>2715.2</ele>
        <time>2019-01-08T11:14:29Z</time>
      </trkpt>
      <trkpt lat="37.069498076414" lon="-3.387577742048">
        <ele>2711.8</ele>
        <time>2019-01-08T11:14:30Z</time>
      </trkpt>
      <trkpt lat="37.069609639503" lon="-3.387575646573">
        <ele>2709.8</ele>
        <time>2019-01-08T11:14:31Z</time>
      </trkpt>
      <trkpt lat="37.069716508728" lon="-3.38761361658">
        <ele>2708.6</ele>
        <time>2019-01-08T11:14:32Z</time>
      </trkpt>
      <trkpt lat="37.069819773736" lon="-3.387659800849">
        <ele>2707.4</ele>
        <time>2019-01-08T11:14:33Z</time>
      </trkpt>
      <trkpt lat="37.069920105079" lon="-3.387697100304">
        <ele>2706.2</ele>
        <time>2019-01-08T11:14:34Z</time>
      </trkpt>
      <trkpt lat="37.070017083662" lon="-3.387750912102">
        <ele>2704.6</ele>
        <time>2019-01-08T11:14:35Z</time>
      </trkpt>
      <trkpt lat="37.070115990082" lon="-3.387814279266">
        <ele>2703.4</ele>
        <time>2019-01-08T11:14:36Z</time>
      </trkpt>
      <trkpt lat="37.070217411072" lon="-3.387861469363">
        <ele>2702</ele>
        <time>2019-01-08T11:14:37Z</time>
      </trkpt>
      <trkpt lat="37.07032067608" lon="-3.387897846809">
        <ele>2700.4</ele>
        <time>2019-01-08T11:14:38Z</time>
      </trkpt>
      <trkpt lat="37.070415726826" lon="-3.387947551476">
        <ele>2699</ele>
        <time>2019-01-08T11:14:39Z</time>
      </trkpt>
      <trkpt lat="37.070496444523" lon="-3.388024748775">
        <ele>2697.4</ele>
        <time>2019-01-08T11:14:40Z</time>
      </trkpt>
      <trkpt lat="37.070565679017" lon="-3.388111836716">
        <ele>2696</ele>
        <time>2019-01-08T11:14:41Z</time>
      </trkpt>
      <trkpt lat="37.070637930995" lon="-3.38817520388">
        <ele>2694.4</ele>
        <time>2019-01-08T11:14:42Z</time>
      </trkpt>
      <trkpt lat="37.070718061959" lon="-3.388204624349">
        <ele>2693</ele>
        <time>2019-01-08T11:14:43Z</time>
      </trkpt>
      <trkpt lat="37.070797690009" lon="-3.38822968623">
        <ele>2691.6</ele>
        <time>2019-01-08T11:14:44Z</time>
      </trkpt>
      <trkpt lat="37.070867595055" lon="-3.38826069926">
        <ele>2690.6</ele>
        <time>2019-01-08T11:14:45Z</time>
      </trkpt>
      <trkpt lat="37.070920903939" lon="-3.388313421411">
        <ele>2689.6</ele>
        <time>2019-01-08T11:14:46Z</time>
      </trkpt>
      <trkpt lat="37.070972955538" lon="-3.388347535744">
        <ele>2689</ele>
        <time>2019-01-08T11:14:47Z</time>
      </trkpt>
      <trkpt lat="37.071015032676" lon="-3.3883746931">
        <ele>2688.6</ele>
        <time>2019-01-08T11:14:48Z</time>
      </trkpt>
      <trkpt lat="37.071085440636" lon="-3.388481227049">
        <ele>2687.8</ele>
        <time>2019-01-08T11:14:51Z</time>
      </trkpt>
      <trkpt lat="37.071164649591" lon="-3.388505618378">
        <ele>2687.4</ele>
        <time>2019-01-08T11:14:54Z</time>
      </trkpt>
      <trkpt lat="37.071224328719" lon="-3.388436886798">
        <ele>2687.2</ele>
        <time>2019-01-08T11:14:56Z</time>
      </trkpt>
      <trkpt lat="37.071229944592" lon="-3.388318199094">
        <ele>2686.4</ele>
        <time>2019-01-08T11:14:58Z</time>
      </trkpt>
      <trkpt lat="37.071190549662" lon="-3.388189369291">
        <ele>2685.4</ele>
        <time>2019-01-08T11:15:00Z</time>
      </trkpt>
      <trkpt lat="37.07114126409" lon="-3.387991472632">
        <ele>2684</ele>
        <time>2019-01-08T11:15:03Z</time>
      </trkpt>
      <trkpt lat="37.071124081195" lon="-3.387806316461">
        <ele>2682.8</ele>
        <time>2019-01-08T11:15:06Z</time>
      </trkpt>
      <trkpt lat="37.071134139475" lon="-3.387695340105">
        <ele>2682</ele>
        <time>2019-01-08T11:15:08Z</time>
      </trkpt>
      <trkpt lat="37.071157273519" lon="-3.387594924943">
        <ele>2681.6</ele>
        <time>2019-01-08T11:15:10Z</time>
      </trkpt>
      <trkpt lat="37.071243020356" lon="-3.387415719921">
        <ele>2681</ele>
        <time>2019-01-08T11:15:15Z</time>
      </trkpt>
      <trkpt lat="37.071227681479" lon="-3.387366853444">
        <ele>2680.8</ele>
        <time>2019-01-08T11:15:17Z</time>
      </trkpt>
      <trkpt lat="37.071159536632" lon="-3.387315807673">
        <ele>2680.6</ele>
        <time>2019-01-08T11:15:21Z</time>
      </trkpt>
      <trkpt lat="37.071127936869" lon="-3.387260906228">
        <ele>2680.4</ele>
        <time>2019-01-08T11:15:26Z</time>
      </trkpt>
      <trkpt lat="37.070964573638" lon="-3.387073654582">
        <ele>2678.8</ele>
        <time>2019-01-08T11:16:12Z</time>
      </trkpt>
      <trkpt lat="37.0708302956" lon="-3.386848516748">
        <ele>2678.4</ele>
        <time>2019-01-08T11:16:18Z</time>
      </trkpt>
      <trkpt lat="37.07076072583" lon="-3.386744162093">
        <ele>2680.6</ele>
        <time>2019-01-08T11:16:21Z</time>
      </trkpt>
      <trkpt lat="37.062625588966" lon="-3.373509980183">
        <ele>3026.8</ele>
        <time>2019-01-08T11:22:57Z</time>
      </trkpt>
      <trkpt lat="37.062748635258" lon="-3.373548453104">
        <ele>3027.2</ele>
        <time>2019-01-08T11:23:03Z</time>
      </trkpt>
      <trkpt lat="37.062867825876" lon="-3.373659094184">
        <ele>3026.4</ele>
        <time>2019-01-08T11:23:09Z</time>
      </trkpt>
      <trkpt lat="37.062871933007" lon="-3.37376085045">
        <ele>3025.6</ele>
        <time>2019-01-08T11:23:11Z</time>
      </trkpt>
      <trkpt lat="37.062886685151" lon="-3.373818769379">
        <ele>3025</ele>
        <time>2019-01-08T11:23:12Z</time>
      </trkpt>
      <trkpt lat="37.062926750633" lon="-3.373874509014">
        <ele>3024.4</ele>
        <time>2019-01-08T11:23:13Z</time>
      </trkpt>
      <trkpt lat="37.06297058797" lon="-3.373948185915">
        <ele>3023.6</ele>
        <time>2019-01-08T11:23:14Z</time>
      </trkpt>
      <trkpt lat="37.063021466103" lon="-3.373998644953">
        <ele>3022.6</ele>
        <time>2019-01-08T11:23:15Z</time>
      </trkpt>
      <trkpt lat="37.063074439711" lon="-3.374038710435">
        <ele>3021</ele>
        <time>2019-01-08T11:23:16Z</time>
      </trkpt>
      <trkpt lat="37.063123222369" lon="-3.37409528826">
        <ele>3019.4</ele>
        <time>2019-01-08T11:23:17Z</time>
      </trkpt>
      <trkpt lat="37.063186673352" lon="-3.37413049224">
        <ele>3017.4</ele>
        <time>2019-01-08T11:23:18Z</time>
      </trkpt>
      <trkpt lat="37.063249286145" lon="-3.374146836945">
        <ele>3015.2</ele>
        <time>2019-01-08T11:23:19Z</time>
      </trkpt>
      <trkpt lat="37.063307624169" lon="-3.374160750899">
        <ele>3012.8</ele>
        <time>2019-01-08T11:23:20Z</time>
      </trkpt>
      <trkpt lat="37.063373505903" lon="-3.374193440309">
        <ele>3010.6</ele>
        <time>2019-01-08T11:23:21Z</time>
      </trkpt>
      <trkpt lat="37.063438884723" lon="-3.374246581555">
        <ele>3008.8</ele>
        <time>2019-01-08T11:23:22Z</time>
      </trkpt>
      <trkpt lat="37.063492947978" lon="-3.374307434149">
        <ele>3007.2</ele>
        <time>2019-01-08T11:23:23Z</time>
      </trkpt>
      <trkpt lat="37.063532678184" lon="-3.37438865476">
        <ele>3005.2</ele>
        <time>2019-01-08T11:23:24Z</time>
      </trkpt>
      <trkpt lat="37.063578108082" lon="-3.374466103516">
        <ele>3003.2</ele>
        <time>2019-01-08T11:23:25Z</time>
      </trkpt>
      <trkpt lat="37.063642481074" lon="-3.374524106264">
        <ele>3000.4</ele>
        <time>2019-01-08T11:23:26Z</time>
      </trkpt>
      <trkpt lat="37.063721773848" lon="-3.374562830642">
        <ele>2997.4</ele>
        <time>2019-01-08T11:23:27Z</time>
      </trkpt>
      <trkpt lat="37.063801820993" lon="-3.374594178948">
        <ele>2994.2</ele>
        <time>2019-01-08T11:23:28Z</time>
      </trkpt>
      <trkpt lat="37.063884047432" lon="-3.374615385155">
        <ele>2991.8</ele>
        <time>2019-01-08T11:23:29Z</time>
      </trkpt>
      <trkpt lat="37.063964094577" lon="-3.374637261914">
        <ele>2990</ele>
        <time>2019-01-08T11:23:30Z</time>
      </trkpt>
      <trkpt lat="37.064039950772" lon="-3.374667520573">
        <ele>2988.6</ele>
        <time>2019-01-08T11:23:31Z</time>
      </trkpt>
      <trkpt lat="37.064110023456" lon="-3.374703898019">
        <ele>2987.4</ele>
        <time>2019-01-08T11:23:32Z</time>
      </trkpt>
      <trkpt lat="37.064179509407" lon="-3.374738766723">
        <ele>2986.4</ele>
        <time>2019-01-08T11:23:33Z</time>
      </trkpt>
      <trkpt lat="37.064290904858" lon="-3.374822753361">
        <ele>2984.2</ele>
        <time>2019-01-08T11:23:35Z</time>
      </trkpt>
      <trkpt lat="37.064332227625" lon="-3.374896094986">
        <ele>2983</ele>
        <time>2019-01-08T11:23:36Z</time>
      </trkpt>
      <trkpt lat="37.06437455622" lon="-3.374977147959">
        <ele>2981.8</ele>
        <time>2019-01-08T11:23:37Z</time>
      </trkpt>
      <trkpt lat="37.064406826535" lon="-3.375075551465">
        <ele>2980.4</ele>
        <time>2019-01-08T11:23:38Z</time>
      </trkpt>
      <trkpt lat="37.064433480977" lon="-3.375186946916">
        <ele>2979.2</ele>
        <time>2019-01-08T11:23:39Z</time>
      </trkpt>
      <trkpt lat="37.06446256617" lon="-3.375297923272">
        <ele>2977.4</ele>
        <time>2019-01-08T11:23:40Z</time>
      </trkpt>
      <trkpt lat="37.064476983038" lon="-3.375418622632">
        <ele>2974.6</ele>
        <time>2019-01-08T11:23:41Z</time>
      </trkpt>
      <trkpt lat="37.064504643308" lon="-3.375524905124">
        <ele>2971.6</ele>
        <time>2019-01-08T11:23:42Z</time>
      </trkpt>
      <trkpt lat="37.06456398716" lon="-3.375591122134">
        <ele>2968.2</ele>
        <time>2019-01-08T11:23:43Z</time>
      </trkpt>
      <trkpt lat="37.064601118977" lon="-3.375667397424">
        <ele>2965.2</ele>
        <time>2019-01-08T11:23:44Z</time>
      </trkpt>
      <trkpt lat="37.064607824497" lon="-3.375765884749">
        <ele>2962.4</ele>
        <time>2019-01-08T11:23:45Z</time>
      </trkpt>
      <trkpt lat="37.06460757304" lon="-3.375868646843">
        <ele>2960.2</ele>
        <time>2019-01-08T11:23:46Z</time>
      </trkpt>
      <trkpt lat="37.064591228335" lon="-3.375961685933">
        <ele>2957.8</ele>
        <time>2019-01-08T11:23:47Z</time>
      </trkpt>
      <trkpt lat="37.064571698508" lon="-3.376054054471">
        <ele>2955.8</ele>
        <time>2019-01-08T11:23:48Z</time>
      </trkpt>
      <trkpt lat="37.064577649657" lon="-3.376120690576">
        <ele>2953.6</ele>
        <time>2019-01-08T11:23:49Z</time>
      </trkpt>
      <trkpt lat="37.064602292443" lon="-3.376165785198">
        <ele>2952.2</ele>
        <time>2019-01-08T11:23:50Z</time>
      </trkpt>
      <trkpt lat="37.064622911917" lon="-3.37623015819">
        <ele>2950.6</ele>
        <time>2019-01-08T11:23:51Z</time>
      </trkpt>
      <trkpt lat="37.064656774793" lon="-3.376287574205">
        <ele>2949.2</ele>
        <time>2019-01-08T11:23:52Z</time>
      </trkpt>
      <trkpt lat="37.064693403696" lon="-3.376337027415">
        <ele>2947.6</ele>
        <time>2019-01-08T11:23:53Z</time>
      </trkpt>
      <trkpt lat="37.064731960436" lon="-3.376393018507">
        <ele>2945.4</ele>
        <time>2019-01-08T11:23:54Z</time>
      </trkpt>
      <trkpt lat="37.06478526932" lon="-3.376451272712">
        <ele>2943.2</ele>
        <time>2019-01-08T11:23:55Z</time>
      </trkpt>
      <trkpt lat="37.064844948448" lon="-3.376504916872">
        <ele>2940.8</ele>
        <time>2019-01-08T11:23:56Z</time>
      </trkpt>
      <trkpt lat="37.064898844065" lon="-3.37657968342">
        <ele>2938</ele>
        <time>2019-01-08T11:23:57Z</time>
      </trkpt>
      <trkpt lat="37.064956511537" lon="-3.376659479108">
        <ele>2934.8</ele>
        <time>2019-01-08T11:23:58Z</time>
      </trkpt>
      <trkpt lat="37.065012083534" lon="-3.376719325874">
        <ele>2931.8</ele>
        <time>2019-01-08T11:23:59Z</time>
      </trkpt>
      <trkpt lat="37.065062207296" lon="-3.376782022486">
        <ele>2929</ele>
        <time>2019-01-08T11:24:00Z</time>
      </trkpt>
      <trkpt lat="37.065114342714" lon="-3.37683868413">
        <ele>2926.4</ele>
        <time>2019-01-08T11:24:01Z</time>
      </trkpt>
      <trkpt lat="37.065178799525" lon="-3.376880845087">
        <ele>2924</ele>
        <time>2019-01-08T11:24:02Z</time>
      </trkpt>
      <trkpt lat="37.065218948826" lon="-3.376953767617">
        <ele>2921.8</ele>
        <time>2019-01-08T11:24:03Z</time>
      </trkpt>
      <trkpt lat="37.065263372896" lon="-3.377028282708">
        <ele>2919.4</ele>
        <time>2019-01-08T11:24:04Z</time>
      </trkpt>
      <trkpt lat="37.065319699264" lon="-3.377088632388">
        <ele>2916.8</ele>
        <time>2019-01-08T11:24:05Z</time>
      </trkpt>
      <trkpt lat="37.065375271261" lon="-3.377165997325">
        <ele>2914.2</ele>
        <time>2019-01-08T11:24:06Z</time>
      </trkpt>
      <trkpt lat="37.065443835203" lon="-3.377245290099">
        <ele>2911.6</ele>
        <time>2019-01-08T11:24:07Z</time>
      </trkpt>
      <trkpt lat="37.065518517932" lon="-3.377325085787">
        <ele>2908.6</ele>
        <time>2019-01-08T11:24:08Z</time>
      </trkpt>
      <trkpt lat="37.065566965314" lon="-3.37743798998">
        <ele>2905.2</ele>
        <time>2019-01-08T11:24:09Z</time>
      </trkpt>
      <trkpt lat="37.065622956406" lon="-3.377560617177">
        <ele>2901.8</ele>
        <time>2019-01-08T11:24:10Z</time>
      </trkpt>
      <trkpt lat="37.065691520348" lon="-3.377672012628">
        <ele>2898.4</ele>
        <time>2019-01-08T11:24:11Z</time>
      </trkpt>
      <trkpt lat="37.0657508642" lon="-3.377800004241">
        <ele>2895.2</ele>
        <time>2019-01-08T11:24:12Z</time>
      </trkpt>
      <trkpt lat="37.065814482821" lon="-3.377925146008">
        <ele>2892.2</ele>
        <time>2019-01-08T11:24:13Z</time>
      </trkpt>
      <trkpt lat="37.065874497225" lon="-3.378055316915">
        <ele>2889.6</ele>
        <time>2019-01-08T11:24:14Z</time>
      </trkpt>
      <trkpt lat="37.065943480262" lon="-3.378174004619">
        <ele>2887.4</ele>
        <time>2019-01-08T11:24:15Z</time>
      </trkpt>
      <trkpt lat="37.066031993126" lon="-3.378275425609">
        <ele>2885.2</ele>
        <time>2019-01-08T11:24:16Z</time>
      </trkpt>
      <trkpt lat="37.066105753846" lon="-3.378399729186">
        <ele>2882.4</ele>
        <time>2019-01-08T11:24:17Z</time>
      </trkpt>
      <trkpt lat="37.066177083815" lon="-3.378533169034">
        <ele>2879.6</ele>
        <time>2019-01-08T11:24:18Z</time>
      </trkpt>
      <trkpt lat="37.066251095992" lon="-3.378664932502">
        <ele>2877</ele>
        <time>2019-01-08T11:24:19Z</time>
      </trkpt>
      <trkpt lat="37.066316893907" lon="-3.378800216368">
        <ele>2874.8</ele>
        <time>2019-01-08T11:24:20Z</time>
      </trkpt>
      <trkpt lat="37.066387972419" lon="-3.378930471094">
        <ele>2872.6</ele>
        <time>2019-01-08T11:24:21Z</time>
      </trkpt>
      <trkpt lat="37.066447148633" lon="-3.37906491677">
        <ele>2870.2</ele>
        <time>2019-01-08T11:24:22Z</time>
      </trkpt>
      <trkpt lat="37.066513114186" lon="-3.379187879243">
        <ele>2868.2</ele>
        <time>2019-01-08T11:24:23Z</time>
      </trkpt>
      <trkpt lat="37.066594586254" lon="-3.37928116979">
        <ele>2866</ele>
        <time>2019-01-08T11:24:24Z</time>
      </trkpt>
      <trkpt lat="37.066682428566" lon="-3.379351074836">
        <ele>2864.2</ele>
        <time>2019-01-08T11:24:25Z</time>
      </trkpt>
      <trkpt lat="37.06676088315" lon="-3.37942701485">
        <ele>2862.8</ele>
        <time>2019-01-08T11:24:26Z</time>
      </trkpt>
      <trkpt lat="37.066835314422" lon="-3.379513096963">
        <ele>2861.6</ele>
        <time>2019-01-08T11:24:27Z</time>
      </trkpt>
      <trkpt lat="37.066921228897" lon="-3.379575542118">
        <ele>2860.2</ele>
        <time>2019-01-08T11:24:28Z</time>
      </trkpt>
      <trkpt lat="37.067016363462" lon="-3.379601861284">
        <ele>2858.6</ele>
        <time>2019-01-08T11:24:29Z</time>
      </trkpt>
      <trkpt lat="37.067111498027" lon="-3.379631700848">
        <ele>2856.6</ele>
        <time>2019-01-08T11:24:30Z</time>
      </trkpt>
      <trkpt lat="37.067205794402" lon="-3.379688111035">
        <ele>2855</ele>
        <time>2019-01-08T11:24:31Z</time>
      </trkpt>
      <trkpt lat="37.067306209564" lon="-3.379734882037">
        <ele>2853.6</ele>
        <time>2019-01-08T11:24:32Z</time>
      </trkpt>
      <trkpt lat="37.067400673577" lon="-3.379783832333">
        <ele>2852.4</ele>
        <time>2019-01-08T11:24:33Z</time>
      </trkpt>
      <trkpt lat="37.067493964124" lon="-3.379860694356">
        <ele>2851.4</ele>
        <time>2019-01-08T11:24:34Z</time>
      </trkpt>
      <trkpt lat="37.067580465332" lon="-3.379926408452">
        <ele>2849.8</ele>
        <time>2019-01-08T11:24:35Z</time>
      </trkpt>
      <trkpt lat="37.067665625436" lon="-3.379973598549">
        <ele>2847.6</ele>
        <time>2019-01-08T11:24:36Z</time>
      </trkpt>
      <trkpt lat="37.067743074192" lon="-3.380034367324">
        <ele>2845.8</ele>
        <time>2019-01-08T11:24:37Z</time>
      </trkpt>
      <trkpt lat="37.067824378622" lon="-3.380072588788">
        <ele>2844.2</ele>
        <time>2019-01-08T11:24:38Z</time>
      </trkpt>
      <trkpt lat="37.067902078835" lon="-3.380083569077">
        <ele>2842.6</ele>
        <time>2019-01-08T11:24:39Z</time>
      </trkpt>
      <trkpt lat="37.067967206198" lon="-3.380088095303">
        <ele>2841</ele>
        <time>2019-01-08T11:24:40Z</time>
      </trkpt>
      <trkpt lat="37.068021604729" lon="-3.380107373673">
        <ele>2839.4</ele>
        <time>2019-01-08T11:24:41Z</time>
      </trkpt>
      <trkpt lat="37.068073656328" lon="-3.380146852422">
        <ele>2837.8</ele>
        <time>2019-01-08T11:24:42Z</time>
      </trkpt>
      <trkpt lat="37.068136185302" lon="-3.380185241524">
        <ele>2836.2</ele>
        <time>2019-01-08T11:24:43Z</time>
      </trkpt>
      <trkpt lat="37.068196032068" lon="-3.380247183765">
        <ele>2834.8</ele>
        <time>2019-01-08T11:24:44Z</time>
      </trkpt>
      <trkpt lat="37.068254705368" lon="-3.380325219254">
        <ele>2834</ele>
        <time>2019-01-08T11:24:45Z</time>
      </trkpt>
      <trkpt lat="37.068326789708" lon="-3.380366793478">
        <ele>2832.8</ele>
        <time>2019-01-08T11:24:46Z</time>
      </trkpt>
      <trkpt lat="37.068395521288" lon="-3.380411552824">
        <ele>2831.2</ele>
        <time>2019-01-08T11:24:47Z</time>
      </trkpt>
      <trkpt lat="37.06845235057" lon="-3.380481960784">
        <ele>2829.2</ele>
        <time>2019-01-08T11:24:48Z</time>
      </trkpt>
      <trkpt lat="37.068521668883" lon="-3.380537029867">
        <ele>2827.2</ele>
        <time>2019-01-08T11:24:49Z</time>
      </trkpt>
      <trkpt lat="37.068595932517" lon="-3.380569719277">
        <ele>2826</ele>
        <time>2019-01-08T11:24:50Z</time>
      </trkpt>
      <trkpt lat="37.068659299681" lon="-3.380622776704">
        <ele>2824.4</ele>
        <time>2019-01-08T11:24:51Z</time>
      </trkpt>
      <trkpt lat="37.068722583026" lon="-3.380673738656">
        <ele>2822.8</ele>
        <time>2019-01-08T11:24:52Z</time>
      </trkpt>
      <trkpt lat="37.068802294895" lon="-3.380693855216">
        <ele>2820.8</ele>
        <time>2019-01-08T11:24:53Z</time>
      </trkpt>
      <trkpt lat="37.068877145262" lon="-3.380753534344">
        <ele>2818.8</ele>
        <time>2019-01-08T11:24:54Z</time>
      </trkpt>
      <trkpt lat="37.068941099159" lon="-3.380835593145">
        <ele>2817.2</ele>
        <time>2019-01-08T11:24:55Z</time>
      </trkpt>
      <trkpt lat="37.069002287029" lon="-3.380878927568">
        <ele>2815</ele>
        <time>2019-01-08T11:24:56Z</time>
      </trkpt>
      <trkpt lat="37.069051907877" lon="-3.380892003332">
        <ele>2812.4</ele>
        <time>2019-01-08T11:24:57Z</time>
      </trkpt>
      <trkpt lat="37.069099768526" lon="-3.380895020816">
        <ele>2809.6</ele>
        <time>2019-01-08T11:24:58Z</time>
      </trkpt>
      <trkpt lat="37.069153412686" lon="-3.38088714183">
        <ele>2807.2</ele>
        <time>2019-01-08T11:24:59Z</time>
      </trkpt>
      <trkpt lat="37.069205967199" lon="-3.380874485161">
        <ele>2805.4</ele>
        <time>2019-01-08T11:25:00Z</time>
      </trkpt>
      <trkpt lat="37.069261036282" lon="-3.380862331406">
        <ele>2804.4</ele>
        <time>2019-01-08T11:25:01Z</time>
      </trkpt>
      <trkpt lat="37.069397325976" lon="-3.380853362773">
        <ele>2802.8</ele>
        <time>2019-01-08T11:25:03Z</time>
      </trkpt>
      <trkpt lat="37.069476870207" lon="-3.380860571207">
        <ele>2802.2</ele>
        <time>2019-01-08T11:25:04Z</time>
      </trkpt>
      <trkpt lat="37.069559851017" lon="-3.380884711079">
        <ele>2801.4</ele>
        <time>2019-01-08T11:25:05Z</time>
      </trkpt>
      <trkpt lat="37.069637802687" lon="-3.38092569857">
        <ele>2800.4</ele>
        <time>2019-01-08T11:25:06Z</time>
      </trkpt>
      <trkpt lat="37.069702427136" lon="-3.38099443015">
        <ele>2799.2</ele>
        <time>2019-01-08T11:25:07Z</time>
      </trkpt>
      <trkpt lat="37.069767303042" lon="-3.381066933585">
        <ele>2797.8</ele>
        <time>2019-01-08T11:25:08Z</time>
      </trkpt>
      <trkpt lat="37.069840979943" lon="-3.381116219157">
        <ele>2796.6</ele>
        <time>2019-01-08T11:25:09Z</time>
      </trkpt>
      <trkpt lat="37.069905017659" lon="-3.381181430339">
        <ele>2795.4</ele>
        <time>2019-01-08T11:25:10Z</time>
      </trkpt>
      <trkpt lat="37.069974838886" lon="-3.381262231855">
        <ele>2794</ele>
        <time>2019-01-08T11:25:11Z</time>
      </trkpt>
      <trkpt lat="37.0700591608" lon="-3.381329454693">
        <ele>2792.6</ele>
        <time>2019-01-08T11:25:12Z</time>
      </trkpt>
      <trkpt lat="37.070141638696" lon="-3.381403969784">
        <ele>2791</ele>
        <time>2019-01-08T11:25:13Z</time>
      </trkpt>
      <trkpt lat="37.070216153787" lon="-3.381521148746">
        <ele>2788.4</ele>
        <time>2019-01-08T11:25:14Z</time>
      </trkpt>
      <trkpt lat="37.070301984443" lon="-3.381643105391">
        <ele>2785.6</ele>
        <time>2019-01-08T11:25:15Z</time>
      </trkpt>
      <trkpt lat="37.070410110953" lon="-3.381741341259">
        <ele>2782.2</ele>
        <time>2019-01-08T11:25:16Z</time>
      </trkpt>
      <trkpt lat="37.070520081481" lon="-3.381837062557">
        <ele>2778.6</ele>
        <time>2019-01-08T11:25:17Z</time>
      </trkpt>
      <trkpt lat="37.070609935449" lon="-3.381957259003">
        <ele>2775</ele>
        <time>2019-01-08T11:25:18Z</time>
      </trkpt>
      <trkpt lat="37.070666094179" lon="-3.382105283357">
        <ele>2771.6</ele>
        <time>2019-01-08T11:25:19Z</time>
      </trkpt>
      <trkpt lat="37.07072384547" lon="-3.382247440381">
        <ele>2769</ele>
        <time>2019-01-08T11:25:20Z</time>
      </trkpt>
      <trkpt lat="37.070827026659" lon="-3.382334276865">
        <ele>2767</ele>
        <time>2019-01-08T11:25:21Z</time>
      </trkpt>
      <trkpt lat="37.070952922797" lon="-3.382360596031">
        <ele>2765.2</ele>
        <time>2019-01-08T11:25:22Z</time>
      </trkpt>
      <trkpt lat="37.071076052908" lon="-3.382363697334">
        <ele>2762.8</ele>
        <time>2019-01-08T11:25:23Z</time>
      </trkpt>
      <trkpt lat="37.071188957101" lon="-3.382402840807">
        <ele>2760.4</ele>
        <time>2019-01-08T11:25:24Z</time>
      </trkpt>
      <trkpt lat="37.071286857693" lon="-3.382480960115">
        <ele>2757.6</ele>
        <time>2019-01-08T11:25:25Z</time>
      </trkpt>
      <trkpt lat="37.071346536821" lon="-3.382581794372">
        <ele>2755.4</ele>
        <time>2019-01-08T11:25:26Z</time>
      </trkpt>
      <trkpt lat="37.071374951462" lon="-3.38269092671">
        <ele>2753</ele>
        <time>2019-01-08T11:25:27Z</time>
      </trkpt>
      <trkpt lat="37.071415687496" lon="-3.382772734054">
        <ele>2750.4</ele>
        <time>2019-01-08T11:25:28Z</time>
      </trkpt>
      <trkpt lat="37.07145809991" lon="-3.382832245544">
        <ele>2747.8</ele>
        <time>2019-01-08T11:25:29Z</time>
      </trkpt>
      <trkpt lat="37.07150503855" lon="-3.382908185558">
        <ele>2744.8</ele>
        <time>2019-01-08T11:25:30Z</time>
      </trkpt>
      <trkpt lat="37.071557257787" lon="-3.382997788069">
        <ele>2742.4</ele>
        <time>2019-01-08T11:25:31Z</time>
      </trkpt>
      <trkpt lat="37.071622301331" lon="-3.383063502165">
        <ele>2739.6</ele>
        <time>2019-01-08T11:25:32Z</time>
      </trkpt>
      <trkpt lat="37.071689105074" lon="-3.383126534053">
        <ele>2737</ele>
        <time>2019-01-08T11:25:33Z</time>
      </trkpt>
      <trkpt lat="37.071743755062" lon="-3.383199037488">
        <ele>2733.4</ele>
        <time>2019-01-08T11:25:34Z</time>
      </trkpt>
      <trkpt lat="37.071731517488" lon="-3.38330783455">
        <ele>2730</ele>
        <time>2019-01-08T11:25:35Z</time>
      </trkpt>
      <trkpt lat="37.071736965723" lon="-3.383428114815">
        <ele>2727.2</ele>
        <time>2019-01-08T11:25:36Z</time>
      </trkpt>
      <trkpt lat="37.071770493323" lon="-3.383551077288">
        <ele>2725</ele>
        <time>2019-01-08T11:25:37Z</time>
      </trkpt>
      <trkpt lat="37.071811648452" lon="-3.383668004793">
        <ele>2722.2</ele>
        <time>2019-01-08T11:25:38Z</time>
      </trkpt>
      <trkpt lat="37.071866466078" lon="-3.383762217349">
        <ele>2719.2</ele>
        <time>2019-01-08T11:25:39Z</time>
      </trkpt>
      <trkpt lat="37.071897562927" lon="-3.383841677761">
        <ele>2716.4</ele>
        <time>2019-01-08T11:25:40Z</time>
      </trkpt>
      <trkpt lat="37.071907705026" lon="-3.383904709649">
        <ele>2714.8</ele>
        <time>2019-01-08T11:25:41Z</time>
      </trkpt>
      <trkpt lat="37.071909465225" lon="-3.383953659945">
        <ele>2713.8</ele>
        <time>2019-01-08T11:25:42Z</time>
      </trkpt>
      <trkpt lat="37.0719450883" lon="-3.384045860845">
        <ele>2712.2</ele>
        <time>2019-01-08T11:25:44Z</time>
      </trkpt>
      <trkpt lat="37.072001079392" lon="-3.384190029525">
        <ele>2711.4</ele>
        <time>2019-01-08T11:25:46Z</time>
      </trkpt>
      <trkpt lat="37.072058746864" lon="-3.384254570155">
        <ele>2710.6</ele>
        <time>2019-01-08T11:25:47Z</time>
      </trkpt>
      <trkpt lat="37.072123790408" lon="-3.38433880825">
        <ele>2709.6</ele>
        <time>2019-01-08T11:25:48Z</time>
      </trkpt>
      <trkpt lat="37.072173327437" lon="-3.384456406307">
        <ele>2707.8</ele>
        <time>2019-01-08T11:25:49Z</time>
      </trkpt>
      <trkpt lat="37.072228228882" lon="-3.384594204743">
        <ele>2705.6</ele>
        <time>2019-01-08T11:25:50Z</time>
      </trkpt>
      <trkpt lat="37.072310874416" lon="-3.384721525804">
        <ele>2703.2</ele>
        <time>2019-01-08T11:25:51Z</time>
      </trkpt>
      <trkpt lat="37.072385557145" lon="-3.384845997019">
        <ele>2700</ele>
        <time>2019-01-08T11:25:52Z</time>
      </trkpt>
      <trkpt lat="37.072411792492" lon="-3.384977760487">
        <ele>2696</ele>
        <time>2019-01-08T11:25:53Z</time>
      </trkpt>
      <trkpt lat="37.072423946247" lon="-3.385091921965">
        <ele>2692</ele>
        <time>2019-01-08T11:25:54Z</time>
      </trkpt>
      <trkpt lat="37.072456048924" lon="-3.385171214739">
        <ele>2689</ele>
        <time>2019-01-08T11:25:55Z</time>
      </trkpt>
      <trkpt lat="37.072501814098" lon="-3.385203233597">
        <ele>2687</ele>
        <time>2019-01-08T11:25:56Z</time>
      </trkpt>
      <trkpt lat="37.072541376666" lon="-3.385223433976">
        <ele>2685.4</ele>
        <time>2019-01-08T11:25:57Z</time>
      </trkpt>
      <trkpt lat="37.072558224285" lon="-3.385254447006">
        <ele>2684</ele>
        <time>2019-01-08T11:25:58Z</time>
      </trkpt>
      <trkpt lat="37.072566690004" lon="-3.385279005973">
        <ele>2683</ele>
        <time>2019-01-08T11:25:59Z</time>
      </trkpt>
      <trkpt lat="37.072577837931" lon="-3.385306750062">
        <ele>2681.8</ele>
        <time>2019-01-08T11:26:01Z</time>
      </trkpt>
      <trkpt lat="37.072576329189" lon="-3.385307923528">
        <ele>2681.6</ele>
        <time>2019-01-08T11:26:02Z</time>
      </trkpt>
      <trkpt lat="37.072620837078" lon="-3.385385791379">
        <ele>2681</ele>
        <time>2019-01-08T11:26:07Z</time>
      </trkpt>
      <trkpt lat="37.072654029402" lon="-3.385436920969">
        <ele>2680.6</ele>
        <time>2019-01-08T11:26:08Z</time>
      </trkpt>
      <trkpt lat="37.072741117343" lon="-3.385550076619">
        <ele>2679</ele>
        <time>2019-01-08T11:26:10Z</time>
      </trkpt>
      <trkpt lat="37.072768945251" lon="-3.385641690786">
        <ele>2677.6</ele>
        <time>2019-01-08T11:26:11Z</time>
      </trkpt>
      <trkpt lat="37.072815213339" lon="-3.385719977732">
        <ele>2675.6</ele>
        <time>2019-01-08T11:26:12Z</time>
      </trkpt>
      <trkpt lat="37.072874054277" lon="-3.385791307701">
        <ele>2673.4</ele>
        <time>2019-01-08T11:26:13Z</time>
      </trkpt>
      <trkpt lat="37.072923591306" lon="-3.385876383986">
        <ele>2671</ele>
        <time>2019-01-08T11:26:14Z</time>
      </trkpt>
      <trkpt lat="37.072977235466" lon="-3.38594813305">
        <ele>2668.6</ele>
        <time>2019-01-08T11:26:15Z</time>
      </trkpt>
      <trkpt lat="37.07303054435" lon="-3.386026587634">
        <ele>2665.8</ele>
        <time>2019-01-08T11:26:16Z</time>
      </trkpt>
      <trkpt lat="37.07308251213" lon="-3.386126416063">
        <ele>2663.2</ele>
        <time>2019-01-08T11:26:17Z</time>
      </trkpt>
      <trkpt lat="37.073162223999" lon="-3.38619707548">
        <ele>2660.8</ele>
        <time>2019-01-08T11:26:18Z</time>
      </trkpt>
      <trkpt lat="37.073242103506" lon="-3.386277290263">
        <ele>2658.2</ele>
        <time>2019-01-08T11:26:19Z</time>
      </trkpt>
      <trkpt lat="37.073324832859" lon="-3.386373514475">
        <ele>2655.4</ele>
        <time>2019-01-08T11:26:20Z</time>
      </trkpt>
      <trkpt lat="37.073422314356" lon="-3.38643512144">
        <ele>2652.4</ele>
        <time>2019-01-08T11:26:21Z</time>
      </trkpt>
      <trkpt lat="37.073515772541" lon="-3.386508798341">
        <ele>2648.8</ele>
        <time>2019-01-08T11:26:22Z</time>
      </trkpt>
      <trkpt lat="37.073598920989" lon="-3.386613488272">
        <ele>2645.6</ele>
        <time>2019-01-08T11:26:23Z</time>
      </trkpt>
      <trkpt lat="37.073677962306" lon="-3.386727565931">
        <ele>2642.4</ele>
        <time>2019-01-08T11:26:24Z</time>
      </trkpt>
      <trkpt lat="37.073759685831" lon="-3.386837285002">
        <ele>2639.6</ele>
        <time>2019-01-08T11:26:25Z</time>
      </trkpt>
      <trkpt lat="37.073860268631" lon="-3.386921774554">
        <ele>2637.4</ele>
        <time>2019-01-08T11:26:26Z</time>
      </trkpt>
      <trkpt lat="37.073971077349" lon="-3.386980280216">
        <ele>2635</ele>
        <time>2019-01-08T11:26:27Z</time>
      </trkpt>
      <trkpt lat="37.074089429777" lon="-3.387013975454">
        <ele>2632.4</ele>
        <time>2019-01-08T11:26:28Z</time>
      </trkpt>
      <trkpt lat="37.074187078912" lon="-3.387072229659">
        <ele>2629.8</ele>
        <time>2019-01-08T11:26:29Z</time>
      </trkpt>
      <trkpt lat="37.074280201821" lon="-3.38713836285">
        <ele>2627.2</ele>
        <time>2019-01-08T11:26:30Z</time>
      </trkpt>
      <trkpt lat="37.074373995282" lon="-3.387170884622">
        <ele>2625</ele>
        <time>2019-01-08T11:26:31Z</time>
      </trkpt>
      <trkpt lat="37.0744596583" lon="-3.387193012838">
        <ele>2623.4</ele>
        <time>2019-01-08T11:26:32Z</time>
      </trkpt>
      <trkpt lat="37.074537861427" lon="-3.387239616202">
        <ele>2622.2</ele>
        <time>2019-01-08T11:26:33Z</time>
      </trkpt>
      <trkpt lat="37.074616818925" lon="-3.387300384977">
        <ele>2620.8</ele>
        <time>2019-01-08T11:26:34Z</time>
      </trkpt>
      <trkpt lat="37.074709187463" lon="-3.387328799618">
        <ele>2619.4</ele>
        <time>2019-01-08T11:26:35Z</time>
      </trkpt>
      <trkpt lat="37.074788647875" lon="-3.38731689732">
        <ele>2618.4</ele>
        <time>2019-01-08T11:26:36Z</time>
      </trkpt>
      <trkpt lat="37.07485863674" lon="-3.387326285048">
        <ele>2617.2</ele>
        <time>2019-01-08T11:26:37Z</time>
      </trkpt>
      <trkpt lat="37.074929379976" lon="-3.38738143795">
        <ele>2615.6</ele>
        <time>2019-01-08T11:26:38Z</time>
      </trkpt>
      <trkpt lat="37.074979252281" lon="-3.387458719068">
        <ele>2614</ele>
        <time>2019-01-08T11:26:39Z</time>
      </trkpt>
      <trkpt lat="37.075014707718" lon="-3.387544885">
        <ele>2612.4</ele>
        <time>2019-01-08T11:26:40Z</time>
      </trkpt>
      <trkpt lat="37.075073800113" lon="-3.387580172799">
        <ele>2610.4</ele>
        <time>2019-01-08T11:26:41Z</time>
      </trkpt>
      <trkpt lat="37.075146387367" lon="-3.38758930907">
        <ele>2608.2</ele>
        <time>2019-01-08T11:26:42Z</time>
      </trkpt>
      <trkpt lat="37.07521822025" lon="-3.387630128923">
        <ele>2605.4</ele>
        <time>2019-01-08T11:26:43Z</time>
      </trkpt>
      <trkpt lat="37.0752810845" lon="-3.387703219091">
        <ele>2602.6</ele>
        <time>2019-01-08T11:26:44Z</time>
      </trkpt>
      <trkpt lat="37.075327101131" lon="-3.38778293096">
        <ele>2599.8</ele>
        <time>2019-01-08T11:26:45Z</time>
      </trkpt>
      <trkpt lat="37.075388121363" lon="-3.38783908969">
        <ele>2597.4</ele>
        <time>2019-01-08T11:26:46Z</time>
      </trkpt>
      <trkpt lat="37.075446543206" lon="-3.387907402175">
        <ele>2594.8</ele>
        <time>2019-01-08T11:26:47Z</time>
      </trkpt>
      <trkpt lat="37.075506138515" lon="-3.387978815963">
        <ele>2592.6</ele>
        <time>2019-01-08T11:26:48Z</time>
      </trkpt>
      <trkpt lat="37.075582665262" lon="-3.388018043255">
        <ele>2590.6</ele>
        <time>2019-01-08T11:26:49Z</time>
      </trkpt>
      <trkpt lat="37.075663215321" lon="-3.388067412646">
        <ele>2588.4</ele>
        <time>2019-01-08T11:26:50Z</time>
      </trkpt>
      <trkpt lat="37.075734461471" lon="-3.388140083719">
        <ele>2586</ele>
        <time>2019-01-08T11:26:51Z</time>
      </trkpt>
      <trkpt lat="37.075810150028" lon="-3.388202696512">
        <ele>2583.8</ele>
        <time>2019-01-08T11:26:52Z</time>
      </trkpt>
      <trkpt lat="37.075887598784" lon="-3.388274529395">
        <ele>2581.4</ele>
        <time>2019-01-08T11:26:53Z</time>
      </trkpt>
      <trkpt lat="37.07594576917" lon="-3.388369244865">
        <ele>2579</ele>
        <time>2019-01-08T11:26:54Z</time>
      </trkpt>
      <trkpt lat="37.075981978978" lon="-3.388488938397">
        <ele>2576.4</ele>
        <time>2019-01-08T11:26:55Z</time>
      </trkpt>
      <trkpt lat="37.076030510179" lon="-3.388600501486">
        <ele>2574</ele>
        <time>2019-01-08T11:26:56Z</time>
      </trkpt>
      <trkpt lat="37.076072754955" lon="-3.388719608285">
        <ele>2571.2</ele>
        <time>2019-01-08T11:26:57Z</time>
      </trkpt>
      <trkpt lat="37.076107288383" lon="-3.388843828043">
        <ele>2568.4</ele>
        <time>2019-01-08T11:26:58Z</time>
      </trkpt>
      <trkpt lat="37.076142157087" lon="-3.388966706697">
        <ele>2565.8</ele>
        <time>2019-01-08T11:26:59Z</time>
      </trkpt>
      <trkpt lat="37.076195382152" lon="-3.389069217334">
        <ele>2563.8</ele>
        <time>2019-01-08T11:27:00Z</time>
      </trkpt>
      <trkpt lat="37.076236118186" lon="-3.389178601129">
        <ele>2561.6</ele>
        <time>2019-01-08T11:27:01Z</time>
      </trkpt>
      <trkpt lat="37.076258665497" lon="-3.389289409847">
        <ele>2559.4</ele>
        <time>2019-01-08T11:27:02Z</time>
      </trkpt>
      <trkpt lat="37.07628775069" lon="-3.38938806481">
        <ele>2557.6</ele>
        <time>2019-01-08T11:27:03Z</time>
      </trkpt>
      <trkpt lat="37.076331420389" lon="-3.389454114182">
        <ele>2556</ele>
        <time>2019-01-08T11:27:04Z</time>
      </trkpt>
      <trkpt lat="37.076376263554" lon="-3.389497700062">
        <ele>2554.8</ele>
        <time>2019-01-08T11:27:05Z</time>
      </trkpt>
      <trkpt lat="37.076427393144" lon="-3.389527455807">
        <ele>2553.6</ele>
        <time>2019-01-08T11:27:06Z</time>
      </trkpt>
      <trkpt lat="37.076490844127" lon="-3.389498202976">
        <ele>2551.8</ele>
        <time>2019-01-08T11:27:08Z</time>
      </trkpt>
      <trkpt lat="37.076511463601" lon="-3.389442044246">
        <ele>2550.4</ele>
        <time>2019-01-08T11:27:10Z</time>
      </trkpt>
      <trkpt lat="37.076517330931" lon="-3.389420838039">
        <ele>2550</ele>
        <time>2019-01-08T11:27:11Z</time>
      </trkpt>
      <trkpt lat="37.076529065591" lon="-3.389366104232">
        <ele>2549.2</ele>
        <time>2019-01-08T11:27:14Z</time>
      </trkpt>
      <trkpt lat="37.076564521028" lon="-3.389294355168">
        <ele>2548.6</ele>
        <time>2019-01-08T11:27:20Z</time>
      </trkpt>
      <trkpt lat="37.076683041094" lon="-3.389080029985">
        <ele>2546.8</ele>
        <time>2019-01-08T11:28:08Z</time>
      </trkpt>
      <trkpt lat="37.076430494447" lon="-3.388761769242">
        <ele>2547</ele>
        <time>2019-01-08T11:28:14Z</time>
      </trkpt>
      <trkpt lat="37.076371904966" lon="-3.388690858368">
        <ele>2548.6</ele>
        <time>2019-01-08T11:28:16Z</time>
      </trkpt>
      <trkpt lat="37.076344496153" lon="-3.388658336596">
        <ele>2549.6</ele>
        <time>2019-01-08T11:28:17Z</time>
      </trkpt>
      <trkpt lat="37.064109017628" lon="-3.372343974074">
        <ele>3050.6</ele>
        <time>2019-01-08T11:36:30Z</time>
      </trkpt>
      <trkpt lat="37.064230052264" lon="-3.372366521385">
        <ele>3049.6</ele>
        <time>2019-01-08T11:36:34Z</time>
      </trkpt>
      <trkpt lat="37.064295095808" lon="-3.372419411174">
        <ele>3049.6</ele>
        <time>2019-01-08T11:36:36Z</time>
      </trkpt>
      <trkpt lat="37.064404898698" lon="-3.372584450785">
        <ele>3049.2</ele>
        <time>2019-01-08T11:36:39Z</time>
      </trkpt>
      <trkpt lat="37.06442903857" lon="-3.372665755215">
        <ele>3048.4</ele>
        <time>2019-01-08T11:36:40Z</time>
      </trkpt>
      <trkpt lat="37.064452759347" lon="-3.372746389093">
        <ele>3047.4</ele>
        <time>2019-01-08T11:36:41Z</time>
      </trkpt>
      <trkpt lat="37.064463655817" lon="-3.372801625814">
        <ele>3046.2</ele>
        <time>2019-01-08T11:36:42Z</time>
      </trkpt>
      <trkpt lat="37.06446927169" lon="-3.372842278029">
        <ele>3045</ele>
        <time>2019-01-08T11:36:43Z</time>
      </trkpt>
      <trkpt lat="37.064487041318" lon="-3.372875805629">
        <ele>3043.8</ele>
        <time>2019-01-08T11:36:44Z</time>
      </trkpt>
      <trkpt lat="37.064495004123" lon="-3.372918134224">
        <ele>3042.8</ele>
        <time>2019-01-08T11:36:45Z</time>
      </trkpt>
      <trkpt lat="37.064525514239" lon="-3.373065571845">
        <ele>3041</ele>
        <time>2019-01-08T11:36:47Z</time>
      </trkpt>
      <trkpt lat="37.064551749586" lon="-3.373159113849">
        <ele>3039.4</ele>
        <time>2019-01-08T11:36:48Z</time>
      </trkpt>
      <trkpt lat="37.064591060697" lon="-3.373245531238">
        <ele>3037.8</ele>
        <time>2019-01-08T11:36:49Z</time>
      </trkpt>
      <trkpt lat="37.064626599953" lon="-3.373328595867">
        <ele>3035.6</ele>
        <time>2019-01-08T11:36:50Z</time>
      </trkpt>
      <trkpt lat="37.064684435063" lon="-3.373402021311">
        <ele>3033</ele>
        <time>2019-01-08T11:36:51Z</time>
      </trkpt>
      <trkpt lat="37.064752496091" lon="-3.37346748395">
        <ele>3030</ele>
        <time>2019-01-08T11:36:52Z</time>
      </trkpt>
      <trkpt lat="37.064817371997" lon="-3.373537305177">
        <ele>3026.6</ele>
        <time>2019-01-08T11:36:53Z</time>
      </trkpt>
      <trkpt lat="37.064883086093" lon="-3.373604528015">
        <ele>3023.6</ele>
        <time>2019-01-08T11:36:54Z</time>
      </trkpt>
      <trkpt lat="37.064944022506" lon="-3.373680887124">
        <ele>3021</ele>
        <time>2019-01-08T11:36:55Z</time>
      </trkpt>
      <trkpt lat="37.065005964747" lon="-3.373773088024">
        <ele>3018.8</ele>
        <time>2019-01-08T11:36:56Z</time>
      </trkpt>
      <trkpt lat="37.065070589196" lon="-3.373877275041">
        <ele>3016.2</ele>
        <time>2019-01-08T11:36:57Z</time>
      </trkpt>
      <trkpt lat="37.065143092631" lon="-3.373960423489">
        <ele>3013.6</ele>
        <time>2019-01-08T11:36:58Z</time>
      </trkpt>
      <trkpt lat="37.065217188627" lon="-3.374044410127">
        <ele>3010.2</ele>
        <time>2019-01-08T11:36:59Z</time>
      </trkpt>
      <trkpt lat="37.065289775881" lon="-3.374123283806">
        <ele>3007</ele>
        <time>2019-01-08T11:37:00Z</time>
      </trkpt>
      <trkpt lat="37.065357417814" lon="-3.374192266843">
        <ele>3003.8</ele>
        <time>2019-01-08T11:37:01Z</time>
      </trkpt>
      <trkpt lat="37.065426987584" lon="-3.374262255708">
        <ele>3001.4</ele>
        <time>2019-01-08T11:37:02Z</time>
      </trkpt>
      <trkpt lat="37.065493958965" lon="-3.374320677551">
        <ele>2999</ele>
        <time>2019-01-08T11:37:03Z</time>
      </trkpt>
      <trkpt lat="37.065556907034" lon="-3.374378093566">
        <ele>2996.8</ele>
        <time>2019-01-08T11:37:04Z</time>
      </trkpt>
      <trkpt lat="37.065626141528" lon="-3.374440706359">
        <ele>2995</ele>
        <time>2019-01-08T11:37:05Z</time>
      </trkpt>
      <trkpt lat="37.065701159533" lon="-3.374488986103">
        <ele>2993.8</ele>
        <time>2019-01-08T11:37:06Z</time>
      </trkpt>
      <trkpt lat="37.065773243873" lon="-3.374546905032">
        <ele>2992.4</ele>
        <time>2019-01-08T11:37:07Z</time>
      </trkpt>
      <trkpt lat="37.065856811416" lon="-3.374604572504">
        <ele>2990.6</ele>
        <time>2019-01-08T11:37:08Z</time>
      </trkpt>
      <trkpt lat="37.065943312624" lon="-3.374643045425">
        <ele>2988.6</ele>
        <time>2019-01-08T11:37:09Z</time>
      </trkpt>
      <trkpt lat="37.066019252638" lon="-3.37470297601">
        <ele>2986</ele>
        <time>2019-01-08T11:37:10Z</time>
      </trkpt>
      <trkpt lat="37.066086894571" lon="-3.374783693707">
        <ele>2983.6</ele>
        <time>2019-01-08T11:37:11Z</time>
      </trkpt>
      <trkpt lat="37.066148417717" lon="-3.3748630703">
        <ele>2981.4</ele>
        <time>2019-01-08T11:37:12Z</time>
      </trkpt>
      <trkpt lat="37.066195691633" lon="-3.374952253716">
        <ele>2979</ele>
        <time>2019-01-08T11:37:13Z</time>
      </trkpt>
      <trkpt lat="37.066258388245" lon="-3.375002126021">
        <ele>2976.6</ele>
        <time>2019-01-08T11:37:14Z</time>
      </trkpt>
      <trkpt lat="37.066329885852" lon="-3.374999024718">
        <ele>2974.2</ele>
        <time>2019-01-08T11:37:15Z</time>
      </trkpt>
      <trkpt lat="37.066407669884" lon="-3.374991648646">
        <ele>2971.6</ele>
        <time>2019-01-08T11:37:16Z</time>
      </trkpt>
      <trkpt lat="37.066474725084" lon="-3.375021655848">
        <ele>2969.2</ele>
        <time>2019-01-08T11:37:17Z</time>
      </trkpt>
      <trkpt lat="37.066536164411" lon="-3.375077730759">
        <ele>2967</ele>
        <time>2019-01-08T11:37:18Z</time>
      </trkpt>
      <trkpt lat="37.066596011177" lon="-3.375125172313">
        <ele>2965.2</ele>
        <time>2019-01-08T11:37:19Z</time>
      </trkpt>
      <trkpt lat="37.066653511011" lon="-3.375191808418">
        <ele>2963.4</ele>
        <time>2019-01-08T11:37:20Z</time>
      </trkpt>
      <trkpt lat="37.066716961994" lon="-3.375249978804">
        <ele>2961.8</ele>
        <time>2019-01-08T11:37:21Z</time>
      </trkpt>
      <trkpt lat="37.066783598099" lon="-3.375291301571">
        <ele>2959.8</ele>
        <time>2019-01-08T11:37:22Z</time>
      </trkpt>
      <trkpt lat="37.066834057137" lon="-3.375354501097">
        <ele>2957.8</ele>
        <time>2019-01-08T11:37:23Z</time>
      </trkpt>
      <trkpt lat="37.066866578909" lon="-3.375421975392">
        <ele>2955.8</ele>
        <time>2019-01-08T11:37:24Z</time>
      </trkpt>
      <trkpt lat="37.066904046002" lon="-3.375464555444">
        <ele>2953.8</ele>
        <time>2019-01-08T11:37:25Z</time>
      </trkpt>
      <trkpt lat="37.066937070688" lon="-3.375495652293">
        <ele>2951.8</ele>
        <time>2019-01-08T11:37:26Z</time>
      </trkpt>
      <trkpt lat="37.066960037094" lon="-3.375522642011">
        <ele>2949.6</ele>
        <time>2019-01-08T11:37:27Z</time>
      </trkpt>
      <trkpt lat="37.066976884713" lon="-3.375543596761">
        <ele>2947.6</ele>
        <time>2019-01-08T11:37:28Z</time>
      </trkpt>
      <trkpt lat="37.066983422595" lon="-3.375558768">
        <ele>2946</ele>
        <time>2019-01-08T11:37:29Z</time>
      </trkpt>
      <trkpt lat="37.066988619373" lon="-3.375564802968">
        <ele>2944.8</ele>
        <time>2019-01-08T11:37:30Z</time>
      </trkpt>
      <trkpt lat="37.066991469219" lon="-3.375561869303">
        <ele>2943.4</ele>
        <time>2019-01-08T11:37:31Z</time>
      </trkpt>
      <trkpt lat="37.066992391228" lon="-3.375556504887">
        <ele>2941.8</ele>
        <time>2019-01-08T11:37:33Z</time>
      </trkpt>
      <trkpt lat="37.066992391228" lon="-3.375556588706">
        <ele>2941.4</ele>
        <time>2019-01-08T11:37:34Z</time>
      </trkpt>
      <trkpt lat="37.067085514137" lon="-3.37578340292">
        <ele>2939.6</ele>
        <time>2019-01-08T11:37:46Z</time>
      </trkpt>
      <trkpt lat="37.067158352848" lon="-3.375970570747">
        <ele>2937.8</ele>
        <time>2019-01-08T11:37:48Z</time>
      </trkpt>
      <trkpt lat="37.067207722239" lon="-3.376075344497">
        <ele>2936.4</ele>
        <time>2019-01-08T11:37:49Z</time>
      </trkpt>
      <trkpt lat="37.067258181277" lon="-3.376193529287">
        <ele>2934.2</ele>
        <time>2019-01-08T11:37:50Z</time>
      </trkpt>
      <trkpt lat="37.067312747446" lon="-3.376317497588">
        <ele>2931</ele>
        <time>2019-01-08T11:37:51Z</time>
      </trkpt>
      <trkpt lat="37.067373767678" lon="-3.376435430921">
        <ele>2927.8</ele>
        <time>2019-01-08T11:37:52Z</time>
      </trkpt>
      <trkpt lat="37.067438895041" lon="-3.376551771693">
        <ele>2924.6</ele>
        <time>2019-01-08T11:37:53Z</time>
      </trkpt>
      <trkpt lat="37.067503687128" lon="-3.376676326727">
        <ele>2920.8</ele>
        <time>2019-01-08T11:37:54Z</time>
      </trkpt>
      <trkpt lat="37.067558588573" lon="-3.376823429072">
        <ele>2917</ele>
        <time>2019-01-08T11:37:55Z</time>
      </trkpt>
      <trkpt lat="37.067625727592" lon="-3.376969525589">
        <ele>2912.8</ele>
        <time>2019-01-08T11:37:56Z</time>
      </trkpt>
      <trkpt lat="37.06770468509" lon="-3.377109838595">
        <ele>2909.2</ele>
        <time>2019-01-08T11:37:57Z</time>
      </trkpt>
      <trkpt lat="37.067778361991" lon="-3.377245541556">
        <ele>2905.2</ele>
        <time>2019-01-08T11:37:58Z</time>
      </trkpt>
      <trkpt lat="37.067853296177" lon="-3.37735584736">
        <ele>2901.4</ele>
        <time>2019-01-08T11:37:59Z</time>
      </trkpt>
      <trkpt lat="37.067932337494" lon="-3.377439917817">
        <ele>2897.8</ele>
        <time>2019-01-08T11:38:00Z</time>
      </trkpt>
      <trkpt lat="37.067989082957" lon="-3.377525077921">
        <ele>2895.2</ele>
        <time>2019-01-08T11:38:01Z</time>
      </trkpt>
      <trkpt lat="37.06803828471" lon="-3.377589031818">
        <ele>2893.4</ele>
        <time>2019-01-08T11:38:02Z</time>
      </trkpt>
      <trkpt lat="37.068095952182" lon="-3.377638820304">
        <ele>2892</ele>
        <time>2019-01-08T11:38:03Z</time>
      </trkpt>
      <trkpt lat="37.06815479312" lon="-3.377677628501">
        <ele>2890.6</ele>
        <time>2019-01-08T11:38:04Z</time>
      </trkpt>
      <trkpt lat="37.068211454764" lon="-3.377727333168">
        <ele>2889.4</ele>
        <time>2019-01-08T11:38:05Z</time>
      </trkpt>
      <trkpt lat="37.068328130812" lon="-3.377849876546">
        <ele>2888</ele>
        <time>2019-01-08T11:38:07Z</time>
      </trkpt>
      <trkpt lat="37.0683995446" lon="-3.377906454371">
        <ele>2886.6</ele>
        <time>2019-01-08T11:38:08Z</time>
      </trkpt>
      <trkpt lat="37.068479340288" lon="-3.377952303364">
        <ele>2885.4</ele>
        <time>2019-01-08T11:38:09Z</time>
      </trkpt>
      <trkpt lat="37.068553352465" lon="-3.378010138474">
        <ele>2883.8</ele>
        <time>2019-01-08T11:38:10Z</time>
      </trkpt>
      <trkpt lat="37.06862166495" lon="-3.378072080715">
        <ele>2882.4</ele>
        <time>2019-01-08T11:38:11Z</time>
      </trkpt>
      <trkpt lat="37.068671537255" lon="-3.378152798412">
        <ele>2880.4</ele>
        <time>2019-01-08T11:38:12Z</time>
      </trkpt>
      <trkpt lat="37.068715290773" lon="-3.378255979601">
        <ele>2878.2</ele>
        <time>2019-01-08T11:38:13Z</time>
      </trkpt>
      <trkpt lat="37.068749656563" lon="-3.378357149134">
        <ele>2875.6</ele>
        <time>2019-01-08T11:38:14Z</time>
      </trkpt>
      <trkpt lat="37.068744795061" lon="-3.378479608693">
        <ele>2873</ele>
        <time>2019-01-08T11:38:15Z</time>
      </trkpt>
      <trkpt lat="37.068739095369" lon="-3.378612964722">
        <ele>2870</ele>
        <time>2019-01-08T11:38:16Z</time>
      </trkpt>
      <trkpt lat="37.068735742609" lon="-3.378750763158">
        <ele>2866.8</ele>
        <time>2019-01-08T11:38:17Z</time>
      </trkpt>
      <trkpt lat="37.068735491152" lon="-3.378895686209">
        <ele>2863.2</ele>
        <time>2019-01-08T11:38:18Z</time>
      </trkpt>
      <trkpt lat="37.068768012924" lon="-3.379027449677">
        <ele>2859.8</ele>
        <time>2019-01-08T11:38:19Z</time>
      </trkpt>
      <trkpt lat="37.06880941951" lon="-3.379134654178">
        <ele>2856.6</ele>
        <time>2019-01-08T11:38:20Z</time>
      </trkpt>
      <trkpt lat="37.068830625717" lon="-3.379238841195">
        <ele>2853.6</ele>
        <time>2019-01-08T11:38:21Z</time>
      </trkpt>
      <trkpt lat="37.068860046186" lon="-3.379320145625">
        <ele>2850.6</ele>
        <time>2019-01-08T11:38:22Z</time>
      </trkpt>
      <trkpt lat="37.068901704229" lon="-3.379367419541">
        <ele>2847.8</ele>
        <time>2019-01-08T11:38:23Z</time>
      </trkpt>
      <trkpt lat="37.068950151611" lon="-3.379392565241">
        <ele>2845.2</ele>
        <time>2019-01-08T11:38:24Z</time>
      </trkpt>
      <trkpt lat="37.069000191554" lon="-3.379413268534">
        <ele>2842.8</ele>
        <time>2019-01-08T11:38:25Z</time>
      </trkpt>
      <trkpt lat="37.069047800746" lon="-3.379466242142">
        <ele>2840.6</ele>
        <time>2019-01-08T11:38:26Z</time>
      </trkpt>
      <trkpt lat="37.069111419367" lon="-3.37953681774">
        <ele>2838.8</ele>
        <time>2019-01-08T11:38:27Z</time>
      </trkpt>
      <trkpt lat="37.069179983309" lon="-3.379611500469">
        <ele>2837.2</ele>
        <time>2019-01-08T11:38:28Z</time>
      </trkpt>
      <trkpt lat="37.069213175633" lon="-3.379731361639">
        <ele>2834.8</ele>
        <time>2019-01-08T11:38:29Z</time>
      </trkpt>
      <trkpt lat="37.069251313278" lon="-3.379865304401">
        <ele>2832.2</ele>
        <time>2019-01-08T11:38:30Z</time>
      </trkpt>
      <trkpt lat="37.069298754832" lon="-3.380006371778">
        <ele>2829</ele>
        <time>2019-01-08T11:38:31Z</time>
      </trkpt>
      <trkpt lat="37.069329684043" lon="-3.38017970947">
        <ele>2825.8</ele>
        <time>2019-01-08T11:38:32Z</time>
      </trkpt>
      <trkpt lat="37.069373186104" lon="-3.380340222855">
        <ele>2822.2</ele>
        <time>2019-01-08T11:38:33Z</time>
      </trkpt>
      <trkpt lat="37.069446192453" lon="-3.380477769834">
        <ele>2818.4</ele>
        <time>2019-01-08T11:38:34Z</time>
      </trkpt>
      <trkpt lat="37.069522216286" lon="-3.380612969881">
        <ele>2814.8</ele>
        <time>2019-01-08T11:38:35Z</time>
      </trkpt>
      <trkpt lat="37.069599078309" lon="-3.380712043939">
        <ele>2810.8</ele>
        <time>2019-01-08T11:38:36Z</time>
      </trkpt>
      <trkpt lat="37.069670324459" lon="-3.380790247066">
        <ele>2807</ele>
        <time>2019-01-08T11:38:37Z</time>
      </trkpt>
      <trkpt lat="37.069734362175" lon="-3.380874066066">
        <ele>2803.6</ele>
        <time>2019-01-08T11:38:38Z</time>
      </trkpt>
      <trkpt lat="37.069795717683" lon="-3.380955705772">
        <ele>2801</ele>
        <time>2019-01-08T11:38:39Z</time>
      </trkpt>
      <trkpt lat="37.069845841445" lon="-3.381042877532">
        <ele>2799.2</ele>
        <time>2019-01-08T11:38:40Z</time>
      </trkpt>
      <trkpt lat="37.069901078166" lon="-3.38111512951">
        <ele>2797.6</ele>
        <time>2019-01-08T11:38:41Z</time>
      </trkpt>
      <trkpt lat="37.069958410362" lon="-3.381169360403">
        <ele>2796.6</ele>
        <time>2019-01-08T11:38:42Z</time>
      </trkpt>
      <trkpt lat="37.070004929907" lon="-3.381227949884">
        <ele>2795.2</ele>
        <time>2019-01-08T11:38:43Z</time>
      </trkpt>
      <trkpt lat="37.070040804439" lon="-3.381314702549">
        <ele>2793.6</ele>
        <time>2019-01-08T11:38:44Z</time>
      </trkpt>
      <trkpt lat="37.070084055043" lon="-3.381406987268">
        <ele>2792</ele>
        <time>2019-01-08T11:38:45Z</time>
      </trkpt>
      <trkpt lat="37.07014549437" lon="-3.381494326666">
        <ele>2790.4</ele>
        <time>2019-01-08T11:38:46Z</time>
      </trkpt>
      <trkpt lat="37.070251357767" lon="-3.381538918374">
        <ele>2788.6</ele>
        <time>2019-01-08T11:38:47Z</time>
      </trkpt>
      <trkpt lat="37.070363842865" lon="-3.381575882553">
        <ele>2785.6</ele>
        <time>2019-01-08T11:38:48Z</time>
      </trkpt>
      <trkpt lat="37.070452774824" lon="-3.381661294114">
        <ele>2782.4</ele>
        <time>2019-01-08T11:38:49Z</time>
      </trkpt>
      <trkpt lat="37.070525362078" lon="-3.381781658198">
        <ele>2778.6</ele>
        <time>2019-01-08T11:38:50Z</time>
      </trkpt>
      <trkpt lat="37.070607001784" lon="-3.381887773052">
        <ele>2775.8</ele>
        <time>2019-01-08T11:38:51Z</time>
      </trkpt>
      <trkpt lat="37.070710350611" lon="-3.381946111076">
        <ele>2773.4</ele>
        <time>2019-01-08T11:38:52Z</time>
      </trkpt>
      <trkpt lat="37.070810514316" lon="-3.38202624204">
        <ele>2771.2</ele>
        <time>2019-01-08T11:38:53Z</time>
      </trkpt>
      <trkpt lat="37.070883353027" lon="-3.382149539789">
        <ele>2768.6</ele>
        <time>2019-01-08T11:38:54Z</time>
      </trkpt>
      <trkpt lat="37.070952084607" lon="-3.382261689611">
        <ele>2766</ele>
        <time>2019-01-08T11:38:55Z</time>
      </trkpt>
      <trkpt lat="37.071057193633" lon="-3.382298318514">
        <ele>2763.8</ele>
        <time>2019-01-08T11:38:56Z</time>
      </trkpt>
      <trkpt lat="37.071163727582" lon="-3.382332768123">
        <ele>2762.2</ele>
        <time>2019-01-08T11:38:57Z</time>
      </trkpt>
      <trkpt lat="37.071245367288" lon="-3.382431339267">
        <ele>2759.8</ele>
        <time>2019-01-08T11:38:58Z</time>
      </trkpt>
      <trkpt lat="37.071298340896" lon="-3.382563438011">
        <ele>2757.2</ele>
        <time>2019-01-08T11:38:59Z</time>
      </trkpt>
      <trkpt lat="37.071359109671" lon="-3.38267416291">
        <ele>2754.2</ele>
        <time>2019-01-08T11:39:00Z</time>
      </trkpt>
      <trkpt lat="37.071424739948" lon="-3.38275965829">
        <ele>2751.4</ele>
        <time>2019-01-08T11:39:01Z</time>
      </trkpt>
      <trkpt lat="37.071462374679" lon="-3.382851775371">
        <ele>2748.8</ele>
        <time>2019-01-08T11:39:02Z</time>
      </trkpt>
      <trkpt lat="37.071507134025" lon="-3.382948753954">
        <ele>2746.2</ele>
        <time>2019-01-08T11:39:03Z</time>
      </trkpt>
      <trkpt lat="37.07157041737" lon="-3.38304045194">
        <ele>2743.8</ele>
        <time>2019-01-08T11:39:04Z</time>
      </trkpt>
      <trkpt lat="37.07162154696" lon="-3.383143297853">
        <ele>2741</ele>
        <time>2019-01-08T11:39:05Z</time>
      </trkpt>
      <trkpt lat="37.071669072333" lon="-3.383255447675">
        <ele>2738</ele>
        <time>2019-01-08T11:39:06Z</time>
      </trkpt>
      <trkpt lat="37.071716513887" lon="-3.383380086528">
        <ele>2735</ele>
        <time>2019-01-08T11:39:07Z</time>
      </trkpt>
      <trkpt lat="37.071755070627" lon="-3.383514364566">
        <ele>2731.8</ele>
        <time>2019-01-08T11:39:08Z</time>
      </trkpt>
      <trkpt lat="37.07178247944" lon="-3.383657275961">
        <ele>2727.8</ele>
        <time>2019-01-08T11:39:09Z</time>
      </trkpt>
      <trkpt lat="37.07181768342" lon="-3.383784680841">
        <ele>2724.2</ele>
        <time>2019-01-08T11:39:10Z</time>
      </trkpt>
      <trkpt lat="37.071856659255" lon="-3.383882497614">
        <ele>2720.8</ele>
        <time>2019-01-08T11:39:11Z</time>
      </trkpt>
      <trkpt lat="37.071886834095" lon="-3.383952570298">
        <ele>2718</ele>
        <time>2019-01-08T11:39:12Z</time>
      </trkpt>
      <trkpt lat="37.071907788845" lon="-3.384013422892">
        <ele>2715.4</ele>
        <time>2019-01-08T11:39:13Z</time>
      </trkpt>
      <trkpt lat="37.071938550418" lon="-3.384066061224">
        <ele>2714</ele>
        <time>2019-01-08T11:39:14Z</time>
      </trkpt>
      <trkpt lat="37.071982052479" lon="-3.384110066199">
        <ele>2713</ele>
        <time>2019-01-08T11:39:15Z</time>
      </trkpt>
      <trkpt lat="37.072021028314" lon="-3.384178378684">
        <ele>2712</ele>
        <time>2019-01-08T11:39:16Z</time>
      </trkpt>
      <trkpt lat="37.072056483751" lon="-3.384265382806">
        <ele>2711.6</ele>
        <time>2019-01-08T11:39:17Z</time>
      </trkpt>
      <trkpt lat="37.072110882282" lon="-3.384361774656">
        <ele>2710.6</ele>
        <time>2019-01-08T11:39:18Z</time>
      </trkpt>
      <trkpt lat="37.072164526442" lon="-3.384465626397">
        <ele>2709.2</ele>
        <time>2019-01-08T11:39:19Z</time>
      </trkpt>
      <trkpt lat="37.072191264703" lon="-3.38460451448">
        <ele>2706.8</ele>
        <time>2019-01-08T11:39:20Z</time>
      </trkpt>
      <trkpt lat="37.072223199742" lon="-3.384749605169">
        <ele>2704.2</ele>
        <time>2019-01-08T11:39:21Z</time>
      </trkpt>
      <trkpt lat="37.07226276231" lon="-3.384881620094">
        <ele>2701</ele>
        <time>2019-01-08T11:39:22Z</time>
      </trkpt>
      <trkpt lat="37.072296625186" lon="-3.385004582567">
        <ele>2697.6</ele>
        <time>2019-01-08T11:39:23Z</time>
      </trkpt>
      <trkpt lat="37.072340378704" lon="-3.385102566978">
        <ele>2693.8</ele>
        <time>2019-01-08T11:39:24Z</time>
      </trkpt>
      <trkpt lat="37.07239687271" lon="-3.385181608295">
        <ele>2690.6</ele>
        <time>2019-01-08T11:39:25Z</time>
      </trkpt>
      <trkpt lat="37.072452360888" lon="-3.385252938264">
        <ele>2688.4</ele>
        <time>2019-01-08T11:39:26Z</time>
      </trkpt>
      <trkpt lat="37.07247733895" lon="-3.385317562713">
        <ele>2687</ele>
        <time>2019-01-08T11:39:27Z</time>
      </trkpt>
      <trkpt lat="37.072477758045" lon="-3.385349497752">
        <ele>2685.8</ele>
        <time>2019-01-08T11:39:28Z</time>
      </trkpt>
      <trkpt lat="37.072472477448" lon="-3.38537229652">
        <ele>2684.8</ele>
        <time>2019-01-08T11:39:29Z</time>
      </trkpt>
      <trkpt lat="37.07245470782" lon="-3.385368859941">
        <ele>2683</ele>
        <time>2019-01-08T11:39:31Z</time>
      </trkpt>
      <trkpt lat="37.072456216562" lon="-3.385369698131">
        <ele>2682</ele>
        <time>2019-01-08T11:39:36Z</time>
      </trkpt>
      <trkpt lat="37.072511788559" lon="-3.385431724191">
        <ele>2682</ele>
        <time>2019-01-08T11:39:38Z</time>
      </trkpt>
      <trkpt lat="37.072639863991" lon="-3.385637667474">
        <ele>2680</ele>
        <time>2019-01-08T11:39:41Z</time>
      </trkpt>
      <trkpt lat="37.072693256694" lon="-3.385704974131">
        <ele>2678.4</ele>
        <time>2019-01-08T11:39:42Z</time>
      </trkpt>
      <trkpt lat="37.07274555975" lon="-3.385780159774">
        <ele>2676.2</ele>
        <time>2019-01-08T11:39:43Z</time>
      </trkpt>
      <trkpt lat="37.072799120091" lon="-3.385858279082">
        <ele>2674.4</ele>
        <time>2019-01-08T11:39:44Z</time>
      </trkpt>
      <trkpt lat="37.072869695689" lon="-3.385903541342">
        <ele>2672.2</ele>
        <time>2019-01-08T11:39:45Z</time>
      </trkpt>
      <trkpt lat="37.07293079974" lon="-3.385964561574">
        <ele>2670.2</ele>
        <time>2019-01-08T11:39:46Z</time>
      </trkpt>
      <trkpt lat="37.072998441673" lon="-3.386039076665">
        <ele>2667.6</ele>
        <time>2019-01-08T11:39:47Z</time>
      </trkpt>
      <trkpt lat="37.073092486591" lon="-3.386091212083">
        <ele>2665.4</ele>
        <time>2019-01-08T11:39:48Z</time>
      </trkpt>
      <trkpt lat="37.073174796849" lon="-3.386162290595">
        <ele>2662.6</ele>
        <time>2019-01-08T11:39:49Z</time>
      </trkpt>
      <trkpt lat="37.073251407415" lon="-3.386265555603">
        <ele>2659.8</ele>
        <time>2019-01-08T11:39:50Z</time>
      </trkpt>
      <trkpt lat="37.073342434849" lon="-3.386345267472">
        <ele>2656.4</ele>
        <time>2019-01-08T11:39:51Z</time>
      </trkpt>
      <trkpt lat="37.073434049016" lon="-3.386418776735">
        <ele>2652.6</ele>
        <time>2019-01-08T11:39:52Z</time>
      </trkpt>
      <trkpt lat="37.07351837093" lon="-3.386530758919">
        <ele>2648.8</ele>
        <time>2019-01-08T11:39:53Z</time>
      </trkpt>
      <trkpt lat="37.073611577658" lon="-3.386644082207">
        <ele>2645.2</ele>
        <time>2019-01-08T11:39:54Z</time>
      </trkpt>
      <trkpt lat="37.073721296729" lon="-3.38670753319">
        <ele>2642</ele>
        <time>2019-01-08T11:39:55Z</time>
      </trkpt>
      <trkpt lat="37.073837972777" lon="-3.386748436862">
        <ele>2639</ele>
        <time>2019-01-08T11:39:56Z</time>
      </trkpt>
      <trkpt lat="37.073933861713" lon="-3.386827729636">
        <ele>2636.2</ele>
        <time>2019-01-08T11:39:57Z</time>
      </trkpt>
      <trkpt lat="37.074015082324" lon="-3.386934850318">
        <ele>2633.2</ele>
        <time>2019-01-08T11:39:58Z</time>
      </trkpt>
      <trkpt lat="37.0741076185" lon="-3.386997714568">
        <ele>2630.4</ele>
        <time>2019-01-08T11:39:59Z</time>
      </trkpt>
      <trkpt lat="37.074207027834" lon="-3.387018920775">
        <ele>2628</ele>
        <time>2019-01-08T11:40:00Z</time>
      </trkpt>
      <trkpt lat="37.074289170454" lon="-3.387077845532">
        <ele>2626.2</ele>
        <time>2019-01-08T11:40:01Z</time>
      </trkpt>
      <trkpt lat="37.074339461854" lon="-3.387174488839">
        <ele>2624.6</ele>
        <time>2019-01-08T11:40:02Z</time>
      </trkpt>
      <trkpt lat="37.074398051335" lon="-3.38725906221">
        <ele>2623.2</ele>
        <time>2019-01-08T11:40:03Z</time>
      </trkpt>
      <trkpt lat="37.07448228943" lon="-3.387304659746">
        <ele>2621.8</ele>
        <time>2019-01-08T11:40:04Z</time>
      </trkpt>
      <trkpt lat="37.074569796466" lon="-3.387317484053">
        <ele>2620.8</ele>
        <time>2019-01-08T11:40:05Z</time>
      </trkpt>
      <trkpt lat="37.074653196371" lon="-3.387336930061">
        <ele>2619.8</ele>
        <time>2019-01-08T11:40:06Z</time>
      </trkpt>
      <trkpt lat="37.074709606558" lon="-3.387389233117">
        <ele>2618.6</ele>
        <time>2019-01-08T11:40:07Z</time>
      </trkpt>
      <trkpt lat="37.07475470118" lon="-3.387440278888">
        <ele>2617.4</ele>
        <time>2019-01-08T11:40:08Z</time>
      </trkpt>
      <trkpt lat="37.074814464127" lon="-3.387461988009">
        <ele>2616.4</ele>
        <time>2019-01-08T11:40:09Z</time>
      </trkpt>
      <trkpt lat="37.074875651997" lon="-3.387440027431">
        <ele>2615.2</ele>
        <time>2019-01-08T11:40:10Z</time>
      </trkpt>
      <trkpt lat="37.074943796844" lon="-3.387426867848">
        <ele>2613.6</ele>
        <time>2019-01-08T11:40:11Z</time>
      </trkpt>
      <trkpt lat="37.07501118732" lon="-3.387465005493">
        <ele>2611.8</ele>
        <time>2019-01-08T11:40:12Z</time>
      </trkpt>
      <trkpt lat="37.07508327166" lon="-3.387516889454">
        <ele>2610</ele>
        <time>2019-01-08T11:40:13Z</time>
      </trkpt>
      <trkpt lat="37.075167006841" lon="-3.387525858087">
        <ele>2608.4</ele>
        <time>2019-01-08T11:40:14Z</time>
      </trkpt>
      <trkpt lat="37.075251580212" lon="-3.387543040982">
        <ele>2606.6</ele>
        <time>2019-01-08T11:40:15Z</time>
      </trkpt>
      <trkpt lat="37.075319976516" lon="-3.387620741195">
        <ele>2604</ele>
        <time>2019-01-08T11:40:16Z</time>
      </trkpt>
      <trkpt lat="37.075388456639" lon="-3.387711852448">
        <ele>2601.2</ele>
        <time>2019-01-08T11:40:17Z</time>
      </trkpt>
      <trkpt lat="37.075475963675" lon="-3.387771950671">
        <ele>2598.6</ele>
        <time>2019-01-08T11:40:18Z</time>
      </trkpt>
      <trkpt lat="37.075561542874" lon="-3.387819476044">
        <ele>2596</ele>
        <time>2019-01-08T11:40:19Z</time>
      </trkpt>
      <trkpt lat="37.07563228611" lon="-3.3878969248">
        <ele>2593</ele>
        <time>2019-01-08T11:40:20Z</time>
      </trkpt>
      <trkpt lat="37.07570772321" lon="-3.387979570334">
        <ele>2589.8</ele>
        <time>2019-01-08T11:40:21Z</time>
      </trkpt>
      <trkpt lat="37.07579824773" lon="-3.388017121246">
        <ele>2586.8</ele>
        <time>2019-01-08T11:40:22Z</time>
      </trkpt>
      <trkpt lat="37.075885503309" lon="-3.388028855906">
        <ele>2584.2</ele>
        <time>2019-01-08T11:40:23Z</time>
      </trkpt>
      <trkpt lat="37.075965801911" lon="-3.38805701909">
        <ele>2581.4</ele>
        <time>2019-01-08T11:40:24Z</time>
      </trkpt>
      <trkpt lat="37.076049453273" lon="-3.388107729585">
        <ele>2578.8</ele>
        <time>2019-01-08T11:40:25Z</time>
      </trkpt>
      <trkpt lat="37.07612262726" lon="-3.388157182795">
        <ele>2576.6</ele>
        <time>2019-01-08T11:40:26Z</time>
      </trkpt>
      <trkpt lat="37.076187335528" lon="-3.388223315986">
        <ele>2574.8</ele>
        <time>2019-01-08T11:40:27Z</time>
      </trkpt>
      <trkpt lat="37.076261180067" lon="-3.388285174408">
        <ele>2573</ele>
        <time>2019-01-08T11:40:28Z</time>
      </trkpt>
      <trkpt lat="37.076337706814" lon="-3.388327167727">
        <ele>2571.4</ele>
        <time>2019-01-08T11:40:29Z</time>
      </trkpt>
      <trkpt lat="37.076413060095" lon="-3.388368490494">
        <ele>2570.2</ele>
        <time>2019-01-08T11:40:30Z</time>
      </trkpt>
      <trkpt lat="37.076488329557" lon="-3.388401012266">
        <ele>2568.8</ele>
        <time>2019-01-08T11:40:31Z</time>
      </trkpt>
      <trkpt lat="37.076565107761" lon="-3.38843252821">
        <ele>2567.4</ele>
        <time>2019-01-08T11:40:32Z</time>
      </trkpt>
      <trkpt lat="37.07663727592" lon="-3.38846186486">
        <ele>2566.2</ele>
        <time>2019-01-08T11:40:33Z</time>
      </trkpt>
      <trkpt lat="37.07668672913" lon="-3.388490530958">
        <ele>2565</ele>
        <time>2019-01-08T11:40:34Z</time>
      </trkpt>
      <trkpt lat="37.076693518469" lon="-3.388530428802">
        <ele>2563.4</ele>
        <time>2019-01-08T11:40:35Z</time>
      </trkpt>
      <trkpt lat="37.076674240099" lon="-3.388576277795">
        <ele>2561.8</ele>
        <time>2019-01-08T11:40:36Z</time>
      </trkpt>
      <trkpt lat="37.076659487955" lon="-3.388628580851">
        <ele>2560.6</ele>
        <time>2019-01-08T11:40:37Z</time>
      </trkpt>
      <trkpt lat="37.076670719701" lon="-3.388697647707">
        <ele>2559.2</ele>
        <time>2019-01-08T11:40:39Z</time>
      </trkpt>
      <trkpt lat="37.076668708045" lon="-3.388713657136">
        <ele>2558.2</ele>
        <time>2019-01-08T11:40:41Z</time>
      </trkpt>
      <trkpt lat="37.076674407737" lon="-3.388702593028">
        <ele>2557.2</ele>
        <time>2019-01-08T11:40:45Z</time>
      </trkpt>
      <trkpt lat="37.076674407737" lon="-3.388702593028">
        <ele>2557.2</ele>
        <time>2019-01-08T11:40:46Z</time>
      </trkpt>
      <trkpt lat="37.076248774855" lon="-3.388902417524">
        <ele>2556</ele>
        <time>2019-01-08T11:41:16Z</time>
      </trkpt>
      <trkpt lat="37.076281799541" lon="-3.389029990042">
        <ele>2555.4</ele>
        <time>2019-01-08T11:41:18Z</time>
      </trkpt>
      <trkpt lat="37.07628775069" lon="-3.389096793785">
        <ele>2555</ele>
        <time>2019-01-08T11:41:19Z</time>
      </trkpt>
      <trkpt lat="37.076298479522" lon="-3.389159993311">
        <ele>2554.6</ele>
        <time>2019-01-08T11:41:20Z</time>
      </trkpt>
      <trkpt lat="37.076350698759" lon="-3.389237274429">
        <ele>2553.6</ele>
        <time>2019-01-08T11:41:22Z</time>
      </trkpt>
      <trkpt lat="37.076376263554" lon="-3.389271472581">
        <ele>2553</ele>
        <time>2019-01-08T11:41:23Z</time>
      </trkpt>
      <trkpt lat="37.076391853888" lon="-3.389306257466">
        <ele>2552.4</ele>
        <time>2019-01-08T11:41:24Z</time>
      </trkpt>
      <trkpt lat="37.076390261327" lon="-3.38935286083">
        <ele>2551.2</ele>
        <time>2019-01-08T11:41:27Z</time>
      </trkpt>
      <trkpt lat="37.076414568837" lon="-3.389376581607">
        <ele>2550</ele>
        <time>2019-01-08T11:41:31Z</time>
      </trkpt>
      <trkpt lat="37.076414233561" lon="-3.389380353462">
        <ele>2550</ele>
        <time>2019-01-08T11:41:33Z</time>
      </trkpt>
      <trkpt lat="37.076893342965" lon="-3.389451599612">
        <ele>2548.4</ele>
        <time>2019-01-08T11:41:52Z</time>
      </trkpt>
      <trkpt lat="37.077053940169" lon="-3.389352609373">
        <ele>2546.8</ele>
        <time>2019-01-08T11:41:55Z</time>
      </trkpt>
      <trkpt lat="37.077169945665" lon="-3.389251523659">
        <ele>2546</ele>
        <time>2019-01-08T11:41:57Z</time>
      </trkpt>
      <trkpt lat="37.077229121879" lon="-3.389191257798">
        <ele>2545.6</ele>
        <time>2019-01-08T11:41:58Z</time>
      </trkpt>
      <trkpt lat="37.077354682741" lon="-3.389073156827">
        <ele>2544.4</ele>
        <time>2019-01-08T11:42:00Z</time>
      </trkpt>
      <trkpt lat="37.07749809705" lon="-3.388966790516">
        <ele>2542.6</ele>
        <time>2019-01-08T11:42:02Z</time>
      </trkpt>
      <trkpt lat="37.077577306005" lon="-3.388916331478">
        <ele>2541.4</ele>
        <time>2019-01-08T11:42:03Z</time>
      </trkpt>
      <trkpt lat="37.077649474164" lon="-3.388863525508">
        <ele>2540.4</ele>
        <time>2019-01-08T11:42:04Z</time>
      </trkpt>
      <trkpt lat="37.077793726663" lon="-3.38877367154">
        <ele>2538.8</ele>
        <time>2019-01-08T11:42:06Z</time>
      </trkpt>
      <trkpt lat="37.077946361062" lon="-3.38873092385">
        <ele>2537.6</ele>
        <time>2019-01-08T11:42:08Z</time>
      </trkpt>
      <trkpt lat="37.078051973002" lon="-3.388652050171">
        <ele>2536.4</ele>
        <time>2019-01-08T11:42:10Z</time>
      </trkpt>
      <trkpt lat="37.07814434154" lon="-3.388635873104">
        <ele>2535.4</ele>
        <time>2019-01-08T11:42:12Z</time>
      </trkpt>
      <trkpt lat="37.078216006785" lon="-3.388584743514">
        <ele>2534</ele>
        <time>2019-01-08T11:42:14Z</time>
      </trkpt>
      <trkpt lat="37.078269567126" lon="-3.388560855099">
        <ele>2533.4</ele>
        <time>2019-01-08T11:42:15Z</time>
      </trkpt>
      <trkpt lat="37.078340645638" lon="-3.388523304187">
        <ele>2533</ele>
        <time>2019-01-08T11:42:16Z</time>
      </trkpt>
      <trkpt lat="37.078417423842" lon="-3.388476030271">
        <ele>2532.2</ele>
        <time>2019-01-08T11:42:17Z</time>
      </trkpt>
      <trkpt lat="37.078515575891" lon="-3.388465133801">
        <ele>2530.8</ele>
        <time>2019-01-08T11:42:18Z</time>
      </trkpt>
      <trkpt lat="37.078620098184" lon="-3.388485166542">
        <ele>2529</ele>
        <time>2019-01-08T11:42:19Z</time>
      </trkpt>
      <trkpt lat="37.078710622704" lon="-3.388532189001">
        <ele>2526.2</ele>
        <time>2019-01-08T11:42:20Z</time>
      </trkpt>
      <trkpt lat="37.078790334573" lon="-3.388607374644">
        <ele>2523.6</ele>
        <time>2019-01-08T11:42:21Z</time>
      </trkpt>
      <trkpt lat="37.078855797212" lon="-3.388690942187">
        <ele>2520.8</ele>
        <time>2019-01-08T11:42:22Z</time>
      </trkpt>
      <trkpt lat="37.078886474966" lon="-3.388797308498">
        <ele>2518</ele>
        <time>2019-01-08T11:42:23Z</time>
      </trkpt>
      <trkpt lat="37.07891379996" lon="-3.388908368673">
        <ele>2514.6</ele>
        <time>2019-01-08T11:42:24Z</time>
      </trkpt>
      <trkpt lat="37.07895068032" lon="-3.389016495183">
        <ele>2511.2</ele>
        <time>2019-01-08T11:42:25Z</time>
      </trkpt>
      <trkpt lat="37.078975658382" lon="-3.389136440172">
        <ele>2507.8</ele>
        <time>2019-01-08T11:42:26Z</time>
      </trkpt>
      <trkpt lat="37.078999630616" lon="-3.389261581939">
        <ele>2504.6</ele>
        <time>2019-01-08T11:42:27Z</time>
      </trkpt>
      <trkpt lat="37.0790277938" lon="-3.389394686511">
        <ele>2501.4</ele>
        <time>2019-01-08T11:42:28Z</time>
      </trkpt>
      <trkpt lat="37.079051766034" lon="-3.389531060024">
        <ele>2497.6</ele>
        <time>2019-01-08T11:42:29Z</time>
      </trkpt>
      <trkpt lat="37.079076995553" lon="-3.389687633916">
        <ele>2493.8</ele>
        <time>2019-01-08T11:42:30Z</time>
      </trkpt>
      <trkpt lat="37.079095938647" lon="-3.389859379047">
        <ele>2489.2</ele>
        <time>2019-01-08T11:42:31Z</time>
      </trkpt>
      <trkpt lat="37.079114881741" lon="-3.390044870494">
        <ele>2485</ele>
        <time>2019-01-08T11:42:32Z</time>
      </trkpt>
      <trkpt lat="37.079150504816" lon="-3.390231032493">
        <ele>2481</ele>
        <time>2019-01-08T11:42:33Z</time>
      </trkpt>
      <trkpt lat="37.079180847294" lon="-3.390420128157">
        <ele>2476.6</ele>
        <time>2019-01-08T11:42:34Z</time>
      </trkpt>
      <trkpt lat="37.079189313013" lon="-3.390590699822">
        <ele>2472.6</ele>
        <time>2019-01-08T11:42:35Z</time>
      </trkpt>
      <trkpt lat="37.079209932487" lon="-3.390730174638">
        <ele>2468.2</ele>
        <time>2019-01-08T11:42:36Z</time>
      </trkpt>
      <trkpt lat="37.079243376268" lon="-3.390858585346">
        <ele>2465</ele>
        <time>2019-01-08T11:42:37Z</time>
      </trkpt>
      <trkpt lat="37.079256787308" lon="-3.390976853955">
        <ele>2462.8</ele>
        <time>2019-01-08T11:42:38Z</time>
      </trkpt>
      <trkpt lat="37.079273886384" lon="-3.391090261062">
        <ele>2461.2</ele>
        <time>2019-01-08T11:42:39Z</time>
      </trkpt>
      <trkpt lat="37.079289560537" lon="-3.39119017331">
        <ele>2459.8</ele>
        <time>2019-01-08T11:42:40Z</time>
      </trkpt>
      <trkpt lat="37.079294841134" lon="-3.391282541848">
        <ele>2458.6</ele>
        <time>2019-01-08T11:42:41Z</time>
      </trkpt>
      <trkpt lat="37.079295092591" lon="-3.391365690296">
        <ele>2457.6</ele>
        <time>2019-01-08T11:42:42Z</time>
      </trkpt>
      <trkpt lat="37.079316717893" lon="-3.391439702473">
        <ele>2457</ele>
        <time>2019-01-08T11:42:43Z</time>
      </trkpt>
      <trkpt lat="37.079354855538" lon="-3.39149862723">
        <ele>2456.2</ele>
        <time>2019-01-08T11:42:44Z</time>
      </trkpt>
      <trkpt lat="37.079392657907" lon="-3.391563251679">
        <ele>2455.2</ele>
        <time>2019-01-08T11:42:45Z</time>
      </trkpt>
      <trkpt lat="37.079411265725" lon="-3.391650507258">
        <ele>2454</ele>
        <time>2019-01-08T11:42:46Z</time>
      </trkpt>
      <trkpt lat="37.079420318177" lon="-3.391739020122">
        <ele>2453</ele>
        <time>2019-01-08T11:42:47Z</time>
      </trkpt>
      <trkpt lat="37.079447978447" lon="-3.39183557961">
        <ele>2451.8</ele>
        <time>2019-01-08T11:42:48Z</time>
      </trkpt>
      <trkpt lat="37.079488882119" lon="-3.391936832962">
        <ele>2450</ele>
        <time>2019-01-08T11:42:49Z</time>
      </trkpt>
      <trkpt lat="37.079510842697" lon="-3.392057029408">
        <ele>2447.6</ele>
        <time>2019-01-08T11:42:50Z</time>
      </trkpt>
      <trkpt lat="37.07954998617" lon="-3.392175298017">
        <ele>2445</ele>
        <time>2019-01-08T11:42:51Z</time>
      </trkpt>
      <trkpt lat="37.079590722204" lon="-3.3922974223">
        <ele>2442.4</ele>
        <time>2019-01-08T11:42:52Z</time>
      </trkpt>
      <trkpt lat="37.079633218437" lon="-3.392439746962">
        <ele>2439.4</ele>
        <time>2019-01-08T11:42:53Z</time>
      </trkpt>
      <trkpt lat="37.079701028008" lon="-3.392561619788">
        <ele>2436.6</ele>
        <time>2019-01-08T11:42:54Z</time>
      </trkpt>
      <trkpt lat="37.079765149543" lon="-3.392691790695">
        <ele>2433.2</ele>
        <time>2019-01-08T11:42:55Z</time>
      </trkpt>
      <trkpt lat="37.079834467856" lon="-3.392810562218">
        <ele>2430</ele>
        <time>2019-01-08T11:42:56Z</time>
      </trkpt>
      <trkpt lat="37.079918705951" lon="-3.392888513888">
        <ele>2426.8</ele>
        <time>2019-01-08T11:42:57Z</time>
      </trkpt>
      <trkpt lat="37.080004117512" lon="-3.392974763639">
        <ele>2423.6</ele>
        <time>2019-01-08T11:42:58Z</time>
      </trkpt>
      <trkpt lat="37.080096737507" lon="-3.393059504648">
        <ele>2420.8</ele>
        <time>2019-01-08T11:42:59Z</time>
      </trkpt>
      <trkpt lat="37.080206875673" lon="-3.393103844899">
        <ele>2417.8</ele>
        <time>2019-01-08T11:43:00Z</time>
      </trkpt>
      <trkpt lat="37.080316678563" lon="-3.393146927865">
        <ele>2414.8</ele>
        <time>2019-01-08T11:43:01Z</time>
      </trkpt>
      <trkpt lat="37.08042254196" lon="-3.393201661672">
        <ele>2411.4</ele>
        <time>2019-01-08T11:43:02Z</time>
      </trkpt>
      <trkpt lat="37.080523795312" lon="-3.393232339426">
        <ele>2408.4</ele>
        <time>2019-01-08T11:43:03Z</time>
      </trkpt>
      <trkpt lat="37.080616750583" lon="-3.393253964728">
        <ele>2405.8</ele>
        <time>2019-01-08T11:43:04Z</time>
      </trkpt>
      <trkpt lat="37.080698474108" lon="-3.393299310807">
        <ele>2403</ele>
        <time>2019-01-08T11:43:05Z</time>
      </trkpt>
      <trkpt lat="37.080782041651" lon="-3.393359995763">
        <ele>2400.2</ele>
        <time>2019-01-08T11:43:06Z</time>
      </trkpt>
      <trkpt lat="37.080855383276" lon="-3.393437444519">
        <ele>2398.2</ele>
        <time>2019-01-08T11:43:07Z</time>
      </trkpt>
      <trkpt lat="37.080927467616" lon="-3.393507014289">
        <ele>2396.6</ele>
        <time>2019-01-08T11:43:08Z</time>
      </trkpt>
      <trkpt lat="37.081010029331" lon="-3.393535931844">
        <ele>2395</ele>
        <time>2019-01-08T11:43:09Z</time>
      </trkpt>
      <trkpt lat="37.08109057939" lon="-3.393575494412">
        <ele>2393.4</ele>
        <time>2019-01-08T11:43:10Z</time>
      </trkpt>
      <trkpt lat="37.081165513576" lon="-3.393614134971">
        <ele>2391.4</ele>
        <time>2019-01-08T11:43:11Z</time>
      </trkpt>
      <trkpt lat="37.081234496613" lon="-3.393644309811">
        <ele>2389.6</ele>
        <time>2019-01-08T11:43:12Z</time>
      </trkpt>
      <trkpt lat="37.081297947596" lon="-3.393693763021">
        <ele>2387.6</ele>
        <time>2019-01-08T11:43:13Z</time>
      </trkpt>
      <trkpt lat="37.081361901493" lon="-3.393733744684">
        <ele>2385.8</ele>
        <time>2019-01-08T11:43:14Z</time>
      </trkpt>
      <trkpt lat="37.081432225634" lon="-3.393728547906">
        <ele>2383.6</ele>
        <time>2019-01-08T11:43:15Z</time>
      </trkpt>
      <trkpt lat="37.081502214499" lon="-3.393737851815">
        <ele>2381.6</ele>
        <time>2019-01-08T11:43:16Z</time>
      </trkpt>
      <trkpt lat="37.081567341862" lon="-3.393736426892">
        <ele>2379.6</ele>
        <time>2019-01-08T11:43:17Z</time>
      </trkpt>
      <trkpt lat="37.081635570528" lon="-3.393714214857">
        <ele>2377.6</ele>
        <time>2019-01-08T11:43:18Z</time>
      </trkpt>
      <trkpt lat="37.081704637384" lon="-3.393723015852">
        <ele>2375.2</ele>
        <time>2019-01-08T11:43:19Z</time>
      </trkpt>
      <trkpt lat="37.081771273489" lon="-3.393738773824">
        <ele>2373.2</ele>
        <time>2019-01-08T11:43:20Z</time>
      </trkpt>
      <trkpt lat="37.081832628997" lon="-3.393699965627">
        <ele>2370.8</ele>
        <time>2019-01-08T11:43:21Z</time>
      </trkpt>
      <trkpt lat="37.081892140487" lon="-3.393671634805">
        <ele>2368.4</ele>
        <time>2019-01-08T11:43:22Z</time>
      </trkpt>
      <trkpt lat="37.081961710257" lon="-3.393705832957">
        <ele>2365.4</ele>
        <time>2019-01-08T11:43:23Z</time>
      </trkpt>
      <trkpt lat="37.082029519828" lon="-3.39372066892">
        <ele>2362.6</ele>
        <time>2019-01-08T11:43:24Z</time>
      </trkpt>
      <trkpt lat="37.082093138449" lon="-3.393687895691">
        <ele>2360.2</ele>
        <time>2019-01-08T11:43:25Z</time>
      </trkpt>
      <trkpt lat="37.082159104002" lon="-3.393693176288">
        <ele>2358</ele>
        <time>2019-01-08T11:43:26Z</time>
      </trkpt>
      <trkpt lat="37.082230182514" lon="-3.393719495454">
        <ele>2355.6</ele>
        <time>2019-01-08T11:43:27Z</time>
      </trkpt>
      <trkpt lat="37.082309391469" lon="-3.393715555961">
        <ele>2353</ele>
        <time>2019-01-08T11:43:28Z</time>
      </trkpt>
      <trkpt lat="37.0823889357" lon="-3.393737265082">
        <ele>2350.4</ele>
        <time>2019-01-08T11:43:29Z</time>
      </trkpt>
      <trkpt lat="37.082469737216" lon="-3.393765176809">
        <ele>2347.6</ele>
        <time>2019-01-08T11:43:30Z</time>
      </trkpt>
      <trkpt lat="37.082565374695" lon="-3.393783030256">
        <ele>2344.8</ele>
        <time>2019-01-08T11:43:31Z</time>
      </trkpt>
      <trkpt lat="37.082647014401" lon="-3.393853354397">
        <ele>2341.8</ele>
        <time>2019-01-08T11:43:32Z</time>
      </trkpt>
      <trkpt lat="37.08274768102" lon="-3.393896185906">
        <ele>2338.6</ele>
        <time>2019-01-08T11:43:33Z</time>
      </trkpt>
      <trkpt lat="37.082842731766" lon="-3.393951674084">
        <ele>2335.4</ele>
        <time>2019-01-08T11:43:34Z</time>
      </trkpt>
      <trkpt lat="37.082926131671" lon="-3.394037420921">
        <ele>2332.4</ele>
        <time>2019-01-08T11:43:35Z</time>
      </trkpt>
      <trkpt lat="37.083009615395" lon="-3.394113947668">
        <ele>2329.6</ele>
        <time>2019-01-08T11:43:36Z</time>
      </trkpt>
      <trkpt lat="37.083098463535" lon="-3.394174297348">
        <ele>2327.2</ele>
        <time>2019-01-08T11:43:37Z</time>
      </trkpt>
      <trkpt lat="37.083181695802" lon="-3.394256691425">
        <ele>2324.8</ele>
        <time>2019-01-08T11:43:38Z</time>
      </trkpt>
      <trkpt lat="37.083259060739" lon="-3.394344449918">
        <ele>2322.4</ele>
        <time>2019-01-08T11:43:39Z</time>
      </trkpt>
      <trkpt lat="37.083347238327" lon="-3.394397758802">
        <ele>2320.4</ele>
        <time>2019-01-08T11:43:40Z</time>
      </trkpt>
      <trkpt lat="37.083426363463" lon="-3.394471435703">
        <ele>2318.4</ele>
        <time>2019-01-08T11:43:41Z</time>
      </trkpt>
      <trkpt lat="37.083503560762" lon="-3.394568162829">
        <ele>2316.8</ele>
        <time>2019-01-08T11:43:42Z</time>
      </trkpt>
      <trkpt lat="37.083590145789" lon="-3.394650976001">
        <ele>2315</ele>
        <time>2019-01-08T11:43:43Z</time>
      </trkpt>
      <trkpt lat="37.083690560951" lon="-3.394713002061">
        <ele>2313.6</ele>
        <time>2019-01-08T11:43:44Z</time>
      </trkpt>
      <trkpt lat="37.083779828186" lon="-3.394819033096">
        <ele>2311.8</ele>
        <time>2019-01-08T11:43:45Z</time>
      </trkpt>
      <trkpt lat="37.083867083765" lon="-3.39490838415">
        <ele>2309.6</ele>
        <time>2019-01-08T11:43:46Z</time>
      </trkpt>
      <trkpt lat="37.083955931905" lon="-3.394969991115">
        <ele>2307.2</ele>
        <time>2019-01-08T11:43:47Z</time>
      </trkpt>
      <trkpt lat="37.084037320154" lon="-3.395049451527">
        <ele>2304.6</ele>
        <time>2019-01-08T11:43:48Z</time>
      </trkpt>
      <trkpt lat="37.084115523281" lon="-3.395142406798">
        <ele>2302.2</ele>
        <time>2019-01-08T11:43:49Z</time>
      </trkpt>
      <trkpt lat="37.084202695041" lon="-3.395213317672">
        <ele>2299.8</ele>
        <time>2019-01-08T11:43:50Z</time>
      </trkpt>
      <trkpt lat="37.084276874856" lon="-3.395297807224">
        <ele>2297.6</ele>
        <time>2019-01-08T11:43:51Z</time>
      </trkpt>
      <trkpt lat="37.084353904517" lon="-3.395383721699">
        <ele>2295.6</ele>
        <time>2019-01-08T11:43:52Z</time>
      </trkpt>
      <trkpt lat="37.084447697978" lon="-3.395433258728">
        <ele>2293.6</ele>
        <time>2019-01-08T11:43:53Z</time>
      </trkpt>
      <trkpt lat="37.084540737068" lon="-3.395489082182">
        <ele>2291.6</ele>
        <time>2019-01-08T11:43:54Z</time>
      </trkpt>
      <trkpt lat="37.084630088122" lon="-3.395578265598">
        <ele>2289.4</ele>
        <time>2019-01-08T11:43:55Z</time>
      </trkpt>
      <trkpt lat="37.084729078361" lon="-3.39566107877">
        <ele>2287.4</ele>
        <time>2019-01-08T11:43:56Z</time>
      </trkpt>
      <trkpt lat="37.08483142136" lon="-3.395734168938">
        <ele>2285</ele>
        <time>2019-01-08T11:43:57Z</time>
      </trkpt>
      <trkpt lat="37.084928986676" lon="-3.39583039315">
        <ele>2282.2</ele>
        <time>2019-01-08T11:43:58Z</time>
      </trkpt>
      <trkpt lat="37.085047003828" lon="-3.395878337618">
        <ele>2278.8</ele>
        <time>2019-01-08T11:43:59Z</time>
      </trkpt>
      <trkpt lat="37.085166362084" lon="-3.395918906014">
        <ele>2276</ele>
        <time>2019-01-08T11:44:00Z</time>
      </trkpt>
      <trkpt lat="37.085281864666" lon="-3.39599048744">
        <ele>2273.4</ele>
        <time>2019-01-08T11:44:01Z</time>
      </trkpt>
      <trkpt lat="37.08539971418" lon="-3.396051842948">
        <ele>2271.2</ele>
        <time>2019-01-08T11:44:02Z</time>
      </trkpt>
      <trkpt lat="37.085512534554" lon="-3.3961111868">
        <ele>2269.4</ele>
        <time>2019-01-08T11:44:03Z</time>
      </trkpt>
      <trkpt lat="37.085617140666" lon="-3.396193580877">
        <ele>2267.6</ele>
        <time>2019-01-08T11:44:04Z</time>
      </trkpt>
      <trkpt lat="37.085685788427" lon="-3.396329200019">
        <ele>2265.6</ele>
        <time>2019-01-08T11:44:05Z</time>
      </trkpt>
      <trkpt lat="37.085768769237" lon="-3.396445792248">
        <ele>2263.4</ele>
        <time>2019-01-08T11:44:06Z</time>
      </trkpt>
      <trkpt lat="37.085870609322" lon="-3.396517876588">
        <ele>2261.4</ele>
        <time>2019-01-08T11:44:07Z</time>
      </trkpt>
      <trkpt lat="37.085983178239" lon="-3.396558444984">
        <ele>2259</ele>
        <time>2019-01-08T11:44:08Z</time>
      </trkpt>
      <trkpt lat="37.086088790179" lon="-3.39662415908">
        <ele>2256.6</ele>
        <time>2019-01-08T11:44:09Z</time>
      </trkpt>
      <trkpt lat="37.08619348011" lon="-3.396716611437">
        <ele>2254</ele>
        <time>2019-01-08T11:44:10Z</time>
      </trkpt>
      <trkpt lat="37.086299175869" lon="-3.396800514256">
        <ele>2252</ele>
        <time>2019-01-08T11:44:11Z</time>
      </trkpt>
      <trkpt lat="37.086424066179" lon="-3.39682700106">
        <ele>2250</ele>
        <time>2019-01-08T11:44:12Z</time>
      </trkpt>
      <trkpt lat="37.086544178806" lon="-3.396856421529">
        <ele>2247.8</ele>
        <time>2019-01-08T11:44:13Z</time>
      </trkpt>
      <trkpt lat="37.086657334456" lon="-3.396926913308">
        <ele>2245.2</ele>
        <time>2019-01-08T11:44:14Z</time>
      </trkpt>
      <trkpt lat="37.086766718251" lon="-3.397025568271">
        <ele>2242.8</ele>
        <time>2019-01-08T11:44:15Z</time>
      </trkpt>
      <trkpt lat="37.08688666324" lon="-3.39709689824">
        <ele>2240.8</ele>
        <time>2019-01-08T11:44:16Z</time>
      </trkpt>
      <trkpt lat="37.087037956535" lon="-3.39710611833">
        <ele>2238.2</ele>
        <time>2019-01-08T11:44:17Z</time>
      </trkpt>
      <trkpt lat="37.087184975061" lon="-3.397130509659">
        <ele>2234.6</ele>
        <time>2019-01-08T11:44:18Z</time>
      </trkpt>
      <trkpt lat="37.087307266982" lon="-3.397209383338">
        <ele>2231.2</ele>
        <time>2019-01-08T11:44:19Z</time>
      </trkpt>
      <trkpt lat="37.087415225854" lon="-3.397320443513">
        <ele>2227.6</ele>
        <time>2019-01-08T11:44:20Z</time>
      </trkpt>
      <trkpt lat="37.087529219694" lon="-3.397403340504">
        <ele>2224.6</ele>
        <time>2019-01-08T11:44:21Z</time>
      </trkpt>
      <trkpt lat="37.087654361461" lon="-3.397448518945">
        <ele>2221.2</ele>
        <time>2019-01-08T11:44:22Z</time>
      </trkpt>
      <trkpt lat="37.087781263427" lon="-3.397505012951">
        <ele>2218.2</ele>
        <time>2019-01-08T11:44:23Z</time>
      </trkpt>
      <trkpt lat="37.087897436561" lon="-3.39759813586">
        <ele>2215</ele>
        <time>2019-01-08T11:44:24Z</time>
      </trkpt>
      <trkpt lat="37.087997348809" lon="-3.397706932922">
        <ele>2212.6</ele>
        <time>2019-01-08T11:44:25Z</time>
      </trkpt>
      <trkpt lat="37.088113605762" lon="-3.397759403616">
        <ele>2210.6</ele>
        <time>2019-01-08T11:44:26Z</time>
      </trkpt>
      <trkpt lat="37.088221816091" lon="-3.397819250382">
        <ele>2208.4</ele>
        <time>2019-01-08T11:44:27Z</time>
      </trkpt>
      <trkpt lat="37.088326170746" lon="-3.397889993618">
        <ele>2205.6</ele>
        <time>2019-01-08T11:44:28Z</time>
      </trkpt>
      <trkpt lat="37.088436979464" lon="-3.397938273362">
        <ele>2203</ele>
        <time>2019-01-08T11:44:29Z</time>
      </trkpt>
      <trkpt lat="37.088546027983" lon="-3.397975908093">
        <ele>2200.8</ele>
        <time>2019-01-08T11:44:30Z</time>
      </trkpt>
      <trkpt lat="37.088652813389" lon="-3.397991833703">
        <ele>2199.2</ele>
        <time>2019-01-08T11:44:31Z</time>
      </trkpt>
      <trkpt lat="37.08876001789" lon="-3.39799879068">
        <ele>2198</ele>
        <time>2019-01-08T11:44:32Z</time>
      </trkpt>
      <trkpt lat="37.088865043097" lon="-3.398000969974">
        <ele>2196.8</ele>
        <time>2019-01-08T11:44:33Z</time>
      </trkpt>
      <trkpt lat="37.088971912322" lon="-3.397997365757">
        <ele>2195.4</ele>
        <time>2019-01-08T11:44:34Z</time>
      </trkpt>
      <trkpt lat="37.089080374108" lon="-3.39800130525">
        <ele>2194</ele>
        <time>2019-01-08T11:44:35Z</time>
      </trkpt>
      <trkpt lat="37.08919168574" lon="-3.398015722118">
        <ele>2192.6</ele>
        <time>2019-01-08T11:44:36Z</time>
      </trkpt>
      <trkpt lat="37.089301153354" lon="-3.398030138986">
        <ele>2191.4</ele>
        <time>2019-01-08T11:44:37Z</time>
      </trkpt>
      <trkpt lat="37.089403244896" lon="-3.398047573338">
        <ele>2190</ele>
        <time>2019-01-08T11:44:38Z</time>
      </trkpt>
      <trkpt lat="37.089511790501" lon="-3.398059894731">
        <ele>2188.6</ele>
        <time>2019-01-08T11:44:39Z</time>
      </trkpt>
      <trkpt lat="37.089623102133" lon="-3.398075652703">
        <ele>2187.4</ele>
        <time>2019-01-08T11:44:40Z</time>
      </trkpt>
      <trkpt lat="37.089735251955" lon="-3.398097780919">
        <ele>2186.2</ele>
        <time>2019-01-08T11:44:41Z</time>
      </trkpt>
      <trkpt lat="37.089847234139" lon="-3.398125692646">
        <ele>2185</ele>
        <time>2019-01-08T11:44:42Z</time>
      </trkpt>
      <trkpt lat="37.089957959038" lon="-3.398156538038">
        <ele>2183.8</ele>
        <time>2019-01-08T11:44:43Z</time>
      </trkpt>
      <trkpt lat="37.09006591791" lon="-3.398186712878">
        <ele>2182.6</ele>
        <time>2019-01-08T11:44:44Z</time>
      </trkpt>
      <trkpt lat="37.090170021108" lon="-3.398215211338">
        <ele>2181.2</ele>
        <time>2019-01-08T11:44:45Z</time>
      </trkpt>
      <trkpt lat="37.090273956668" lon="-3.398240524676">
        <ele>2180</ele>
        <time>2019-01-08T11:44:46Z</time>
      </trkpt>
      <trkpt lat="37.09037604821" lon="-3.398267179118">
        <ele>2178.8</ele>
        <time>2019-01-08T11:44:47Z</time>
      </trkpt>
      <trkpt lat="37.09057134648" lon="-3.398318811622">
        <ele>2177</ele>
        <time>2019-01-08T11:44:49Z</time>
      </trkpt>
      <trkpt lat="37.09075323371" lon="-3.398369857393">
        <ele>2175.6</ele>
        <time>2019-01-08T11:44:51Z</time>
      </trkpt>
      <trkpt lat="37.090838980547" lon="-3.398400451328">
        <ele>2175.2</ele>
        <time>2019-01-08T11:44:52Z</time>
      </trkpt>
      <trkpt lat="37.090920704072" lon="-3.398438421335">
        <ele>2174.4</ele>
        <time>2019-01-08T11:44:53Z</time>
      </trkpt>
      <trkpt lat="37.090995638258" lon="-3.398486952536">
        <ele>2173.6</ele>
        <time>2019-01-08T11:44:54Z</time>
      </trkpt>
      <trkpt lat="37.091054227739" lon="-3.398548224225">
        <ele>2172.8</ele>
        <time>2019-01-08T11:44:55Z</time>
      </trkpt>
      <trkpt lat="37.091093119755" lon="-3.398624834791">
        <ele>2172</ele>
        <time>2019-01-08T11:44:56Z</time>
      </trkpt>
      <trkpt lat="37.091121115301" lon="-3.398703457013">
        <ele>2171.4</ele>
        <time>2019-01-08T11:44:57Z</time>
      </trkpt>
      <trkpt lat="37.091159672041" lon="-3.398774619344">
        <ele>2170.8</ele>
        <time>2019-01-08T11:44:58Z</time>
      </trkpt>
      <trkpt lat="37.091212226554" lon="-3.398838573241">
        <ele>2170.2</ele>
        <time>2019-01-08T11:44:59Z</time>
      </trkpt>
      <trkpt lat="37.091339547615" lon="-3.398964469379">
        <ele>2168.6</ele>
        <time>2019-01-08T11:45:01Z</time>
      </trkpt>
      <trkpt lat="37.091481034087" lon="-3.399093718277">
        <ele>2166.2</ele>
        <time>2019-01-08T11:45:03Z</time>
      </trkpt>
      <trkpt lat="37.091557309377" lon="-3.399166976083">
        <ele>2164.4</ele>
        <time>2019-01-08T11:45:04Z</time>
      </trkpt>
      <trkpt lat="37.091638194712" lon="-3.399225146469">
        <ele>2162.6</ele>
        <time>2019-01-08T11:45:05Z</time>
      </trkpt>
      <trkpt lat="37.091722768083" lon="-3.399279628819">
        <ele>2161.4</ele>
        <time>2019-01-08T11:45:06Z</time>
      </trkpt>
      <trkpt lat="37.091808347282" lon="-3.399335284635">
        <ele>2160.2</ele>
        <time>2019-01-08T11:45:07Z</time>
      </trkpt>
      <trkpt lat="37.091900045268" lon="-3.399368225502">
        <ele>2159</ele>
        <time>2019-01-08T11:45:08Z</time>
      </trkpt>
      <trkpt lat="37.091993419634" lon="-3.399365375656">
        <ele>2157.2</ele>
        <time>2019-01-08T11:45:09Z</time>
      </trkpt>
      <trkpt lat="37.092087716009" lon="-3.399369985701">
        <ele>2155.6</ele>
        <time>2019-01-08T11:45:10Z</time>
      </trkpt>
      <trkpt lat="37.092168517525" lon="-3.399415667056">
        <ele>2153.8</ele>
        <time>2019-01-08T11:45:11Z</time>
      </trkpt>
      <trkpt lat="37.092215456165" lon="-3.399486158835">
        <ele>2152.4</ele>
        <time>2019-01-08T11:45:12Z</time>
      </trkpt>
      <trkpt lat="37.092212690138" lon="-3.399542820479">
        <ele>2151.4</ele>
        <time>2019-01-08T11:45:13Z</time>
      </trkpt>
      <trkpt lat="37.092153346286" lon="-3.399609540403">
        <ele>2149.6</ele>
        <time>2019-01-08T11:45:15Z</time>
      </trkpt>
      <trkpt lat="37.092081848679" lon="-3.399650444075">
        <ele>2148.2</ele>
        <time>2019-01-08T11:45:17Z</time>
      </trkpt>
      <trkpt lat="37.09204153174" lon="-3.399654048292">
        <ele>2147.2</ele>
        <time>2019-01-08T11:45:20Z</time>
      </trkpt>
      <trkpt lat="37.092037256971" lon="-3.399654299749">
        <ele>2147</ele>
        <time>2019-01-08T11:45:21Z</time>
      </trkpt>
      <trkpt lat="37.092021331361" lon="-3.399664777124">
        <ele>2146.8</ele>
        <time>2019-01-08T11:45:23Z</time>
      </trkpt>
      <trkpt lat="37.092015631669" lon="-3.399668884255">
        <ele>2146.8</ele>
        <time>2019-01-08T11:45:25Z</time>
      </trkpt>
      <trkpt lat="37.091769539085" lon="-3.399734933627">
        <ele>2145.4</ele>
        <time>2019-01-08T11:46:05Z</time>
      </trkpt>
      <trkpt lat="37.091593016271" lon="-3.399881616877">
        <ele>2145.6</ele>
        <time>2019-01-08T11:46:11Z</time>
      </trkpt>
      <trkpt lat="37.091415739086" lon="-3.400031149973">
        <ele>2144.6</ele>
        <time>2019-01-08T11:46:17Z</time>
      </trkpt>
      <trkpt lat="37.09138522897" lon="-3.400053445827">
        <ele>2144</ele>
        <time>2019-01-08T11:46:18Z</time>
      </trkpt>
      <trkpt lat="37.091296213192" lon="-3.400121171579">
        <ele>2142.8</ele>
        <time>2019-01-08T11:46:21Z</time>
      </trkpt>
      <trkpt lat="37.091203425559" lon="-3.400184706381">
        <ele>2141.4</ele>
        <time>2019-01-08T11:46:24Z</time>
      </trkpt>
      <trkpt lat="37.091018772302" lon="-3.400315380202">
        <ele>2142.2</ele>
        <time>2019-01-08T11:46:30Z</time>
      </trkpt>
      <trkpt lat="37.090986166711" lon="-3.400333317468">
        <ele>2142.6</ele>
        <time>2019-01-08T11:46:31Z</time>
      </trkpt>
      <trkpt lat="37.090891283603" lon="-3.400394421519">
        <ele>2143.8</ele>
        <time>2019-01-08T11:46:34Z</time>
      </trkpt>
      <trkpt lat="37.090828335534" lon="-3.400434067906">
        <ele>2145.2</ele>
        <time>2019-01-08T11:46:36Z</time>
      </trkpt>
      <trkpt lat="37.090768991682" lon="-3.400473630474">
        <ele>2146.2</ele>
        <time>2019-01-08T11:46:38Z</time>
      </trkpt>
      <trkpt lat="37.0906786348" lon="-3.400531968498">
        <ele>2147.8</ele>
        <time>2019-01-08T11:46:41Z</time>
      </trkpt>
      <trkpt lat="37.090621134966" lon="-3.400570273781">
        <ele>2148.8</ele>
        <time>2019-01-08T11:46:43Z</time>
      </trkpt>
      <trkpt lat="37.09056296458" lon="-3.400607573236">
        <ele>2150.2</ele>
        <time>2019-01-08T11:46:45Z</time>
      </trkpt>
      <trkpt lat="37.085906316216" lon="-3.403591864912">
        <ele>2324.4</ele>
        <time>2019-01-08T11:49:33Z</time>
      </trkpt>
      <trkpt lat="37.084884897882" lon="-3.404236013927">
        <ele>2326.4</ele>
        <time>2019-01-08T11:50:07Z</time>
      </trkpt>
      <trkpt lat="37.083085555409" lon="-3.405590612786">
        <ele>2383</ele>
        <time>2019-01-08T11:51:19Z</time>
      </trkpt>
      <trkpt lat="37.083109443824" lon="-3.405796388431">
        <ele>2383</ele>
        <time>2019-01-08T11:51:25Z</time>
      </trkpt>
      <trkpt lat="37.083168787676" lon="-3.405955141617">
        <ele>2383</ele>
        <time>2019-01-08T11:51:29Z</time>
      </trkpt>
      <trkpt lat="37.083005927359" lon="-3.405570496226">
        <ele>2384.6</ele>
        <time>2019-01-08T11:53:01Z</time>
      </trkpt>
      <trkpt lat="37.072945468065" lon="-3.397833918707">
        <ele>2699.8</ele>
        <time>2019-01-08T11:58:33Z</time>
      </trkpt>
      <trkpt lat="37.071749287116" lon="-3.396922889996">
        <ele>2701.4</ele>
        <time>2019-01-08T11:59:11Z</time>
      </trkpt>
      <trkpt lat="37.067477200324" lon="-3.393478599648">
        <ele>2824</ele>
        <time>2019-01-08T12:02:09Z</time>
      </trkpt>
      <trkpt lat="37.06755213451" lon="-3.393579936819">
        <ele>2823</ele>
        <time>2019-01-08T12:02:12Z</time>
      </trkpt>
      <trkpt lat="37.067709127497" lon="-3.393818401874">
        <ele>2822</ele>
        <time>2019-01-08T12:02:18Z</time>
      </trkpt>
      <trkpt lat="37.067735530482" lon="-3.393863580315">
        <ele>2821.8</ele>
        <time>2019-01-08T12:02:19Z</time>
      </trkpt>
      <trkpt lat="37.067838879309" lon="-3.394077067308">
        <ele>2821.4</ele>
        <time>2019-01-08T12:02:24Z</time>
      </trkpt>
      <trkpt lat="37.067954800986" lon="-3.394235652856">
        <ele>2820.8</ele>
        <time>2019-01-08T12:02:28Z</time>
      </trkpt>
      <trkpt lat="37.068182285752" lon="-3.394533461763">
        <ele>2819.4</ele>
        <time>2019-01-08T12:02:34Z</time>
      </trkpt>
      <trkpt lat="37.068271217711" lon="-3.3946611181">
        <ele>2818.2</ele>
        <time>2019-01-08T12:02:36Z</time>
      </trkpt>
      <trkpt lat="37.068343553508" lon="-3.394812327576">
        <ele>2817</ele>
        <time>2019-01-08T12:02:38Z</time>
      </trkpt>
      <trkpt lat="37.068391665614" lon="-3.394872844894">
        <ele>2816.4</ele>
        <time>2019-01-08T12:02:39Z</time>
      </trkpt>
      <trkpt lat="37.068479927021" lon="-3.394940654465">
        <ele>2815.4</ele>
        <time>2019-01-08T12:02:41Z</time>
      </trkpt>
      <trkpt lat="37.068541953081" lon="-3.39499555591">
        <ele>2814</ele>
        <time>2019-01-08T12:02:43Z</time>
      </trkpt>
      <trkpt lat="37.068637255284" lon="-3.394961776853">
        <ele>2812.8</ele>
        <time>2019-01-08T12:02:46Z</time>
      </trkpt>
      <trkpt lat="37.068709339624" lon="-3.39494526451">
        <ele>2812.2</ele>
        <time>2019-01-08T12:02:49Z</time>
      </trkpt>
      <trkpt lat="37.068723505035" lon="-3.394988179838">
        <ele>2811.6</ele>
        <time>2019-01-08T12:02:52Z</time>
      </trkpt>
      <trkpt lat="37.068713362936" lon="-3.395030508433">
        <ele>2811.4</ele>
        <time>2019-01-08T12:02:55Z</time>
      </trkpt>
      <trkpt lat="37.068706992692" lon="-3.39514140097">
        <ele>2810.4</ele>
        <time>2019-01-08T12:02:58Z</time>
      </trkpt>
      <trkpt lat="37.068725768148" lon="-3.395336531602">
        <ele>2809.4</ele>
        <time>2019-01-08T12:03:01Z</time>
      </trkpt>
      <trkpt lat="37.06872811508" lon="-3.395414734729">
        <ele>2808.8</ele>
        <time>2019-01-08T12:03:02Z</time>
      </trkpt>
      <trkpt lat="37.068742699586" lon="-3.395495200969">
        <ele>2808.2</ele>
        <time>2019-01-08T12:03:03Z</time>
      </trkpt>
      <trkpt lat="37.068784357629" lon="-3.395563764911">
        <ele>2807.6</ele>
        <time>2019-01-08T12:03:04Z</time>
      </trkpt>
      <trkpt lat="37.068827189138" lon="-3.395639956382">
        <ele>2806.6</ele>
        <time>2019-01-08T12:03:05Z</time>
      </trkpt>
      <trkpt lat="37.068876055615" lon="-3.395719584432">
        <ele>2805.8</ele>
        <time>2019-01-08T12:03:06Z</time>
      </trkpt>
      <trkpt lat="37.068937997856" lon="-3.395791417315">
        <ele>2804.8</ele>
        <time>2019-01-08T12:03:07Z</time>
      </trkpt>
      <trkpt lat="37.068994491862" lon="-3.395879762541">
        <ele>2803.4</ele>
        <time>2019-01-08T12:03:08Z</time>
      </trkpt>
      <trkpt lat="37.069060792691" lon="-3.395975232382">
        <ele>2801.8</ele>
        <time>2019-01-08T12:03:09Z</time>
      </trkpt>
      <trkpt lat="37.069130781556" lon="-3.396062404142">
        <ele>2800.4</ele>
        <time>2019-01-08T12:03:10Z</time>
      </trkpt>
      <trkpt lat="37.06920253062" lon="-3.396153683033">
        <ele>2798.8</ele>
        <time>2019-01-08T12:03:11Z</time>
      </trkpt>
      <trkpt lat="37.069276710435" lon="-3.396237585852">
        <ele>2797</ele>
        <time>2019-01-08T12:03:12Z</time>
      </trkpt>
      <trkpt lat="37.069349046232" lon="-3.396327607458">
        <ele>2795.2</ele>
        <time>2019-01-08T12:03:13Z</time>
      </trkpt>
      <trkpt lat="37.069418867459" lon="-3.39642466986">
        <ele>2793.8</ele>
        <time>2019-01-08T12:03:14Z</time>
      </trkpt>
      <trkpt lat="37.069491622351" lon="-3.396525420298">
        <ele>2792</ele>
        <time>2019-01-08T12:03:15Z</time>
      </trkpt>
      <trkpt lat="37.069569574021" lon="-3.39661242442">
        <ele>2790.4</ele>
        <time>2019-01-08T12:03:16Z</time>
      </trkpt>
      <trkpt lat="37.069640484895" lon="-3.396707056071">
        <ele>2788.4</ele>
        <time>2019-01-08T12:03:17Z</time>
      </trkpt>
      <trkpt lat="37.069709551751" lon="-3.39681107545">
        <ele>2786.4</ele>
        <time>2019-01-08T12:03:18Z</time>
      </trkpt>
      <trkpt lat="37.069781384634" lon="-3.396902019065">
        <ele>2784.8</ele>
        <time>2019-01-08T12:03:19Z</time>
      </trkpt>
      <trkpt lat="37.069849026567" lon="-3.3969996682">
        <ele>2783.6</ele>
        <time>2019-01-08T12:03:20Z</time>
      </trkpt>
      <trkpt lat="37.069922954925" lon="-3.397088767797">
        <ele>2782.4</ele>
        <time>2019-01-08T12:03:21Z</time>
      </trkpt>
      <trkpt lat="37.069995709817" lon="-3.397174346996">
        <ele>2781</ele>
        <time>2019-01-08T12:03:22Z</time>
      </trkpt>
      <trkpt lat="37.070058154972" lon="-3.397275684167">
        <ele>2779.2</ele>
        <time>2019-01-08T12:03:23Z</time>
      </trkpt>
      <trkpt lat="37.070120935403" lon="-3.39737936827">
        <ele>2777.8</ele>
        <time>2019-01-08T12:03:24Z</time>
      </trkpt>
      <trkpt lat="37.070183296739" lon="-3.397488584427">
        <ele>2775.8</ele>
        <time>2019-01-08T12:03:25Z</time>
      </trkpt>
      <trkpt lat="37.070248005007" lon="-3.397579863318">
        <ele>2773.8</ele>
        <time>2019-01-08T12:03:26Z</time>
      </trkpt>
      <trkpt lat="37.070296452389" lon="-3.397661670662">
        <ele>2771.8</ele>
        <time>2019-01-08T12:03:27Z</time>
      </trkpt>
      <trkpt lat="37.070325621401" lon="-3.397742472178">
        <ele>2769.8</ele>
        <time>2019-01-08T12:03:28Z</time>
      </trkpt>
      <trkpt lat="37.070364764874" lon="-3.397801732211">
        <ele>2767.8</ele>
        <time>2019-01-08T12:03:29Z</time>
      </trkpt>
      <trkpt lat="37.07041371517" lon="-3.397853867629">
        <ele>2765.8</ele>
        <time>2019-01-08T12:03:30Z</time>
      </trkpt>
      <trkpt lat="37.070458390697" lon="-3.397923185942">
        <ele>2764.4</ele>
        <time>2019-01-08T12:03:31Z</time>
      </trkpt>
      <trkpt lat="37.070521590223" lon="-3.398087555001">
        <ele>2762.8</ele>
        <time>2019-01-08T12:03:33Z</time>
      </trkpt>
      <trkpt lat="37.070573893279" lon="-3.398147485586">
        <ele>2761.6</ele>
        <time>2019-01-08T12:03:34Z</time>
      </trkpt>
      <trkpt lat="37.070630890199" lon="-3.39819325076">
        <ele>2760.2</ele>
        <time>2019-01-08T12:03:35Z</time>
      </trkpt>
      <trkpt lat="37.070676739192" lon="-3.39825443863">
        <ele>2759</ele>
        <time>2019-01-08T12:03:36Z</time>
      </trkpt>
      <trkpt lat="37.070725438031" lon="-3.398315961776">
        <ele>2757.8</ele>
        <time>2019-01-08T12:03:37Z</time>
      </trkpt>
      <trkpt lat="37.070785368616" lon="-3.398360721122">
        <ele>2756.8</ele>
        <time>2019-01-08T12:03:38Z</time>
      </trkpt>
      <trkpt lat="37.070851501807" lon="-3.398402211527">
        <ele>2755.6</ele>
        <time>2019-01-08T12:03:39Z</time>
      </trkpt>
      <trkpt lat="37.070915120428" lon="-3.398452083832">
        <ele>2754.4</ele>
        <time>2019-01-08T12:03:40Z</time>
      </trkpt>
      <trkpt lat="37.071027773164" lon="-3.398572783192">
        <ele>2752.6</ele>
        <time>2019-01-08T12:03:42Z</time>
      </trkpt>
      <trkpt lat="37.071129780887" lon="-3.398704714298">
        <ele>2751.4</ele>
        <time>2019-01-08T12:03:44Z</time>
      </trkpt>
      <trkpt lat="37.071230363687" lon="-3.398828179685">
        <ele>2750</ele>
        <time>2019-01-08T12:03:46Z</time>
      </trkpt>
      <trkpt lat="37.071340585672" lon="-3.398949968692">
        <ele>2748.8</ele>
        <time>2019-01-08T12:03:48Z</time>
      </trkpt>
      <trkpt lat="37.071507134025" lon="-3.399132694112">
        <ele>2747.6</ele>
        <time>2019-01-08T12:03:51Z</time>
      </trkpt>
      <trkpt lat="37.071607884463" lon="-3.399230427066">
        <ele>2747</ele>
        <time>2019-01-08T12:03:53Z</time>
      </trkpt>
      <trkpt lat="37.071660690433" lon="-3.399242161726">
        <ele>2746.4</ele>
        <time>2019-01-08T12:03:54Z</time>
      </trkpt>
      <trkpt lat="37.07170620415" lon="-3.399263954666">
        <ele>2745.4</ele>
        <time>2019-01-08T12:03:55Z</time>
      </trkpt>
      <trkpt lat="37.071746353451" lon="-3.399295302972">
        <ele>2744.4</ele>
        <time>2019-01-08T12:03:56Z</time>
      </trkpt>
      <trkpt lat="37.071788933503" lon="-3.399313743152">
        <ele>2743.6</ele>
        <time>2019-01-08T12:03:57Z</time>
      </trkpt>
      <trkpt lat="37.071825897682" lon="-3.39930636708">
        <ele>2743</ele>
        <time>2019-01-08T12:03:58Z</time>
      </trkpt>
      <trkpt lat="37.071859090006" lon="-3.39930636708">
        <ele>2742.4</ele>
        <time>2019-01-08T12:03:59Z</time>
      </trkpt>
      <trkpt lat="37.071898820212" lon="-3.3993466002">
        <ele>2741.6</ele>
        <time>2019-01-08T12:04:01Z</time>
      </trkpt>
      <trkpt lat="37.071913656175" lon="-3.399374931022">
        <ele>2740</ele>
        <time>2019-01-08T12:04:03Z</time>
      </trkpt>
      <trkpt lat="37.07191575165" lon="-3.399369818063">
        <ele>2738.8</ele>
        <time>2019-01-08T12:04:07Z</time>
      </trkpt>
      <trkpt lat="37.071919188229" lon="-3.399364537466">
        <ele>2738.4</ele>
        <time>2019-01-08T12:04:09Z</time>
      </trkpt>
      <trkpt lat="37.072126388797" lon="-3.399419271273">
        <ele>2736.2</ele>
        <time>2019-01-08T12:04:18Z</time>
      </trkpt>
      <trkpt lat="37.072185816468" lon="-3.399382390913">
        <ele>2734.6</ele>
        <time>2019-01-08T12:04:19Z</time>
      </trkpt>
      <trkpt lat="37.072241556103" lon="-3.399332602427">
        <ele>2732.6</ele>
        <time>2019-01-08T12:04:20Z</time>
      </trkpt>
      <trkpt lat="37.072289919666" lon="-3.399277952439">
        <ele>2730.8</ele>
        <time>2019-01-08T12:04:21Z</time>
      </trkpt>
      <trkpt lat="37.072334930469" lon="-3.39923679731">
        <ele>2729</ele>
        <time>2019-01-08T12:04:22Z</time>
      </trkpt>
      <trkpt lat="37.072388574629" lon="-3.399195558362">
        <ele>2727.2</ele>
        <time>2019-01-08T12:04:23Z</time>
      </trkpt>
      <trkpt lat="37.072446912653" lon="-3.399145686057">
        <ele>2725.6</ele>
        <time>2019-01-08T12:04:24Z</time>
      </trkpt>
      <trkpt lat="37.072502233193" lon="-3.399095562295">
        <ele>2724.2</ele>
        <time>2019-01-08T12:04:25Z</time>
      </trkpt>
      <trkpt lat="37.07257289261" lon="-3.399066309464">
        <ele>2722.4</ele>
        <time>2019-01-08T12:04:26Z</time>
      </trkpt>
      <trkpt lat="37.072668949184" lon="-3.39905155732">
        <ele>2720.2</ele>
        <time>2019-01-08T12:04:27Z</time>
      </trkpt>
      <trkpt lat="37.072768358518" lon="-3.39901802972">
        <ele>2717.8</ele>
        <time>2019-01-08T12:04:28Z</time>
      </trkpt>
      <trkpt lat="37.072855781735" lon="-3.398960446067">
        <ele>2715.2</ele>
        <time>2019-01-08T12:04:29Z</time>
      </trkpt>
      <trkpt lat="37.072928620446" lon="-3.398887355899">
        <ele>2712.6</ele>
        <time>2019-01-08T12:04:30Z</time>
      </trkpt>
      <trkpt lat="37.072994334542" lon="-3.398817953767">
        <ele>2710</ele>
        <time>2019-01-08T12:04:31Z</time>
      </trkpt>
      <trkpt lat="37.073059210448" lon="-3.398753664594">
        <ele>2708.2</ele>
        <time>2019-01-08T12:04:32Z</time>
      </trkpt>
      <trkpt lat="37.073127858209" lon="-3.39869448838">
        <ele>2707</ele>
        <time>2019-01-08T12:04:33Z</time>
      </trkpt>
      <trkpt lat="37.073196925065" lon="-3.398639586935">
        <ele>2705.8</ele>
        <time>2019-01-08T12:04:34Z</time>
      </trkpt>
      <trkpt lat="37.073327095972" lon="-3.398534477909">
        <ele>2704.2</ele>
        <time>2019-01-08T12:04:36Z</time>
      </trkpt>
      <trkpt lat="37.073452405377" lon="-3.398421322259">
        <ele>2702.8</ele>
        <time>2019-01-08T12:04:38Z</time>
      </trkpt>
      <trkpt lat="37.073576122221" lon="-3.398293498284">
        <ele>2701.2</ele>
        <time>2019-01-08T12:04:40Z</time>
      </trkpt>
      <trkpt lat="37.073622557947" lon="-3.398217139175">
        <ele>2700</ele>
        <time>2019-01-08T12:04:41Z</time>
      </trkpt>
      <trkpt lat="37.073646614" lon="-3.39815217945">
        <ele>2699</ele>
        <time>2019-01-08T12:04:42Z</time>
      </trkpt>
      <trkpt lat="37.073660444135" lon="-3.398112952158">
        <ele>2697.8</ele>
        <time>2019-01-08T12:04:43Z</time>
      </trkpt>
      <trkpt lat="37.073667149655" lon="-3.398101720412">
        <ele>2696.6</ele>
        <time>2019-01-08T12:04:44Z</time>
      </trkpt>
      <trkpt lat="37.073669496587" lon="-3.398100127851">
        <ele>2695.4</ele>
        <time>2019-01-08T12:04:45Z</time>
      </trkpt>
      <trkpt lat="37.073692965907" lon="-3.398114712357">
        <ele>2694.2</ele>
        <time>2019-01-08T12:04:47Z</time>
      </trkpt>
      <trkpt lat="37.073766978084" lon="-3.398098954385">
        <ele>2693.6</ele>
        <time>2019-01-08T12:04:50Z</time>
      </trkpt>
      <trkpt lat="37.073862112649" lon="-3.398030977176">
        <ele>2692.8</ele>
        <time>2019-01-08T12:04:53Z</time>
      </trkpt>
      <trkpt lat="37.073933777894" lon="-3.397977500654">
        <ele>2691.8</ele>
        <time>2019-01-08T12:04:55Z</time>
      </trkpt>
      <trkpt lat="37.074006113691" lon="-3.397911954196">
        <ele>2690.8</ele>
        <time>2019-01-08T12:04:57Z</time>
      </trkpt>
      <trkpt lat="37.074039138377" lon="-3.397875325293">
        <ele>2690.2</ele>
        <time>2019-01-08T12:04:58Z</time>
      </trkpt>
      <trkpt lat="37.074113150554" lon="-3.397803240953">
        <ele>2689.4</ele>
        <time>2019-01-08T12:05:00Z</time>
      </trkpt>
      <trkpt lat="37.074157239348" lon="-3.397767282602">
        <ele>2689</ele>
        <time>2019-01-08T12:05:01Z</time>
      </trkpt>
      <trkpt lat="37.074289421911" lon="-3.397640380636">
        <ele>2688</ele>
        <time>2019-01-08T12:05:04Z</time>
      </trkpt>
      <trkpt lat="37.074339294216" lon="-3.397595202195">
        <ele>2687.6</ele>
        <time>2019-01-08T12:05:05Z</time>
      </trkpt>
      <trkpt lat="37.074451024943" lon="-3.397503085114">
        <ele>2686.4</ele>
        <time>2019-01-08T12:05:07Z</time>
      </trkpt>
      <trkpt lat="37.074571472846" lon="-3.397390935292">
        <ele>2685</ele>
        <time>2019-01-08T12:05:09Z</time>
      </trkpt>
      <trkpt lat="37.074632157802" lon="-3.39732488592">
        <ele>2683.8</ele>
        <time>2019-01-08T12:05:10Z</time>
      </trkpt>
      <trkpt lat="37.074696530794" lon="-3.397254980874">
        <ele>2682.2</ele>
        <time>2019-01-08T12:05:11Z</time>
      </trkpt>
      <trkpt lat="37.074769537143" lon="-3.397183650905">
        <ele>2680.6</ele>
        <time>2019-01-08T12:05:12Z</time>
      </trkpt>
      <trkpt lat="37.074844722786" lon="-3.397115925153">
        <ele>2679.4</ele>
        <time>2019-01-08T12:05:13Z</time>
      </trkpt>
      <trkpt lat="37.074920746619" lon="-3.397054653464">
        <ele>2678</ele>
        <time>2019-01-08T12:05:14Z</time>
      </trkpt>
      <trkpt lat="37.074998027737" lon="-3.396987346807">
        <ele>2676.6</ele>
        <time>2019-01-08T12:05:15Z</time>
      </trkpt>
      <trkpt lat="37.075066926955" lon="-3.396907383481">
        <ele>2675.2</ele>
        <time>2019-01-08T12:05:16Z</time>
      </trkpt>
      <trkpt lat="37.075127108997" lon="-3.396824402671">
        <ele>2673.8</ele>
        <time>2019-01-08T12:05:17Z</time>
      </trkpt>
      <trkpt lat="37.075202965192" lon="-3.396758772394">
        <ele>2672.2</ele>
        <time>2019-01-08T12:05:18Z</time>
      </trkpt>
      <trkpt lat="37.075296758653" lon="-3.396709403003">
        <ele>2670.4</ele>
        <time>2019-01-08T12:05:19Z</time>
      </trkpt>
      <trkpt lat="37.075376302884" lon="-3.396643185993">
        <ele>2668.6</ele>
        <time>2019-01-08T12:05:20Z</time>
      </trkpt>
      <trkpt lat="37.075443441903" lon="-3.396564479952">
        <ele>2667</ele>
        <time>2019-01-08T12:05:21Z</time>
      </trkpt>
      <trkpt lat="37.075529104921" lon="-3.396508069765">
        <ele>2665</ele>
        <time>2019-01-08T12:05:22Z</time>
      </trkpt>
      <trkpt lat="37.075631028825" lon="-3.39647831402">
        <ele>2663.2</ele>
        <time>2019-01-08T12:05:23Z</time>
      </trkpt>
      <trkpt lat="37.075728845598" lon="-3.396443445316">
        <ele>2660.8</ele>
        <time>2019-01-08T12:05:24Z</time>
      </trkpt>
      <trkpt lat="37.075803109232" lon="-3.396391309898">
        <ele>2658.8</ele>
        <time>2019-01-08T12:05:25Z</time>
      </trkpt>
      <trkpt lat="37.075857843039" lon="-3.396342862516">
        <ele>2657.4</ele>
        <time>2019-01-08T12:05:26Z</time>
      </trkpt>
      <trkpt lat="37.075909475543" lon="-3.396333055693">
        <ele>2656</ele>
        <time>2019-01-08T12:05:27Z</time>
      </trkpt>
      <trkpt lat="37.075967981205" lon="-3.396352082606">
        <ele>2654.4</ele>
        <time>2019-01-08T12:05:28Z</time>
      </trkpt>
      <trkpt lat="37.076028666161" lon="-3.396373288813">
        <ele>2653</ele>
        <time>2019-01-08T12:05:29Z</time>
      </trkpt>
      <trkpt lat="37.076076442991" lon="-3.396415952684">
        <ele>2651.8</ele>
        <time>2019-01-08T12:05:30Z</time>
      </trkpt>
      <trkpt lat="37.076123884545" lon="-3.396477978744">
        <ele>2651</ele>
        <time>2019-01-08T12:05:31Z</time>
      </trkpt>
      <trkpt lat="37.076184234225" lon="-3.396530952352">
        <ele>2650.2</ele>
        <time>2019-01-08T12:05:32Z</time>
      </trkpt>
      <trkpt lat="37.076248104303" lon="-3.396599181018">
        <ele>2649</ele>
        <time>2019-01-08T12:05:33Z</time>
      </trkpt>
      <trkpt lat="37.076323541403" lon="-3.396675959222">
        <ele>2647.4</ele>
        <time>2019-01-08T12:05:34Z</time>
      </trkpt>
      <trkpt lat="37.076402750358" lon="-3.396734548703">
        <ele>2645.8</ele>
        <time>2019-01-08T12:05:35Z</time>
      </trkpt>
      <trkpt lat="37.076475086155" lon="-3.396816775142">
        <ele>2643.8</ele>
        <time>2019-01-08T12:05:36Z</time>
      </trkpt>
      <trkpt lat="37.076551026169" lon="-3.396911322974">
        <ele>2642.2</ele>
        <time>2019-01-08T12:05:37Z</time>
      </trkpt>
      <trkpt lat="37.076641215413" lon="-3.396992375947">
        <ele>2640.6</ele>
        <time>2019-01-08T12:05:38Z</time>
      </trkpt>
      <trkpt lat="37.076731823752" lon="-3.397079547707">
        <ele>2639</ele>
        <time>2019-01-08T12:05:39Z</time>
      </trkpt>
      <trkpt lat="37.076797873124" lon="-3.397209383338">
        <ele>2637.4</ele>
        <time>2019-01-08T12:05:40Z</time>
      </trkpt>
      <trkpt lat="37.076865766514" lon="-3.397343074643">
        <ele>2635.4</ele>
        <time>2019-01-08T12:05:41Z</time>
      </trkpt>
      <trkpt lat="37.076960565803" lon="-3.397424798168">
        <ele>2633.2</ele>
        <time>2019-01-08T12:05:42Z</time>
      </trkpt>
      <trkpt lat="37.077058550214" lon="-3.39747995107">
        <ele>2630.2</ele>
        <time>2019-01-08T12:05:43Z</time>
      </trkpt>
      <trkpt lat="37.07712677888" lon="-3.397565278812">
        <ele>2627.2</ele>
        <time>2019-01-08T12:05:44Z</time>
      </trkpt>
      <trkpt lat="37.077184949266" lon="-3.39766519106">
        <ele>2623.8</ele>
        <time>2019-01-08T12:05:45Z</time>
      </trkpt>
      <trkpt lat="37.077245550403" lon="-3.397737443038">
        <ele>2620.8</ele>
        <time>2019-01-08T12:05:46Z</time>
      </trkpt>
      <trkpt lat="37.077287795179" lon="-3.39780935974">
        <ele>2618</ele>
        <time>2019-01-08T12:05:47Z</time>
      </trkpt>
      <trkpt lat="37.077323669711" lon="-3.397885215935">
        <ele>2616.2</ele>
        <time>2019-01-08T12:05:48Z</time>
      </trkpt>
      <trkpt lat="37.077382343011" lon="-3.397945314158">
        <ele>2614.4</ele>
        <time>2019-01-08T12:05:49Z</time>
      </trkpt>
      <trkpt lat="37.077439842845" lon="-3.397989989685">
        <ele>2612.6</ele>
        <time>2019-01-08T12:05:50Z</time>
      </trkpt>
      <trkpt lat="37.077480578879" lon="-3.398065259147">
        <ele>2610.2</ele>
        <time>2019-01-08T12:05:51Z</time>
      </trkpt>
      <trkpt lat="37.077527014605" lon="-3.398140947704">
        <ele>2607.8</ele>
        <time>2019-01-08T12:05:52Z</time>
      </trkpt>
      <trkpt lat="37.077589627398" lon="-3.398170535811">
        <ele>2605.6</ele>
        <time>2019-01-08T12:05:53Z</time>
      </trkpt>
      <trkpt lat="37.077645367033" lon="-3.398198782814">
        <ele>2603.4</ele>
        <time>2019-01-08T12:05:54Z</time>
      </trkpt>
      <trkpt lat="37.077688785275" lon="-3.398250918232">
        <ele>2601.2</ele>
        <time>2019-01-08T12:05:55Z</time>
      </trkpt>
      <trkpt lat="37.077738070847" lon="-3.398296515768">
        <ele>2599.2</ele>
        <time>2019-01-08T12:05:56Z</time>
      </trkpt>
      <trkpt lat="37.077797749975" lon="-3.398343119132">
        <ele>2597.6</ele>
        <time>2019-01-08T12:05:57Z</time>
      </trkpt>
      <trkpt lat="37.077857764379" lon="-3.398409587599">
        <ele>2595.4</ele>
        <time>2019-01-08T12:05:58Z</time>
      </trkpt>
      <trkpt lat="37.077922975561" lon="-3.39845392785">
        <ele>2592.8</ele>
        <time>2019-01-08T12:05:59Z</time>
      </trkpt>
      <trkpt lat="37.077976452083" lon="-3.398524587267">
        <ele>2590.2</ele>
        <time>2019-01-08T12:06:00Z</time>
      </trkpt>
      <trkpt lat="37.0780387296" lon="-3.398622906954">
        <ele>2588.2</ele>
        <time>2019-01-08T12:06:01Z</time>
      </trkpt>
      <trkpt lat="37.078117016546" lon="-3.398701529176">
        <ele>2585.8</ele>
        <time>2019-01-08T12:06:02Z</time>
      </trkpt>
      <trkpt lat="37.078173091457" lon="-3.398812756989">
        <ele>2582.8</ele>
        <time>2019-01-08T12:06:03Z</time>
      </trkpt>
      <trkpt lat="37.07823738063" lon="-3.398936306195">
        <ele>2579.8</ele>
        <time>2019-01-08T12:06:04Z</time>
      </trkpt>
      <trkpt lat="37.078325222942" lon="-3.399034458244">
        <ele>2576.8</ele>
        <time>2019-01-08T12:06:05Z</time>
      </trkpt>
      <trkpt lat="37.078403258431" lon="-3.399147865351">
        <ele>2573.4</ele>
        <time>2019-01-08T12:06:06Z</time>
      </trkpt>
      <trkpt lat="37.078483892309" lon="-3.399251968549">
        <ele>2569.8</ele>
        <time>2019-01-08T12:06:07Z</time>
      </trkpt>
      <trkpt lat="37.078567711309" lon="-3.399350288236">
        <ele>2566.4</ele>
        <time>2019-01-08T12:06:08Z</time>
      </trkpt>
      <trkpt lat="37.078647506997" lon="-3.399457325099">
        <ele>2563.8</ele>
        <time>2019-01-08T12:06:09Z</time>
      </trkpt>
      <trkpt lat="37.078737193327" lon="-3.399549274542">
        <ele>2560.8</ele>
        <time>2019-01-08T12:06:10Z</time>
      </trkpt>
      <trkpt lat="37.078825454734" lon="-3.399628064402">
        <ele>2557.8</ele>
        <time>2019-01-08T12:06:11Z</time>
      </trkpt>
      <trkpt lat="37.078908519363" lon="-3.399697382715">
        <ele>2554.4</ele>
        <time>2019-01-08T12:06:12Z</time>
      </trkpt>
      <trkpt lat="37.078962331161" lon="-3.399784722113">
        <ele>2551.2</ele>
        <time>2019-01-08T12:06:13Z</time>
      </trkpt>
      <trkpt lat="37.079023351393" lon="-3.399874073167">
        <ele>2548</ele>
        <time>2019-01-08T12:06:14Z</time>
      </trkpt>
      <trkpt lat="37.079085461272" lon="-3.399969123913">
        <ele>2545.4</ele>
        <time>2019-01-08T12:06:15Z</time>
      </trkpt>
      <trkpt lat="37.0791283766" lon="-3.400079429717">
        <ele>2542.8</ele>
        <time>2019-01-08T12:06:16Z</time>
      </trkpt>
      <trkpt lat="37.07918118257" lon="-3.400174061368">
        <ele>2540.6</ele>
        <time>2019-01-08T12:06:17Z</time>
      </trkpt>
      <trkpt lat="37.079245974657" lon="-3.400258467101">
        <ele>2538.2</ele>
        <time>2019-01-08T12:06:18Z</time>
      </trkpt>
      <trkpt lat="37.079281933008" lon="-3.400359217539">
        <ele>2536</ele>
        <time>2019-01-08T12:06:19Z</time>
      </trkpt>
      <trkpt lat="37.079295092591" lon="-3.400457704864">
        <ele>2533.6</ele>
        <time>2019-01-08T12:06:20Z</time>
      </trkpt>
      <trkpt lat="37.079318478092" lon="-3.400520569114">
        <ele>2530.8</ele>
        <time>2019-01-08T12:06:21Z</time>
      </trkpt>
      <trkpt lat="37.079339181385" lon="-3.400548145565">
        <ele>2528.4</ele>
        <time>2019-01-08T12:06:22Z</time>
      </trkpt>
      <trkpt lat="37.079347898561" lon="-3.400588546323">
        <ele>2525.6</ele>
        <time>2019-01-08T12:06:23Z</time>
      </trkpt>
      <trkpt lat="37.079343204697" lon="-3.400635149687">
        <ele>2523.4</ele>
        <time>2019-01-08T12:06:24Z</time>
      </trkpt>
      <trkpt lat="37.079334403702" lon="-3.40068435144">
        <ele>2521.4</ele>
        <time>2019-01-08T12:06:25Z</time>
      </trkpt>
      <trkpt lat="37.079323591051" lon="-3.400736570677">
        <ele>2520.2</ele>
        <time>2019-01-08T12:06:26Z</time>
      </trkpt>
      <trkpt lat="37.079314957694" lon="-3.400846625024">
        <ele>2518.4</ele>
        <time>2019-01-08T12:06:28Z</time>
      </trkpt>
      <trkpt lat="37.079377905763" lon="-3.400926420712">
        <ele>2517</ele>
        <time>2019-01-08T12:06:30Z</time>
      </trkpt>
      <trkpt lat="37.079433142484" lon="-3.401047455348">
        <ele>2515.2</ele>
        <time>2019-01-08T12:06:32Z</time>
      </trkpt>
      <trkpt lat="37.079478069468" lon="-3.401105625734">
        <ele>2514.2</ele>
        <time>2019-01-08T12:06:33Z</time>
      </trkpt>
      <trkpt lat="37.079515788018" lon="-3.401158431704">
        <ele>2513.2</ele>
        <time>2019-01-08T12:06:34Z</time>
      </trkpt>
      <trkpt lat="37.079547136324" lon="-3.401241663971">
        <ele>2512</ele>
        <time>2019-01-08T12:06:35Z</time>
      </trkpt>
      <trkpt lat="37.079584519598" lon="-3.401320118555">
        <ele>2510.4</ele>
        <time>2019-01-08T12:06:36Z</time>
      </trkpt>
      <trkpt lat="37.079625674727" lon="-3.401382312253">
        <ele>2508.8</ele>
        <time>2019-01-08T12:06:37Z</time>
      </trkpt>
      <trkpt lat="37.07964302526" lon="-3.401449367453">
        <ele>2506.8</ele>
        <time>2019-01-08T12:06:38Z</time>
      </trkpt>
      <trkpt lat="37.07965224535" lon="-3.401531174797">
        <ele>2504.6</ele>
        <time>2019-01-08T12:06:39Z</time>
      </trkpt>
      <trkpt lat="37.079683928932" lon="-3.40160468406">
        <ele>2502.6</ele>
        <time>2019-01-08T12:06:40Z</time>
      </trkpt>
      <trkpt lat="37.079721479844" lon="-3.4016432408">
        <ele>2500.2</ele>
        <time>2019-01-08T12:06:41Z</time>
      </trkpt>
      <trkpt lat="37.07975534272" lon="-3.401652293252">
        <ele>2497.8</ele>
        <time>2019-01-08T12:06:42Z</time>
      </trkpt>
      <trkpt lat="37.079779734049" lon="-3.401652796166">
        <ele>2495.8</ele>
        <time>2019-01-08T12:06:43Z</time>
      </trkpt>
      <trkpt lat="37.079794486193" lon="-3.401650197777">
        <ele>2494.2</ele>
        <time>2019-01-08T12:06:44Z</time>
      </trkpt>
      <trkpt lat="37.079832623838" lon="-3.4016516227">
        <ele>2492.8</ele>
        <time>2019-01-08T12:06:46Z</time>
      </trkpt>
      <trkpt lat="37.079892470604" lon="-3.401683893015">
        <ele>2492.4</ele>
        <time>2019-01-08T12:06:48Z</time>
      </trkpt>
      <trkpt lat="37.079930859706" lon="-3.401833677568">
        <ele>2491</ele>
        <time>2019-01-08T12:06:50Z</time>
      </trkpt>
      <trkpt lat="37.079982827486" lon="-3.401907103012">
        <ele>2489.6</ele>
        <time>2019-01-08T12:06:51Z</time>
      </trkpt>
      <trkpt lat="37.080016606543" lon="-3.402003997776">
        <ele>2487.4</ele>
        <time>2019-01-08T12:06:52Z</time>
      </trkpt>
      <trkpt lat="37.080052648713" lon="-3.402095192848">
        <ele>2485</ele>
        <time>2019-01-08T12:06:53Z</time>
      </trkpt>
      <trkpt lat="37.080112327841" lon="-3.40217632964">
        <ele>2482.2</ele>
        <time>2019-01-08T12:06:54Z</time>
      </trkpt>
      <trkpt lat="37.080178544851" lon="-3.402261405925">
        <ele>2479</ele>
        <time>2019-01-08T12:06:55Z</time>
      </trkpt>
      <trkpt lat="37.080249288087" lon="-3.402313541343">
        <ele>2475.6</ele>
        <time>2019-01-08T12:06:56Z</time>
      </trkpt>
      <trkpt lat="37.080315002183" lon="-3.402353355368">
        <ele>2472</ele>
        <time>2019-01-08T12:06:57Z</time>
      </trkpt>
      <trkpt lat="37.080366886144" lon="-3.402415129971">
        <ele>2468.2</ele>
        <time>2019-01-08T12:06:58Z</time>
      </trkpt>
      <trkpt lat="37.080424302159" lon="-3.402476317841">
        <ele>2464.4</ele>
        <time>2019-01-08T12:06:59Z</time>
      </trkpt>
      <trkpt lat="37.080488339875" lon="-3.402546977258">
        <ele>2460.8</ele>
        <time>2019-01-08T12:07:00Z</time>
      </trkpt>
      <trkpt lat="37.080551455582" lon="-3.402641022176">
        <ele>2458</ele>
        <time>2019-01-08T12:07:01Z</time>
      </trkpt>
      <trkpt lat="37.080620019524" lon="-3.402734145085">
        <ele>2455.2</ele>
        <time>2019-01-08T12:07:02Z</time>
      </trkpt>
      <trkpt lat="37.080680872118" lon="-3.402822993225">
        <ele>2452.4</ele>
        <time>2019-01-08T12:07:03Z</time>
      </trkpt>
      <trkpt lat="37.080731331156" lon="-3.402929778631">
        <ele>2449.4</ele>
        <time>2019-01-08T12:07:04Z</time>
      </trkpt>
      <trkpt lat="37.080789250085" lon="-3.403034552381">
        <ele>2446.8</ele>
        <time>2019-01-08T12:07:05Z</time>
      </trkpt>
      <trkpt lat="37.080847169014" lon="-3.403147121298">
        <ele>2444.4</ele>
        <time>2019-01-08T12:07:06Z</time>
      </trkpt>
      <trkpt lat="37.080909446531" lon="-3.403270921961">
        <ele>2442</ele>
        <time>2019-01-08T12:07:07Z</time>
      </trkpt>
      <trkpt lat="37.080983207251" lon="-3.403392627149">
        <ele>2439.2</ele>
        <time>2019-01-08T12:07:08Z</time>
      </trkpt>
      <trkpt lat="37.081056632695" lon="-3.403523636246">
        <ele>2435.2</ele>
        <time>2019-01-08T12:07:09Z</time>
      </trkpt>
      <trkpt lat="37.081120167497" lon="-3.40366998422">
        <ele>2431.8</ele>
        <time>2019-01-08T12:07:10Z</time>
      </trkpt>
      <trkpt lat="37.081181690643" lon="-3.403818427669">
        <ele>2428</ele>
        <time>2019-01-08T12:07:11Z</time>
      </trkpt>
      <trkpt lat="37.081257798295" lon="-3.403937534468">
        <ele>2425</ele>
        <time>2019-01-08T12:07:12Z</time>
      </trkpt>
      <trkpt lat="37.08135209467" lon="-3.404028394264">
        <ele>2422.4</ele>
        <time>2019-01-08T12:07:13Z</time>
      </trkpt>
      <trkpt lat="37.081449408529" lon="-3.40411506311">
        <ele>2420.6</ele>
        <time>2019-01-08T12:07:14Z</time>
      </trkpt>
      <trkpt lat="37.081534065719" lon="-3.404218495756">
        <ele>2419</ele>
        <time>2019-01-08T12:07:15Z</time>
      </trkpt>
      <trkpt lat="37.081596175598" lon="-3.40433969803">
        <ele>2417.4</ele>
        <time>2019-01-08T12:07:16Z</time>
      </trkpt>
      <trkpt lat="37.081642778962" lon="-3.404469282204">
        <ele>2415.4</ele>
        <time>2019-01-08T12:07:17Z</time>
      </trkpt>
      <trkpt lat="37.081702541909" lon="-3.404588808098">
        <ele>2413.6</ele>
        <time>2019-01-08T12:07:18Z</time>
      </trkpt>
      <trkpt lat="37.081781750864" lon="-3.404683188292">
        <ele>2412</ele>
        <time>2019-01-08T12:07:19Z</time>
      </trkpt>
      <trkpt lat="37.081868587348" lon="-3.404762564885">
        <ele>2410.2</ele>
        <time>2019-01-08T12:07:20Z</time>
      </trkpt>
      <trkpt lat="37.081956178203" lon="-3.404835571234">
        <ele>2408.6</ele>
        <time>2019-01-08T12:07:21Z</time>
      </trkpt>
      <trkpt lat="37.082040332479" lon="-3.404910170144">
        <ele>2407.2</ele>
        <time>2019-01-08T12:07:22Z</time>
      </trkpt>
      <trkpt lat="37.082118703244" lon="-3.40499013347">
        <ele>2406.2</ele>
        <time>2019-01-08T12:07:23Z</time>
      </trkpt>
      <trkpt lat="37.082193972706" lon="-3.405071940814">
        <ele>2405.2</ele>
        <time>2019-01-08T12:07:24Z</time>
      </trkpt>
      <trkpt lat="37.082268655435" lon="-3.405147964647">
        <ele>2404</ele>
        <time>2019-01-08T12:07:25Z</time>
      </trkpt>
      <trkpt lat="37.082345852734" lon="-3.405217618236">
        <ele>2402.8</ele>
        <time>2019-01-08T12:07:26Z</time>
      </trkpt>
      <trkpt lat="37.082426821888" lon="-3.405286433635">
        <ele>2401.8</ele>
        <time>2019-01-08T12:07:27Z</time>
      </trkpt>
      <trkpt lat="37.08260770329" lon="-3.405415347257">
        <ele>2399.6</ele>
        <time>2019-01-08T12:07:29Z</time>
      </trkpt>
      <trkpt lat="37.082713231411" lon="-3.405463459363">
        <ele>2398.2</ele>
        <time>2019-01-08T12:07:30Z</time>
      </trkpt>
      <trkpt lat="37.082823621034" lon="-3.40546957815">
        <ele>2396.6</ele>
        <time>2019-01-08T12:07:31Z</time>
      </trkpt>
      <trkpt lat="37.082917665952" lon="-3.405426411365">
        <ele>2395.2</ele>
        <time>2019-01-08T12:07:32Z</time>
      </trkpt>
      <trkpt lat="37.082977931813" lon="-3.405339155786">
        <ele>2393.4</ele>
        <time>2019-01-08T12:07:33Z</time>
      </trkpt>
      <trkpt lat="37.083002323142" lon="-3.405231364552">
        <ele>2391.6</ele>
        <time>2019-01-08T12:07:34Z</time>
      </trkpt>
      <trkpt lat="37.0830008144" lon="-3.405126926078">
        <ele>2389.8</ele>
        <time>2019-01-08T12:07:35Z</time>
      </trkpt>
      <trkpt lat="37.082989498835" lon="-3.405026678554">
        <ele>2388</ele>
        <time>2019-01-08T12:07:36Z</time>
      </trkpt>
      <trkpt lat="37.082986313713" lon="-3.404934980568">
        <ele>2386.8</ele>
        <time>2019-01-08T12:07:37Z</time>
      </trkpt>
      <trkpt lat="37.082994527975" lon="-3.404854179052">
        <ele>2385.6</ele>
        <time>2019-01-08T12:07:38Z</time>
      </trkpt>
      <trkpt lat="37.083013471069" lon="-3.404778322857">
        <ele>2384.8</ele>
        <time>2019-01-08T12:07:39Z</time>
      </trkpt>
      <trkpt lat="37.083037359484" lon="-3.404706657612">
        <ele>2384.2</ele>
        <time>2019-01-08T12:07:40Z</time>
      </trkpt>
      <trkpt lat="37.083066360858" lon="-3.404635411462">
        <ele>2383.8</ele>
        <time>2019-01-08T12:07:41Z</time>
      </trkpt>
      <trkpt lat="37.083116316982" lon="-3.404496271922">
        <ele>2383</ele>
        <time>2019-01-08T12:07:43Z</time>
      </trkpt>
      <trkpt lat="37.083206506226" lon="-3.404287814069">
        <ele>2381.6</ele>
        <time>2019-01-08T12:07:46Z</time>
      </trkpt>
      <trkpt lat="37.083239530912" lon="-3.404222267611">
        <ele>2381</ele>
        <time>2019-01-08T12:07:47Z</time>
      </trkpt>
      <trkpt lat="37.083275070168" lon="-3.404159570999">
        <ele>2380.6</ele>
        <time>2019-01-08T12:07:48Z</time>
      </trkpt>
      <trkpt lat="37.083378083719" lon="-3.403968798955">
        <ele>2379</ele>
        <time>2019-01-08T12:07:51Z</time>
      </trkpt>
      <trkpt lat="37.083413371518" lon="-3.403904845058">
        <ele>2378.4</ele>
        <time>2019-01-08T12:07:52Z</time>
      </trkpt>
      <trkpt lat="37.083442121435" lon="-3.403843657188">
        <ele>2377.8</ele>
        <time>2019-01-08T12:07:53Z</time>
      </trkpt>
      <trkpt lat="37.083500124183" lon="-3.403728238425">
        <ele>2376.4</ele>
        <time>2019-01-08T12:07:55Z</time>
      </trkpt>
      <trkpt lat="37.08360598758" lon="-3.403467645154">
        <ele>2375.2</ele>
        <time>2019-01-08T12:07:59Z</time>
      </trkpt>
      <trkpt lat="37.083609927073" lon="-3.403318028239">
        <ele>2374.2</ele>
        <time>2019-01-08T12:08:01Z</time>
      </trkpt>
      <trkpt lat="37.083588637047" lon="-3.403148294764">
        <ele>2372.8</ele>
        <time>2019-01-08T12:08:03Z</time>
      </trkpt>
      <trkpt lat="37.083584949011" lon="-3.403059865719">
        <ele>2372</ele>
        <time>2019-01-08T12:08:04Z</time>
      </trkpt>
      <trkpt lat="37.083591905988" lon="-3.402968922104">
        <ele>2371.4</ele>
        <time>2019-01-08T12:08:05Z</time>
      </trkpt>
      <trkpt lat="37.083613950385" lon="-3.40288208562">
        <ele>2370.8</ele>
        <time>2019-01-08T12:08:06Z</time>
      </trkpt>
      <trkpt lat="37.08366046993" lon="-3.402817377352">
        <ele>2370.2</ele>
        <time>2019-01-08T12:08:07Z</time>
      </trkpt>
      <trkpt lat="37.083724759103" lon="-3.40277647368">
        <ele>2369.6</ele>
        <time>2019-01-08T12:08:08Z</time>
      </trkpt>
      <trkpt lat="37.083873705466" lon="-3.40275970988">
        <ele>2368.6</ele>
        <time>2019-01-08T12:08:10Z</time>
      </trkpt>
      <trkpt lat="37.08402172982" lon="-3.402783765933">
        <ele>2366.8</ele>
        <time>2019-01-08T12:08:12Z</time>
      </trkpt>
      <trkpt lat="37.084165814681" lon="-3.402802876665">
        <ele>2365</ele>
        <time>2019-01-08T12:08:14Z</time>
      </trkpt>
      <trkpt lat="37.084309480447" lon="-3.402815281877">
        <ele>2363.6</ele>
        <time>2019-01-08T12:08:16Z</time>
      </trkpt>
      <trkpt lat="37.084453649127" lon="-3.402801200285">
        <ele>2362.2</ele>
        <time>2019-01-08T12:08:18Z</time>
      </trkpt>
      <trkpt lat="37.084596057608" lon="-3.402773791472">
        <ele>2360.2</ele>
        <time>2019-01-08T12:08:20Z</time>
      </trkpt>
      <trkpt lat="37.084668309586" lon="-3.402760883346">
        <ele>2359.2</ele>
        <time>2019-01-08T12:08:21Z</time>
      </trkpt>
      <trkpt lat="37.084812813542" lon="-3.402719560579">
        <ele>2357.2</ele>
        <time>2019-01-08T12:08:23Z</time>
      </trkpt>
      <trkpt lat="37.084926388287" lon="-3.402641944185">
        <ele>2355.6</ele>
        <time>2019-01-08T12:08:25Z</time>
      </trkpt>
      <trkpt lat="37.085063348533" lon="-3.402619815969">
        <ele>2354</ele>
        <time>2019-01-08T12:08:27Z</time>
      </trkpt>
      <trkpt lat="37.085135013778" lon="-3.402613110449">
        <ele>2352.8</ele>
        <time>2019-01-08T12:08:28Z</time>
      </trkpt>
      <trkpt lat="37.085211875801" lon="-3.402637501778">
        <ele>2351.2</ele>
        <time>2019-01-08T12:08:29Z</time>
      </trkpt>
      <trkpt lat="37.085300388665" lon="-3.402653427388">
        <ele>2349.8</ele>
        <time>2019-01-08T12:08:30Z</time>
      </trkpt>
      <trkpt lat="37.085385297312" lon="-3.402633729923">
        <ele>2348.4</ele>
        <time>2019-01-08T12:08:31Z</time>
      </trkpt>
      <trkpt lat="37.085466434104" lon="-3.402630712439">
        <ele>2346.8</ele>
        <time>2019-01-08T12:08:32Z</time>
      </trkpt>
      <trkpt lat="37.085562239221" lon="-3.402671029378">
        <ele>2345.4</ele>
        <time>2019-01-08T12:08:33Z</time>
      </trkpt>
      <trkpt lat="37.085673634672" lon="-3.4027077421">
        <ele>2343.6</ele>
        <time>2019-01-08T12:08:34Z</time>
      </trkpt>
      <trkpt lat="37.085781509725" lon="-3.402733139257">
        <ele>2341.6</ele>
        <time>2019-01-08T12:08:35Z</time>
      </trkpt>
      <trkpt lat="37.085881841068" lon="-3.402779072069">
        <ele>2338.8</ele>
        <time>2019-01-08T12:08:36Z</time>
      </trkpt>
      <trkpt lat="37.085986195723" lon="-3.402813773135">
        <ele>2335.8</ele>
        <time>2019-01-08T12:08:37Z</time>
      </trkpt>
      <trkpt lat="37.086087365256" lon="-3.402826848899">
        <ele>2333.2</ele>
        <time>2019-01-08T12:08:38Z</time>
      </trkpt>
      <trkpt lat="37.086183840925" lon="-3.402861298508">
        <ele>2330.8</ele>
        <time>2019-01-08T12:08:39Z</time>
      </trkpt>
      <trkpt lat="37.086271599418" lon="-3.40291645141">
        <ele>2328.8</ele>
        <time>2019-01-08T12:08:40Z</time>
      </trkpt>
      <trkpt lat="37.086365225241" lon="-3.402967161905">
        <ele>2326.8</ele>
        <time>2019-01-08T12:08:41Z</time>
      </trkpt>
      <trkpt lat="37.086453738105" lon="-3.403007227387">
        <ele>2325.2</ele>
        <time>2019-01-08T12:08:42Z</time>
      </trkpt>
      <trkpt lat="37.086527163549" lon="-3.403037066951">
        <ele>2324</ele>
        <time>2019-01-08T12:08:43Z</time>
      </trkpt>
      <trkpt lat="37.086576868216" lon="-3.403073612035">
        <ele>2322.6</ele>
        <time>2019-01-08T12:08:44Z</time>
      </trkpt>
      <trkpt lat="37.086614754404" lon="-3.403117449372">
        <ele>2321.2</ele>
        <time>2019-01-08T12:08:45Z</time>
      </trkpt>
      <trkpt lat="37.086659178474" lon="-3.403157179578">
        <ele>2319.6</ele>
        <time>2019-01-08T12:08:46Z</time>
      </trkpt>
      <trkpt lat="37.086718522326" lon="-3.403190874816">
        <ele>2318.4</ele>
        <time>2019-01-08T12:08:47Z</time>
      </trkpt>
      <trkpt lat="37.086788762648" lon="-3.403230018289">
        <ele>2317.4</ele>
        <time>2019-01-08T12:08:48Z</time>
      </trkpt>
      <trkpt lat="37.086861601359" lon="-3.403293133996">
        <ele>2316.4</ele>
        <time>2019-01-08T12:08:49Z</time>
      </trkpt>
      <trkpt lat="37.086946593825" lon="-3.40334979564">
        <ele>2315.2</ele>
        <time>2019-01-08T12:08:50Z</time>
      </trkpt>
      <trkpt lat="37.087037788897" lon="-3.403362703766">
        <ele>2313.8</ele>
        <time>2019-01-08T12:08:51Z</time>
      </trkpt>
      <trkpt lat="37.087132169091" lon="-3.403388520018">
        <ele>2311.6</ele>
        <time>2019-01-08T12:08:52Z</time>
      </trkpt>
      <trkpt lat="37.087241804343" lon="-3.40340763075">
        <ele>2309.2</ele>
        <time>2019-01-08T12:08:53Z</time>
      </trkpt>
      <trkpt lat="37.087348925025" lon="-3.403385418715">
        <ele>2307</ele>
        <time>2019-01-08T12:08:54Z</time>
      </trkpt>
      <trkpt lat="37.087451519481" lon="-3.403357423169">
        <ele>2304.2</ele>
        <time>2019-01-08T12:08:55Z</time>
      </trkpt>
      <trkpt lat="37.087571883565" lon="-3.403358596635">
        <ele>2301.8</ele>
        <time>2019-01-08T12:08:56Z</time>
      </trkpt>
      <trkpt lat="37.087684368663" lon="-3.40335147202">
        <ele>2298.8</ele>
        <time>2019-01-08T12:08:57Z</time>
      </trkpt>
      <trkpt lat="37.087770869871" lon="-3.403323141198">
        <ele>2296.4</ele>
        <time>2019-01-08T12:08:58Z</time>
      </trkpt>
      <trkpt lat="37.087857957812" lon="-3.403300090973">
        <ele>2294</ele>
        <time>2019-01-08T12:08:59Z</time>
      </trkpt>
      <trkpt lat="37.087945464848" lon="-3.403272011608">
        <ele>2292</ele>
        <time>2019-01-08T12:09:00Z</time>
      </trkpt>
      <trkpt lat="37.088032720427" lon="-3.403246279175">
        <ele>2290</ele>
        <time>2019-01-08T12:09:01Z</time>
      </trkpt>
      <trkpt lat="37.088114863047" lon="-3.403214260317">
        <ele>2288.4</ele>
        <time>2019-01-08T12:09:02Z</time>
      </trkpt>
      <trkpt lat="37.0881892105" lon="-3.4031603647">
        <ele>2286.8</ele>
        <time>2019-01-08T12:09:03Z</time>
      </trkpt>
      <trkpt lat="37.088247213248" lon="-3.403083586496">
        <ele>2285.6</ele>
        <time>2019-01-08T12:09:04Z</time>
      </trkpt>
      <trkpt lat="37.088289206567" lon="-3.402984428619">
        <ele>2284.4</ele>
        <time>2019-01-08T12:09:05Z</time>
      </trkpt>
      <trkpt lat="37.088321979796" lon="-3.402873871358">
        <ele>2283.4</ele>
        <time>2019-01-08T12:09:06Z</time>
      </trkpt>
      <trkpt lat="37.088344694745" lon="-3.402759961337">
        <ele>2282.4</ele>
        <time>2019-01-08T12:09:07Z</time>
      </trkpt>
      <trkpt lat="37.088356345586" lon="-3.40264571604">
        <ele>2281.2</ele>
        <time>2019-01-08T12:09:08Z</time>
      </trkpt>
      <trkpt lat="37.088374534309" lon="-3.402536416064">
        <ele>2280.2</ele>
        <time>2019-01-08T12:09:09Z</time>
      </trkpt>
      <trkpt lat="37.088391968661" lon="-3.402422506043">
        <ele>2278.6</ele>
        <time>2019-01-08T12:09:10Z</time>
      </trkpt>
      <trkpt lat="37.088404206235" lon="-3.402311026773">
        <ele>2277.2</ele>
        <time>2019-01-08T12:09:11Z</time>
      </trkpt>
      <trkpt lat="37.08842138913" lon="-3.402207007394">
        <ele>2276</ele>
        <time>2019-01-08T12:09:12Z</time>
      </trkpt>
      <trkpt lat="37.088432872333" lon="-3.401997208437">
        <ele>2274.6</ele>
        <time>2019-01-08T12:09:14Z</time>
      </trkpt>
      <trkpt lat="37.088413091049" lon="-3.40179746776">
        <ele>2273.4</ele>
        <time>2019-01-08T12:09:16Z</time>
      </trkpt>
      <trkpt lat="37.088393225946" lon="-3.401689927983">
        <ele>2273</ele>
        <time>2019-01-08T12:09:17Z</time>
      </trkpt>
      <trkpt lat="37.088376629784" lon="-3.401592781762">
        <ele>2272.2</ele>
        <time>2019-01-08T12:09:18Z</time>
      </trkpt>
      <trkpt lat="37.088374618128" lon="-3.401489935849">
        <ele>2270.8</ele>
        <time>2019-01-08T12:09:19Z</time>
      </trkpt>
      <trkpt lat="37.088353914835" lon="-3.40138926923">
        <ele>2269</ele>
        <time>2019-01-08T12:09:20Z</time>
      </trkpt>
      <trkpt lat="37.088327679488" lon="-3.401309976456">
        <ele>2267.2</ele>
        <time>2019-01-08T12:09:21Z</time>
      </trkpt>
      <trkpt lat="37.088320890149" lon="-3.401228504388">
        <ele>2265.8</ele>
        <time>2019-01-08T12:09:22Z</time>
      </trkpt>
      <trkpt lat="37.088322566529" lon="-3.401134794746">
        <ele>2264.2</ele>
        <time>2019-01-08T12:09:23Z</time>
      </trkpt>
      <trkpt lat="37.088320471054" lon="-3.401043012941">
        <ele>2262.8</ele>
        <time>2019-01-08T12:09:24Z</time>
      </trkpt>
      <trkpt lat="37.088334552646" lon="-3.400952907516">
        <ele>2261.2</ele>
        <time>2019-01-08T12:09:25Z</time>
      </trkpt>
      <trkpt lat="37.088340839071" lon="-3.400852240897">
        <ele>2259.8</ele>
        <time>2019-01-08T12:09:26Z</time>
      </trkpt>
      <trkpt lat="37.088342515451" lon="-3.40074721569">
        <ele>2258.4</ele>
        <time>2019-01-08T12:09:27Z</time>
      </trkpt>
      <trkpt lat="37.088351903179" lon="-3.400643950682">
        <ele>2256.6</ele>
        <time>2019-01-08T12:09:28Z</time>
      </trkpt>
      <trkpt lat="37.088357854328" lon="-3.400527526091">
        <ele>2254.4</ele>
        <time>2019-01-08T12:09:29Z</time>
      </trkpt>
      <trkpt lat="37.088362212916" lon="-3.400415627726">
        <ele>2251.8</ele>
        <time>2019-01-08T12:09:30Z</time>
      </trkpt>
      <trkpt lat="37.088384089675" lon="-3.400312027442">
        <ele>2249.6</ele>
        <time>2019-01-08T12:09:31Z</time>
      </trkpt>
      <trkpt lat="37.088411247031" lon="-3.400206834597">
        <ele>2247.2</ele>
        <time>2019-01-08T12:09:32Z</time>
      </trkpt>
      <trkpt lat="37.088426585908" lon="-3.400096025879">
        <ele>2245</ele>
        <time>2019-01-08T12:09:33Z</time>
      </trkpt>
      <trkpt lat="37.088453575626" lon="-3.399984378971">
        <ele>2242.4</ele>
        <time>2019-01-08T12:09:34Z</time>
      </trkpt>
      <trkpt lat="37.088468579227" lon="-3.399868122018">
        <ele>2240.2</ele>
        <time>2019-01-08T12:09:35Z</time>
      </trkpt>
      <trkpt lat="37.088451731608" lon="-3.399756642748">
        <ele>2237.8</ele>
        <time>2019-01-08T12:09:36Z</time>
      </trkpt>
      <trkpt lat="37.088421892044" lon="-3.399647845686">
        <ele>2235</ele>
        <time>2019-01-08T12:09:37Z</time>
      </trkpt>
      <trkpt lat="37.088369002255" lon="-3.399549190723">
        <ele>2231.8</ele>
        <time>2019-01-08T12:09:38Z</time>
      </trkpt>
      <trkpt lat="37.088302952883" lon="-3.399471155234">
        <ele>2228.6</ele>
        <time>2019-01-08T12:09:39Z</time>
      </trkpt>
      <trkpt lat="37.088243273755" lon="-3.399395131401">
        <ele>2225.8</ele>
        <time>2019-01-08T12:09:40Z</time>
      </trkpt>
      <trkpt lat="37.088186947387" lon="-3.399302427587">
        <ele>2223.6</ele>
        <time>2019-01-08T12:09:41Z</time>
      </trkpt>
      <trkpt lat="37.08813808091" lon="-3.399205449004">
        <ele>2221.2</ele>
        <time>2019-01-08T12:09:42Z</time>
      </trkpt>
      <trkpt lat="37.088100865274" lon="-3.399106961679">
        <ele>2219.2</ele>
        <time>2019-01-08T12:09:43Z</time>
      </trkpt>
      <trkpt lat="37.08807605485" lon="-3.3990029423">
        <ele>2217.2</ele>
        <time>2019-01-08T12:09:44Z</time>
      </trkpt>
      <trkpt lat="37.088039845042" lon="-3.39890990321">
        <ele>2215.4</ele>
        <time>2019-01-08T12:09:45Z</time>
      </trkpt>
      <trkpt lat="37.088011011306" lon="-3.398819127233">
        <ele>2214</ele>
        <time>2019-01-08T12:09:46Z</time>
      </trkpt>
      <trkpt lat="37.088009586383" lon="-3.398726171962">
        <ele>2212.6</ele>
        <time>2019-01-08T12:09:47Z</time>
      </trkpt>
      <trkpt lat="37.08803079259" lon="-3.398637575279">
        <ele>2211.2</ele>
        <time>2019-01-08T12:09:48Z</time>
      </trkpt>
      <trkpt lat="37.088068008226" lon="-3.398551493166">
        <ele>2209.8</ele>
        <time>2019-01-08T12:09:49Z</time>
      </trkpt>
      <trkpt lat="37.088120143644" lon="-3.39846733889">
        <ele>2208.6</ele>
        <time>2019-01-08T12:09:50Z</time>
      </trkpt>
      <trkpt lat="37.088182756437" lon="-3.398379999492">
        <ele>2207</ele>
        <time>2019-01-08T12:09:51Z</time>
      </trkpt>
      <trkpt lat="37.088254002587" lon="-3.398291570447">
        <ele>2205.4</ele>
        <time>2019-01-08T12:09:52Z</time>
      </trkpt>
      <trkpt lat="37.088333630637" lon="-3.398206745619">
        <ele>2203.8</ele>
        <time>2019-01-08T12:09:53Z</time>
      </trkpt>
      <trkpt lat="37.088424909528" lon="-3.398132565804">
        <ele>2202.4</ele>
        <time>2019-01-08T12:09:54Z</time>
      </trkpt>
      <trkpt lat="37.088520630826" lon="-3.398073724866">
        <ele>2201.2</ele>
        <time>2019-01-08T12:09:55Z</time>
      </trkpt>
      <trkpt lat="37.088618196142" lon="-3.398032402099">
        <ele>2199.6</ele>
        <time>2019-01-08T12:09:56Z</time>
      </trkpt>
      <trkpt lat="37.088719198037" lon="-3.398009016598">
        <ele>2197.8</ele>
        <time>2019-01-08T12:09:57Z</time>
      </trkpt>
      <trkpt lat="37.088824977615" lon="-3.397996527567">
        <ele>2196.2</ele>
        <time>2019-01-08T12:09:58Z</time>
      </trkpt>
      <trkpt lat="37.088928745537" lon="-3.397993174807">
        <ele>2194.8</ele>
        <time>2019-01-08T12:09:59Z</time>
      </trkpt>
      <trkpt lat="37.089142819263" lon="-3.398009184236">
        <ele>2193</ele>
        <time>2019-01-08T12:10:01Z</time>
      </trkpt>
      <trkpt lat="37.08924616809" lon="-3.398022595276">
        <ele>2191.8</ele>
        <time>2019-01-08T12:10:02Z</time>
      </trkpt>
      <trkpt lat="37.089346834709" lon="-3.398038017972">
        <ele>2190.4</ele>
        <time>2019-01-08T12:10:03Z</time>
      </trkpt>
      <trkpt lat="37.089452279011" lon="-3.39805327303">
        <ele>2189.2</ele>
        <time>2019-01-08T12:10:04Z</time>
      </trkpt>
      <trkpt lat="37.089560573159" lon="-3.398066600251">
        <ele>2188.2</ele>
        <time>2019-01-08T12:10:05Z</time>
      </trkpt>
      <trkpt lat="37.089775568894" lon="-3.398103061516">
        <ele>2186.6</ele>
        <time>2019-01-08T12:10:07Z</time>
      </trkpt>
      <trkpt lat="37.089882270481" lon="-3.39812619556">
        <ele>2185.4</ele>
        <time>2019-01-08T12:10:08Z</time>
      </trkpt>
      <trkpt lat="37.089987211869" lon="-3.398150251613">
        <ele>2184.2</ele>
        <time>2019-01-08T12:10:09Z</time>
      </trkpt>
      <trkpt lat="37.090085363918" lon="-3.398176822236">
        <ele>2183.2</ele>
        <time>2019-01-08T12:10:10Z</time>
      </trkpt>
      <trkpt lat="37.090181755768" lon="-3.398207080895">
        <ele>2182</ele>
        <time>2019-01-08T12:10:11Z</time>
      </trkpt>
      <trkpt lat="37.090274794858" lon="-3.39823264569">
        <ele>2181</ele>
        <time>2019-01-08T12:10:12Z</time>
      </trkpt>
      <trkpt lat="37.090464141979" lon="-3.398275561018">
        <ele>2179.4</ele>
        <time>2019-01-08T12:10:14Z</time>
      </trkpt>
      <trkpt lat="37.0906451072" lon="-3.398316883785">
        <ele>2177.8</ele>
        <time>2019-01-08T12:10:16Z</time>
      </trkpt>
      <trkpt lat="37.090817355245" lon="-3.398363990063">
        <ele>2176.4</ele>
        <time>2019-01-08T12:10:18Z</time>
      </trkpt>
      <trkpt lat="37.090990525299" lon="-3.398410509608">
        <ele>2175</ele>
        <time>2019-01-08T12:10:20Z</time>
      </trkpt>
      <trkpt lat="37.091074009023" lon="-3.398422495725">
        <ele>2174.2</ele>
        <time>2019-01-08T12:10:21Z</time>
      </trkpt>
      <trkpt lat="37.091156906014" lon="-3.398428949788">
        <ele>2173.6</ele>
        <time>2019-01-08T12:10:22Z</time>
      </trkpt>
      <trkpt lat="37.091397885639" lon="-3.398450994185">
        <ele>2172.2</ele>
        <time>2019-01-08T12:10:25Z</time>
      </trkpt>
      <trkpt lat="37.091475250576" lon="-3.398466249243">
        <ele>2171.8</ele>
        <time>2019-01-08T12:10:26Z</time>
      </trkpt>
      <trkpt lat="37.091550268581" lon="-3.39848745545">
        <ele>2171</ele>
        <time>2019-01-08T12:10:27Z</time>
      </trkpt>
      <trkpt lat="37.091698209116" lon="-3.39852601219">
        <ele>2169.8</ele>
        <time>2019-01-08T12:10:29Z</time>
      </trkpt>
      <trkpt lat="37.091838857398" lon="-3.398556941401">
        <ele>2168.6</ele>
        <time>2019-01-08T12:10:31Z</time>
      </trkpt>
      <trkpt lat="37.09203147346" lon="-3.398609495914">
        <ele>2167.2</ele>
        <time>2019-01-08T12:10:34Z</time>
      </trkpt>
      <trkpt lat="37.092161057634" lon="-3.398644029342">
        <ele>2166.2</ele>
        <time>2019-01-08T12:10:36Z</time>
      </trkpt>
      <trkpt lat="37.092358451379" lon="-3.398669845594">
        <ele>2165</ele>
        <time>2019-01-08T12:10:39Z</time>
      </trkpt>
      <trkpt lat="37.092546205939" lon="-3.398689962154">
        <ele>2163.8</ele>
        <time>2019-01-08T12:10:42Z</time>
      </trkpt>
      <trkpt lat="37.09271711288" lon="-3.398691722353">
        <ele>2162.6</ele>
        <time>2019-01-08T12:10:45Z</time>
      </trkpt>
      <trkpt lat="37.09276153695" lon="-3.398685771204">
        <ele>2162.2</ele>
        <time>2019-01-08T12:10:46Z</time>
      </trkpt>
      <trkpt lat="37.092840578267" lon="-3.398668420671">
        <ele>2161.4</ele>
        <time>2019-01-08T12:10:48Z</time>
      </trkpt>
      <trkpt lat="37.093065548463" lon="-3.398602036023">
        <ele>2160.6</ele>
        <time>2019-01-08T12:10:54Z</time>
      </trkpt>
      <trkpt lat="37.093133274215" lon="-3.398643274971">
        <ele>2160.2</ele>
        <time>2019-01-08T12:10:56Z</time>
      </trkpt>
      <trkpt lat="37.093191193144" lon="-3.398659871133">
        <ele>2159.4</ele>
        <time>2019-01-08T12:11:00Z</time>
      </trkpt>
      <trkpt lat="37.093287668813" lon="-3.39908843768">
        <ele>2154.2</ele>
        <time>2019-01-08T12:14:19Z</time>
      </trkpt>
      <trkpt lat="37.093226983857" lon="-3.399029345285">
        <ele>2155.6</ele>
        <time>2019-01-08T12:14:21Z</time>
      </trkpt>
      <trkpt lat="37.093149535101" lon="-3.398963128275">
        <ele>2157.6</ele>
        <time>2019-01-08T12:14:23Z</time>
      </trkpt>
      <trkpt lat="37.071134390932" lon="-3.387950317503">
        <ele>2686.2</ele>
        <time>2019-01-08T12:26:37Z</time>
      </trkpt>
      <trkpt lat="37.071153501664" lon="-3.38775527069">
        <ele>2685.4</ele>
        <time>2019-01-08T12:26:43Z</time>
      </trkpt>
      <trkpt lat="37.062325265489" lon="-3.373723634814">
        <ele>3030.6</ele>
        <time>2019-01-08T12:35:14Z</time>
      </trkpt>
      <trkpt lat="37.062235243883" lon="-3.373945838983">
        <ele>3030.8</ele>
        <time>2019-01-08T12:35:20Z</time>
      </trkpt>
      <trkpt lat="37.062119489844" lon="-3.374259992595">
        <ele>3029.4</ele>
        <time>2019-01-08T12:35:25Z</time>
      </trkpt>
      <trkpt lat="37.062043633649" lon="-3.374333418039">
        <ele>3028.2</ele>
        <time>2019-01-08T12:35:27Z</time>
      </trkpt>
      <trkpt lat="37.061982948693" lon="-3.374351858219">
        <ele>3027</ele>
        <time>2019-01-08T12:35:29Z</time>
      </trkpt>
      <trkpt lat="37.061941542107" lon="-3.374363760517">
        <ele>3026</ele>
        <time>2019-01-08T12:35:32Z</time>
      </trkpt>
      <trkpt lat="37.061911031991" lon="-3.374402820171">
        <ele>3025.4</ele>
        <time>2019-01-08T12:35:36Z</time>
      </trkpt>
      <trkpt lat="37.061882365893" lon="-3.374439700531">
        <ele>3025.2</ele>
        <time>2019-01-08T12:35:38Z</time>
      </trkpt>
      <trkpt lat="37.061860908229" lon="-3.374448752983">
        <ele>3024.8</ele>
        <time>2019-01-08T12:35:40Z</time>
      </trkpt>
      <trkpt lat="37.061743645448" lon="-3.37447582652">
        <ele>3024</ele>
        <time>2019-01-08T12:35:46Z</time>
      </trkpt>
      <trkpt lat="37.061724367078" lon="-3.374485381886">
        <ele>3023.8</ele>
        <time>2019-01-08T12:35:47Z</time>
      </trkpt>
      <trkpt lat="37.061645744856" lon="-3.374617396811">
        <ele>3022.4</ele>
        <time>2019-01-08T12:35:53Z</time>
      </trkpt>
      <trkpt lat="37.061611546704" lon="-3.37468788859">
        <ele>3021.2</ele>
        <time>2019-01-08T12:35:55Z</time>
      </trkpt>
      <trkpt lat="37.06158003076" lon="-3.374764834432">
        <ele>3019.8</ele>
        <time>2019-01-08T12:35:57Z</time>
      </trkpt>
      <trkpt lat="37.061578019104" lon="-3.374810767244">
        <ele>3019</ele>
        <time>2019-01-08T12:35:58Z</time>
      </trkpt>
      <trkpt lat="37.061598554759" lon="-3.374839768618">
        <ele>3018.4</ele>
        <time>2019-01-08T12:35:59Z</time>
      </trkpt>
      <trkpt lat="37.061653959118" lon="-3.374912020596">
        <ele>3016.6</ele>
        <time>2019-01-08T12:36:01Z</time>
      </trkpt>
      <trkpt lat="37.061675249144" lon="-3.374966000032">
        <ele>3015.4</ele>
        <time>2019-01-08T12:36:02Z</time>
      </trkpt>
      <trkpt lat="37.061710369305" lon="-3.375002880392">
        <ele>3013.8</ele>
        <time>2019-01-08T12:36:03Z</time>
      </trkpt>
      <trkpt lat="37.061754961013" lon="-3.375032887594">
        <ele>3012</ele>
        <time>2019-01-08T12:36:04Z</time>
      </trkpt>
      <trkpt lat="37.061780190532" lon="-3.375072533981">
        <ele>3009.8</ele>
        <time>2019-01-08T12:36:05Z</time>
      </trkpt>
      <trkpt lat="37.061778095057" lon="-3.375130620548">
        <ele>3007.4</ele>
        <time>2019-01-08T12:36:06Z</time>
      </trkpt>
      <trkpt lat="37.061749680416" lon="-3.375198933033">
        <ele>3005.2</ele>
        <time>2019-01-08T12:36:07Z</time>
      </trkpt>
      <trkpt lat="37.061743561629" lon="-3.375258947437">
        <ele>3003.2</ele>
        <time>2019-01-08T12:36:08Z</time>
      </trkpt>
      <trkpt lat="37.061746327656" lon="-3.375312507778">
        <ele>3001.4</ele>
        <time>2019-01-08T12:36:09Z</time>
      </trkpt>
      <trkpt lat="37.061752278805" lon="-3.375373276553">
        <ele>2999.6</ele>
        <time>2019-01-08T12:36:10Z</time>
      </trkpt>
      <trkpt lat="37.061731910788" lon="-3.375454161888">
        <ele>2997.6</ele>
        <time>2019-01-08T12:36:11Z</time>
      </trkpt>
      <trkpt lat="37.06172503763" lon="-3.375537980888">
        <ele>2995.2</ele>
        <time>2019-01-08T12:36:12Z</time>
      </trkpt>
      <trkpt lat="37.06174515419" lon="-3.37561157397">
        <ele>2992.6</ele>
        <time>2019-01-08T12:36:13Z</time>
      </trkpt>
      <trkpt lat="37.061776502496" lon="-3.37568114374">
        <ele>2989.8</ele>
        <time>2019-01-08T12:36:14Z</time>
      </trkpt>
      <trkpt lat="37.061796786694" lon="-3.375771165346">
        <ele>2986.8</ele>
        <time>2019-01-08T12:36:15Z</time>
      </trkpt>
      <trkpt lat="37.061819417824" lon="-3.375862276599">
        <ele>2984</ele>
        <time>2019-01-08T12:36:16Z</time>
      </trkpt>
      <trkpt lat="37.061858561297" lon="-3.375950705644">
        <ele>2980.8</ele>
        <time>2019-01-08T12:36:17Z</time>
      </trkpt>
      <trkpt lat="37.061881276246" lon="-3.376052545729">
        <ele>2977.2</ele>
        <time>2019-01-08T12:36:18Z</time>
      </trkpt>
      <trkpt lat="37.061889825784" lon="-3.376182046084">
        <ele>2973.4</ele>
        <time>2019-01-08T12:36:19Z</time>
      </trkpt>
      <trkpt lat="37.061924359212" lon="-3.37632403547">
        <ele>2969.8</ele>
        <time>2019-01-08T12:36:20Z</time>
      </trkpt>
      <trkpt lat="37.061985211806" lon="-3.376449177237">
        <ele>2965.8</ele>
        <time>2019-01-08T12:36:21Z</time>
      </trkpt>
      <trkpt lat="37.062039107423" lon="-3.376566607656">
        <ele>2961.8</ele>
        <time>2019-01-08T12:36:22Z</time>
      </trkpt>
      <trkpt lat="37.062064756037" lon="-3.376679260392">
        <ele>2958.2</ele>
        <time>2019-01-08T12:36:23Z</time>
      </trkpt>
      <trkpt lat="37.062075652507" lon="-3.376780765201">
        <ele>2955.6</ele>
        <time>2019-01-08T12:36:24Z</time>
      </trkpt>
      <trkpt lat="37.062096020524" lon="-3.376862237269">
        <ele>2953.6</ele>
        <time>2019-01-08T12:36:25Z</time>
      </trkpt>
      <trkpt lat="37.06210725227" lon="-3.376924514786">
        <ele>2952</ele>
        <time>2019-01-08T12:36:26Z</time>
      </trkpt>
      <trkpt lat="37.062101301121" lon="-3.376980505878">
        <ele>2951</ele>
        <time>2019-01-08T12:36:27Z</time>
      </trkpt>
      <trkpt lat="37.062105827347" lon="-3.377046722888">
        <ele>2949.8</ele>
        <time>2019-01-08T12:36:28Z</time>
      </trkpt>
      <trkpt lat="37.062139354947" lon="-3.377185527152">
        <ele>2947.8</ele>
        <time>2019-01-08T12:36:30Z</time>
      </trkpt>
      <trkpt lat="37.062143462078" lon="-3.377346878727">
        <ele>2945.6</ele>
        <time>2019-01-08T12:36:32Z</time>
      </trkpt>
      <trkpt lat="37.062194759306" lon="-3.377416280859">
        <ele>2944.2</ele>
        <time>2019-01-08T12:36:33Z</time>
      </trkpt>
      <trkpt lat="37.062270783139" lon="-3.377468583915">
        <ele>2942.2</ele>
        <time>2019-01-08T12:36:34Z</time>
      </trkpt>
      <trkpt lat="37.062349740637" lon="-3.377529939423">
        <ele>2940</ele>
        <time>2019-01-08T12:36:35Z</time>
      </trkpt>
      <trkpt lat="37.062402546607" lon="-3.377615099527">
        <ele>2938</ele>
        <time>2019-01-08T12:36:36Z</time>
      </trkpt>
      <trkpt lat="37.062428111402" lon="-3.377719873277">
        <ele>2935.8</ele>
        <time>2019-01-08T12:36:37Z</time>
      </trkpt>
      <trkpt lat="37.062445797211" lon="-3.377832693651">
        <ele>2934.2</ele>
        <time>2019-01-08T12:36:38Z</time>
      </trkpt>
      <trkpt lat="37.062478654259" lon="-3.377936293935">
        <ele>2932.4</ele>
        <time>2019-01-08T12:36:39Z</time>
      </trkpt>
      <trkpt lat="37.062529951487" lon="-3.378022459867">
        <ele>2931.2</ele>
        <time>2019-01-08T12:36:40Z</time>
      </trkpt>
      <trkpt lat="37.06258921152" lon="-3.378101082089">
        <ele>2929.6</ele>
        <time>2019-01-08T12:36:41Z</time>
      </trkpt>
      <trkpt lat="37.062645202612" lon="-3.378188086211">
        <ele>2928.2</ele>
        <time>2019-01-08T12:36:42Z</time>
      </trkpt>
      <trkpt lat="37.062702953903" lon="-3.378263774768">
        <ele>2926.8</ele>
        <time>2019-01-08T12:36:43Z</time>
      </trkpt>
      <trkpt lat="37.062752407113" lon="-3.378328399217">
        <ele>2925.4</ele>
        <time>2019-01-08T12:36:44Z</time>
      </trkpt>
      <trkpt lat="37.062794819527" lon="-3.378372320373">
        <ele>2924</ele>
        <time>2019-01-08T12:36:45Z</time>
      </trkpt>
      <trkpt lat="37.062837818674" lon="-3.378404171593">
        <ele>2922.6</ele>
        <time>2019-01-08T12:36:46Z</time>
      </trkpt>
      <trkpt lat="37.062871849188" lon="-3.378445913455">
        <ele>2921.4</ele>
        <time>2019-01-08T12:36:47Z</time>
      </trkpt>
      <trkpt lat="37.062892971576" lon="-3.378500647262">
        <ele>2920.4</ele>
        <time>2019-01-08T12:36:48Z</time>
      </trkpt>
      <trkpt lat="37.06290520915" lon="-3.378561835132">
        <ele>2919.6</ele>
        <time>2019-01-08T12:36:49Z</time>
      </trkpt>
      <trkpt lat="37.06289934182" lon="-3.378619083509">
        <ele>2919</ele>
        <time>2019-01-08T12:36:50Z</time>
      </trkpt>
      <trkpt lat="37.062873860844" lon="-3.378660573914">
        <ele>2918.6</ele>
        <time>2019-01-08T12:36:51Z</time>
      </trkpt>
      <trkpt lat="37.062788030188" lon="-3.378706422907">
        <ele>2917.8</ele>
        <time>2019-01-08T12:36:54Z</time>
      </trkpt>
      <trkpt lat="37.062729273069" lon="-3.378668117624">
        <ele>2917.4</ele>
        <time>2019-01-08T12:37:00Z</time>
      </trkpt>
      <trkpt lat="37.05702362992" lon="-3.370061498885">
        <ele>3265.4</ele>
        <time>2019-01-08T12:46:14Z</time>
      </trkpt>
      <trkpt lat="37.056977948565" lon="-3.370100055625">
        <ele>3264.2</ele>
        <time>2019-01-08T12:46:15Z</time>
      </trkpt>
      <trkpt lat="37.056935536151" lon="-3.370135846338">
        <ele>3263</ele>
        <time>2019-01-08T12:46:16Z</time>
      </trkpt>
      <trkpt lat="37.056895470669" lon="-3.370165099169">
        <ele>3261.8</ele>
        <time>2019-01-08T12:46:17Z</time>
      </trkpt>
      <trkpt lat="37.056857584481" lon="-3.370189155222">
        <ele>3260.6</ele>
        <time>2019-01-08T12:46:18Z</time>
      </trkpt>
      <trkpt lat="37.056802515398" lon="-3.370235171853">
        <ele>3258.8</ele>
        <time>2019-01-08T12:46:20Z</time>
      </trkpt>
      <trkpt lat="37.056748619781" lon="-3.370282194312">
        <ele>3257.2</ele>
        <time>2019-01-08T12:46:22Z</time>
      </trkpt>
      <trkpt lat="37.056705704453" lon="-3.37033432973">
        <ele>3255.8</ele>
        <time>2019-01-08T12:46:24Z</time>
      </trkpt>
      <trkpt lat="37.056679217649" lon="-3.370385375501">
        <ele>3254.4</ele>
        <time>2019-01-08T12:46:26Z</time>
      </trkpt>
      <trkpt lat="37.056655329234" lon="-3.370434158159">
        <ele>3252.6</ele>
        <time>2019-01-08T12:46:28Z</time>
      </trkpt>
      <trkpt lat="37.056633452475" lon="-3.370527364887">
        <ele>3250.8</ele>
        <time>2019-01-08T12:46:30Z</time>
      </trkpt>
      <trkpt lat="37.05662129872" lon="-3.370654099215">
        <ele>3248.4</ele>
        <time>2019-01-08T12:46:32Z</time>
      </trkpt>
      <trkpt lat="37.056582071428" lon="-3.370713023972">
        <ele>3246.6</ele>
        <time>2019-01-08T12:46:33Z</time>
      </trkpt>
      <trkpt lat="37.056515602961" lon="-3.370748982323">
        <ele>3244.4</ele>
        <time>2019-01-08T12:46:34Z</time>
      </trkpt>
      <trkpt lat="37.056461036792" lon="-3.37080455432">
        <ele>3242</ele>
        <time>2019-01-08T12:46:35Z</time>
      </trkpt>
      <trkpt lat="37.056430442857" lon="-3.370882757447">
        <ele>3239.6</ele>
        <time>2019-01-08T12:46:36Z</time>
      </trkpt>
      <trkpt lat="37.056403536958" lon="-3.370964480972">
        <ele>3237</ele>
        <time>2019-01-08T12:46:37Z</time>
      </trkpt>
      <trkpt lat="37.056363639114" lon="-3.371039918072">
        <ele>3234.2</ele>
        <time>2019-01-08T12:46:38Z</time>
      </trkpt>
      <trkpt lat="37.056310246411" lon="-3.371099094286">
        <ele>3231.6</ele>
        <time>2019-01-08T12:46:39Z</time>
      </trkpt>
      <trkpt lat="37.056245538143" lon="-3.371150642971">
        <ele>3229</ele>
        <time>2019-01-08T12:46:40Z</time>
      </trkpt>
      <trkpt lat="37.056188541223" lon="-3.371215686515">
        <ele>3226.2</ele>
        <time>2019-01-08T12:46:41Z</time>
      </trkpt>
      <trkpt lat="37.056144787705" lon="-3.371301768628">
        <ele>3223.2</ele>
        <time>2019-01-08T12:46:42Z</time>
      </trkpt>
      <trkpt lat="37.056093155201" lon="-3.371389527121">
        <ele>3220</ele>
        <time>2019-01-08T12:46:43Z</time>
      </trkpt>
      <trkpt lat="37.056028530752" lon="-3.371451804638">
        <ele>3216.8</ele>
        <time>2019-01-08T12:46:44Z</time>
      </trkpt>
      <trkpt lat="37.055968013434" lon="-3.371522547874">
        <ele>3213.8</ele>
        <time>2019-01-08T12:46:45Z</time>
      </trkpt>
      <trkpt lat="37.055914117817" lon="-3.371588932522">
        <ele>3211.2</ele>
        <time>2019-01-08T12:46:46Z</time>
      </trkpt>
      <trkpt lat="37.05586357496" lon="-3.371643750148">
        <ele>3208.6</ele>
        <time>2019-01-08T12:46:47Z</time>
      </trkpt>
      <trkpt lat="37.05581663632" lon="-3.371695131195">
        <ele>3206.2</ele>
        <time>2019-01-08T12:46:48Z</time>
      </trkpt>
      <trkpt lat="37.055791406801" lon="-3.371755732332">
        <ele>3203.6</ele>
        <time>2019-01-08T12:46:49Z</time>
      </trkpt>
      <trkpt lat="37.055770116775" lon="-3.371821781704">
        <ele>3201.4</ele>
        <time>2019-01-08T12:46:50Z</time>
      </trkpt>
      <trkpt lat="37.055734912795" lon="-3.371898979003">
        <ele>3199.4</ele>
        <time>2019-01-08T12:46:51Z</time>
      </trkpt>
      <trkpt lat="37.055680178988" lon="-3.371954551">
        <ele>3197.2</ele>
        <time>2019-01-08T12:46:52Z</time>
      </trkpt>
      <trkpt lat="37.05561798529" lon="-3.37199143136">
        <ele>3194.2</ele>
        <time>2019-01-08T12:46:53Z</time>
      </trkpt>
      <trkpt lat="37.055555204859" lon="-3.372028982272">
        <ele>3191</ele>
        <time>2019-01-08T12:46:54Z</time>
      </trkpt>
      <trkpt lat="37.055521677259" lon="-3.372092517074">
        <ele>3188.2</ele>
        <time>2019-01-08T12:46:55Z</time>
      </trkpt>
      <trkpt lat="37.055492340609" lon="-3.372164182319">
        <ele>3185.8</ele>
        <time>2019-01-08T12:46:56Z</time>
      </trkpt>
      <trkpt lat="37.055453197136" lon="-3.37222193361">
        <ele>3183.2</ele>
        <time>2019-01-08T12:46:57Z</time>
      </trkpt>
      <trkpt lat="37.055413718387" lon="-3.372262250549">
        <ele>3180.4</ele>
        <time>2019-01-08T12:46:58Z</time>
      </trkpt>
      <trkpt lat="37.05538496847" lon="-3.372283289118">
        <ele>3177.6</ele>
        <time>2019-01-08T12:46:59Z</time>
      </trkpt>
      <trkpt lat="37.055357643476" lon="-3.372297286891">
        <ele>3175.2</ele>
        <time>2019-01-08T12:47:00Z</time>
      </trkpt>
      <trkpt lat="37.055331743405" lon="-3.37230407623">
        <ele>3173</ele>
        <time>2019-01-08T12:47:01Z</time>
      </trkpt>
      <trkpt lat="37.055309112275" lon="-3.372308183361">
        <ele>3171.4</ele>
        <time>2019-01-08T12:47:02Z</time>
      </trkpt>
      <trkpt lat="37.055294024855" lon="-3.372310111198">
        <ele>3169.8</ele>
        <time>2019-01-08T12:47:03Z</time>
      </trkpt>
      <trkpt lat="37.055285140041" lon="-3.372317403451">
        <ele>3168.6</ele>
        <time>2019-01-08T12:47:04Z</time>
      </trkpt>
      <trkpt lat="37.055251193346" lon="-3.37234514754">
        <ele>3167</ele>
        <time>2019-01-08T12:47:06Z</time>
      </trkpt>
      <trkpt lat="37.055208026561" lon="-3.37238035152">
        <ele>3165.8</ele>
        <time>2019-01-08T12:47:08Z</time>
      </trkpt>
      <trkpt lat="37.05515698079" lon="-3.372406754505">
        <ele>3164.2</ele>
        <time>2019-01-08T12:47:10Z</time>
      </trkpt>
      <trkpt lat="37.055105515924" lon="-3.37243651025">
        <ele>3163</ele>
        <time>2019-01-08T12:47:12Z</time>
      </trkpt>
      <trkpt lat="37.05506561808" lon="-3.372468110013">
        <ele>3161.6</ele>
        <time>2019-01-08T12:47:14Z</time>
      </trkpt>
      <trkpt lat="37.055076933645" lon="-3.372539439982">
        <ele>3160.4</ele>
        <time>2019-01-08T12:47:16Z</time>
      </trkpt>
      <trkpt lat="37.055110796521" lon="-3.372559472723">
        <ele>3159.2</ele>
        <time>2019-01-08T12:47:18Z</time>
      </trkpt>
      <trkpt lat="37.055120687163" lon="-3.372550923185">
        <ele>3157.4</ele>
        <time>2019-01-08T12:47:20Z</time>
      </trkpt>
      <trkpt lat="37.055124794294" lon="-3.372547402787">
        <ele>3156</ele>
        <time>2019-01-08T12:47:22Z</time>
      </trkpt>
      <trkpt lat="37.055122363543" lon="-3.372545223493">
        <ele>3155.4</ele>
        <time>2019-01-08T12:47:25Z</time>
      </trkpt>
      <trkpt lat="37.055111299435" lon="-3.372739264478">
        <ele>3154</ele>
        <time>2019-01-08T12:47:42Z</time>
      </trkpt>
      <trkpt lat="37.055099648594" lon="-3.372759297219">
        <ele>3152.2</ele>
        <time>2019-01-08T12:47:44Z</time>
      </trkpt>
      <trkpt lat="37.055099816232" lon="-3.372751334414">
        <ele>3150.6</ele>
        <time>2019-01-08T12:47:45Z</time>
      </trkpt>
      <trkpt lat="37.055102833716" lon="-3.372754770993">
        <ele>3148.8</ele>
        <time>2019-01-08T12:47:46Z</time>
      </trkpt>
      <trkpt lat="37.055106186476" lon="-3.372751502052">
        <ele>3147.4</ele>
        <time>2019-01-08T12:47:47Z</time>
      </trkpt>
      <trkpt lat="37.055103755725" lon="-3.372757704658">
        <ele>3146.2</ele>
        <time>2019-01-08T12:47:49Z</time>
      </trkpt>
      <trkpt lat="37.055109455417" lon="-3.37277346263">
        <ele>3145.8</ele>
        <time>2019-01-08T12:47:54Z</time>
      </trkpt>
      <trkpt lat="37.055109790693" lon="-3.372784442919">
        <ele>3145.8</ele>
        <time>2019-01-08T12:47:57Z</time>
      </trkpt>
      <trkpt lat="37.055153292754" lon="-3.373072612641">
        <ele>3143</ele>
        <time>2019-01-08T12:48:15Z</time>
      </trkpt>
      <trkpt lat="37.055164943595" lon="-3.373131453579">
        <ele>3141.6</ele>
        <time>2019-01-08T12:48:16Z</time>
      </trkpt>
      <trkpt lat="37.055167541984" lon="-3.37320177772">
        <ele>3140</ele>
        <time>2019-01-08T12:48:17Z</time>
      </trkpt>
      <trkpt lat="37.055183299956" lon="-3.373262378857">
        <ele>3138.4</ele>
        <time>2019-01-08T12:48:18Z</time>
      </trkpt>
      <trkpt lat="37.055199393204" lon="-3.373317112664">
        <ele>3136.4</ele>
        <time>2019-01-08T12:48:19Z</time>
      </trkpt>
      <trkpt lat="37.05519889029" lon="-3.37338617952">
        <ele>3133.8</ele>
        <time>2019-01-08T12:48:20Z</time>
      </trkpt>
      <trkpt lat="37.055211127864" lon="-3.373461784258">
        <ele>3131.6</ele>
        <time>2019-01-08T12:48:21Z</time>
      </trkpt>
      <trkpt lat="37.055244655464" lon="-3.373529761467">
        <ele>3129.2</ele>
        <time>2019-01-08T12:48:22Z</time>
      </trkpt>
      <trkpt lat="37.05526426911" lon="-3.373586674568">
        <ele>3127</ele>
        <time>2019-01-08T12:48:23Z</time>
      </trkpt>
      <trkpt lat="37.055275081761" lon="-3.37365859127">
        <ele>3124.6</ele>
        <time>2019-01-08T12:48:24Z</time>
      </trkpt>
      <trkpt lat="37.055283631299" lon="-3.373731681438">
        <ele>3122.2</ele>
        <time>2019-01-08T12:48:25Z</time>
      </trkpt>
      <trkpt lat="37.055288492801" lon="-3.373802173217">
        <ele>3120</ele>
        <time>2019-01-08T12:48:26Z</time>
      </trkpt>
      <trkpt lat="37.055266867499" lon="-3.373866043295">
        <ele>3117.6</ele>
        <time>2019-01-08T12:48:27Z</time>
      </trkpt>
      <trkpt lat="37.05525504902" lon="-3.373944749336">
        <ele>3115.2</ele>
        <time>2019-01-08T12:48:28Z</time>
      </trkpt>
      <trkpt lat="37.05527181282" lon="-3.374032256372">
        <ele>3112.6</ele>
        <time>2019-01-08T12:48:29Z</time>
      </trkpt>
      <trkpt lat="37.055302490574" lon="-3.374101574685">
        <ele>3110.2</ele>
        <time>2019-01-08T12:48:30Z</time>
      </trkpt>
      <trkpt lat="37.055307687352" lon="-3.374165947677">
        <ele>3107.6</ele>
        <time>2019-01-08T12:48:31Z</time>
      </trkpt>
      <trkpt lat="37.05529360576" lon="-3.374246246279">
        <ele>3105.4</ele>
        <time>2019-01-08T12:48:32Z</time>
      </trkpt>
      <trkpt lat="37.055302239117" lon="-3.374316235144">
        <ele>3103.2</ele>
        <time>2019-01-08T12:48:33Z</time>
      </trkpt>
      <trkpt lat="37.055320344021" lon="-3.374371220408">
        <ele>3101</ele>
        <time>2019-01-08T12:48:34Z</time>
      </trkpt>
      <trkpt lat="37.055332665414" lon="-3.374429390794">
        <ele>3098.4</ele>
        <time>2019-01-08T12:48:35Z</time>
      </trkpt>
      <trkpt lat="37.055326798084" lon="-3.374505498446">
        <ele>3096</ele>
        <time>2019-01-08T12:48:36Z</time>
      </trkpt>
      <trkpt lat="37.055329815568" lon="-3.374586635238">
        <ele>3093.6</ele>
        <time>2019-01-08T12:48:37Z</time>
      </trkpt>
      <trkpt lat="37.055354877449" lon="-3.374657127017">
        <ele>3091.2</ele>
        <time>2019-01-08T12:48:38Z</time>
      </trkpt>
      <trkpt lat="37.055380861339" lon="-3.37472393076">
        <ele>3088.8</ele>
        <time>2019-01-08T12:48:39Z</time>
      </trkpt>
      <trkpt lat="37.055388153592" lon="-3.374777155825">
        <ele>3086.2</ele>
        <time>2019-01-08T12:48:40Z</time>
      </trkpt>
      <trkpt lat="37.055363678444" lon="-3.374831051442">
        <ele>3083.8</ele>
        <time>2019-01-08T12:48:41Z</time>
      </trkpt>
      <trkpt lat="37.055317494175" lon="-3.374874888779">
        <ele>3081.4</ele>
        <time>2019-01-08T12:48:42Z</time>
      </trkpt>
      <trkpt lat="37.055279691806" lon="-3.374942782169">
        <ele>3079.2</ele>
        <time>2019-01-08T12:48:43Z</time>
      </trkpt>
      <trkpt lat="37.055271645182" lon="-3.375011513749">
        <ele>3076.8</ele>
        <time>2019-01-08T12:48:44Z</time>
      </trkpt>
      <trkpt lat="37.055303077307" lon="-3.375073875085">
        <ele>3074.4</ele>
        <time>2019-01-08T12:48:45Z</time>
      </trkpt>
      <trkpt lat="37.055339454753" lon="-3.375125842865">
        <ele>3071.8</ele>
        <time>2019-01-08T12:48:46Z</time>
      </trkpt>
      <trkpt lat="37.055355045087" lon="-3.375181414862">
        <ele>3069.4</ele>
        <time>2019-01-08T12:48:47Z</time>
      </trkpt>
      <trkpt lat="37.055333084509" lon="-3.375240507257">
        <ele>3067</ele>
        <time>2019-01-08T12:48:48Z</time>
      </trkpt>
      <trkpt lat="37.055325959894" lon="-3.375296833625">
        <ele>3064.8</ele>
        <time>2019-01-08T12:48:49Z</time>
      </trkpt>
      <trkpt lat="37.055353201069" lon="-3.3753492205">
        <ele>3062.8</ele>
        <time>2019-01-08T12:48:50Z</time>
      </trkpt>
      <trkpt lat="37.055384717013" lon="-3.375398338434">
        <ele>3060.2</ele>
        <time>2019-01-08T12:48:51Z</time>
      </trkpt>
      <trkpt lat="37.055398882424" lon="-3.375458939571">
        <ele>3057.6</ele>
        <time>2019-01-08T12:48:52Z</time>
      </trkpt>
      <trkpt lat="37.055391925447" lon="-3.375530353359">
        <ele>3055.2</ele>
        <time>2019-01-08T12:48:53Z</time>
      </trkpt>
      <trkpt lat="37.055417071147" lon="-3.375589445754">
        <ele>3052.8</ele>
        <time>2019-01-08T12:48:54Z</time>
      </trkpt>
      <trkpt lat="37.055468703651" lon="-3.375637641679">
        <ele>3050.4</ele>
        <time>2019-01-08T12:48:55Z</time>
      </trkpt>
      <trkpt lat="37.055528466598" lon="-3.37566857089">
        <ele>3047.2</ele>
        <time>2019-01-08T12:48:56Z</time>
      </trkpt>
      <trkpt lat="37.055563335302" lon="-3.375717605005">
        <ele>3044.2</ele>
        <time>2019-01-08T12:48:57Z</time>
      </trkpt>
      <trkpt lat="37.055566771881" lon="-3.375775440115">
        <ele>3041.4</ele>
        <time>2019-01-08T12:48:58Z</time>
      </trkpt>
      <trkpt lat="37.055574064134" lon="-3.375838388184">
        <ele>3039.4</ele>
        <time>2019-01-08T12:48:59Z</time>
      </trkpt>
      <trkpt lat="37.055594013056" lon="-3.375906952126">
        <ele>3037.4</ele>
        <time>2019-01-08T12:49:00Z</time>
      </trkpt>
      <trkpt lat="37.055604155155" lon="-3.37597870119">
        <ele>3035.2</ele>
        <time>2019-01-08T12:49:01Z</time>
      </trkpt>
      <trkpt lat="37.055595940893" lon="-3.376056066127">
        <ele>3032.8</ele>
        <time>2019-01-08T12:49:02Z</time>
      </trkpt>
      <trkpt lat="37.055609938666" lon="-3.376126557906">
        <ele>3030.4</ele>
        <time>2019-01-08T12:49:03Z</time>
      </trkpt>
      <trkpt lat="37.055642041343" lon="-3.376200653902">
        <ele>3027.6</ele>
        <time>2019-01-08T12:49:04Z</time>
      </trkpt>
      <trkpt lat="37.055663834283" lon="-3.376276174821">
        <ele>3024.4</ele>
        <time>2019-01-08T12:49:05Z</time>
      </trkpt>
      <trkpt lat="37.055673724925" lon="-3.376368878635">
        <ele>3021.4</ele>
        <time>2019-01-08T12:49:06Z</time>
      </trkpt>
      <trkpt lat="37.05569509877" lon="-3.376466611589">
        <ele>3018.4</ele>
        <time>2019-01-08T12:49:07Z</time>
      </trkpt>
      <trkpt lat="37.055734577519" lon="-3.376561494697">
        <ele>3015.6</ele>
        <time>2019-01-08T12:49:08Z</time>
      </trkpt>
      <trkpt lat="37.055744971075" lon="-3.376673057786">
        <ele>3011.8</ele>
        <time>2019-01-08T12:49:09Z</time>
      </trkpt>
      <trkpt lat="37.055719573918" lon="-3.376810688584">
        <ele>3008.2</ele>
        <time>2019-01-08T12:49:10Z</time>
      </trkpt>
      <trkpt lat="37.055710605285" lon="-3.376935159799">
        <ele>3004.4</ele>
        <time>2019-01-08T12:49:11Z</time>
      </trkpt>
      <trkpt lat="37.055718484271" lon="-3.377034066219">
        <ele>3000.4</ele>
        <time>2019-01-08T12:49:12Z</time>
      </trkpt>
      <trkpt lat="37.055706162878" lon="-3.377135822485">
        <ele>2996</ele>
        <time>2019-01-08T12:49:13Z</time>
      </trkpt>
      <trkpt lat="37.055677329142" lon="-3.377229113032">
        <ele>2992</ele>
        <time>2019-01-08T12:49:14Z</time>
      </trkpt>
      <trkpt lat="37.055669533975" lon="-3.377312848213">
        <ele>2988.6</ele>
        <time>2019-01-08T12:49:15Z</time>
      </trkpt>
      <trkpt lat="37.055694595856" lon="-3.377387530942">
        <ele>2986.2</ele>
        <time>2019-01-08T12:49:16Z</time>
      </trkpt>
      <trkpt lat="37.055727201447" lon="-3.377462381309">
        <ele>2983.8</ele>
        <time>2019-01-08T12:49:17Z</time>
      </trkpt>
      <trkpt lat="37.055735080433" lon="-3.377538908056">
        <ele>2981.8</ele>
        <time>2019-01-08T12:49:18Z</time>
      </trkpt>
      <trkpt lat="37.055710018552" lon="-3.377611998224">
        <ele>2979.8</ele>
        <time>2019-01-08T12:49:19Z</time>
      </trkpt>
      <trkpt lat="37.0556758204" lon="-3.377670503886">
        <ele>2977.6</ele>
        <time>2019-01-08T12:49:20Z</time>
      </trkpt>
      <trkpt lat="37.055683112653" lon="-3.37773219467">
        <ele>2975</ele>
        <time>2019-01-08T12:49:21Z</time>
      </trkpt>
      <trkpt lat="37.055717897538" lon="-3.377781480242">
        <ele>2972.6</ele>
        <time>2019-01-08T12:49:22Z</time>
      </trkpt>
      <trkpt lat="37.055750167853" lon="-3.377847948709">
        <ele>2970.4</ele>
        <time>2019-01-08T12:49:23Z</time>
      </trkpt>
      <trkpt lat="37.055791909715" lon="-3.377916931746">
        <ele>2968.2</ele>
        <time>2019-01-08T12:49:24Z</time>
      </trkpt>
      <trkpt lat="37.055843039305" lon="-3.37795850597">
        <ele>2966.2</ele>
        <time>2019-01-08T12:49:25Z</time>
      </trkpt>
      <trkpt lat="37.055899030397" lon="-3.377979628358">
        <ele>2963.8</ele>
        <time>2019-01-08T12:49:26Z</time>
      </trkpt>
      <trkpt lat="37.055938760603" lon="-3.378034697441">
        <ele>2961.4</ele>
        <time>2019-01-08T12:49:27Z</time>
      </trkpt>
      <trkpt lat="37.055972623479" lon="-3.378116337147">
        <ele>2958.8</ele>
        <time>2019-01-08T12:49:28Z</time>
      </trkpt>
      <trkpt lat="37.05602618382" lon="-3.378164197796">
        <ele>2956.8</ele>
        <time>2019-01-08T12:49:29Z</time>
      </trkpt>
      <trkpt lat="37.056086449681" lon="-3.378197809215">
        <ele>2954.8</ele>
        <time>2019-01-08T12:49:30Z</time>
      </trkpt>
      <trkpt lat="37.056125257878" lon="-3.378253213574">
        <ele>2952.2</ele>
        <time>2019-01-08T12:49:31Z</time>
      </trkpt>
      <trkpt lat="37.056174375812" lon="-3.37830048749">
        <ele>2950</ele>
        <time>2019-01-08T12:49:32Z</time>
      </trkpt>
      <trkpt lat="37.05622232028" lon="-3.378355305116">
        <ele>2948</ele>
        <time>2019-01-08T12:49:33Z</time>
      </trkpt>
      <trkpt lat="37.056254003862" lon="-3.378430826035">
        <ele>2946</ele>
        <time>2019-01-08T12:49:34Z</time>
      </trkpt>
      <trkpt lat="37.056278646648" lon="-3.378502910375">
        <ele>2943.6</ele>
        <time>2019-01-08T12:49:35Z</time>
      </trkpt>
      <trkpt lat="37.056320639967" lon="-3.378549262282">
        <ele>2941</ele>
        <time>2019-01-08T12:49:36Z</time>
      </trkpt>
      <trkpt lat="37.056372104833" lon="-3.378600140415">
        <ele>2938.8</ele>
        <time>2019-01-08T12:49:37Z</time>
      </trkpt>
      <trkpt lat="37.05642432407" lon="-3.378650431815">
        <ele>2936.6</ele>
        <time>2019-01-08T12:49:38Z</time>
      </trkpt>
      <trkpt lat="37.056473022909" lon="-3.378692592772">
        <ele>2934.2</ele>
        <time>2019-01-08T12:49:39Z</time>
      </trkpt>
      <trkpt lat="37.056523984861" lon="-3.378737855032">
        <ele>2931.8</ele>
        <time>2019-01-08T12:49:40Z</time>
      </trkpt>
      <trkpt lat="37.056583663989" lon="-3.378804658775">
        <ele>2928.6</ele>
        <time>2019-01-08T12:49:41Z</time>
      </trkpt>
      <trkpt lat="37.05665817908" lon="-3.378884957377">
        <ele>2925.6</ele>
        <time>2019-01-08T12:49:42Z</time>
      </trkpt>
      <trkpt lat="37.056736382207" lon="-3.378982103598">
        <ele>2922</ele>
        <time>2019-01-08T12:49:43Z</time>
      </trkpt>
      <trkpt lat="37.056813747144" lon="-3.379107496822">
        <ele>2918.4</ele>
        <time>2019-01-08T12:49:44Z</time>
      </trkpt>
      <trkpt lat="37.056904858397" lon="-3.379223921413">
        <ele>2914.8</ele>
        <time>2019-01-08T12:49:45Z</time>
      </trkpt>
      <trkpt lat="37.057023294644" lon="-3.379310171164">
        <ele>2910.4</ele>
        <time>2019-01-08T12:49:46Z</time>
      </trkpt>
      <trkpt lat="37.057133013715" lon="-3.379393235793">
        <ele>2905.6</ele>
        <time>2019-01-08T12:49:47Z</time>
      </trkpt>
      <trkpt lat="37.057239966759" lon="-3.379507313452">
        <ele>2900.6</ele>
        <time>2019-01-08T12:49:48Z</time>
      </trkpt>
      <trkpt lat="37.057361252852" lon="-3.37959632923">
        <ele>2896.8</ele>
        <time>2019-01-08T12:49:49Z</time>
      </trkpt>
      <trkpt lat="37.057495698528" lon="-3.379652152684">
        <ele>2893.8</ele>
        <time>2019-01-08T12:49:50Z</time>
      </trkpt>
      <trkpt lat="37.057635843896" lon="-3.379712921459">
        <ele>2890.6</ele>
        <time>2019-01-08T12:49:51Z</time>
      </trkpt>
      <trkpt lat="37.057769032287" lon="-3.379816940838">
        <ele>2887.4</ele>
        <time>2019-01-08T12:49:52Z</time>
      </trkpt>
      <trkpt lat="37.057895096063" lon="-3.379925570262">
        <ele>2884.4</ele>
        <time>2019-01-08T12:49:53Z</time>
      </trkpt>
      <trkpt lat="37.058030547567" lon="-3.38000452776">
        <ele>2881.8</ele>
        <time>2019-01-08T12:49:54Z</time>
      </trkpt>
      <trkpt lat="37.058162143397" lon="-3.380069990399">
        <ele>2878.8</ele>
        <time>2019-01-08T12:49:55Z</time>
      </trkpt>
      <trkpt lat="37.058276472513" lon="-3.380150121363">
        <ele>2875.6</ele>
        <time>2019-01-08T12:49:56Z</time>
      </trkpt>
      <trkpt lat="37.058372696725" lon="-3.380243328091">
        <ele>2872.8</ele>
        <time>2019-01-08T12:49:57Z</time>
      </trkpt>
      <trkpt lat="37.058454755526" lon="-3.380338714113">
        <ele>2871</ele>
        <time>2019-01-08T12:49:58Z</time>
      </trkpt>
      <trkpt lat="37.058536814327" lon="-3.380430998832">
        <ele>2869.8</ele>
        <time>2019-01-08T12:49:59Z</time>
      </trkpt>
      <trkpt lat="37.05869078983" lon="-3.380604587981">
        <ele>2868.6</ele>
        <time>2019-01-08T12:50:01Z</time>
      </trkpt>
      <trkpt lat="37.058847782817" lon="-3.380745990634">
        <ele>2867.4</ele>
        <time>2019-01-08T12:50:03Z</time>
      </trkpt>
      <trkpt lat="37.058996058628" lon="-3.380838191534">
        <ele>2866.6</ele>
        <time>2019-01-08T12:50:05Z</time>
      </trkpt>
      <trkpt lat="37.059115249246" lon="-3.381043212808">
        <ele>2866</ele>
        <time>2019-01-08T12:50:07Z</time>
      </trkpt>
      <trkpt lat="37.059170150691" lon="-3.381179837778">
        <ele>2865</ele>
        <time>2019-01-08T12:50:08Z</time>
      </trkpt>
      <trkpt lat="37.059220609729" lon="-3.381330711978">
        <ele>2863.2</ele>
        <time>2019-01-08T12:50:09Z</time>
      </trkpt>
      <trkpt lat="37.059272828966" lon="-3.38148644768">
        <ele>2861.2</ele>
        <time>2019-01-08T12:50:10Z</time>
      </trkpt>
      <trkpt lat="37.059326892221" lon="-3.381652325481">
        <ele>2858.6</ele>
        <time>2019-01-08T12:50:11Z</time>
      </trkpt>
      <trkpt lat="37.059377770354" lon="-3.381819628205">
        <ele>2856</ele>
        <time>2019-01-08T12:50:12Z</time>
      </trkpt>
      <trkpt lat="37.059417332922" lon="-3.381998917046">
        <ele>2853.4</ele>
        <time>2019-01-08T12:50:13Z</time>
      </trkpt>
      <trkpt lat="37.059447340124" lon="-3.382186755425">
        <ele>2850.8</ele>
        <time>2019-01-08T12:50:14Z</time>
      </trkpt>
      <trkpt lat="37.059479778077" lon="-3.382365373714">
        <ele>2848.4</ele>
        <time>2019-01-08T12:50:15Z</time>
      </trkpt>
      <trkpt lat="37.059514982057" lon="-3.382538627587">
        <ele>2846.2</ele>
        <time>2019-01-08T12:50:16Z</time>
      </trkpt>
      <trkpt lat="37.059551191865" lon="-3.382703248103">
        <ele>2844.2</ele>
        <time>2019-01-08T12:50:17Z</time>
      </trkpt>
      <trkpt lat="37.05959603503" lon="-3.38285269738">
        <ele>2842.6</ele>
        <time>2019-01-08T12:50:18Z</time>
      </trkpt>
      <trkpt lat="37.0596404591" lon="-3.382990411997">
        <ele>2841.6</ele>
        <time>2019-01-08T12:50:19Z</time>
      </trkpt>
      <trkpt lat="37.059660491841" lon="-3.383118655067">
        <ele>2841</ele>
        <time>2019-01-08T12:50:20Z</time>
      </trkpt>
      <trkpt lat="37.059665185705" lon="-3.38324999944">
        <ele>2840.6</ele>
        <time>2019-01-08T12:50:21Z</time>
      </trkpt>
      <trkpt lat="37.059697288382" lon="-3.383358461226">
        <ele>2840.2</ele>
        <time>2019-01-08T12:50:22Z</time>
      </trkpt>
      <trkpt lat="37.059757051329" lon="-3.383565913251">
        <ele>2839</ele>
        <time>2019-01-08T12:50:24Z</time>
      </trkpt>
      <trkpt lat="37.059816814276" lon="-3.383783591194">
        <ele>2837</ele>
        <time>2019-01-08T12:50:26Z</time>
      </trkpt>
      <trkpt lat="37.05983827194" lon="-3.383894986645">
        <ele>2835.4</ele>
        <time>2019-01-08T12:50:27Z</time>
      </trkpt>
      <trkpt lat="37.059856963577" lon="-3.384015434548">
        <ele>2833.6</ele>
        <time>2019-01-08T12:50:28Z</time>
      </trkpt>
      <trkpt lat="37.059884540028" lon="-3.384122471411">
        <ele>2831.6</ele>
        <time>2019-01-08T12:50:29Z</time>
      </trkpt>
      <trkpt lat="37.059904069855" lon="-3.384236129975">
        <ele>2829.8</ele>
        <time>2019-01-08T12:50:30Z</time>
      </trkpt>
      <trkpt lat="37.059909685728" lon="-3.384364121588">
        <ele>2828</ele>
        <time>2019-01-08T12:50:31Z</time>
      </trkpt>
      <trkpt lat="37.059901890561" lon="-3.38449303521">
        <ele>2825.8</ele>
        <time>2019-01-08T12:50:32Z</time>
      </trkpt>
      <trkpt lat="37.059869955522" lon="-3.384617422606">
        <ele>2823.2</ele>
        <time>2019-01-08T12:50:33Z</time>
      </trkpt>
      <trkpt lat="37.059819580303" lon="-3.384735020663">
        <ele>2820.4</ele>
        <time>2019-01-08T12:50:34Z</time>
      </trkpt>
      <trkpt lat="37.059750094352" lon="-3.384840381146">
        <ele>2817.4</ele>
        <time>2019-01-08T12:50:35Z</time>
      </trkpt>
      <trkpt lat="37.05967566308" lon="-3.384916991712">
        <ele>2814.8</ele>
        <time>2019-01-08T12:50:36Z</time>
      </trkpt>
      <trkpt lat="37.059610954812" lon="-3.384988321681">
        <ele>2812.2</ele>
        <time>2019-01-08T12:50:37Z</time>
      </trkpt>
      <trkpt lat="37.059551862417" lon="-3.385015981951">
        <ele>2810</ele>
        <time>2019-01-08T12:50:38Z</time>
      </trkpt>
      <trkpt lat="37.059497882981" lon="-3.385027046059">
        <ele>2808.6</ele>
        <time>2019-01-08T12:50:39Z</time>
      </trkpt>
      <trkpt lat="37.059461337897" lon="-3.38505797527">
        <ele>2807.6</ele>
        <time>2019-01-08T12:50:40Z</time>
      </trkpt>
      <trkpt lat="37.059425379546" lon="-3.385088233929">
        <ele>2806.8</ele>
        <time>2019-01-08T12:50:41Z</time>
      </trkpt>
      <trkpt lat="37.059385816978" lon="-3.385108769584">
        <ele>2806.2</ele>
        <time>2019-01-08T12:50:42Z</time>
      </trkpt>
      <trkpt lat="37.059355306862" lon="-3.385132825637">
        <ele>2805.6</ele>
        <time>2019-01-08T12:50:43Z</time>
      </trkpt>
      <trkpt lat="37.05931691776" lon="-3.385150259989">
        <ele>2804.8</ele>
        <time>2019-01-08T12:50:44Z</time>
      </trkpt>
      <trkpt lat="37.059274589165" lon="-3.385172891119">
        <ele>2804</ele>
        <time>2019-01-08T12:50:45Z</time>
      </trkpt>
      <trkpt lat="37.059248018542" lon="-3.385241287423">
        <ele>2802.2</ele>
        <time>2019-01-08T12:50:47Z</time>
      </trkpt>
      <trkpt lat="37.059219939177" lon="-3.385261068707">
        <ele>2801.2</ele>
        <time>2019-01-08T12:50:48Z</time>
      </trkpt>
      <trkpt lat="37.059180711885" lon="-3.385271294625">
        <ele>2800.4</ele>
        <time>2019-01-08T12:50:49Z</time>
      </trkpt>
      <trkpt lat="37.059151207597" lon="-3.385305911872">
        <ele>2799.6</ele>
        <time>2019-01-08T12:50:50Z</time>
      </trkpt>
      <trkpt lat="37.059128744105" lon="-3.385360058946">
        <ele>2798.6</ele>
        <time>2019-01-08T12:50:51Z</time>
      </trkpt>
      <trkpt lat="37.059098485446" lon="-3.385404399197">
        <ele>2797.6</ele>
        <time>2019-01-08T12:50:52Z</time>
      </trkpt>
      <trkpt lat="37.059056743584" lon="-3.385428036155">
        <ele>2796.2</ele>
        <time>2019-01-08T12:50:53Z</time>
      </trkpt>
      <trkpt lat="37.059016929559" lon="-3.385461563755">
        <ele>2794.4</ele>
        <time>2019-01-08T12:50:54Z</time>
      </trkpt>
      <trkpt lat="37.058975858249" lon="-3.385505987825">
        <ele>2792.6</ele>
        <time>2019-01-08T12:50:55Z</time>
      </trkpt>
      <trkpt lat="37.058923136098" lon="-3.385540940348">
        <ele>2790.8</ele>
        <time>2019-01-08T12:50:56Z</time>
      </trkpt>
      <trkpt lat="37.058877538562" lon="-3.385540437434">
        <ele>2788.8</ele>
        <time>2019-01-08T12:50:57Z</time>
      </trkpt>
      <trkpt lat="37.058841915487" lon="-3.385558709976">
        <ele>2787</ele>
        <time>2019-01-08T12:50:58Z</time>
      </trkpt>
      <trkpt lat="37.058819284357" lon="-3.385602966408">
        <ele>2785.4</ele>
        <time>2019-01-08T12:50:59Z</time>
      </trkpt>
      <trkpt lat="37.058798664883" lon="-3.385640265863">
        <ele>2783.8</ele>
        <time>2019-01-08T12:51:00Z</time>
      </trkpt>
      <trkpt lat="37.058763963817" lon="-3.385671362712">
        <ele>2782.6</ele>
        <time>2019-01-08T12:51:01Z</time>
      </trkpt>
      <trkpt lat="37.058734291891" lon="-3.385718385171">
        <ele>2781.2</ele>
        <time>2019-01-08T12:51:02Z</time>
      </trkpt>
      <trkpt lat="37.058708810915" lon="-3.385774879177">
        <ele>2779.4</ele>
        <time>2019-01-08T12:51:03Z</time>
      </trkpt>
      <trkpt lat="37.058664135388" lon="-3.385822069274">
        <ele>2776.8</ele>
        <time>2019-01-08T12:51:04Z</time>
      </trkpt>
      <trkpt lat="37.058606803192" lon="-3.385852327933">
        <ele>2774</ele>
        <time>2019-01-08T12:51:05Z</time>
      </trkpt>
      <trkpt lat="37.05856589952" lon="-3.385897590193">
        <ele>2771.2</ele>
        <time>2019-01-08T12:51:06Z</time>
      </trkpt>
      <trkpt lat="37.058551734109" lon="-3.385964645393">
        <ele>2768.6</ele>
        <time>2019-01-08T12:51:07Z</time>
      </trkpt>
      <trkpt lat="37.058536814327" lon="-3.386030191851">
        <ele>2766</ele>
        <time>2019-01-08T12:51:08Z</time>
      </trkpt>
      <trkpt lat="37.058494234275" lon="-3.386071933713">
        <ele>2763.6</ele>
        <time>2019-01-08T12:51:09Z</time>
      </trkpt>
      <trkpt lat="37.058428771636" lon="-3.386088781332">
        <ele>2761.2</ele>
        <time>2019-01-08T12:51:10Z</time>
      </trkpt>
      <trkpt lat="37.058386359222" lon="-3.386124823502">
        <ele>2758.6</ele>
        <time>2019-01-08T12:51:11Z</time>
      </trkpt>
      <trkpt lat="37.058376384761" lon="-3.386187520114">
        <ele>2756</ele>
        <time>2019-01-08T12:51:12Z</time>
      </trkpt>
      <trkpt lat="37.058394489665" lon="-3.386246780147">
        <ele>2753.4</ele>
        <time>2019-01-08T12:51:13Z</time>
      </trkpt>
      <trkpt lat="37.058413851854" lon="-3.386278212272">
        <ele>2750.8</ele>
        <time>2019-01-08T12:51:14Z</time>
      </trkpt>
      <trkpt lat="37.058419132451" lon="-3.386283325231">
        <ele>2748.2</ele>
        <time>2019-01-08T12:51:15Z</time>
      </trkpt>
      <trkpt lat="37.058403877393" lon="-3.386272847856">
        <ele>2745.8</ele>
        <time>2019-01-08T12:51:16Z</time>
      </trkpt>
      <trkpt lat="37.058392142733" lon="-3.386265639422">
        <ele>2744.2</ele>
        <time>2019-01-08T12:51:17Z</time>
      </trkpt>
      <trkpt lat="37.058366745576" lon="-3.386294473158">
        <ele>2742.8</ele>
        <time>2019-01-08T12:51:19Z</time>
      </trkpt>
      <trkpt lat="37.058298600729" lon="-3.386315930822">
        <ele>2741.6</ele>
        <time>2019-01-08T12:51:21Z</time>
      </trkpt>
      <trkpt lat="37.058244286017" lon="-3.386370329353">
        <ele>2739.8</ele>
        <time>2019-01-08T12:51:23Z</time>
      </trkpt>
      <trkpt lat="37.058230372063" lon="-3.386418441459">
        <ele>2738.6</ele>
        <time>2019-01-08T12:51:24Z</time>
      </trkpt>
      <trkpt lat="37.058202795612" lon="-3.386460183321">
        <ele>2737.2</ele>
        <time>2019-01-08T12:51:25Z</time>
      </trkpt>
      <trkpt lat="37.058164741786" lon="-3.38649044198">
        <ele>2735.4</ele>
        <time>2019-01-08T12:51:26Z</time>
      </trkpt>
      <trkpt lat="37.058143619398" lon="-3.386537548258">
        <ele>2733.4</ele>
        <time>2019-01-08T12:51:27Z</time>
      </trkpt>
      <trkpt lat="37.058143032665" lon="-3.386591108599">
        <ele>2731.6</ele>
        <time>2019-01-08T12:51:28Z</time>
      </trkpt>
      <trkpt lat="37.05815015728" lon="-3.386645171854">
        <ele>2729.6</ele>
        <time>2019-01-08T12:51:29Z</time>
      </trkpt>
      <trkpt lat="37.05814345176" lon="-3.386699738023">
        <ele>2727.6</ele>
        <time>2019-01-08T12:51:30Z</time>
      </trkpt>
      <trkpt lat="37.058116210585" lon="-3.386750867613">
        <ele>2725.6</ele>
        <time>2019-01-08T12:51:31Z</time>
      </trkpt>
      <trkpt lat="37.058100536432" lon="-3.386813312768">
        <ele>2723.4</ele>
        <time>2019-01-08T12:51:32Z</time>
      </trkpt>
      <trkpt lat="37.058103470097" lon="-3.38688690585">
        <ele>2721.4</ele>
        <time>2019-01-08T12:51:33Z</time>
      </trkpt>
      <trkpt lat="37.05808310208" lon="-3.386966282443">
        <ele>2719</ele>
        <time>2019-01-08T12:51:34Z</time>
      </trkpt>
      <trkpt lat="37.058039013286" lon="-3.387069379813">
        <ele>2716.4</ele>
        <time>2019-01-08T12:51:35Z</time>
      </trkpt>
      <trkpt lat="37.058001462374" lon="-3.387197539064">
        <ele>2713.4</ele>
        <time>2019-01-08T12:51:36Z</time>
      </trkpt>
      <trkpt lat="37.057967180403" lon="-3.387349419092">
        <ele>2709.6</ele>
        <time>2019-01-08T12:51:37Z</time>
      </trkpt>
      <trkpt lat="37.057925354722" lon="-3.387515632169">
        <ele>2705.2</ele>
        <time>2019-01-08T12:51:38Z</time>
      </trkpt>
      <trkpt lat="37.057862993386" lon="-3.38768402454">
        <ele>2700.8</ele>
        <time>2019-01-08T12:51:39Z</time>
      </trkpt>
      <trkpt lat="37.057808343398" lon="-3.387845627572">
        <ele>2697.2</ele>
        <time>2019-01-08T12:51:40Z</time>
      </trkpt>
      <trkpt lat="37.057776492178" lon="-3.387985689121">
        <ele>2694.4</ele>
        <time>2019-01-08T12:51:41Z</time>
      </trkpt>
      <trkpt lat="37.057755705066" lon="-3.388107561947">
        <ele>2693</ele>
        <time>2019-01-08T12:51:42Z</time>
      </trkpt>
      <trkpt lat="37.057763835509" lon="-3.388751794781">
        <ele>2693.2</ele>
        <time>2019-01-08T12:51:48Z</time>
      </trkpt>
      <trkpt lat="37.057786634277" lon="-3.388873248512">
        <ele>2693</ele>
        <time>2019-01-08T12:51:49Z</time>
      </trkpt>
      <trkpt lat="37.057818736954" lon="-3.388998977012">
        <ele>2691.8</ele>
        <time>2019-01-08T12:51:50Z</time>
      </trkpt>
      <trkpt lat="37.057866346146" lon="-3.389103583124">
        <ele>2690.4</ele>
        <time>2019-01-08T12:51:51Z</time>
      </trkpt>
      <trkpt lat="37.057902472135" lon="-3.389209446521">
        <ele>2688.8</ele>
        <time>2019-01-08T12:51:52Z</time>
      </trkpt>
      <trkpt lat="37.057944549273" lon="-3.389319500868">
        <ele>2687.2</ele>
        <time>2019-01-08T12:51:53Z</time>
      </trkpt>
      <trkpt lat="37.058000037451" lon="-3.389414300157">
        <ele>2685.6</ele>
        <time>2019-01-08T12:51:54Z</time>
      </trkpt>
      <trkpt lat="37.058046892272" lon="-3.389513290396">
        <ele>2684</ele>
        <time>2019-01-08T12:51:55Z</time>
      </trkpt>
      <trkpt lat="37.0580646619" lon="-3.389634911765">
        <ele>2682.6</ele>
        <time>2019-01-08T12:51:56Z</time>
      </trkpt>
      <trkpt lat="37.058085365193" lon="-3.389763071016">
        <ele>2680.8</ele>
        <time>2019-01-08T12:51:57Z</time>
      </trkpt>
      <trkpt lat="37.058126771779" lon="-3.389882848367">
        <ele>2679</ele>
        <time>2019-01-08T12:51:58Z</time>
      </trkpt>
      <trkpt lat="37.058157365714" lon="-3.390004721193">
        <ele>2676.4</ele>
        <time>2019-01-08T12:51:59Z</time>
      </trkpt>
      <trkpt lat="37.058150408737" lon="-3.390130533512">
        <ele>2673.4</ele>
        <time>2019-01-08T12:52:00Z</time>
      </trkpt>
      <trkpt lat="37.058138003525" lon="-3.390253160709">
        <ele>2670.6</ele>
        <time>2019-01-08T12:52:01Z</time>
      </trkpt>
      <trkpt lat="37.058142110656" lon="-3.39036790892">
        <ele>2668.2</ele>
        <time>2019-01-08T12:52:02Z</time>
      </trkpt>
      <trkpt lat="37.058149654366" lon="-3.390464384589">
        <ele>2665.2</ele>
        <time>2019-01-08T12:52:03Z</time>
      </trkpt>
      <trkpt lat="37.0581317171" lon="-3.390557423679">
        <ele>2662</ele>
        <time>2019-01-08T12:52:04Z</time>
      </trkpt>
      <trkpt lat="37.058111013807" lon="-3.390659682859">
        <ele>2659.2</ele>
        <time>2019-01-08T12:52:05Z</time>
      </trkpt>
      <trkpt lat="37.058120066259" lon="-3.390752889587">
        <ele>2656.6</ele>
        <time>2019-01-08T12:52:06Z</time>
      </trkpt>
      <trkpt lat="37.058159209732" lon="-3.390827991411">
        <ele>2654</ele>
        <time>2019-01-08T12:52:07Z</time>
      </trkpt>
      <trkpt lat="37.058210423141" lon="-3.390892280584">
        <ele>2651</ele>
        <time>2019-01-08T12:52:08Z</time>
      </trkpt>
      <trkpt lat="37.058267000966" lon="-3.390966208942">
        <ele>2648</ele>
        <time>2019-01-08T12:52:09Z</time>
      </trkpt>
      <trkpt lat="37.058319555479" lon="-3.391065953552">
        <ele>2645.8</ele>
        <time>2019-01-08T12:52:10Z</time>
      </trkpt>
      <trkpt lat="37.058364482463" lon="-3.391191095319">
        <ele>2643.8</ele>
        <time>2019-01-08T12:52:11Z</time>
      </trkpt>
      <trkpt lat="37.058411169646" lon="-3.391322020597">
        <ele>2641.8</ele>
        <time>2019-01-08T12:52:12Z</time>
      </trkpt>
      <trkpt lat="37.058455509897" lon="-3.391472224245">
        <ele>2639</ele>
        <time>2019-01-08T12:52:13Z</time>
      </trkpt>
      <trkpt lat="37.058486355289" lon="-3.391637263856">
        <ele>2636.2</ele>
        <time>2019-01-08T12:52:14Z</time>
      </trkpt>
      <trkpt lat="37.058508315867" lon="-3.391807500245">
        <ele>2633.4</ele>
        <time>2019-01-08T12:52:15Z</time>
      </trkpt>
      <trkpt lat="37.058519882889" lon="-3.391992404959">
        <ele>2631</ele>
        <time>2019-01-08T12:52:16Z</time>
      </trkpt>
      <trkpt lat="37.058529522074" lon="-3.392178818415">
        <ele>2628.2</ele>
        <time>2019-01-08T12:52:17Z</time>
      </trkpt>
      <trkpt lat="37.058541508191" lon="-3.392360202731">
        <ele>2625.2</ele>
        <time>2019-01-08T12:52:18Z</time>
      </trkpt>
      <trkpt lat="37.058551398833" lon="-3.392536557907">
        <ele>2622.6</ele>
        <time>2019-01-08T12:52:19Z</time>
      </trkpt>
      <trkpt lat="37.058564474597" lon="-3.392710314694">
        <ele>2620.6</ele>
        <time>2019-01-08T12:52:20Z</time>
      </trkpt>
      <trkpt lat="37.058589536478" lon="-3.392863787283">
        <ele>2619.2</ele>
        <time>2019-01-08T12:52:21Z</time>
      </trkpt>
      <trkpt lat="37.058596828731" lon="-3.393003765013">
        <ele>2618</ele>
        <time>2019-01-08T12:52:22Z</time>
      </trkpt>
      <trkpt lat="37.058583752967" lon="-3.393135277024">
        <ele>2617</ele>
        <time>2019-01-08T12:52:23Z</time>
      </trkpt>
      <trkpt lat="37.058585094071" lon="-3.39325714985">
        <ele>2616</ele>
        <time>2019-01-08T12:52:24Z</time>
      </trkpt>
      <trkpt lat="37.058607557563" lon="-3.39336276179">
        <ele>2615.2</ele>
        <time>2019-01-08T12:52:25Z</time>
      </trkpt>
      <trkpt lat="37.058653993289" lon="-3.393438115071">
        <ele>2614.4</ele>
        <time>2019-01-08T12:52:26Z</time>
      </trkpt>
      <trkpt lat="37.058707469811" lon="-3.393483712607">
        <ele>2613.8</ele>
        <time>2019-01-08T12:52:27Z</time>
      </trkpt>
      <trkpt lat="37.058750385139" lon="-3.39349771038">
        <ele>2613.2</ele>
        <time>2019-01-08T12:52:28Z</time>
      </trkpt>
      <trkpt lat="37.058765807835" lon="-3.393476252716">
        <ele>2612.8</ele>
        <time>2019-01-08T12:52:34Z</time>
      </trkpt>
      <trkpt lat="37.058765807835" lon="-3.393476252716">
        <ele>2612.8</ele>
        <time>2019-01-08T12:52:35Z</time>
      </trkpt>
      <trkpt lat="37.058892374525" lon="-3.393183053854">
        <ele>2613.2</ele>
        <time>2019-01-08T12:53:43Z</time>
      </trkpt>
      <trkpt lat="37.058837389261" lon="-3.392874432296">
        <ele>2613.4</ele>
        <time>2019-01-08T12:53:49Z</time>
      </trkpt>
      <trkpt lat="37.058808723163" lon="-3.392726659399">
        <ele>2615.2</ele>
        <time>2019-01-08T12:53:52Z</time>
      </trkpt>
      <trkpt lat="37.058800760358" lon="-3.39267796056">
        <ele>2616.4</ele>
        <time>2019-01-08T12:53:53Z</time>
      </trkpt>
      <trkpt lat="37.056863703268" lon="-3.380532084546">
        <ele>2900.4</ele>
        <time>2019-01-08T12:59:18Z</time>
      </trkpt>
      <trkpt lat="37.056820285026" lon="-3.380256655312">
        <ele>2900.8</ele>
        <time>2019-01-08T12:59:24Z</time>
      </trkpt>
      <trkpt lat="37.056790529281" lon="-3.380073175521">
        <ele>2901.6</ele>
        <time>2019-01-08T12:59:28Z</time>
      </trkpt>
      <trkpt lat="37.056753062188" lon="-3.379841751262">
        <ele>2903</ele>
        <time>2019-01-08T12:59:33Z</time>
      </trkpt>
      <trkpt lat="37.056729006135" lon="-3.379702946998">
        <ele>2904</ele>
        <time>2019-01-08T12:59:36Z</time>
      </trkpt>
      <trkpt lat="37.056714756905" lon="-3.379614098858">
        <ele>2905.2</ele>
        <time>2019-01-08T12:59:38Z</time>
      </trkpt>
      <trkpt lat="37.056693299241" lon="-3.379484179408">
        <ele>2906.4</ele>
        <time>2019-01-08T12:59:41Z</time>
      </trkpt>
      <trkpt lat="37.056653233759" lon="-3.379208833993">
        <ele>2907</ele>
        <time>2019-01-08T12:59:47Z</time>
      </trkpt>
      <trkpt lat="37.056631943733" lon="-3.37903390374">
        <ele>2907.6</ele>
        <time>2019-01-08T12:59:51Z</time>
      </trkpt>
      <trkpt lat="37.056615515209" lon="-3.378949078912">
        <ele>2909.2</ele>
        <time>2019-01-08T12:59:53Z</time>
      </trkpt>
      <trkpt lat="37.054237318722" lon="-3.368576980576">
        <ele>3306.4</ele>
        <time>2019-01-08T13:04:31Z</time>
      </trkpt>
      <trkpt lat="37.054042104271" lon="-3.368655183703">
        <ele>3305.4</ele>
        <time>2019-01-08T13:04:37Z</time>
      </trkpt>
      <trkpt lat="37.053903216188" lon="-3.368711677709">
        <ele>3304.2</ele>
        <time>2019-01-08T13:04:41Z</time>
      </trkpt>
      <trkpt lat="37.053843788517" lon="-3.368751407915">
        <ele>3303</ele>
        <time>2019-01-08T13:04:43Z</time>
      </trkpt>
      <trkpt lat="37.053780002258" lon="-3.368761130919">
        <ele>3301.6</ele>
        <time>2019-01-08T13:04:46Z</time>
      </trkpt>
      <trkpt lat="37.053772542367" lon="-3.368755263589">
        <ele>3300.8</ele>
        <time>2019-01-08T13:04:48Z</time>
      </trkpt>
      <trkpt lat="37.053552601311" lon="-3.368877723148">
        <ele>3299</ele>
        <time>2019-01-08T13:05:14Z</time>
      </trkpt>
      <trkpt lat="37.053511194725" lon="-3.368910747834">
        <ele>3299</ele>
        <time>2019-01-08T13:05:16Z</time>
      </trkpt>
      <trkpt lat="37.053452269968" lon="-3.368979311776">
        <ele>3298.8</ele>
        <time>2019-01-08T13:05:18Z</time>
      </trkpt>
      <trkpt lat="37.053358141231" lon="-3.369027256244">
        <ele>3298.2</ele>
        <time>2019-01-08T13:05:20Z</time>
      </trkpt>
      <trkpt lat="37.053319081577" lon="-3.369065980622">
        <ele>3297.8</ele>
        <time>2019-01-08T13:05:21Z</time>
      </trkpt>
      <trkpt lat="37.053278345543" lon="-3.369099256765">
        <ele>3297</ele>
        <time>2019-01-08T13:05:22Z</time>
      </trkpt>
      <trkpt lat="37.053234340568" lon="-3.369131443261">
        <ele>3296.2</ele>
        <time>2019-01-08T13:05:23Z</time>
      </trkpt>
      <trkpt lat="37.053191760516" lon="-3.369171508743">
        <ele>3295.4</ele>
        <time>2019-01-08T13:05:24Z</time>
      </trkpt>
      <trkpt lat="37.053144905695" lon="-3.369214340252">
        <ele>3294.6</ele>
        <time>2019-01-08T13:05:25Z</time>
      </trkpt>
      <trkpt lat="37.053079023961" lon="-3.369254824829">
        <ele>3293.6</ele>
        <time>2019-01-08T13:05:26Z</time>
      </trkpt>
      <trkpt lat="37.053003335404" lon="-3.369297069605">
        <ele>3292.6</ele>
        <time>2019-01-08T13:05:27Z</time>
      </trkpt>
      <trkpt lat="37.05291398435" lon="-3.369326322436">
        <ele>3291</ele>
        <time>2019-01-08T13:05:28Z</time>
      </trkpt>
      <trkpt lat="37.052819352699" lon="-3.369357503104">
        <ele>3289</ele>
        <time>2019-01-08T13:05:29Z</time>
      </trkpt>
      <trkpt lat="37.052737712993" lon="-3.369405028477">
        <ele>3286.4</ele>
        <time>2019-01-08T13:05:30Z</time>
      </trkpt>
      <trkpt lat="37.05266085097" lon="-3.369468144184">
        <ele>3284</ele>
        <time>2019-01-08T13:05:31Z</time>
      </trkpt>
      <trkpt lat="37.052591700295" lon="-3.36954559294">
        <ele>3281.6</ele>
        <time>2019-01-08T13:05:32Z</time>
      </trkpt>
      <trkpt lat="37.05252254962" lon="-3.369635866003">
        <ele>3279.6</ele>
        <time>2019-01-08T13:05:33Z</time>
      </trkpt>
      <trkpt lat="37.052449543271" lon="-3.369733598957">
        <ele>3278</ele>
        <time>2019-01-08T13:05:34Z</time>
      </trkpt>
      <trkpt lat="37.052369077031" lon="-3.369836947784">
        <ele>3276.6</ele>
        <time>2019-01-08T13:05:35Z</time>
      </trkpt>
      <trkpt lat="37.052287940239" lon="-3.369947672683">
        <ele>3275</ele>
        <time>2019-01-08T13:05:36Z</time>
      </trkpt>
      <trkpt lat="37.052208396008" lon="-3.370063678179">
        <ele>3272.8</ele>
        <time>2019-01-08T13:05:37Z</time>
      </trkpt>
      <trkpt lat="37.052119212592" lon="-3.370171637051">
        <ele>3270</ele>
        <time>2019-01-08T13:05:38Z</time>
      </trkpt>
      <trkpt lat="37.05203639942" lon="-3.370285044158">
        <ele>3267</ele>
        <time>2019-01-08T13:05:39Z</time>
      </trkpt>
      <trkpt lat="37.051953586248" lon="-3.370399540912">
        <ele>3264.2</ele>
        <time>2019-01-08T13:05:40Z</time>
      </trkpt>
      <trkpt lat="37.051874209655" lon="-3.370513450933">
        <ele>3262.2</ele>
        <time>2019-01-08T13:05:41Z</time>
      </trkpt>
      <trkpt lat="37.051808327921" lon="-3.370634485569">
        <ele>3261</ele>
        <time>2019-01-08T13:05:42Z</time>
      </trkpt>
      <trkpt lat="37.051755438132" lon="-3.370749149961">
        <ele>3259.6</ele>
        <time>2019-01-08T13:05:43Z</time>
      </trkpt>
      <trkpt lat="37.05169106514" lon="-3.370848894571">
        <ele>3258.4</ele>
        <time>2019-01-08T13:05:44Z</time>
      </trkpt>
      <trkpt lat="37.051631888926" lon="-3.370930534277">
        <ele>3257</ele>
        <time>2019-01-08T13:05:45Z</time>
      </trkpt>
      <trkpt lat="37.05157539492" lon="-3.370995074907">
        <ele>3255.8</ele>
        <time>2019-01-08T13:05:46Z</time>
      </trkpt>
      <trkpt lat="37.051512195394" lon="-3.371047797058">
        <ele>3254.6</ele>
        <time>2019-01-08T13:05:47Z</time>
      </trkpt>
      <trkpt lat="37.051450085515" lon="-3.371103871969">
        <ele>3253.4</ele>
        <time>2019-01-08T13:05:48Z</time>
      </trkpt>
      <trkpt lat="37.05138847855" lon="-3.371161539441">
        <ele>3252.4</ele>
        <time>2019-01-08T13:05:49Z</time>
      </trkpt>
      <trkpt lat="37.051317651495" lon="-3.371200263819">
        <ele>3251.2</ele>
        <time>2019-01-08T13:05:50Z</time>
      </trkpt>
      <trkpt lat="37.051244226051" lon="-3.371217027619">
        <ele>3250</ele>
        <time>2019-01-08T13:05:51Z</time>
      </trkpt>
      <trkpt lat="37.051177170851" lon="-3.371251058133">
        <ele>3248.6</ele>
        <time>2019-01-08T13:05:52Z</time>
      </trkpt>
      <trkpt lat="37.051130986582" lon="-3.371304869931">
        <ele>3247</ele>
        <time>2019-01-08T13:05:53Z</time>
      </trkpt>
      <trkpt lat="37.051097123706" lon="-3.371356334797">
        <ele>3245.2</ele>
        <time>2019-01-08T13:05:54Z</time>
      </trkpt>
      <trkpt lat="37.051049179238" lon="-3.371380307031">
        <ele>3243.6</ele>
        <time>2019-01-08T13:05:55Z</time>
      </trkpt>
      <trkpt lat="37.050986231169" lon="-3.3713929637">
        <ele>3242.2</ele>
        <time>2019-01-08T13:05:56Z</time>
      </trkpt>
      <trkpt lat="37.050927641688" lon="-3.371420372513">
        <ele>3240.8</ele>
        <time>2019-01-08T13:05:57Z</time>
      </trkpt>
      <trkpt lat="37.050868130198" lon="-3.371460605633">
        <ele>3239.2</ele>
        <time>2019-01-08T13:05:58Z</time>
      </trkpt>
      <trkpt lat="37.050801326455" lon="-3.37148432641">
        <ele>3237.6</ele>
        <time>2019-01-08T13:05:59Z</time>
      </trkpt>
      <trkpt lat="37.050730583219" lon="-3.37150444297">
        <ele>3236</ele>
        <time>2019-01-08T13:06:00Z</time>
      </trkpt>
      <trkpt lat="37.05066260601" lon="-3.371543167348">
        <ele>3234.4</ele>
        <time>2019-01-08T13:06:01Z</time>
      </trkpt>
      <trkpt lat="37.050596640457" lon="-3.371575856758">
        <ele>3232.4</ele>
        <time>2019-01-08T13:06:02Z</time>
      </trkpt>
      <trkpt lat="37.05051759914" lon="-3.371579628613">
        <ele>3230</ele>
        <time>2019-01-08T13:06:03Z</time>
      </trkpt>
      <trkpt lat="37.05042288367" lon="-3.371579209518">
        <ele>3227.6</ele>
        <time>2019-01-08T13:06:04Z</time>
      </trkpt>
      <trkpt lat="37.050319534843" lon="-3.371566636668">
        <ele>3225.4</ele>
        <time>2019-01-08T13:06:05Z</time>
      </trkpt>
      <trkpt lat="37.050223645907" lon="-3.371515171802">
        <ele>3223.4</ele>
        <time>2019-01-08T13:06:06Z</time>
      </trkpt>
      <trkpt lat="37.050133372844" lon="-3.371460521814">
        <ele>3221.4</ele>
        <time>2019-01-08T13:06:07Z</time>
      </trkpt>
      <trkpt lat="37.05004988912" lon="-3.371448368059">
        <ele>3219.6</ele>
        <time>2019-01-08T13:06:08Z</time>
      </trkpt>
      <trkpt lat="37.049982666282" lon="-3.371476279786">
        <ele>3218</ele>
        <time>2019-01-08T13:06:09Z</time>
      </trkpt>
      <trkpt lat="37.049928854484" lon="-3.371500838753">
        <ele>3216.6</ele>
        <time>2019-01-08T13:06:10Z</time>
      </trkpt>
      <trkpt lat="37.0498755456" lon="-3.371525732996">
        <ele>3215.6</ele>
        <time>2019-01-08T13:06:11Z</time>
      </trkpt>
      <trkpt lat="37.049825505657" lon="-3.371568061591">
        <ele>3214.6</ele>
        <time>2019-01-08T13:06:12Z</time>
      </trkpt>
      <trkpt lat="37.049766161805" lon="-3.371608462349">
        <ele>3213.6</ele>
        <time>2019-01-08T13:06:13Z</time>
      </trkpt>
      <trkpt lat="37.049700615347" lon="-3.371650371849">
        <ele>3212.6</ele>
        <time>2019-01-08T13:06:14Z</time>
      </trkpt>
      <trkpt lat="37.049626938446" lon="-3.371693119539">
        <ele>3211.4</ele>
        <time>2019-01-08T13:06:15Z</time>
      </trkpt>
      <trkpt lat="37.049547645672" lon="-3.371738717075">
        <ele>3209.8</ele>
        <time>2019-01-08T13:06:16Z</time>
      </trkpt>
      <trkpt lat="37.049473884952" lon="-3.371801413687">
        <ele>3207.4</ele>
        <time>2019-01-08T13:06:17Z</time>
      </trkpt>
      <trkpt lat="37.049392077608" lon="-3.371858410607">
        <ele>3204.8</ele>
        <time>2019-01-08T13:06:18Z</time>
      </trkpt>
      <trkpt lat="37.049312784834" lon="-3.371915323708">
        <ele>3202.2</ele>
        <time>2019-01-08T13:06:19Z</time>
      </trkpt>
      <trkpt lat="37.049242628331" lon="-3.371976930673">
        <ele>3199.8</ele>
        <time>2019-01-08T13:06:20Z</time>
      </trkpt>
      <trkpt lat="37.049169286706" lon="-3.372032586489">
        <ele>3197.6</ele>
        <time>2019-01-08T13:06:21Z</time>
      </trkpt>
      <trkpt lat="37.049106422456" lon="-3.372099054956">
        <ele>3195.8</ele>
        <time>2019-01-08T13:06:22Z</time>
      </trkpt>
      <trkpt lat="37.04907842691" lon="-3.372187986915">
        <ele>3193.8</ele>
        <time>2019-01-08T13:06:23Z</time>
      </trkpt>
      <trkpt lat="37.04906333949" lon="-3.372274991037">
        <ele>3191.8</ele>
        <time>2019-01-08T13:06:24Z</time>
      </trkpt>
      <trkpt lat="37.04903819379" lon="-3.372367359575">
        <ele>3189.8</ele>
        <time>2019-01-08T13:06:25Z</time>
      </trkpt>
      <trkpt lat="37.049028303148" lon="-3.372456878267">
        <ele>3187.8</ele>
        <time>2019-01-08T13:06:26Z</time>
      </trkpt>
      <trkpt lat="37.049054706133" lon="-3.372525274571">
        <ele>3185.8</ele>
        <time>2019-01-08T13:06:27Z</time>
      </trkpt>
      <trkpt lat="37.049096364176" lon="-3.372569447184">
        <ele>3183</ele>
        <time>2019-01-08T13:06:28Z</time>
      </trkpt>
      <trkpt lat="37.049129640319" lon="-3.372597945644">
        <ele>3179.8</ele>
        <time>2019-01-08T13:06:29Z</time>
      </trkpt>
      <trkpt lat="37.049149337784" lon="-3.37263516128">
        <ele>3177.4</ele>
        <time>2019-01-08T13:06:30Z</time>
      </trkpt>
      <trkpt lat="37.049169873439" lon="-3.372669862346">
        <ele>3175.6</ele>
        <time>2019-01-08T13:06:31Z</time>
      </trkpt>
      <trkpt lat="37.049190576732" lon="-3.37270724562">
        <ele>3174</ele>
        <time>2019-01-08T13:06:32Z</time>
      </trkpt>
      <trkpt lat="37.049188313619" lon="-3.372758878124">
        <ele>3172.6</ele>
        <time>2019-01-08T13:06:33Z</time>
      </trkpt>
      <trkpt lat="37.049195270596" lon="-3.372805984402">
        <ele>3171.2</ele>
        <time>2019-01-08T13:06:34Z</time>
      </trkpt>
      <trkpt lat="37.049207172894" lon="-3.372843451495">
        <ele>3169.6</ele>
        <time>2019-01-08T13:06:35Z</time>
      </trkpt>
      <trkpt lat="37.049233408241" lon="-3.372872788145">
        <ele>3167.8</ele>
        <time>2019-01-08T13:06:36Z</time>
      </trkpt>
      <trkpt lat="37.049250674955" lon="-3.372911177247">
        <ele>3165.6</ele>
        <time>2019-01-08T13:06:37Z</time>
      </trkpt>
      <trkpt lat="37.049293338826" lon="-3.372943363743">
        <ele>3163.6</ele>
        <time>2019-01-08T13:06:38Z</time>
      </trkpt>
      <trkpt lat="37.049335667421" lon="-3.372980327922">
        <ele>3161.2</ele>
        <time>2019-01-08T13:06:39Z</time>
      </trkpt>
      <trkpt lat="37.049377157826" lon="-3.373010754219">
        <ele>3159.2</ele>
        <time>2019-01-08T13:06:40Z</time>
      </trkpt>
      <trkpt lat="37.049405656286" lon="-3.373057860497">
        <ele>3156.8</ele>
        <time>2019-01-08T13:06:41Z</time>
      </trkpt>
      <trkpt lat="37.049436082583" lon="-3.37310706225">
        <ele>3154.4</ele>
        <time>2019-01-08T13:06:42Z</time>
      </trkpt>
      <trkpt lat="37.049474387866" lon="-3.373151151044">
        <ele>3152</ele>
        <time>2019-01-08T13:06:43Z</time>
      </trkpt>
      <trkpt lat="37.049536162469" lon="-3.373172776346">
        <ele>3149.6</ele>
        <time>2019-01-08T13:06:44Z</time>
      </trkpt>
      <trkpt lat="37.049589806629" lon="-3.373185349196">
        <ele>3147.2</ele>
        <time>2019-01-08T13:06:45Z</time>
      </trkpt>
      <trkpt lat="37.049644288979" lon="-3.373223067746">
        <ele>3144.8</ele>
        <time>2019-01-08T13:06:46Z</time>
      </trkpt>
      <trkpt lat="37.049698352234" lon="-3.373292972792">
        <ele>3142.8</ele>
        <time>2019-01-08T13:06:47Z</time>
      </trkpt>
      <trkpt lat="37.049737160431" lon="-3.373351226997">
        <ele>3140.6</ele>
        <time>2019-01-08T13:06:48Z</time>
      </trkpt>
      <trkpt lat="37.049753002222" lon="-3.373409984116">
        <ele>3138.6</ele>
        <time>2019-01-08T13:06:49Z</time>
      </trkpt>
      <trkpt lat="37.049763898692" lon="-3.373461784258">
        <ele>3136.4</ele>
        <time>2019-01-08T13:06:50Z</time>
      </trkpt>
      <trkpt lat="37.049783512338" lon="-3.373515344599">
        <ele>3134.6</ele>
        <time>2019-01-08T13:06:51Z</time>
      </trkpt>
      <trkpt lat="37.049812094617" lon="-3.373562702334">
        <ele>3132.6</ele>
        <time>2019-01-08T13:06:52Z</time>
      </trkpt>
      <trkpt lat="37.049819219232" lon="-3.373615089209">
        <ele>3130.6</ele>
        <time>2019-01-08T13:06:53Z</time>
      </trkpt>
      <trkpt lat="37.049820476517" lon="-3.373684994255">
        <ele>3128.8</ele>
        <time>2019-01-08T13:06:54Z</time>
      </trkpt>
      <trkpt lat="37.049830870073" lon="-3.373766047228">
        <ele>3127.2</ele>
        <time>2019-01-08T13:06:55Z</time>
      </trkpt>
      <trkpt lat="37.049816117929" lon="-3.373847770753">
        <ele>3125.2</ele>
        <time>2019-01-08T13:06:56Z</time>
      </trkpt>
      <trkpt lat="37.049787116555" lon="-3.373938965825">
        <ele>3123</ele>
        <time>2019-01-08T13:06:57Z</time>
      </trkpt>
      <trkpt lat="37.049798851215" lon="-3.374009960518">
        <ele>3120.6</ele>
        <time>2019-01-08T13:06:58Z</time>
      </trkpt>
      <trkpt lat="37.049837910869" lon="-3.374065281058">
        <ele>3118.2</ele>
        <time>2019-01-08T13:06:59Z</time>
      </trkpt>
      <trkpt lat="37.049877138161" lon="-3.374112722612">
        <ele>3115.4</ele>
        <time>2019-01-08T13:07:00Z</time>
      </trkpt>
      <trkpt lat="37.049866409329" lon="-3.374186818608">
        <ele>3112.6</ele>
        <time>2019-01-08T13:07:01Z</time>
      </trkpt>
      <trkpt lat="37.049851321909" lon="-3.374258651491">
        <ele>3110.4</ele>
        <time>2019-01-08T13:07:02Z</time>
      </trkpt>
      <trkpt lat="37.049875210324" lon="-3.374321683379">
        <ele>3108.2</ele>
        <time>2019-01-08T13:07:03Z</time>
      </trkpt>
      <trkpt lat="37.049906893906" lon="-3.374372812969">
        <ele>3105.8</ele>
        <time>2019-01-08T13:07:04Z</time>
      </trkpt>
      <trkpt lat="37.049911923046" lon="-3.374442634196">
        <ele>3103.2</ele>
        <time>2019-01-08T13:07:05Z</time>
      </trkpt>
      <trkpt lat="37.049929608855" lon="-3.374502816238">
        <ele>3100.6</ele>
        <time>2019-01-08T13:07:06Z</time>
      </trkpt>
      <trkpt lat="37.049957185306" lon="-3.374555873665">
        <ele>3098.2</ele>
        <time>2019-01-08T13:07:07Z</time>
      </trkpt>
      <trkpt lat="37.049984091205" lon="-3.374603482857">
        <ele>3096</ele>
        <time>2019-01-08T13:07:08Z</time>
      </trkpt>
      <trkpt lat="37.049999765358" lon="-3.37467112479">
        <ele>3094</ele>
        <time>2019-01-08T13:07:09Z</time>
      </trkpt>
      <trkpt lat="37.050032790044" lon="-3.374731725927">
        <ele>3091.8</ele>
        <time>2019-01-08T13:07:10Z</time>
      </trkpt>
      <trkpt lat="37.050061791418" lon="-3.374798613489">
        <ele>3089</ele>
        <time>2019-01-08T13:07:11Z</time>
      </trkpt>
      <trkpt lat="37.050103784737" lon="-3.374860304273">
        <ele>3085.4</ele>
        <time>2019-01-08T13:07:12Z</time>
      </trkpt>
      <trkpt lat="37.050112585732" lon="-3.374922414152">
        <ele>3082.4</ele>
        <time>2019-01-08T13:07:13Z</time>
      </trkpt>
      <trkpt lat="37.050102359814" lon="-3.374995839596">
        <ele>3079.6</ele>
        <time>2019-01-08T13:07:14Z</time>
      </trkpt>
      <trkpt lat="37.05010688604" lon="-3.375081754071">
        <ele>3077.4</ele>
        <time>2019-01-08T13:07:15Z</time>
      </trkpt>
      <trkpt lat="37.050112418094" lon="-3.375159119008">
        <ele>3074.8</ele>
        <time>2019-01-08T13:07:16Z</time>
      </trkpt>
      <trkpt lat="37.050087942946" lon="-3.37525785779">
        <ele>3071.8</ele>
        <time>2019-01-08T13:07:17Z</time>
      </trkpt>
      <trkpt lat="37.050079980141" lon="-3.375354082002">
        <ele>3068.8</ele>
        <time>2019-01-08T13:07:18Z</time>
      </trkpt>
      <trkpt lat="37.050105461117" lon="-3.37544896511">
        <ele>3066</ele>
        <time>2019-01-08T13:07:19Z</time>
      </trkpt>
      <trkpt lat="37.050128930437" lon="-3.375537561793">
        <ele>3063</ele>
        <time>2019-01-08T13:07:20Z</time>
      </trkpt>
      <trkpt lat="37.050135468319" lon="-3.375626829028">
        <ele>3059.6</ele>
        <time>2019-01-08T13:07:21Z</time>
      </trkpt>
      <trkpt lat="37.050152818852" lon="-3.375727411828">
        <ele>3056.6</ele>
        <time>2019-01-08T13:07:22Z</time>
      </trkpt>
      <trkpt lat="37.050179221837" lon="-3.375822546393">
        <ele>3053.8</ele>
        <time>2019-01-08T13:07:23Z</time>
      </trkpt>
      <trkpt lat="37.050178635104" lon="-3.375907371221">
        <ele>3050.8</ele>
        <time>2019-01-08T13:07:24Z</time>
      </trkpt>
      <trkpt lat="37.050153154128" lon="-3.376007283469">
        <ele>3047.8</ele>
        <time>2019-01-08T13:07:25Z</time>
      </trkpt>
      <trkpt lat="37.050154579051" lon="-3.376107363355">
        <ele>3045.2</ele>
        <time>2019-01-08T13:07:26Z</time>
      </trkpt>
      <trkpt lat="37.050181568769" lon="-3.376198223151">
        <ele>3042.6</ele>
        <time>2019-01-08T13:07:27Z</time>
      </trkpt>
      <trkpt lat="37.050196237094" lon="-3.376294112087">
        <ele>3039.8</ele>
        <time>2019-01-08T13:07:28Z</time>
      </trkpt>
      <trkpt lat="37.050223142993" lon="-3.376357227794">
        <ele>3037.4</ele>
        <time>2019-01-08T13:07:29Z</time>
      </trkpt>
      <trkpt lat="37.050264046665" lon="-3.376402992968">
        <ele>3035.4</ele>
        <time>2019-01-08T13:07:30Z</time>
      </trkpt>
      <trkpt lat="37.050309644201" lon="-3.376444064278">
        <ele>3033.8</ele>
        <time>2019-01-08T13:07:31Z</time>
      </trkpt>
      <trkpt lat="37.050329593123" lon="-3.376499468637">
        <ele>3032.2</ele>
        <time>2019-01-08T13:07:32Z</time>
      </trkpt>
      <trkpt lat="37.050348452398" lon="-3.376578174678">
        <ele>3030.6</ele>
        <time>2019-01-08T13:07:33Z</time>
      </trkpt>
      <trkpt lat="37.050380052161" lon="-3.376653695597">
        <ele>3029.2</ele>
        <time>2019-01-08T13:07:34Z</time>
      </trkpt>
      <trkpt lat="37.050424057136" lon="-3.376722008082">
        <ele>3027.6</ele>
        <time>2019-01-08T13:07:35Z</time>
      </trkpt>
      <trkpt lat="37.05045138213" lon="-3.376803983064">
        <ele>3025.4</ele>
        <time>2019-01-08T13:07:36Z</time>
      </trkpt>
      <trkpt lat="37.050490693241" lon="-3.376880090716">
        <ele>3023.2</ele>
        <time>2019-01-08T13:07:37Z</time>
      </trkpt>
      <trkpt lat="37.050525729583" lon="-3.376956282187">
        <ele>3021</ele>
        <time>2019-01-08T13:07:38Z</time>
      </trkpt>
      <trkpt lat="37.050551462016" lon="-3.377033563305">
        <ele>3018.8</ele>
        <time>2019-01-08T13:07:39Z</time>
      </trkpt>
      <trkpt lat="37.05056956692" lon="-3.377131128621">
        <ele>3016.4</ele>
        <time>2019-01-08T13:07:40Z</time>
      </trkpt>
      <trkpt lat="37.050615415913" lon="-3.37722257515">
        <ele>3013.8</ele>
        <time>2019-01-08T13:07:41Z</time>
      </trkpt>
      <trkpt lat="37.050662354553" lon="-3.377308741082">
        <ele>3011.4</ele>
        <time>2019-01-08T13:07:42Z</time>
      </trkpt>
      <trkpt lat="37.050706359528" lon="-3.37739272772">
        <ele>3008.2</ele>
        <time>2019-01-08T13:07:43Z</time>
      </trkpt>
      <trkpt lat="37.050731840504" lon="-3.377496998556">
        <ele>3004.8</ele>
        <time>2019-01-08T13:07:44Z</time>
      </trkpt>
      <trkpt lat="37.05074642501" lon="-3.377621972685">
        <ele>3001.6</ele>
        <time>2019-01-08T13:07:45Z</time>
      </trkpt>
      <trkpt lat="37.050769223778" lon="-3.377755496352">
        <ele>2998.4</ele>
        <time>2019-01-08T13:07:46Z</time>
      </trkpt>
      <trkpt lat="37.050778611506" lon="-3.377896815186">
        <ele>2995</ele>
        <time>2019-01-08T13:07:47Z</time>
      </trkpt>
      <trkpt lat="37.050767463579" lon="-3.378052634707">
        <ele>2991.8</ele>
        <time>2019-01-08T13:07:48Z</time>
      </trkpt>
      <trkpt lat="37.050769559054" lon="-3.378211974626">
        <ele>2988.8</ele>
        <time>2019-01-08T13:07:49Z</time>
      </trkpt>
      <trkpt lat="37.050837536263" lon="-3.378349437786">
        <ele>2985.8</ele>
        <time>2019-01-08T13:07:50Z</time>
      </trkpt>
      <trkpt lat="37.050916158485" lon="-3.378479189598">
        <ele>2982.6</ele>
        <time>2019-01-08T13:07:51Z</time>
      </trkpt>
      <trkpt lat="37.05098028002" lon="-3.378622100993">
        <ele>2979.6</ele>
        <time>2019-01-08T13:07:52Z</time>
      </trkpt>
      <trkpt lat="37.051017328018" lon="-3.378781357093">
        <ele>2977</ele>
        <time>2019-01-08T13:07:53Z</time>
      </trkpt>
      <trkpt lat="37.051067870875" lon="-3.378919490805">
        <ele>2975</ele>
        <time>2019-01-08T13:07:54Z</time>
      </trkpt>
      <trkpt lat="37.051137608283" lon="-3.379045973676">
        <ele>2973.2</ele>
        <time>2019-01-08T13:07:55Z</time>
      </trkpt>
      <trkpt lat="37.051203573836" lon="-3.3791713669">
        <ele>2971.2</ele>
        <time>2019-01-08T13:07:56Z</time>
      </trkpt>
      <trkpt lat="37.05124682444" lon="-3.379329868629">
        <ele>2969.4</ele>
        <time>2019-01-08T13:07:57Z</time>
      </trkpt>
      <trkpt lat="37.051285297361" lon="-3.379502954864">
        <ele>2967.4</ele>
        <time>2019-01-08T13:07:58Z</time>
      </trkpt>
      <trkpt lat="37.051346652869" lon="-3.379655673082">
        <ele>2965.2</ele>
        <time>2019-01-08T13:07:59Z</time>
      </trkpt>
      <trkpt lat="37.051436087742" lon="-3.379781485401">
        <ele>2962.4</ele>
        <time>2019-01-08T13:08:00Z</time>
      </trkpt>
      <trkpt lat="37.051525354977" lon="-3.379894976327">
        <ele>2959.6</ele>
        <time>2019-01-08T13:08:01Z</time>
      </trkpt>
      <trkpt lat="37.051599786249" lon="-3.380009724538">
        <ele>2957.4</ele>
        <time>2019-01-08T13:08:02Z</time>
      </trkpt>
      <trkpt lat="37.051656866988" lon="-3.380132435554">
        <ele>2955.6</ele>
        <time>2019-01-08T13:08:03Z</time>
      </trkpt>
      <trkpt lat="37.051657788997" lon="-3.380247267584">
        <ele>2954.6</ele>
        <time>2019-01-08T13:08:04Z</time>
      </trkpt>
      <trkpt lat="37.051725179473" lon="-3.380355645551">
        <ele>2953.2</ele>
        <time>2019-01-08T13:08:06Z</time>
      </trkpt>
      <trkpt lat="37.051776811977" lon="-3.380452288858">
        <ele>2951.6</ele>
        <time>2019-01-08T13:08:08Z</time>
      </trkpt>
      <trkpt lat="37.051807070636" lon="-3.380501406792">
        <ele>2950.6</ele>
        <time>2019-01-08T13:08:09Z</time>
      </trkpt>
      <trkpt lat="37.051840095322" lon="-3.380554799495">
        <ele>2949.6</ele>
        <time>2019-01-08T13:08:10Z</time>
      </trkpt>
      <trkpt lat="37.051836155829" lon="-3.380607856922">
        <ele>2948.4</ele>
        <time>2019-01-08T13:08:11Z</time>
      </trkpt>
      <trkpt lat="37.051865073384" lon="-3.380628308758">
        <ele>2947</ele>
        <time>2019-01-08T13:08:12Z</time>
      </trkpt>
      <trkpt lat="37.051899187717" lon="-3.380643312359">
        <ele>2945.8</ele>
        <time>2019-01-08T13:08:13Z</time>
      </trkpt>
      <trkpt lat="37.051925171607" lon="-3.380676588502">
        <ele>2944.6</ele>
        <time>2019-01-08T13:08:14Z</time>
      </trkpt>
      <trkpt lat="37.051935062249" lon="-3.380730316481">
        <ele>2943.6</ele>
        <time>2019-01-08T13:08:15Z</time>
      </trkpt>
      <trkpt lat="37.051967835478" lon="-3.38076811885">
        <ele>2942.2</ele>
        <time>2019-01-08T13:08:16Z</time>
      </trkpt>
      <trkpt lat="37.052005134933" lon="-3.380812794377">
        <ele>2940.8</ele>
        <time>2019-01-08T13:08:17Z</time>
      </trkpt>
      <trkpt lat="37.052026424959" lon="-3.380872808781">
        <ele>2939.4</ele>
        <time>2019-01-08T13:08:18Z</time>
      </trkpt>
      <trkpt lat="37.052062131853" lon="-3.380914383005">
        <ele>2937.8</ele>
        <time>2019-01-08T13:08:19Z</time>
      </trkpt>
      <trkpt lat="37.052110914511" lon="-3.380940953628">
        <ele>2936.2</ele>
        <time>2019-01-08T13:08:20Z</time>
      </trkpt>
      <trkpt lat="37.052153159287" lon="-3.381000129842">
        <ele>2934.2</ele>
        <time>2019-01-08T13:08:21Z</time>
      </trkpt>
      <trkpt lat="37.052185513421" lon="-3.381074309657">
        <ele>2932</ele>
        <time>2019-01-08T13:08:22Z</time>
      </trkpt>
      <trkpt lat="37.052260866702" lon="-3.381103646307">
        <ele>2929.6</ele>
        <time>2019-01-08T13:08:23Z</time>
      </trkpt>
      <trkpt lat="37.052335297974" lon="-3.381145555807">
        <ele>2927</ele>
        <time>2019-01-08T13:08:24Z</time>
      </trkpt>
      <trkpt lat="37.052383661537" lon="-3.38122996154">
        <ele>2924.8</ele>
        <time>2019-01-08T13:08:25Z</time>
      </trkpt>
      <trkpt lat="37.052415009843" lon="-3.381333394186">
        <ele>2922.4</ele>
        <time>2019-01-08T13:08:26Z</time>
      </trkpt>
      <trkpt lat="37.05246806727" lon="-3.381419727756">
        <ele>2919.8</ele>
        <time>2019-01-08T13:08:27Z</time>
      </trkpt>
      <trkpt lat="37.052519448317" lon="-3.38150321148">
        <ele>2916.8</ele>
        <time>2019-01-08T13:08:28Z</time>
      </trkpt>
      <trkpt lat="37.052574014486" lon="-3.381597424036">
        <ele>2913</ele>
        <time>2019-01-08T13:08:29Z</time>
      </trkpt>
      <trkpt lat="37.052590778286" lon="-3.381718207215">
        <ele>2909.6</ele>
        <time>2019-01-08T13:08:30Z</time>
      </trkpt>
      <trkpt lat="37.052602848222" lon="-3.381852149977">
        <ele>2906.4</ele>
        <time>2019-01-08T13:08:31Z</time>
      </trkpt>
      <trkpt lat="37.052634531804" lon="-3.381996653933">
        <ele>2903</ele>
        <time>2019-01-08T13:08:32Z</time>
      </trkpt>
      <trkpt lat="37.052686331946" lon="-3.382126741021">
        <ele>2899.2</ele>
        <time>2019-01-08T13:08:33Z</time>
      </trkpt>
      <trkpt lat="37.052737796812" lon="-3.382260013231">
        <ele>2894.8</ele>
        <time>2019-01-08T13:08:34Z</time>
      </trkpt>
      <trkpt lat="37.052746262531" lon="-3.382421448625">
        <ele>2891</ele>
        <time>2019-01-08T13:08:35Z</time>
      </trkpt>
      <trkpt lat="37.052768893661" lon="-3.382587996978">
        <ele>2887.8</ele>
        <time>2019-01-08T13:08:36Z</time>
      </trkpt>
      <trkpt lat="37.052798565587" lon="-3.382754796788">
        <ele>2884.8</ele>
        <time>2019-01-08T13:08:37Z</time>
      </trkpt>
      <trkpt lat="37.052842486743" lon="-3.382906760635">
        <ele>2881.2</ele>
        <time>2019-01-08T13:08:38Z</time>
      </trkpt>
      <trkpt lat="37.052899986577" lon="-3.383072386979">
        <ele>2877.4</ele>
        <time>2019-01-08T13:08:39Z</time>
      </trkpt>
      <trkpt lat="37.052982129197" lon="-3.383228793233">
        <ele>2873.2</ele>
        <time>2019-01-08T13:08:40Z</time>
      </trkpt>
      <trkpt lat="37.053052956252" lon="-3.383392156464">
        <ele>2869.4</ele>
        <time>2019-01-08T13:08:41Z</time>
      </trkpt>
      <trkpt lat="37.053148593731" lon="-3.383523584656">
        <ele>2866</ele>
        <time>2019-01-08T13:08:42Z</time>
      </trkpt>
      <trkpt lat="37.053260911191" lon="-3.383639254876">
        <ele>2863</ele>
        <time>2019-01-08T13:08:43Z</time>
      </trkpt>
      <trkpt lat="37.053379682714" lon="-3.383737993658">
        <ele>2859.8</ele>
        <time>2019-01-08T13:08:44Z</time>
      </trkpt>
      <trkpt lat="37.053495185296" lon="-3.383841510123">
        <ele>2856</ele>
        <time>2019-01-08T13:08:45Z</time>
      </trkpt>
      <trkpt lat="37.053595516639" lon="-3.383968495908">
        <ele>2853</ele>
        <time>2019-01-08T13:08:46Z</time>
      </trkpt>
      <trkpt lat="37.053654273758" lon="-3.384108138362">
        <ele>2850.6</ele>
        <time>2019-01-08T13:08:47Z</time>
      </trkpt>
      <trkpt lat="37.05362979861" lon="-3.384221713107">
        <ele>2848.6</ele>
        <time>2019-01-08T13:08:48Z</time>
      </trkpt>
      <trkpt lat="37.053604233815" lon="-3.384311064161">
        <ele>2847.4</ele>
        <time>2019-01-08T13:08:49Z</time>
      </trkpt>
      <trkpt lat="37.053528629077" lon="-3.384333611472">
        <ele>2846.2</ele>
        <time>2019-01-08T13:08:50Z</time>
      </trkpt>
      <trkpt lat="37.053475236374" lon="-3.384364037769">
        <ele>2845</ele>
        <time>2019-01-08T13:08:51Z</time>
      </trkpt>
      <trkpt lat="37.053426286078" lon="-3.384411144047">
        <ele>2844</ele>
        <time>2019-01-08T13:08:52Z</time>
      </trkpt>
      <trkpt lat="37.053386304415" lon="-3.384565203369">
        <ele>2842.4</ele>
        <time>2019-01-08T13:08:54Z</time>
      </trkpt>
      <trkpt lat="37.053344059639" lon="-3.38464977674">
        <ele>2841.2</ele>
        <time>2019-01-08T13:08:55Z</time>
      </trkpt>
      <trkpt lat="37.053279016095" lon="-3.384723202184">
        <ele>2839.8</ele>
        <time>2019-01-08T13:08:56Z</time>
      </trkpt>
      <trkpt lat="37.053217157673" lon="-3.384808027012">
        <ele>2838.2</ele>
        <time>2019-01-08T13:08:57Z</time>
      </trkpt>
      <trkpt lat="37.05315119212" lon="-3.384899054446">
        <ele>2836.2</ele>
        <time>2019-01-08T13:08:58Z</time>
      </trkpt>
      <trkpt lat="37.053073743364" lon="-3.384991925898">
        <ele>2833.6</ele>
        <time>2019-01-08T13:08:59Z</time>
      </trkpt>
      <trkpt lat="37.052984811405" lon="-3.385064345514">
        <ele>2830.8</ele>
        <time>2019-01-08T13:09:00Z</time>
      </trkpt>
      <trkpt lat="37.052902165871" lon="-3.385129472877">
        <ele>2828.2</ele>
        <time>2019-01-08T13:09:01Z</time>
      </trkpt>
      <trkpt lat="37.052829662436" lon="-3.385194935516">
        <ele>2826.6</ele>
        <time>2019-01-08T13:09:02Z</time>
      </trkpt>
      <trkpt lat="37.052787669117" lon="-3.385287555511">
        <ele>2825.4</ele>
        <time>2019-01-08T13:09:03Z</time>
      </trkpt>
      <trkpt lat="37.052745675798" lon="-3.385379588773">
        <ele>2824.4</ele>
        <time>2019-01-08T13:09:04Z</time>
      </trkpt>
      <trkpt lat="37.052701419366" lon="-3.385461396117">
        <ele>2823.6</ele>
        <time>2019-01-08T13:09:05Z</time>
      </trkpt>
      <trkpt lat="37.052682140996" lon="-3.385523086901">
        <ele>2823</ele>
        <time>2019-01-08T13:09:06Z</time>
      </trkpt>
      <trkpt lat="37.052674429648" lon="-3.385553177922">
        <ele>2822.4</ele>
        <time>2019-01-08T13:09:07Z</time>
      </trkpt>
      <trkpt lat="37.052677028037" lon="-3.385570276998">
        <ele>2821.8</ele>
        <time>2019-01-08T13:09:08Z</time>
      </trkpt>
      <trkpt lat="37.052676022209" lon="-3.385603050227">
        <ele>2821.2</ele>
        <time>2019-01-08T13:09:09Z</time>
      </trkpt>
      <trkpt lat="37.052682224815" lon="-3.385648228668">
        <ele>2820.4</ele>
        <time>2019-01-08T13:09:10Z</time>
      </trkpt>
      <trkpt lat="37.052702592832" lon="-3.38570505795">
        <ele>2819.6</ele>
        <time>2019-01-08T13:09:11Z</time>
      </trkpt>
      <trkpt lat="37.052716422967" lon="-3.385760043214">
        <ele>2818.6</ele>
        <time>2019-01-08T13:09:12Z</time>
      </trkpt>
      <trkpt lat="37.05270611323" lon="-3.385835061219">
        <ele>2817</ele>
        <time>2019-01-08T13:09:13Z</time>
      </trkpt>
      <trkpt lat="37.052708208705" lon="-3.385921813884">
        <ele>2814.6</ele>
        <time>2019-01-08T13:09:14Z</time>
      </trkpt>
      <trkpt lat="37.052739389373" lon="-3.386012506042">
        <ele>2812</ele>
        <time>2019-01-08T13:09:15Z</time>
      </trkpt>
      <trkpt lat="37.05277149205" lon="-3.386131361384">
        <ele>2808.8</ele>
        <time>2019-01-08T13:09:16Z</time>
      </trkpt>
      <trkpt lat="37.052789764592" lon="-3.386285672163">
        <ele>2805.2</ele>
        <time>2019-01-08T13:09:17Z</time>
      </trkpt>
      <trkpt lat="37.052814658835" lon="-3.386439396209">
        <ele>2801.4</ele>
        <time>2019-01-08T13:09:18Z</time>
      </trkpt>
      <trkpt lat="37.052852042109" lon="-3.386590605685">
        <ele>2797.4</ele>
        <time>2019-01-08T13:09:19Z</time>
      </trkpt>
      <trkpt lat="37.052877858361" lon="-3.386750029423">
        <ele>2793</ele>
        <time>2019-01-08T13:09:20Z</time>
      </trkpt>
      <trkpt lat="37.05288632408" lon="-3.386909620799">
        <ele>2789</ele>
        <time>2019-01-08T13:09:21Z</time>
      </trkpt>
      <trkpt lat="37.052874757058" lon="-3.387067032881">
        <ele>2785.4</ele>
        <time>2019-01-08T13:09:22Z</time>
      </trkpt>
      <trkpt lat="37.052871739574" lon="-3.38720877081">
        <ele>2782.2</ele>
        <time>2019-01-08T13:09:23Z</time>
      </trkpt>
      <trkpt lat="37.052893113419" lon="-3.387347575074">
        <ele>2779</ele>
        <time>2019-01-08T13:09:24Z</time>
      </trkpt>
      <trkpt lat="37.05293158634" lon="-3.387488474813">
        <ele>2776.6</ele>
        <time>2019-01-08T13:09:25Z</time>
      </trkpt>
      <trkpt lat="37.052995624056" lon="-3.387620825014">
        <ele>2775</ele>
        <time>2019-01-08T13:09:26Z</time>
      </trkpt>
      <trkpt lat="37.053079778332" lon="-3.387758874907">
        <ele>2773.2</ele>
        <time>2019-01-08T13:09:27Z</time>
      </trkpt>
      <trkpt lat="37.053172482146" lon="-3.387879406629">
        <ele>2770.8</ele>
        <time>2019-01-08T13:09:28Z</time>
      </trkpt>
      <trkpt lat="37.053281782122" lon="-3.387974373556">
        <ele>2768.2</ele>
        <time>2019-01-08T13:09:29Z</time>
      </trkpt>
      <trkpt lat="37.053389070442" lon="-3.388057354366">
        <ele>2766.2</ele>
        <time>2019-01-08T13:09:30Z</time>
      </trkpt>
      <trkpt lat="37.053508763974" lon="-3.388103622454">
        <ele>2764.6</ele>
        <time>2019-01-08T13:09:31Z</time>
      </trkpt>
      <trkpt lat="37.053632983732" lon="-3.388089205586">
        <ele>2762.8</ele>
        <time>2019-01-08T13:09:32Z</time>
      </trkpt>
      <trkpt lat="37.053736919292" lon="-3.388056348538">
        <ele>2761.4</ele>
        <time>2019-01-08T13:09:33Z</time>
      </trkpt>
      <trkpt lat="37.053819061912" lon="-3.388068334655">
        <ele>2760.2</ele>
        <time>2019-01-08T13:09:34Z</time>
      </trkpt>
      <trkpt lat="37.053917046323" lon="-3.388193308784">
        <ele>2758.8</ele>
        <time>2019-01-08T13:09:36Z</time>
      </trkpt>
      <trkpt lat="37.053959291099" lon="-3.388243181089">
        <ele>2758.4</ele>
        <time>2019-01-08T13:09:37Z</time>
      </trkpt>
      <trkpt lat="37.054096083707" lon="-3.388319707836">
        <ele>2759.4</ele>
        <time>2019-01-08T13:09:43Z</time>
      </trkpt>
      <trkpt lat="37.054135646275" lon="-3.388335046713">
        <ele>2759.8</ele>
        <time>2019-01-08T13:09:45Z</time>
      </trkpt>
      <trkpt lat="37.054220387284" lon="-3.388362287888">
        <ele>2761</ele>
        <time>2019-01-08T13:09:50Z</time>
      </trkpt>
      <trkpt lat="37.054339326445" lon="-3.388445771612">
        <ele>2761.4</ele>
        <time>2019-01-08T13:09:56Z</time>
      </trkpt>
      <trkpt lat="37.054410237319" lon="-3.388498409944">
        <ele>2761.4</ele>
        <time>2019-01-08T13:09:59Z</time>
      </trkpt>
      <trkpt lat="37.054517106544" lon="-3.388571919207">
        <ele>2761</ele>
        <time>2019-01-08T13:10:04Z</time>
      </trkpt>
      <trkpt lat="37.054591789273" lon="-3.388620115132">
        <ele>2761</ele>
        <time>2019-01-08T13:10:06Z</time>
      </trkpt>
      <trkpt lat="37.05465574317" lon="-3.388709550005">
        <ele>2760.2</ele>
        <time>2019-01-08T13:10:08Z</time>
      </trkpt>
      <trkpt lat="37.05469597629" lon="-3.388719608285">
        <ele>2759.4</ele>
        <time>2019-01-08T13:10:09Z</time>
      </trkpt>
      <trkpt lat="37.054736963781" lon="-3.388729666565">
        <ele>2758.6</ele>
        <time>2019-01-08T13:10:10Z</time>
      </trkpt>
      <trkpt lat="37.05478482443" lon="-3.388746262727">
        <ele>2757.8</ele>
        <time>2019-01-08T13:10:11Z</time>
      </trkpt>
      <trkpt lat="37.054821537152" lon="-3.388760176681">
        <ele>2756.8</ele>
        <time>2019-01-08T13:10:12Z</time>
      </trkpt>
      <trkpt lat="37.054864871575" lon="-3.388786076752">
        <ele>2755.6</ele>
        <time>2019-01-08T13:10:13Z</time>
      </trkpt>
      <trkpt lat="37.054920527391" lon="-3.388813317927">
        <ele>2754.4</ele>
        <time>2019-01-08T13:10:14Z</time>
      </trkpt>
      <trkpt lat="37.054973584818" lon="-3.388835949057">
        <ele>2753</ele>
        <time>2019-01-08T13:10:15Z</time>
      </trkpt>
      <trkpt lat="37.055030330281" lon="-3.388885066991">
        <ele>2751.6</ele>
        <time>2019-01-08T13:10:16Z</time>
      </trkpt>
      <trkpt lat="37.055086991925" lon="-3.388942315368">
        <ele>2750</ele>
        <time>2019-01-08T13:10:17Z</time>
      </trkpt>
      <trkpt lat="37.055138792067" lon="-3.388996881537">
        <ele>2748.4</ele>
        <time>2019-01-08T13:10:18Z</time>
      </trkpt>
      <trkpt lat="37.055200650489" lon="-3.389064774927">
        <ele>2746.8</ele>
        <time>2019-01-08T13:10:19Z</time>
      </trkpt>
      <trkpt lat="37.055257731228" lon="-3.389132752136">
        <ele>2744.6</ele>
        <time>2019-01-08T13:10:20Z</time>
      </trkpt>
      <trkpt lat="37.055301484746" lon="-3.389207602503">
        <ele>2742.2</ele>
        <time>2019-01-08T13:10:21Z</time>
      </trkpt>
      <trkpt lat="37.055342388418" lon="-3.3892799383">
        <ele>2740</ele>
        <time>2019-01-08T13:10:22Z</time>
      </trkpt>
      <trkpt lat="37.055391254895" lon="-3.389317740669">
        <ele>2737.6</ele>
        <time>2019-01-08T13:10:23Z</time>
      </trkpt>
      <trkpt lat="37.055440037553" lon="-3.389322266895">
        <ele>2735.2</ele>
        <time>2019-01-08T13:10:24Z</time>
      </trkpt>
      <trkpt lat="37.055483791071" lon="-3.389345903853">
        <ele>2732.6</ele>
        <time>2019-01-08T13:10:25Z</time>
      </trkpt>
      <trkpt lat="37.055540368896" lon="-3.389370714277">
        <ele>2730.4</ele>
        <time>2019-01-08T13:10:26Z</time>
      </trkpt>
      <trkpt lat="37.055595857074" lon="-3.389361829463">
        <ele>2728.4</ele>
        <time>2019-01-08T13:10:27Z</time>
      </trkpt>
      <trkpt lat="37.055636760746" lon="-3.389372893571">
        <ele>2726.4</ele>
        <time>2019-01-08T13:10:28Z</time>
      </trkpt>
      <trkpt lat="37.055676742409" lon="-3.389422011505">
        <ele>2724.4</ele>
        <time>2019-01-08T13:10:29Z</time>
      </trkpt>
      <trkpt lat="37.055725944162" lon="-3.389452353983">
        <ele>2722.4</ele>
        <time>2019-01-08T13:10:30Z</time>
      </trkpt>
      <trkpt lat="37.055771960793" lon="-3.389481355357">
        <ele>2720.4</ele>
        <time>2019-01-08T13:10:31Z</time>
      </trkpt>
      <trkpt lat="37.055814037931" lon="-3.38952049883">
        <ele>2718.4</ele>
        <time>2019-01-08T13:10:32Z</time>
      </trkpt>
      <trkpt lat="37.055857037078" lon="-3.389539525743">
        <ele>2716</ele>
        <time>2019-01-08T13:10:33Z</time>
      </trkpt>
      <trkpt lat="37.055903724261" lon="-3.389550757489">
        <ele>2713.8</ele>
        <time>2019-01-08T13:10:34Z</time>
      </trkpt>
      <trkpt lat="37.05593733568" lon="-3.389579255949">
        <ele>2711.8</ele>
        <time>2019-01-08T13:10:35Z</time>
      </trkpt>
      <trkpt lat="37.055964493036" lon="-3.38963281629">
        <ele>2709.6</ele>
        <time>2019-01-08T13:10:36Z</time>
      </trkpt>
      <trkpt lat="37.056000786663" lon="-3.389660560379">
        <ele>2707.4</ele>
        <time>2019-01-08T13:10:37Z</time>
      </trkpt>
      <trkpt lat="37.056034817177" lon="-3.389667768813">
        <ele>2705.4</ele>
        <time>2019-01-08T13:10:38Z</time>
      </trkpt>
      <trkpt lat="37.056071948994" lon="-3.389691908685">
        <ele>2702.8</ele>
        <time>2019-01-08T13:10:39Z</time>
      </trkpt>
      <trkpt lat="37.056106314784" lon="-3.389755275849">
        <ele>2700.4</ele>
        <time>2019-01-08T13:10:40Z</time>
      </trkpt>
      <trkpt lat="37.056140932031" lon="-3.38981554171">
        <ele>2698</ele>
        <time>2019-01-08T13:10:41Z</time>
      </trkpt>
      <trkpt lat="37.056169430491" lon="-3.389875975209">
        <ele>2695.6</ele>
        <time>2019-01-08T13:10:42Z</time>
      </trkpt>
      <trkpt lat="37.056219638072" lon="-3.389931463387">
        <ele>2692.6</ele>
        <time>2019-01-08T13:10:43Z</time>
      </trkpt>
      <trkpt lat="37.056284765435" lon="-3.389971612688">
        <ele>2689.4</ele>
        <time>2019-01-08T13:10:44Z</time>
      </trkpt>
      <trkpt lat="37.056352575006" lon="-3.390008995962">
        <ele>2686</ele>
        <time>2019-01-08T13:10:45Z</time>
      </trkpt>
      <trkpt lat="37.056431951599" lon="-3.390063478312">
        <ele>2683</ele>
        <time>2019-01-08T13:10:46Z</time>
      </trkpt>
      <trkpt lat="37.056484170836" lon="-3.390170431356">
        <ele>2680</ele>
        <time>2019-01-08T13:10:47Z</time>
      </trkpt>
      <trkpt lat="37.056533456408" lon="-3.390281659169">
        <ele>2677.2</ele>
        <time>2019-01-08T13:10:48Z</time>
      </trkpt>
      <trkpt lat="37.056587854939" lon="-3.390394982457">
        <ele>2674.4</ele>
        <time>2019-01-08T13:10:49Z</time>
      </trkpt>
      <trkpt lat="37.056656335062" lon="-3.390507551374">
        <ele>2670.8</ele>
        <time>2019-01-08T13:10:50Z</time>
      </trkpt>
      <trkpt lat="37.056728251764" lon="-3.39063445334">
        <ele>2666.8</ele>
        <time>2019-01-08T13:10:51Z</time>
      </trkpt>
      <trkpt lat="37.056798072991" lon="-3.390759427469">
        <ele>2662.6</ele>
        <time>2019-01-08T13:10:52Z</time>
      </trkpt>
      <trkpt lat="37.056858841766" lon="-3.390901584493">
        <ele>2658.4</ele>
        <time>2019-01-08T13:10:53Z</time>
      </trkpt>
      <trkpt lat="37.056914749039" lon="-3.391043909155">
        <ele>2654.6</ele>
        <time>2019-01-08T13:10:54Z</time>
      </trkpt>
      <trkpt lat="37.056981468963" lon="-3.39117005675">
        <ele>2651.8</ele>
        <time>2019-01-08T13:10:55Z</time>
      </trkpt>
      <trkpt lat="37.057071071474" lon="-3.391261922374">
        <ele>2649.2</ele>
        <time>2019-01-08T13:10:56Z</time>
      </trkpt>
      <trkpt lat="37.057162266546" lon="-3.391351021971">
        <ele>2646.6</ele>
        <time>2019-01-08T13:10:57Z</time>
      </trkpt>
      <trkpt lat="37.057257317292" lon="-3.391457807377">
        <ele>2643.6</ele>
        <time>2019-01-08T13:10:58Z</time>
      </trkpt>
      <trkpt lat="37.05735722954" lon="-3.391563084041">
        <ele>2641</ele>
        <time>2019-01-08T13:10:59Z</time>
      </trkpt>
      <trkpt lat="37.057453537571" lon="-3.39167297075">
        <ele>2638.2</ele>
        <time>2019-01-08T13:11:00Z</time>
      </trkpt>
      <trkpt lat="37.057551270525" lon="-3.391779085604">
        <ele>2635.4</ele>
        <time>2019-01-08T13:11:01Z</time>
      </trkpt>
      <trkpt lat="37.057646991823" lon="-3.391876902377">
        <ele>2632.6</ele>
        <time>2019-01-08T13:11:02Z</time>
      </trkpt>
      <trkpt lat="37.057737348705" lon="-3.391982095222">
        <ele>2630.2</ele>
        <time>2019-01-08T13:11:03Z</time>
      </trkpt>
      <trkpt lat="37.057825526293" lon="-3.392092736302">
        <ele>2628</ele>
        <time>2019-01-08T13:11:04Z</time>
      </trkpt>
      <trkpt lat="37.05790959675" lon="-3.392202874468">
        <ele>2626.6</ele>
        <time>2019-01-08T13:11:05Z</time>
      </trkpt>
      <trkpt lat="37.057987799877" lon="-3.392319466697">
        <ele>2625.4</ele>
        <time>2019-01-08T13:11:06Z</time>
      </trkpt>
      <trkpt lat="37.058062314968" lon="-3.392434634003">
        <ele>2624</ele>
        <time>2019-01-08T13:11:07Z</time>
      </trkpt>
      <trkpt lat="37.058130627453" lon="-3.392547873472">
        <ele>2622.8</ele>
        <time>2019-01-08T13:11:08Z</time>
      </trkpt>
      <trkpt lat="37.058191647685" lon="-3.392658346914">
        <ele>2621.6</ele>
        <time>2019-01-08T13:11:09Z</time>
      </trkpt>
      <trkpt lat="37.058311173579" lon="-3.392875941038">
        <ele>2619.8</ele>
        <time>2019-01-08T13:11:11Z</time>
      </trkpt>
      <trkpt lat="37.058418545718" lon="-3.393100827415">
        <ele>2618.8</ele>
        <time>2019-01-08T13:11:13Z</time>
      </trkpt>
      <trkpt lat="37.058516697767" lon="-3.393324037412">
        <ele>2617.6</ele>
        <time>2019-01-08T13:11:15Z</time>
      </trkpt>
      <trkpt lat="37.058572940316" lon="-3.393423698203">
        <ele>2617</ele>
        <time>2019-01-08T13:11:16Z</time>
      </trkpt>
      <trkpt lat="37.058640163154" lon="-3.393496117819">
        <ele>2616.4</ele>
        <time>2019-01-08T13:11:17Z</time>
      </trkpt>
      <trkpt lat="37.058752564433" lon="-3.393597371171">
        <ele>2615.6</ele>
        <time>2019-01-08T13:11:19Z</time>
      </trkpt>
      <trkpt lat="37.058813919941" lon="-3.393690745537">
        <ele>2615.2</ele>
        <time>2019-01-08T13:11:21Z</time>
      </trkpt>
      <trkpt lat="37.058838478908" lon="-3.393758890384">
        <ele>2615.8</ele>
        <time>2019-01-08T13:11:25Z</time>
      </trkpt>
      <trkpt lat="37.065449199619" lon="-3.392299769232">
        <ele>2870.6</ele>
        <time>2019-01-08T13:22:46Z</time>
      </trkpt>
      <trkpt lat="37.065479458278" lon="-3.392418792212">
        <ele>2869.6</ele>
        <time>2019-01-08T13:22:49Z</time>
      </trkpt>
      <trkpt lat="37.065551207342" lon="-3.392436813297">
        <ele>2868.4</ele>
        <time>2019-01-08T13:22:52Z</time>
      </trkpt>
      <trkpt lat="37.065632260315" lon="-3.392472771648">
        <ele>2867.6</ele>
        <time>2019-01-08T13:22:56Z</time>
      </trkpt>
      <trkpt lat="37.065681881163" lon="-3.392599086881">
        <ele>2867.6</ele>
        <time>2019-01-08T13:22:59Z</time>
      </trkpt>
      <trkpt lat="37.065692945271" lon="-3.392655999982">
        <ele>2867.4</ele>
        <time>2019-01-08T13:23:00Z</time>
      </trkpt>
      <trkpt lat="37.065747427621" lon="-3.392874851391">
        <ele>2865.8</ele>
        <time>2019-01-08T13:23:03Z</time>
      </trkpt>
      <trkpt lat="37.065808531672" lon="-3.393033185482">
        <ele>2864.8</ele>
        <time>2019-01-08T13:23:05Z</time>
      </trkpt>
      <trkpt lat="37.065892350672" lon="-3.393184143501">
        <ele>2863.6</ele>
        <time>2019-01-08T13:23:07Z</time>
      </trkpt>
      <trkpt lat="37.065946497746" lon="-3.393249857597">
        <ele>2863</ele>
        <time>2019-01-08T13:23:08Z</time>
      </trkpt>
      <trkpt lat="37.066008439987" lon="-3.393303082662">
        <ele>2862.2</ele>
        <time>2019-01-08T13:23:09Z</time>
      </trkpt>
      <trkpt lat="37.066075411368" lon="-3.393335185339">
        <ele>2861.6</ele>
        <time>2019-01-08T13:23:10Z</time>
      </trkpt>
      <trkpt lat="37.066135006677" lon="-3.393369299672">
        <ele>2860.8</ele>
        <time>2019-01-08T13:23:11Z</time>
      </trkpt>
      <trkpt lat="37.066196026909" lon="-3.393414059018">
        <ele>2860.2</ele>
        <time>2019-01-08T13:23:12Z</time>
      </trkpt>
      <trkpt lat="37.066256628046" lon="-3.393450520283">
        <ele>2859.4</ele>
        <time>2019-01-08T13:23:13Z</time>
      </trkpt>
      <trkpt lat="37.066309182559" lon="-3.39347507925">
        <ele>2859</ele>
        <time>2019-01-08T13:23:14Z</time>
      </trkpt>
      <trkpt lat="37.066356540294" lon="-3.393514390361">
        <ele>2858.4</ele>
        <time>2019-01-08T13:23:15Z</time>
      </trkpt>
      <trkpt lat="37.066406580237" lon="-3.393553114739">
        <ele>2857.8</ele>
        <time>2019-01-08T13:23:16Z</time>
      </trkpt>
      <trkpt lat="37.066462403691" lon="-3.393576919335">
        <ele>2857.2</ele>
        <time>2019-01-08T13:23:17Z</time>
      </trkpt>
      <trkpt lat="37.06652116081" lon="-3.393609608745">
        <ele>2856.6</ele>
        <time>2019-01-08T13:23:18Z</time>
      </trkpt>
      <trkpt lat="37.066587713096" lon="-3.393652356435">
        <ele>2856</ele>
        <time>2019-01-08T13:23:19Z</time>
      </trkpt>
      <trkpt lat="37.06666113854" lon="-3.393689069157">
        <ele>2855.2</ele>
        <time>2019-01-08T13:23:20Z</time>
      </trkpt>
      <trkpt lat="37.066733139061" lon="-3.393724524594">
        <ele>2854</ele>
        <time>2019-01-08T13:23:21Z</time>
      </trkpt>
      <trkpt lat="37.066810671636" lon="-3.393779258401">
        <ele>2852.8</ele>
        <time>2019-01-08T13:23:22Z</time>
      </trkpt>
      <trkpt lat="37.066888707125" lon="-3.393827370507">
        <ele>2851.6</ele>
        <time>2019-01-08T13:23:23Z</time>
      </trkpt>
      <trkpt lat="37.066966826433" lon="-3.393872716586">
        <ele>2850.2</ele>
        <time>2019-01-08T13:23:24Z</time>
      </trkpt>
      <trkpt lat="37.067047879406" lon="-3.393919152312">
        <ele>2849</ele>
        <time>2019-01-08T13:23:25Z</time>
      </trkpt>
      <trkpt lat="37.067133123329" lon="-3.393947483134">
        <ele>2847.6</ele>
        <time>2019-01-08T13:23:26Z</time>
      </trkpt>
      <trkpt lat="37.067222139107" lon="-3.39397883144">
        <ele>2846</ele>
        <time>2019-01-08T13:23:27Z</time>
      </trkpt>
      <trkpt lat="37.06730738303" lon="-3.393992493937">
        <ele>2844.2</ele>
        <time>2019-01-08T13:23:28Z</time>
      </trkpt>
      <trkpt lat="37.067382652492" lon="-3.393989560272">
        <ele>2842.4</ele>
        <time>2019-01-08T13:23:29Z</time>
      </trkpt>
      <trkpt lat="37.067459346877" lon="-3.394009593013">
        <ele>2840.8</ele>
        <time>2019-01-08T13:23:30Z</time>
      </trkpt>
      <trkpt lat="37.067527743181" lon="-3.394011101755">
        <ele>2839.4</ele>
        <time>2019-01-08T13:23:31Z</time>
      </trkpt>
      <trkpt lat="37.067590775069" lon="-3.394001714027">
        <ele>2837.8</ele>
        <time>2019-01-08T13:23:32Z</time>
      </trkpt>
      <trkpt lat="37.06765774645" lon="-3.394003809502">
        <ele>2836</ele>
        <time>2019-01-08T13:23:33Z</time>
      </trkpt>
      <trkpt lat="37.067729579333" lon="-3.394023842243">
        <ele>2834.6</ele>
        <time>2019-01-08T13:23:34Z</time>
      </trkpt>
      <trkpt lat="37.067801160759" lon="-3.394056196377">
        <ele>2833.6</ele>
        <time>2019-01-08T13:23:35Z</time>
      </trkpt>
      <trkpt lat="37.067928314182" lon="-3.394137919902">
        <ele>2831.6</ele>
        <time>2019-01-08T13:23:37Z</time>
      </trkpt>
      <trkpt lat="37.067963601981" lon="-3.394133477495">
        <ele>2830.6</ele>
        <time>2019-01-08T13:23:38Z</time>
      </trkpt>
      <trkpt lat="37.068004086558" lon="-3.394050245228">
        <ele>2828.8</ele>
        <time>2019-01-08T13:23:40Z</time>
      </trkpt>
      <trkpt lat="37.068074494518" lon="-3.393965588038">
        <ele>2826.6</ele>
        <time>2019-01-08T13:23:42Z</time>
      </trkpt>
      <trkpt lat="37.068154457844" lon="-3.393926528384">
        <ele>2825.4</ele>
        <time>2019-01-08T13:23:43Z</time>
      </trkpt>
      <trkpt lat="37.068241042871" lon="-3.393873554776">
        <ele>2824.2</ele>
        <time>2019-01-08T13:23:44Z</time>
      </trkpt>
      <trkpt lat="37.068323185491" lon="-3.393819072426">
        <ele>2822.8</ele>
        <time>2019-01-08T13:23:45Z</time>
      </trkpt>
      <trkpt lat="37.068426785775" lon="-3.39377766584">
        <ele>2820.6</ele>
        <time>2019-01-08T13:23:46Z</time>
      </trkpt>
      <trkpt lat="37.06853281681" lon="-3.393726284793">
        <ele>2817.6</ele>
        <time>2019-01-08T13:23:47Z</time>
      </trkpt>
      <trkpt lat="37.068637674379" lon="-3.393666270389">
        <ele>2814.6</ele>
        <time>2019-01-08T13:23:48Z</time>
      </trkpt>
      <trkpt lat="37.06873901155" lon="-3.39362260069">
        <ele>2811.4</ele>
        <time>2019-01-08T13:23:49Z</time>
      </trkpt>
      <trkpt lat="37.06884965263" lon="-3.393601478302">
        <ele>2808.4</ele>
        <time>2019-01-08T13:23:50Z</time>
      </trkpt>
      <trkpt lat="37.068957108588" lon="-3.39355219273">
        <ele>2805.8</ele>
        <time>2019-01-08T13:23:51Z</time>
      </trkpt>
      <trkpt lat="37.06905836194" lon="-3.393484634616">
        <ele>2804.2</ele>
        <time>2019-01-08T13:23:52Z</time>
      </trkpt>
      <trkpt lat="37.06916565026" lon="-3.393462841676">
        <ele>2803</ele>
        <time>2019-01-08T13:23:53Z</time>
      </trkpt>
      <trkpt lat="37.069274028227" lon="-3.393503661529">
        <ele>2800.8</ele>
        <time>2019-01-08T13:23:54Z</time>
      </trkpt>
      <trkpt lat="37.069384669307" lon="-3.39352201789">
        <ele>2798</ele>
        <time>2019-01-08T13:23:55Z</time>
      </trkpt>
      <trkpt lat="37.069482905175" lon="-3.393465607703">
        <ele>2795</ele>
        <time>2019-01-08T13:23:56Z</time>
      </trkpt>
      <trkpt lat="37.069532358385" lon="-3.393353709338">
        <ele>2792.6</ele>
        <time>2019-01-08T13:23:57Z</time>
      </trkpt>
      <trkpt lat="37.069551133841" lon="-3.393240721326">
        <ele>2790.8</ele>
        <time>2019-01-08T13:23:58Z</time>
      </trkpt>
      <trkpt lat="37.069575273713" lon="-3.393143491286">
        <ele>2788.6</ele>
        <time>2019-01-08T13:23:59Z</time>
      </trkpt>
      <trkpt lat="37.06960234725" lon="-3.393040142459">
        <ele>2786.4</ele>
        <time>2019-01-08T13:24:00Z</time>
      </trkpt>
      <trkpt lat="37.069624726923" lon="-3.392932435044">
        <ele>2784.6</ele>
        <time>2019-01-08T13:24:01Z</time>
      </trkpt>
      <trkpt lat="37.069655907591" lon="-3.392825062905">
        <ele>2782.6</ele>
        <time>2019-01-08T13:24:02Z</time>
      </trkpt>
      <trkpt lat="37.069673509581" lon="-3.392718277499">
        <ele>2780.6</ele>
        <time>2019-01-08T13:24:03Z</time>
      </trkpt>
      <trkpt lat="37.0696819753" lon="-3.392609899532">
        <ele>2778.4</ele>
        <time>2019-01-08T13:24:04Z</time>
      </trkpt>
      <trkpt lat="37.069676024151" lon="-3.392502275936">
        <ele>2776.2</ele>
        <time>2019-01-08T13:24:05Z</time>
      </trkpt>
      <trkpt lat="37.06965096227" lon="-3.392406219362">
        <ele>2773.8</ele>
        <time>2019-01-08T13:24:06Z</time>
      </trkpt>
      <trkpt lat="37.069628414959" lon="-3.392328938244">
        <ele>2771.2</ele>
        <time>2019-01-08T13:24:07Z</time>
      </trkpt>
      <trkpt lat="37.06962581657" lon="-3.392250902755">
        <ele>2769.6</ele>
        <time>2019-01-08T13:24:08Z</time>
      </trkpt>
      <trkpt lat="37.069610310055" lon="-3.392180494795">
        <ele>2768.6</ele>
        <time>2019-01-08T13:24:09Z</time>
      </trkpt>
      <trkpt lat="37.069575692808" lon="-3.392117630545">
        <ele>2767.6</ele>
        <time>2019-01-08T13:24:10Z</time>
      </trkpt>
      <trkpt lat="37.06951182273" lon="-3.392002630877">
        <ele>2765.6</ele>
        <time>2019-01-08T13:24:12Z</time>
      </trkpt>
      <trkpt lat="37.069470416144" lon="-3.391939263713">
        <ele>2765</ele>
        <time>2019-01-08T13:24:13Z</time>
      </trkpt>
      <trkpt lat="37.06942465097" lon="-3.391882769707">
        <ele>2764.2</ele>
        <time>2019-01-08T13:24:14Z</time>
      </trkpt>
      <trkpt lat="37.069373186104" lon="-3.391834489963">
        <ele>2763.4</ele>
        <time>2019-01-08T13:24:15Z</time>
      </trkpt>
      <trkpt lat="37.069317446469" lon="-3.391786294038">
        <ele>2762.4</ele>
        <time>2019-01-08T13:24:16Z</time>
      </trkpt>
      <trkpt lat="37.069192807616" lon="-3.391717478639">
        <ele>2760.8</ele>
        <time>2019-01-08T13:24:18Z</time>
      </trkpt>
      <trkpt lat="37.069050566773" lon="-3.391632821449">
        <ele>2759.8</ele>
        <time>2019-01-08T13:24:20Z</time>
      </trkpt>
      <trkpt lat="37.0689192224" lon="-3.391496280298">
        <ele>2758.4</ele>
        <time>2019-01-08T13:24:22Z</time>
      </trkpt>
      <trkpt lat="37.068810425338" lon="-3.39129913801">
        <ele>2756.6</ele>
        <time>2019-01-08T13:24:24Z</time>
      </trkpt>
      <trkpt lat="37.068748734554" lon="-3.391209535499">
        <ele>2755.6</ele>
        <time>2019-01-08T13:24:25Z</time>
      </trkpt>
      <trkpt lat="37.068692659643" lon="-3.391112054002">
        <ele>2754.2</ele>
        <time>2019-01-08T13:24:26Z</time>
      </trkpt>
      <trkpt lat="37.068641278596" lon="-3.3910066097">
        <ele>2752.6</ele>
        <time>2019-01-08T13:24:27Z</time>
      </trkpt>
      <trkpt lat="37.068594675232" lon="-3.390902087407">
        <ele>2751</ele>
        <time>2019-01-08T13:24:28Z</time>
      </trkpt>
      <trkpt lat="37.06856047708" lon="-3.390795050544">
        <ele>2749.8</ele>
        <time>2019-01-08T13:24:29Z</time>
      </trkpt>
      <trkpt lat="37.068503983074" lon="-3.390573684565">
        <ele>2748.4</ele>
        <time>2019-01-08T13:24:31Z</time>
      </trkpt>
      <trkpt lat="37.068425360852" lon="-3.390370758766">
        <ele>2746.6</ele>
        <time>2019-01-08T13:24:33Z</time>
      </trkpt>
      <trkpt lat="37.068388815768" lon="-3.390268415767">
        <ele>2745.2</ele>
        <time>2019-01-08T13:24:34Z</time>
      </trkpt>
      <trkpt lat="37.068353695607" lon="-3.390163055284">
        <ele>2744.2</ele>
        <time>2019-01-08T13:24:35Z</time>
      </trkpt>
      <trkpt lat="37.0683241075" lon="-3.390051995109">
        <ele>2743.2</ele>
        <time>2019-01-08T13:24:36Z</time>
      </trkpt>
      <trkpt lat="37.068321760568" lon="-3.389930792835">
        <ele>2741.8</ele>
        <time>2019-01-08T13:24:37Z</time>
      </trkpt>
      <trkpt lat="37.068357802738" lon="-3.38980464524">
        <ele>2740.4</ele>
        <time>2019-01-08T13:24:38Z</time>
      </trkpt>
      <trkpt lat="37.068410943984" lon="-3.389678665283">
        <ele>2738.2</ele>
        <time>2019-01-08T13:24:39Z</time>
      </trkpt>
      <trkpt lat="37.068455870968" lon="-3.389549667842">
        <ele>2736.4</ele>
        <time>2019-01-08T13:24:40Z</time>
      </trkpt>
      <trkpt lat="37.068506162368" lon="-3.389425280446">
        <ele>2734.4</ele>
        <time>2019-01-08T13:24:41Z</time>
      </trkpt>
      <trkpt lat="37.068586880065" lon="-3.389320674334">
        <ele>2732</ele>
        <time>2019-01-08T13:24:42Z</time>
      </trkpt>
      <trkpt lat="37.068669777056" lon="-3.389214727118">
        <ele>2729.6</ele>
        <time>2019-01-08T13:24:43Z</time>
      </trkpt>
      <trkpt lat="37.068744795061" lon="-3.389109115178">
        <ele>2727.8</ele>
        <time>2019-01-08T13:24:44Z</time>
      </trkpt>
      <trkpt lat="37.0688270215" lon="-3.38902345216">
        <ele>2726</ele>
        <time>2019-01-08T13:24:45Z</time>
      </trkpt>
      <trkpt lat="37.068906984826" lon="-3.388936112762">
        <ele>2724.4</ele>
        <time>2019-01-08T13:24:46Z</time>
      </trkpt>
      <trkpt lat="37.068978817709" lon="-3.388846761708">
        <ele>2722.8</ele>
        <time>2019-01-08T13:24:47Z</time>
      </trkpt>
      <trkpt lat="37.069039837941" lon="-3.388770402599">
        <ele>2721.4</ele>
        <time>2019-01-08T13:24:48Z</time>
      </trkpt>
      <trkpt lat="37.069112089919" lon="-3.388721536122">
        <ele>2720.4</ele>
        <time>2019-01-08T13:24:49Z</time>
      </trkpt>
      <trkpt lat="37.069192639978" lon="-3.388680045717">
        <ele>2719.4</ele>
        <time>2019-01-08T13:24:50Z</time>
      </trkpt>
      <trkpt lat="37.0693466993" lon="-3.388592119586">
        <ele>2717.4</ele>
        <time>2019-01-08T13:24:52Z</time>
      </trkpt>
      <trkpt lat="37.06942800373" lon="-3.388581055478">
        <ele>2716.2</ele>
        <time>2019-01-08T13:24:53Z</time>
      </trkpt>
      <trkpt lat="37.06951182273" lon="-3.388575774881">
        <ele>2714.8</ele>
        <time>2019-01-08T13:24:54Z</time>
      </trkpt>
      <trkpt lat="37.069589103848" lon="-3.388553898122">
        <ele>2713.6</ele>
        <time>2019-01-08T13:24:55Z</time>
      </trkpt>
      <trkpt lat="37.069668312803" lon="-3.388543588385">
        <ele>2712.6</ele>
        <time>2019-01-08T13:24:56Z</time>
      </trkpt>
      <trkpt lat="37.069835783165" lon="-3.388513413545">
        <ele>2711</ele>
        <time>2019-01-08T13:24:58Z</time>
      </trkpt>
      <trkpt lat="37.070000152224" lon="-3.388442335033">
        <ele>2709</ele>
        <time>2019-01-08T13:25:00Z</time>
      </trkpt>
      <trkpt lat="37.070076259876" lon="-3.38840570613">
        <ele>2708.2</ele>
        <time>2019-01-08T13:25:01Z</time>
      </trkpt>
      <trkpt lat="37.070143231257" lon="-3.388360360051">
        <ele>2707.6</ele>
        <time>2019-01-08T13:25:02Z</time>
      </trkpt>
      <trkpt lat="37.070286813204" lon="-3.388279055621">
        <ele>2706.2</ele>
        <time>2019-01-08T13:25:04Z</time>
      </trkpt>
      <trkpt lat="37.070400220311" lon="-3.388155674053">
        <ele>2704.4</ele>
        <time>2019-01-08T13:25:06Z</time>
      </trkpt>
      <trkpt lat="37.070483787854" lon="-3.387999854532">
        <ele>2702.8</ele>
        <time>2019-01-08T13:25:08Z</time>
      </trkpt>
      <trkpt lat="37.070558386764" lon="-3.387857948965">
        <ele>2702</ele>
        <time>2019-01-08T13:25:10Z</time>
      </trkpt>
      <trkpt lat="37.070665507446" lon="-3.387764909875">
        <ele>2701.6</ele>
        <time>2019-01-08T13:25:12Z</time>
      </trkpt>
      <trkpt lat="37.070812023058" lon="-3.387722413642">
        <ele>2701</ele>
        <time>2019-01-08T13:25:14Z</time>
      </trkpt>
      <trkpt lat="37.070883185389" lon="-3.38767983359">
        <ele>2700</ele>
        <time>2019-01-08T13:25:15Z</time>
      </trkpt>
      <trkpt lat="37.070956946109" lon="-3.387637421176">
        <ele>2698.6</ele>
        <time>2019-01-08T13:25:16Z</time>
      </trkpt>
      <trkpt lat="37.071034227227" lon="-3.387616382607">
        <ele>2697</ele>
        <time>2019-01-08T13:25:17Z</time>
      </trkpt>
      <trkpt lat="37.071110837793" lon="-3.38759433821">
        <ele>2695.8</ele>
        <time>2019-01-08T13:25:18Z</time>
      </trkpt>
      <trkpt lat="37.071244110003" lon="-3.387532395969">
        <ele>2694.4</ele>
        <time>2019-01-08T13:25:20Z</time>
      </trkpt>
      <trkpt lat="37.071379142412" lon="-3.387512614685">
        <ele>2693</ele>
        <time>2019-01-08T13:25:22Z</time>
      </trkpt>
      <trkpt lat="37.071599837839" lon="-3.387480847284">
        <ele>2691.4</ele>
        <time>2019-01-08T13:25:25Z</time>
      </trkpt>
      <trkpt lat="37.071758339568" lon="-3.387531557779">
        <ele>2689.4</ele>
        <time>2019-01-08T13:25:27Z</time>
      </trkpt>
      <trkpt lat="37.071916506021" lon="-3.3875281212">
        <ele>2687.2</ele>
        <time>2019-01-08T13:25:29Z</time>
      </trkpt>
      <trkpt lat="37.07199621789" lon="-3.387547148113">
        <ele>2686</ele>
        <time>2019-01-08T13:25:30Z</time>
      </trkpt>
      <trkpt lat="37.072075175388" lon="-3.387595679314">
        <ele>2684.8</ele>
        <time>2019-01-08T13:25:31Z</time>
      </trkpt>
      <trkpt lat="37.072154132886" lon="-3.387617472254">
        <ele>2684</ele>
        <time>2019-01-08T13:25:32Z</time>
      </trkpt>
      <trkpt lat="37.072233006565" lon="-3.387626357068">
        <ele>2683</ele>
        <time>2019-01-08T13:25:33Z</time>
      </trkpt>
      <trkpt lat="37.072307354018" lon="-3.387650580759">
        <ele>2681.8</ele>
        <time>2019-01-08T13:25:34Z</time>
      </trkpt>
      <trkpt lat="37.07237927072" lon="-3.387699363417">
        <ele>2680.4</ele>
        <time>2019-01-08T13:25:35Z</time>
      </trkpt>
      <trkpt lat="37.072454204906" lon="-3.387738590709">
        <ele>2679.4</ele>
        <time>2019-01-08T13:25:36Z</time>
      </trkpt>
      <trkpt lat="37.072601893984" lon="-3.38781478218">
        <ele>2677.8</ele>
        <time>2019-01-08T13:25:38Z</time>
      </trkpt>
      <trkpt lat="37.072697950558" lon="-3.387916873722">
        <ele>2676</ele>
        <time>2019-01-08T13:25:40Z</time>
      </trkpt>
      <trkpt lat="37.072734244185" lon="-3.387928859839">
        <ele>2675</ele>
        <time>2019-01-08T13:25:41Z</time>
      </trkpt>
      <trkpt lat="37.072762910283" lon="-3.387948305847">
        <ele>2674</ele>
        <time>2019-01-08T13:25:42Z</time>
      </trkpt>
      <trkpt lat="37.07278411649" lon="-3.38798493475">
        <ele>2673</ele>
        <time>2019-01-08T13:25:43Z</time>
      </trkpt>
      <trkpt lat="37.072828875836" lon="-3.388086523378">
        <ele>2671.2</ele>
        <time>2019-01-08T13:25:45Z</time>
      </trkpt>
      <trkpt lat="37.072920406184" lon="-3.388179562468">
        <ele>2669.4</ele>
        <time>2019-01-08T13:25:47Z</time>
      </trkpt>
      <trkpt lat="37.072965416987" lon="-3.38824645003">
        <ele>2668.2</ele>
        <time>2019-01-08T13:25:48Z</time>
      </trkpt>
      <trkpt lat="37.073021240441" lon="-3.388319707836">
        <ele>2666.8</ele>
        <time>2019-01-08T13:25:49Z</time>
      </trkpt>
      <trkpt lat="37.073081757759" lon="-3.388390786348">
        <ele>2665.2</ele>
        <time>2019-01-08T13:25:50Z</time>
      </trkpt>
      <trkpt lat="37.073142275077" lon="-3.388472006959">
        <ele>2663.2</ele>
        <time>2019-01-08T13:25:51Z</time>
      </trkpt>
      <trkpt lat="37.073210922838" lon="-3.388539648892">
        <ele>2661.2</ele>
        <time>2019-01-08T13:25:52Z</time>
      </trkpt>
      <trkpt lat="37.073287533404" lon="-3.388596059079">
        <ele>2659</ele>
        <time>2019-01-08T13:25:53Z</time>
      </trkpt>
      <trkpt lat="37.073377638829" lon="-3.388653055999">
        <ele>2656.4</ele>
        <time>2019-01-08T13:25:54Z</time>
      </trkpt>
      <trkpt lat="37.073465397322" lon="-3.388697228612">
        <ele>2653.4</ele>
        <time>2019-01-08T13:25:55Z</time>
      </trkpt>
      <trkpt lat="37.073552401444" lon="-3.388737713189">
        <ele>2650.4</ele>
        <time>2019-01-08T13:25:56Z</time>
      </trkpt>
      <trkpt lat="37.073616187703" lon="-3.388801583267">
        <ele>2647.8</ele>
        <time>2019-01-08T13:25:57Z</time>
      </trkpt>
      <trkpt lat="37.073666898198" lon="-3.388884396439">
        <ele>2645.4</ele>
        <time>2019-01-08T13:25:58Z</time>
      </trkpt>
      <trkpt lat="37.073708891517" lon="-3.388973579855">
        <ele>2643.8</ele>
        <time>2019-01-08T13:25:59Z</time>
      </trkpt>
      <trkpt lat="37.073754656691" lon="-3.389062511814">
        <ele>2642.4</ele>
        <time>2019-01-08T13:26:00Z</time>
      </trkpt>
      <trkpt lat="37.073794805992" lon="-3.389155802361">
        <ele>2640.6</ele>
        <time>2019-01-08T13:26:01Z</time>
      </trkpt>
      <trkpt lat="37.073817269484" lon="-3.389272143133">
        <ele>2638.8</ele>
        <time>2019-01-08T13:26:02Z</time>
      </trkpt>
      <trkpt lat="37.073849623618" lon="-3.389387394258">
        <ele>2637</ele>
        <time>2019-01-08T13:26:03Z</time>
      </trkpt>
      <trkpt lat="37.073923132881" lon="-3.389473644009">
        <ele>2635.2</ele>
        <time>2019-01-08T13:26:04Z</time>
      </trkpt>
      <trkpt lat="37.074005946053" lon="-3.389564419986">
        <ele>2633</ele>
        <time>2019-01-08T13:26:05Z</time>
      </trkpt>
      <trkpt lat="37.074064703172" lon="-3.389689310296">
        <ele>2630.6</ele>
        <time>2019-01-08T13:26:06Z</time>
      </trkpt>
      <trkpt lat="37.074131758372" lon="-3.389815457891">
        <ele>2628.2</ele>
        <time>2019-01-08T13:26:07Z</time>
      </trkpt>
      <trkpt lat="37.07422328872" lon="-3.389891817">
        <ele>2626</ele>
        <time>2019-01-08T13:26:08Z</time>
      </trkpt>
      <trkpt lat="37.074327978651" lon="-3.389888380421">
        <ele>2623.6</ele>
        <time>2019-01-08T13:26:09Z</time>
      </trkpt>
      <trkpt lat="37.074432165668" lon="-3.389886704041">
        <ele>2620.6</ele>
        <time>2019-01-08T13:26:10Z</time>
      </trkpt>
      <trkpt lat="37.074538112884" lon="-3.389939174735">
        <ele>2617.6</ele>
        <time>2019-01-08T13:26:11Z</time>
      </trkpt>
      <trkpt lat="37.07464992743" lon="-3.389976138914">
        <ele>2614.4</ele>
        <time>2019-01-08T13:26:12Z</time>
      </trkpt>
      <trkpt lat="37.074762412528" lon="-3.389953591603">
        <ele>2612</ele>
        <time>2019-01-08T13:26:13Z</time>
      </trkpt>
      <trkpt lat="37.07486701864" lon="-3.389912185017">
        <ele>2609.8</ele>
        <time>2019-01-08T13:26:14Z</time>
      </trkpt>
      <trkpt lat="37.074969529277" lon="-3.389887290774">
        <ele>2607.8</ele>
        <time>2019-01-08T13:26:15Z</time>
      </trkpt>
      <trkpt lat="37.075079667443" lon="-3.389914615768">
        <ele>2605.6</ele>
        <time>2019-01-08T13:26:16Z</time>
      </trkpt>
      <trkpt lat="37.075186955763" lon="-3.389931044292">
        <ele>2603</ele>
        <time>2019-01-08T13:26:17Z</time>
      </trkpt>
      <trkpt lat="37.075292232427" lon="-3.389925176962">
        <ele>2600.2</ele>
        <time>2019-01-08T13:26:18Z</time>
      </trkpt>
      <trkpt lat="37.075399436928" lon="-3.389948227187">
        <ele>2597.8</ele>
        <time>2019-01-08T13:26:19Z</time>
      </trkpt>
      <trkpt lat="37.075515861519" lon="-3.389968427566">
        <ele>2595.4</ele>
        <time>2019-01-08T13:26:20Z</time>
      </trkpt>
      <trkpt lat="37.075621641097" lon="-3.389938252726">
        <ele>2592.8</ele>
        <time>2019-01-08T13:26:21Z</time>
      </trkpt>
      <trkpt lat="37.075717194757" lon="-3.389880417616">
        <ele>2590</ele>
        <time>2019-01-08T13:26:22Z</time>
      </trkpt>
      <trkpt lat="37.075822303783" lon="-3.389846051826">
        <ele>2587</ele>
        <time>2019-01-08T13:26:23Z</time>
      </trkpt>
      <trkpt lat="37.075940320935" lon="-3.389836664098">
        <ele>2584.2</ele>
        <time>2019-01-08T13:26:24Z</time>
      </trkpt>
      <trkpt lat="37.076056745526" lon="-3.38981302714">
        <ele>2581.8</ele>
        <time>2019-01-08T13:26:25Z</time>
      </trkpt>
      <trkpt lat="37.076180043275" lon="-3.389768854527">
        <ele>2579.8</ele>
        <time>2019-01-08T13:26:26Z</time>
      </trkpt>
      <trkpt lat="37.07631373458" lon="-3.389745720483">
        <ele>2576.6</ele>
        <time>2019-01-08T13:26:27Z</time>
      </trkpt>
      <trkpt lat="37.076443486392" lon="-3.389752426003">
        <ele>2572.8</ele>
        <time>2019-01-08T13:26:28Z</time>
      </trkpt>
      <trkpt lat="37.076568711978" lon="-3.389746139578">
        <ele>2568.8</ele>
        <time>2019-01-08T13:26:29Z</time>
      </trkpt>
      <trkpt lat="37.076675162108" lon="-3.389700206766">
        <ele>2566</ele>
        <time>2019-01-08T13:26:30Z</time>
      </trkpt>
      <trkpt lat="37.076768368836" lon="-3.389635498498">
        <ele>2563.8</ele>
        <time>2019-01-08T13:26:31Z</time>
      </trkpt>
      <trkpt lat="37.076858222804" lon="-3.389576992836">
        <ele>2562</ele>
        <time>2019-01-08T13:26:32Z</time>
      </trkpt>
      <trkpt lat="37.076946316573" lon="-3.389530892386">
        <ele>2560.8</ele>
        <time>2019-01-08T13:26:33Z</time>
      </trkpt>
      <trkpt lat="37.07701949056" lon="-3.389465345928">
        <ele>2559.8</ele>
        <time>2019-01-08T13:26:34Z</time>
      </trkpt>
      <trkpt lat="37.077079085869" lon="-3.389372223019">
        <ele>2558.8</ele>
        <time>2019-01-08T13:26:35Z</time>
      </trkpt>
      <trkpt lat="37.077139435549" lon="-3.389283123422">
        <ele>2557.8</ele>
        <time>2019-01-08T13:26:36Z</time>
      </trkpt>
      <trkpt lat="37.077302631142" lon="-3.389163262252">
        <ele>2556.4</ele>
        <time>2019-01-08T13:26:38Z</time>
      </trkpt>
      <trkpt lat="37.077372955283" lon="-3.389082376917">
        <ele>2555.2</ele>
        <time>2019-01-08T13:26:39Z</time>
      </trkpt>
      <trkpt lat="37.07744110013" lon="-3.389004257609">
        <ele>2553.8</ele>
        <time>2019-01-08T13:26:40Z</time>
      </trkpt>
      <trkpt lat="37.077518129791" lon="-3.388939297884">
        <ele>2552.6</ele>
        <time>2019-01-08T13:26:41Z</time>
      </trkpt>
      <trkpt lat="37.077666321783" lon="-3.388812563556">
        <ele>2550.6</ele>
        <time>2019-01-08T13:26:43Z</time>
      </trkpt>
      <trkpt lat="37.077739914865" lon="-3.388763445622">
        <ele>2549.6</ele>
        <time>2019-01-08T13:26:44Z</time>
      </trkpt>
      <trkpt lat="37.07780236002" lon="-3.388714327688">
        <ele>2548.4</ele>
        <time>2019-01-08T13:26:45Z</time>
      </trkpt>
      <trkpt lat="37.077915599489" lon="-3.388648529773">
        <ele>2546.8</ele>
        <time>2019-01-08T13:26:47Z</time>
      </trkpt>
      <trkpt lat="37.078010566416" lon="-3.388603183694">
        <ele>2545.8</ele>
        <time>2019-01-08T13:26:49Z</time>
      </trkpt>
      <trkpt lat="37.078086254973" lon="-3.388538056331">
        <ele>2545</ele>
        <time>2019-01-08T13:26:51Z</time>
      </trkpt>
      <trkpt lat="37.07814015059" lon="-3.388517520676">
        <ele>2544.6</ele>
        <time>2019-01-08T13:26:52Z</time>
      </trkpt>
      <trkpt lat="37.078204188306" lon="-3.388499080496">
        <ele>2544.4</ele>
        <time>2019-01-08T13:26:53Z</time>
      </trkpt>
      <trkpt lat="37.078354559592" lon="-3.388415093858">
        <ele>2543.4</ele>
        <time>2019-01-08T13:26:55Z</time>
      </trkpt>
      <trkpt lat="37.078440138791" lon="-3.388440993929">
        <ele>2541.6</ele>
        <time>2019-01-08T13:26:56Z</time>
      </trkpt>
      <trkpt lat="37.078517839004" lon="-3.388483406343">
        <ele>2539.2</ele>
        <time>2019-01-08T13:26:57Z</time>
      </trkpt>
      <trkpt lat="37.07859947871" lon="-3.388514084097">
        <ele>2536.2</ele>
        <time>2019-01-08T13:26:58Z</time>
      </trkpt>
      <trkpt lat="37.078663264969" lon="-3.388587928636">
        <ele>2533</ele>
        <time>2019-01-08T13:26:59Z</time>
      </trkpt>
      <trkpt lat="37.078731493635" lon="-3.388669400704">
        <ele>2530</ele>
        <time>2019-01-08T13:27:00Z</time>
      </trkpt>
      <trkpt lat="37.078797962102" lon="-3.388734108972">
        <ele>2527.2</ele>
        <time>2019-01-08T13:27:01Z</time>
      </trkpt>
      <trkpt lat="37.078833417539" lon="-3.388821951284">
        <ele>2524.8</ele>
        <time>2019-01-08T13:27:02Z</time>
      </trkpt>
      <trkpt lat="37.078858311782" lon="-3.388907111388">
        <ele>2522.2</ele>
        <time>2019-01-08T13:27:03Z</time>
      </trkpt>
      <trkpt lat="37.078890665916" lon="-3.389001743039">
        <ele>2519.6</ele>
        <time>2019-01-08T13:27:04Z</time>
      </trkpt>
      <trkpt lat="37.078897455255" lon="-3.389117497078">
        <ele>2517.2</ele>
        <time>2019-01-08T13:27:05Z</time>
      </trkpt>
      <trkpt lat="37.078906507707" lon="-3.38924054337">
        <ele>2515</ele>
        <time>2019-01-08T13:27:06Z</time>
      </trkpt>
      <trkpt lat="37.07892888738" lon="-3.389355040124">
        <ele>2512.2</ele>
        <time>2019-01-08T13:27:07Z</time>
      </trkpt>
      <trkpt lat="37.078941208773" lon="-3.38947439838">
        <ele>2508.8</ele>
        <time>2019-01-08T13:27:08Z</time>
      </trkpt>
      <trkpt lat="37.078953865442" lon="-3.389601719441">
        <ele>2505.2</ele>
        <time>2019-01-08T13:27:09Z</time>
      </trkpt>
      <trkpt lat="37.078972305622" lon="-3.389751168718">
        <ele>2501.8</ele>
        <time>2019-01-08T13:27:10Z</time>
      </trkpt>
      <trkpt lat="37.078987728318" lon="-3.389921824202">
        <ele>2498.4</ele>
        <time>2019-01-08T13:27:11Z</time>
      </trkpt>
      <trkpt lat="37.079010107991" lon="-3.390102873242">
        <ele>2495</ele>
        <time>2019-01-08T13:27:12Z</time>
      </trkpt>
      <trkpt lat="37.079053023319" lon="-3.390279228418">
        <ele>2490.8</ele>
        <time>2019-01-08T13:27:13Z</time>
      </trkpt>
      <trkpt lat="37.079091077145" lon="-3.39046430077">
        <ele>2486.4</ele>
        <time>2019-01-08T13:27:14Z</time>
      </trkpt>
      <trkpt lat="37.079108092402" lon="-3.39064199705">
        <ele>2481.8</ele>
        <time>2019-01-08T13:27:15Z</time>
      </trkpt>
      <trkpt lat="37.079135333577" lon="-3.390800750236">
        <ele>2478.2</ele>
        <time>2019-01-08T13:27:16Z</time>
      </trkpt>
      <trkpt lat="37.079164334951" lon="-3.390945505649">
        <ele>2475.4</ele>
        <time>2019-01-08T13:27:17Z</time>
      </trkpt>
      <trkpt lat="37.079180428199" lon="-3.3910736649">
        <ele>2473.2</ele>
        <time>2019-01-08T13:27:18Z</time>
      </trkpt>
      <trkpt lat="37.079179003276" lon="-3.391154801692">
        <ele>2471.4</ele>
        <time>2019-01-08T13:27:19Z</time>
      </trkpt>
      <trkpt lat="37.079186379348" lon="-3.391234765018">
        <ele>2470.2</ele>
        <time>2019-01-08T13:27:20Z</time>
      </trkpt>
      <trkpt lat="37.079211441229" lon="-3.391373150187">
        <ele>2468.4</ele>
        <time>2019-01-08T13:27:22Z</time>
      </trkpt>
      <trkpt lat="37.079269527796" lon="-3.391489155683">
        <ele>2467.2</ele>
        <time>2019-01-08T13:27:24Z</time>
      </trkpt>
      <trkpt lat="37.07929182365" lon="-3.391606334645">
        <ele>2465.6</ele>
        <time>2019-01-08T13:27:26Z</time>
      </trkpt>
      <trkpt lat="37.079303306853" lon="-3.391670623818">
        <ele>2464.8</ele>
        <time>2019-01-08T13:27:27Z</time>
      </trkpt>
      <trkpt lat="37.079290566365" lon="-3.391747150565">
        <ele>2463.8</ele>
        <time>2019-01-08T13:27:28Z</time>
      </trkpt>
      <trkpt lat="37.079289728175" lon="-3.391829460823">
        <ele>2462.6</ele>
        <time>2019-01-08T13:27:29Z</time>
      </trkpt>
      <trkpt lat="37.079292410383" lon="-3.391916967859">
        <ele>2461.4</ele>
        <time>2019-01-08T13:27:30Z</time>
      </trkpt>
      <trkpt lat="37.079304145043" lon="-3.392003301429">
        <ele>2459.6</ele>
        <time>2019-01-08T13:27:31Z</time>
      </trkpt>
      <trkpt lat="37.079329458381" lon="-3.392088796809">
        <ele>2457.8</ele>
        <time>2019-01-08T13:27:32Z</time>
      </trkpt>
      <trkpt lat="37.079357873022" lon="-3.392171945257">
        <ele>2455.8</ele>
        <time>2019-01-08T13:27:33Z</time>
      </trkpt>
      <trkpt lat="37.079397016495" lon="-3.392252579135">
        <ele>2453.8</ele>
        <time>2019-01-08T13:27:34Z</time>
      </trkpt>
      <trkpt lat="37.079443787497" lon="-3.392331368995">
        <ele>2451.8</ele>
        <time>2019-01-08T13:27:35Z</time>
      </trkpt>
      <trkpt lat="37.079492821612" lon="-3.392406219362">
        <ele>2449.6</ele>
        <time>2019-01-08T13:27:36Z</time>
      </trkpt>
      <trkpt lat="37.079555099129" lon="-3.392489283991">
        <ele>2447.2</ele>
        <time>2019-01-08T13:27:37Z</time>
      </trkpt>
      <trkpt lat="37.079625339451" lon="-3.392572180982">
        <ele>2444.8</ele>
        <time>2019-01-08T13:27:38Z</time>
      </trkpt>
      <trkpt lat="37.079698010524" lon="-3.392641499295">
        <ele>2442.4</ele>
        <time>2019-01-08T13:27:39Z</time>
      </trkpt>
      <trkpt lat="37.079766825923" lon="-3.392723558096">
        <ele>2440</ele>
        <time>2019-01-08T13:27:40Z</time>
      </trkpt>
      <trkpt lat="37.079853997683" lon="-3.392796229169">
        <ele>2437.6</ele>
        <time>2019-01-08T13:27:41Z</time>
      </trkpt>
      <trkpt lat="37.079938403416" lon="-3.392863871102">
        <ele>2435</ele>
        <time>2019-01-08T13:27:42Z</time>
      </trkpt>
      <trkpt lat="37.080028089746" lon="-3.392937212727">
        <ele>2432.4</ele>
        <time>2019-01-08T13:27:43Z</time>
      </trkpt>
      <trkpt lat="37.080131522392" lon="-3.393012146913">
        <ele>2429.8</ele>
        <time>2019-01-08T13:27:44Z</time>
      </trkpt>
      <trkpt lat="37.080241325282" lon="-3.393050536015">
        <ele>2427.4</ele>
        <time>2019-01-08T13:27:45Z</time>
      </trkpt>
      <trkpt lat="37.080354480932" lon="-3.393080459398">
        <ele>2424.6</ele>
        <time>2019-01-08T13:27:46Z</time>
      </trkpt>
      <trkpt lat="37.08044852585" lon="-3.393149358616">
        <ele>2421.8</ele>
        <time>2019-01-08T13:27:47Z</time>
      </trkpt>
      <trkpt lat="37.080546510261" lon="-3.393241391878">
        <ele>2419.2</ele>
        <time>2019-01-08T13:27:48Z</time>
      </trkpt>
      <trkpt lat="37.080655139685" lon="-3.393301154825">
        <ele>2417.2</ele>
        <time>2019-01-08T13:27:49Z</time>
      </trkpt>
      <trkpt lat="37.080778185977" lon="-3.393310542553">
        <ele>2415.2</ele>
        <time>2019-01-08T13:27:50Z</time>
      </trkpt>
      <trkpt lat="37.080888827057" lon="-3.39331079401">
        <ele>2412.2</ele>
        <time>2019-01-08T13:27:51Z</time>
      </trkpt>
      <trkpt lat="37.080972981333" lon="-3.393354044614">
        <ele>2409</ele>
        <time>2019-01-08T13:27:52Z</time>
      </trkpt>
      <trkpt lat="37.0810562136" lon="-3.39340634767">
        <ele>2406.2</ele>
        <time>2019-01-08T13:27:53Z</time>
      </trkpt>
      <trkpt lat="37.081126956836" lon="-3.393456890527">
        <ele>2404.6</ele>
        <time>2019-01-08T13:27:54Z</time>
      </trkpt>
      <trkpt lat="37.081200047004" lon="-3.393499805855">
        <ele>2403</ele>
        <time>2019-01-08T13:27:55Z</time>
      </trkpt>
      <trkpt lat="37.081271963706" lon="-3.39351028323">
        <ele>2401.4</ele>
        <time>2019-01-08T13:27:56Z</time>
      </trkpt>
      <trkpt lat="37.081333235395" lon="-3.393542888821">
        <ele>2399.2</ele>
        <time>2019-01-08T13:27:57Z</time>
      </trkpt>
      <trkpt lat="37.081404733002" lon="-3.393581613199">
        <ele>2397</ele>
        <time>2019-01-08T13:27:58Z</time>
      </trkpt>
      <trkpt lat="37.08147447041" lon="-3.393557389508">
        <ele>2394.6</ele>
        <time>2019-01-08T13:27:59Z</time>
      </trkpt>
      <trkpt lat="37.081555020469" lon="-3.393548504694">
        <ele>2392.2</ele>
        <time>2019-01-08T13:28:00Z</time>
      </trkpt>
      <trkpt lat="37.081624254963" lon="-3.393596700619">
        <ele>2389.4</ele>
        <time>2019-01-08T13:28:01Z</time>
      </trkpt>
      <trkpt lat="37.081697345131" lon="-3.393614889342">
        <ele>2386.8</ele>
        <time>2019-01-08T13:28:02Z</time>
      </trkpt>
      <trkpt lat="37.081774207154" lon="-3.393581948475">
        <ele>2384</ele>
        <time>2019-01-08T13:28:03Z</time>
      </trkpt>
      <trkpt lat="37.081842519639" lon="-3.393558479155">
        <ele>2381.4</ele>
        <time>2019-01-08T13:28:04Z</time>
      </trkpt>
      <trkpt lat="37.081900773844" lon="-3.39359242585">
        <ele>2378.6</ele>
        <time>2019-01-08T13:28:05Z</time>
      </trkpt>
      <trkpt lat="37.081970930347" lon="-3.393607680908">
        <ele>2376.2</ele>
        <time>2019-01-08T13:28:06Z</time>
      </trkpt>
      <trkpt lat="37.082034213692" lon="-3.393587145253">
        <ele>2374.2</ele>
        <time>2019-01-08T13:28:07Z</time>
      </trkpt>
      <trkpt lat="37.0820871873" lon="-3.393561664277">
        <ele>2371.4</ele>
        <time>2019-01-08T13:28:08Z</time>
      </trkpt>
      <trkpt lat="37.0821626244" lon="-3.393592593488">
        <ele>2368.6</ele>
        <time>2019-01-08T13:28:09Z</time>
      </trkpt>
      <trkpt lat="37.082250047617" lon="-3.393622768328">
        <ele>2365.6</ele>
        <time>2019-01-08T13:28:10Z</time>
      </trkpt>
      <trkpt lat="37.082337889929" lon="-3.393611788039">
        <ele>2363.4</ele>
        <time>2019-01-08T13:28:11Z</time>
      </trkpt>
      <trkpt lat="37.082415171047" lon="-3.393602651768">
        <ele>2360.6</ele>
        <time>2019-01-08T13:28:12Z</time>
      </trkpt>
      <trkpt lat="37.082506952852" lon="-3.393616314265">
        <ele>2357.8</ele>
        <time>2019-01-08T13:28:13Z</time>
      </trkpt>
      <trkpt lat="37.082597477372" lon="-3.393616398084">
        <ele>2355</ele>
        <time>2019-01-08T13:28:14Z</time>
      </trkpt>
      <trkpt lat="37.082686996064" lon="-3.393615978989">
        <ele>2352.2</ele>
        <time>2019-01-08T13:28:15Z</time>
      </trkpt>
      <trkpt lat="37.082779951335" lon="-3.393639699766">
        <ele>2349.6</ele>
        <time>2019-01-08T13:28:16Z</time>
      </trkpt>
      <trkpt lat="37.082858825014" lon="-3.393683453284">
        <ele>2346.8</ele>
        <time>2019-01-08T13:28:17Z</time>
      </trkpt>
      <trkpt lat="37.082895705374" lon="-3.393811863992">
        <ele>2344.6</ele>
        <time>2019-01-08T13:28:18Z</time>
      </trkpt>
      <trkpt lat="37.082949517172" lon="-3.39392434909">
        <ele>2342.6</ele>
        <time>2019-01-08T13:28:19Z</time>
      </trkpt>
      <trkpt lat="37.083021936788" lon="-3.394016130895">
        <ele>2341</ele>
        <time>2019-01-08T13:28:20Z</time>
      </trkpt>
      <trkpt lat="37.08312151376" lon="-3.394062566621">
        <ele>2339.4</ele>
        <time>2019-01-08T13:28:21Z</time>
      </trkpt>
      <trkpt lat="37.083217151239" lon="-3.394110091994">
        <ele>2337</ele>
        <time>2019-01-08T13:28:22Z</time>
      </trkpt>
      <trkpt lat="37.083302646619" lon="-3.39417580609">
        <ele>2334.6</ele>
        <time>2019-01-08T13:28:23Z</time>
      </trkpt>
      <trkpt lat="37.08338554361" lon="-3.394276891804">
        <ele>2332</ele>
        <time>2019-01-08T13:28:24Z</time>
      </trkpt>
      <trkpt lat="37.083480426718" lon="-3.39436020789">
        <ele>2329.8</ele>
        <time>2019-01-08T13:28:25Z</time>
      </trkpt>
      <trkpt lat="37.083567514659" lon="-3.394450900048">
        <ele>2327.8</ele>
        <time>2019-01-08T13:28:26Z</time>
      </trkpt>
      <trkpt lat="37.08365124984" lon="-3.394542011301">
        <ele>2325.6</ele>
        <time>2019-01-08T13:28:27Z</time>
      </trkpt>
      <trkpt lat="37.083749234251" lon="-3.394602528619">
        <ele>2323.4</ele>
        <time>2019-01-08T13:28:28Z</time>
      </trkpt>
      <trkpt lat="37.083850655241" lon="-3.394662291566">
        <ele>2321.4</ele>
        <time>2019-01-08T13:28:29Z</time>
      </trkpt>
      <trkpt lat="37.083949896937" lon="-3.394737980123">
        <ele>2319.2</ele>
        <time>2019-01-08T13:28:30Z</time>
      </trkpt>
      <trkpt lat="37.084049054814" lon="-3.394808723359">
        <ele>2316.6</ele>
        <time>2019-01-08T13:28:31Z</time>
      </trkpt>
      <trkpt lat="37.084152403641" lon="-3.394851219592">
        <ele>2314</ele>
        <time>2019-01-08T13:28:32Z</time>
      </trkpt>
      <trkpt lat="37.084251561518" lon="-3.39488826759">
        <ele>2311.8</ele>
        <time>2019-01-08T13:28:33Z</time>
      </trkpt>
      <trkpt lat="37.08435616763" lon="-3.394947611442">
        <ele>2309.2</ele>
        <time>2019-01-08T13:28:34Z</time>
      </trkpt>
      <trkpt lat="37.084449290539" lon="-3.395014163728">
        <ele>2307</ele>
        <time>2019-01-08T13:28:35Z</time>
      </trkpt>
      <trkpt lat="37.084535205014" lon="-3.395093456502">
        <ele>2304.6</ele>
        <time>2019-01-08T13:28:36Z</time>
      </trkpt>
      <trkpt lat="37.084625729534" lon="-3.395175682941">
        <ele>2302.6</ele>
        <time>2019-01-08T13:28:37Z</time>
      </trkpt>
      <trkpt lat="37.084724049221" lon="-3.395248521652">
        <ele>2301</ele>
        <time>2019-01-08T13:28:38Z</time>
      </trkpt>
      <trkpt lat="37.084825134935" lon="-3.395323874933">
        <ele>2298.8</ele>
        <time>2019-01-08T13:28:39Z</time>
      </trkpt>
      <trkpt lat="37.084928819038" lon="-3.395406855743">
        <ele>2296.8</ele>
        <time>2019-01-08T13:28:40Z</time>
      </trkpt>
      <trkpt lat="37.085035772082" lon="-3.395485813241">
        <ele>2294.4</ele>
        <time>2019-01-08T13:28:41Z</time>
      </trkpt>
      <trkpt lat="37.085134091769" lon="-3.395580025797">
        <ele>2292</ele>
        <time>2019-01-08T13:28:42Z</time>
      </trkpt>
      <trkpt lat="37.085234339293" lon="-3.395677423475">
        <ele>2289.6</ele>
        <time>2019-01-08T13:28:43Z</time>
      </trkpt>
      <trkpt lat="37.085338442491" lon="-3.395756967706">
        <ele>2287.2</ele>
        <time>2019-01-08T13:28:44Z</time>
      </trkpt>
      <trkpt lat="37.085432906504" lon="-3.395841457258">
        <ele>2285.2</ele>
        <time>2019-01-08T13:28:45Z</time>
      </trkpt>
      <trkpt lat="37.085528543983" lon="-3.395945895732">
        <ele>2282.8</ele>
        <time>2019-01-08T13:28:46Z</time>
      </trkpt>
      <trkpt lat="37.085619571417" lon="-3.396044550695">
        <ele>2280.4</ele>
        <time>2019-01-08T13:28:47Z</time>
      </trkpt>
      <trkpt lat="37.085714119249" lon="-3.396127615324">
        <ele>2277.6</ele>
        <time>2019-01-08T13:28:48Z</time>
      </trkpt>
      <trkpt lat="37.085792154738" lon="-3.396234316911">
        <ele>2275.2</ele>
        <time>2019-01-08T13:28:49Z</time>
      </trkpt>
      <trkpt lat="37.085885361466" lon="-3.396328361829">
        <ele>2272.6</ele>
        <time>2019-01-08T13:28:50Z</time>
      </trkpt>
      <trkpt lat="37.085983010601" lon="-3.396389382061">
        <ele>2269.8</ele>
        <time>2019-01-08T13:28:51Z</time>
      </trkpt>
      <trkpt lat="37.086087281437" lon="-3.39642466986">
        <ele>2267</ele>
        <time>2019-01-08T13:28:52Z</time>
      </trkpt>
      <trkpt lat="37.086189624436" lon="-3.396472781966">
        <ele>2264.6</ele>
        <time>2019-01-08T13:28:53Z</time>
      </trkpt>
      <trkpt lat="37.086280735689" lon="-3.396524246832">
        <ele>2263</ele>
        <time>2019-01-08T13:28:54Z</time>
      </trkpt>
      <trkpt lat="37.086374948245" lon="-3.396571185472">
        <ele>2261.6</ele>
        <time>2019-01-08T13:28:55Z</time>
      </trkpt>
      <trkpt lat="37.086462874376" lon="-3.396627092745">
        <ele>2259.6</ele>
        <time>2019-01-08T13:28:56Z</time>
      </trkpt>
      <trkpt lat="37.086557170751" lon="-3.396686688054">
        <ele>2257.4</ele>
        <time>2019-01-08T13:28:57Z</time>
      </trkpt>
      <trkpt lat="37.08664945547" lon="-3.396768243941">
        <ele>2254.8</ele>
        <time>2019-01-08T13:28:58Z</time>
      </trkpt>
      <trkpt lat="37.086752971935" lon="-3.39685382314">
        <ele>2252.4</ele>
        <time>2019-01-08T13:28:59Z</time>
      </trkpt>
      <trkpt lat="37.086852381269" lon="-3.396945437307">
        <ele>2250</ele>
        <time>2019-01-08T13:29:00Z</time>
      </trkpt>
      <trkpt lat="37.086949276033" lon="-3.397029507764">
        <ele>2247.8</ele>
        <time>2019-01-08T13:29:01Z</time>
      </trkpt>
      <trkpt lat="37.087051451394" lon="-3.397107124158">
        <ele>2245.6</ele>
        <time>2019-01-08T13:29:02Z</time>
      </trkpt>
      <trkpt lat="37.087175754971" lon="-3.39717317353">
        <ele>2242.4</ele>
        <time>2019-01-08T13:29:03Z</time>
      </trkpt>
      <trkpt lat="37.087297879254" lon="-3.397244754956">
        <ele>2238.8</ele>
        <time>2019-01-08T13:29:04Z</time>
      </trkpt>
      <trkpt lat="37.087421847555" lon="-3.397311223423">
        <ele>2235</ele>
        <time>2019-01-08T13:29:05Z</time>
      </trkpt>
      <trkpt lat="37.087546234951" lon="-3.397375847872">
        <ele>2232.2</ele>
        <time>2019-01-08T13:29:06Z</time>
      </trkpt>
      <trkpt lat="37.087660228791" lon="-3.397450446782">
        <ele>2229.6</ele>
        <time>2019-01-08T13:29:07Z</time>
      </trkpt>
      <trkpt lat="37.087781095789" lon="-3.397520687104">
        <ele>2227.4</ele>
        <time>2019-01-08T13:29:08Z</time>
      </trkpt>
      <trkpt lat="37.087901962787" lon="-3.397593274358">
        <ele>2225.2</ele>
        <time>2019-01-08T13:29:09Z</time>
      </trkpt>
      <trkpt lat="37.088014531704" lon="-3.397668040906">
        <ele>2222.8</ele>
        <time>2019-01-08T13:29:10Z</time>
      </trkpt>
      <trkpt lat="37.088128357906" lon="-3.397741550169">
        <ele>2220.2</ele>
        <time>2019-01-08T13:29:11Z</time>
      </trkpt>
      <trkpt lat="37.0882395019" lon="-3.397801648392">
        <ele>2218</ele>
        <time>2019-01-08T13:29:12Z</time>
      </trkpt>
      <trkpt lat="37.088351484084" lon="-3.397849676679">
        <ele>2216.4</ele>
        <time>2019-01-08T13:29:13Z</time>
      </trkpt>
      <trkpt lat="37.088465477924" lon="-3.397886640858">
        <ele>2215</ele>
        <time>2019-01-08T13:29:14Z</time>
      </trkpt>
      <trkpt lat="37.08857310152" lon="-3.39791748625">
        <ele>2213.6</ele>
        <time>2019-01-08T13:29:15Z</time>
      </trkpt>
      <trkpt lat="37.088683407324" lon="-3.397943218683">
        <ele>2211.6</ele>
        <time>2019-01-08T13:29:16Z</time>
      </trkpt>
      <trkpt lat="37.0887927073" lon="-3.39796107213">
        <ele>2209.8</ele>
        <time>2019-01-08T13:29:17Z</time>
      </trkpt>
      <trkpt lat="37.088898235421" lon="-3.397972974428">
        <ele>2208.2</ele>
        <time>2019-01-08T13:29:18Z</time>
      </trkpt>
      <trkpt lat="37.089006948664" lon="-3.397978003568">
        <ele>2206.8</ele>
        <time>2019-01-08T13:29:19Z</time>
      </trkpt>
      <trkpt lat="37.089113566432" lon="-3.397984122355">
        <ele>2205.2</ele>
        <time>2019-01-08T13:29:20Z</time>
      </trkpt>
      <trkpt lat="37.089217082897" lon="-3.397991582246">
        <ele>2203.8</ele>
        <time>2019-01-08T13:29:21Z</time>
      </trkpt>
      <trkpt lat="37.08932411976" lon="-3.398000802336">
        <ele>2202.2</ele>
        <time>2019-01-08T13:29:22Z</time>
      </trkpt>
      <trkpt lat="37.089430653709" lon="-3.398014967747">
        <ele>2201</ele>
        <time>2019-01-08T13:29:23Z</time>
      </trkpt>
      <trkpt lat="37.089535762735" lon="-3.398030222805">
        <ele>2200</ele>
        <time>2019-01-08T13:29:24Z</time>
      </trkpt>
      <trkpt lat="37.0896392792" lon="-3.398045310225">
        <ele>2198.8</ele>
        <time>2019-01-08T13:29:25Z</time>
      </trkpt>
      <trkpt lat="37.089742544208" lon="-3.398064001862">
        <ele>2197.2</ele>
        <time>2019-01-08T13:29:26Z</time>
      </trkpt>
      <trkpt lat="37.089847401777" lon="-3.398085627164">
        <ele>2195.8</ele>
        <time>2019-01-08T13:29:27Z</time>
      </trkpt>
      <trkpt lat="37.089949158043" lon="-3.398110940502">
        <ele>2194.4</ele>
        <time>2019-01-08T13:29:28Z</time>
      </trkpt>
      <trkpt lat="37.090045298436" lon="-3.39813793022">
        <ele>2193.2</ele>
        <time>2019-01-08T13:29:29Z</time>
      </trkpt>
      <trkpt lat="37.090140600639" lon="-3.398167183051">
        <ele>2192</ele>
        <time>2019-01-08T13:29:30Z</time>
      </trkpt>
      <trkpt lat="37.090235902842" lon="-3.398194759502">
        <ele>2191</ele>
        <time>2019-01-08T13:29:31Z</time>
      </trkpt>
      <trkpt lat="37.090419382633" lon="-3.398252259336">
        <ele>2189.2</ele>
        <time>2019-01-08T13:29:33Z</time>
      </trkpt>
      <trkpt lat="37.090597246551" lon="-3.398311519369">
        <ele>2187.6</ele>
        <time>2019-01-08T13:29:35Z</time>
      </trkpt>
      <trkpt lat="37.090765136008" lon="-3.398382514062">
        <ele>2186.4</ele>
        <time>2019-01-08T13:29:37Z</time>
      </trkpt>
      <trkpt lat="37.090921458443" lon="-3.398479660283">
        <ele>2185.2</ele>
        <time>2019-01-08T13:29:39Z</time>
      </trkpt>
      <trkpt lat="37.091063280191" lon="-3.398576135952">
        <ele>2184</ele>
        <time>2019-01-08T13:29:41Z</time>
      </trkpt>
      <trkpt lat="37.091171825796" lon="-3.398585858956">
        <ele>2182.8</ele>
        <time>2019-01-08T13:29:43Z</time>
      </trkpt>
      <trkpt lat="37.091213651477" lon="-3.398593402666">
        <ele>2182</ele>
        <time>2019-01-08T13:29:44Z</time>
      </trkpt>
      <trkpt lat="37.091257237357" lon="-3.398618799823">
        <ele>2181.2</ele>
        <time>2019-01-08T13:29:45Z</time>
      </trkpt>
      <trkpt lat="37.091307780214" lon="-3.398647801197">
        <ele>2180.6</ele>
        <time>2019-01-08T13:29:46Z</time>
      </trkpt>
      <trkpt lat="37.091367124066" lon="-3.398664062083">
        <ele>2180</ele>
        <time>2019-01-08T13:29:47Z</time>
      </trkpt>
      <trkpt lat="37.091430742687" lon="-3.398664397359">
        <ele>2179.4</ele>
        <time>2019-01-08T13:29:48Z</time>
      </trkpt>
      <trkpt lat="37.091492265833" lon="-3.398652495061">
        <ele>2178.6</ele>
        <time>2019-01-08T13:29:49Z</time>
      </trkpt>
      <trkpt lat="37.091571977702" lon="-3.398622655497">
        <ele>2177.6</ele>
        <time>2019-01-08T13:29:51Z</time>
      </trkpt>
      <trkpt lat="37.091753864932" lon="-3.398597761254">
        <ele>2176.6</ele>
        <time>2019-01-08T13:29:57Z</time>
      </trkpt>
      <trkpt lat="37.09179426569" lon="-3.398608322448">
        <ele>2176.4</ele>
        <time>2019-01-08T13:29:58Z</time>
      </trkpt>
      <trkpt lat="37.091965172631" lon="-3.398642269143">
        <ele>2175.4</ele>
        <time>2019-01-08T13:30:02Z</time>
      </trkpt>
      <trkpt lat="37.092163739842" lon="-3.398688034317">
        <ele>2174.2</ele>
        <time>2019-01-08T13:30:06Z</time>
      </trkpt>
      <trkpt lat="37.092326851616" lon="-3.398703289375">
        <ele>2173.2</ele>
        <time>2019-01-08T13:30:09Z</time>
      </trkpt>
      <trkpt lat="37.092549391061" lon="-3.398702702642">
        <ele>2172</ele>
        <time>2019-01-08T13:30:13Z</time>
      </trkpt>
    </trkseg>
  </trk>
</gpx>